<?xml version="1.0" encoding="UTF-8" standalone="no" ?>
<gpx xmlns="http://www.topografix.com/GPX/1/1" xmlns:xsi="http://www.w3.org/2001/XMLSchema-instance" xsi:schemaLocation="http://www.topografix.com/GPX/1/1 http://www.topografix.com/GPX/1/1/gpx.xsd" version="1.1" creator="VisuGPX - https://www.visugpx.com">
  <metadata>
    <name>Pornichet 13/02/2020</name>
    <desc><![CDATA[Sortie VTT du jeudi 13 février 2020]]></desc>
  </metadata>
  <trk>
    <name><![CDATA[Pornichet Cyclisme]]></name>
    <trkseg>
      <trkpt lat="47.26376" lon="-2.31549">
        <ele>30.200000762939</ele>
        <time>2020-02-13T08:19:31.000Z</time>
      </trkpt>
      <trkpt lat="47.26382" lon="-2.31572">
        <ele>30.200000762939</ele>
        <time>2020-02-13T08:19:35.000Z</time>
      </trkpt>
      <trkpt lat="47.26382" lon="-2.31578">
        <ele>29.200000762939</ele>
        <time>2020-02-13T08:19:36.000Z</time>
      </trkpt>
      <trkpt lat="47.26384" lon="-2.31604">
        <ele>29.200000762939</ele>
        <time>2020-02-13T08:19:41.000Z</time>
      </trkpt>
      <trkpt lat="47.26377" lon="-2.31605">
        <ele>29.200000762939</ele>
        <time>2020-02-13T08:19:44.000Z</time>
      </trkpt>
      <trkpt lat="47.26372" lon="-2.3161">
        <ele>29.200000762939</ele>
        <time>2020-02-13T08:19:47.000Z</time>
      </trkpt>
      <trkpt lat="47.2637" lon="-2.31612">
        <ele>29.200000762939</ele>
        <time>2020-02-13T08:19:48.000Z</time>
      </trkpt>
      <trkpt lat="47.26352" lon="-2.31626">
        <ele>29.200000762939</ele>
        <time>2020-02-13T08:19:55.000Z</time>
      </trkpt>
      <trkpt lat="47.26334" lon="-2.31634">
        <ele>29.200000762939</ele>
        <time>2020-02-13T08:20:01.000Z</time>
      </trkpt>
      <trkpt lat="47.26327" lon="-2.31637">
        <ele>28.60000038147</ele>
        <time>2020-02-13T08:20:03.000Z</time>
      </trkpt>
      <trkpt lat="47.26324" lon="-2.31638">
        <ele>28.200000762939</ele>
        <time>2020-02-13T08:20:04.000Z</time>
      </trkpt>
      <trkpt lat="47.26322" lon="-2.3164">
        <ele>27.799999237061</ele>
        <time>2020-02-13T08:20:05.000Z</time>
      </trkpt>
      <trkpt lat="47.2632" lon="-2.31643">
        <ele>27</ele>
        <time>2020-02-13T08:20:06.000Z</time>
      </trkpt>
      <trkpt lat="47.26311" lon="-2.31656">
        <ele>27</ele>
        <time>2020-02-13T08:20:11.000Z</time>
      </trkpt>
      <trkpt lat="47.26308" lon="-2.31657">
        <ele>27</ele>
        <time>2020-02-13T08:20:12.000Z</time>
      </trkpt>
      <trkpt lat="47.26297" lon="-2.31663">
        <ele>26.60000038147</ele>
        <time>2020-02-13T08:20:16.000Z</time>
      </trkpt>
      <trkpt lat="47.26293" lon="-2.31665">
        <ele>26.200000762939</ele>
        <time>2020-02-13T08:20:17.000Z</time>
      </trkpt>
      <trkpt lat="47.26289" lon="-2.31664">
        <ele>25.799999237061</ele>
        <time>2020-02-13T08:20:18.000Z</time>
      </trkpt>
      <trkpt lat="47.26286" lon="-2.31664">
        <ele>25.39999961853</ele>
        <time>2020-02-13T08:20:19.000Z</time>
      </trkpt>
      <trkpt lat="47.26284" lon="-2.31662">
        <ele>25</ele>
        <time>2020-02-13T08:20:20.000Z</time>
      </trkpt>
      <trkpt lat="47.26276" lon="-2.3165">
        <ele>25</ele>
        <time>2020-02-13T08:20:24.000Z</time>
      </trkpt>
      <trkpt lat="47.26268" lon="-2.31635">
        <ele>24.60000038147</ele>
        <time>2020-02-13T08:20:28.000Z</time>
      </trkpt>
      <trkpt lat="47.26266" lon="-2.31631">
        <ele>24</ele>
        <time>2020-02-13T08:20:29.000Z</time>
      </trkpt>
      <trkpt lat="47.26264" lon="-2.31627">
        <ele>23.60000038147</ele>
        <time>2020-02-13T08:20:30.000Z</time>
      </trkpt>
      <trkpt lat="47.26262" lon="-2.31623">
        <ele>23.200000762939</ele>
        <time>2020-02-13T08:20:31.000Z</time>
      </trkpt>
      <trkpt lat="47.26261" lon="-2.3162">
        <ele>22.799999237061</ele>
        <time>2020-02-13T08:20:32.000Z</time>
      </trkpt>
      <trkpt lat="47.26256" lon="-2.31608">
        <ele>22.799999237061</ele>
        <time>2020-02-13T08:20:35.000Z</time>
      </trkpt>
      <trkpt lat="47.26247" lon="-2.31591">
        <ele>22.799999237061</ele>
        <time>2020-02-13T08:20:39.000Z</time>
      </trkpt>
      <trkpt lat="47.2623" lon="-2.31571">
        <ele>22.799999237061</ele>
        <time>2020-02-13T08:20:45.000Z</time>
      </trkpt>
      <trkpt lat="47.26223" lon="-2.31566">
        <ele>23.200000762939</ele>
        <time>2020-02-13T08:20:48.000Z</time>
      </trkpt>
      <trkpt lat="47.26222" lon="-2.31564">
        <ele>23.60000038147</ele>
        <time>2020-02-13T08:20:49.000Z</time>
      </trkpt>
      <trkpt lat="47.26219" lon="-2.31563">
        <ele>24.200000762939</ele>
        <time>2020-02-13T08:20:50.000Z</time>
      </trkpt>
      <trkpt lat="47.26216" lon="-2.31562">
        <ele>24.60000038147</ele>
        <time>2020-02-13T08:20:51.000Z</time>
      </trkpt>
      <trkpt lat="47.26214" lon="-2.31561">
        <ele>25</ele>
        <time>2020-02-13T08:20:52.000Z</time>
      </trkpt>
      <trkpt lat="47.26211" lon="-2.31561">
        <ele>25</ele>
        <time>2020-02-13T08:20:53.000Z</time>
      </trkpt>
      <trkpt lat="47.26196" lon="-2.31566">
        <ele>25</ele>
        <time>2020-02-13T08:20:57.000Z</time>
      </trkpt>
      <trkpt lat="47.26168" lon="-2.31576">
        <ele>25</ele>
        <time>2020-02-13T08:21:04.000Z</time>
      </trkpt>
      <trkpt lat="47.2616" lon="-2.3158">
        <ele>24.60000038147</ele>
        <time>2020-02-13T08:21:06.000Z</time>
      </trkpt>
      <trkpt lat="47.26156" lon="-2.31582">
        <ele>24.200000762939</ele>
        <time>2020-02-13T08:21:07.000Z</time>
      </trkpt>
      <trkpt lat="47.26152" lon="-2.31584">
        <ele>23.799999237061</ele>
        <time>2020-02-13T08:21:08.000Z</time>
      </trkpt>
      <trkpt lat="47.26148" lon="-2.31586">
        <ele>23.200000762939</ele>
        <time>2020-02-13T08:21:09.000Z</time>
      </trkpt>
      <trkpt lat="47.26144" lon="-2.31587">
        <ele>22.799999237061</ele>
        <time>2020-02-13T08:21:10.000Z</time>
      </trkpt>
      <trkpt lat="47.2614" lon="-2.31587">
        <ele>22.799999237061</ele>
        <time>2020-02-13T08:21:11.000Z</time>
      </trkpt>
      <trkpt lat="47.26111" lon="-2.31591">
        <ele>22.799999237061</ele>
        <time>2020-02-13T08:21:19.000Z</time>
      </trkpt>
      <trkpt lat="47.26096" lon="-2.31579">
        <ele>22.799999237061</ele>
        <time>2020-02-13T08:21:24.000Z</time>
      </trkpt>
      <trkpt lat="47.26094" lon="-2.31575">
        <ele>23.200000762939</ele>
        <time>2020-02-13T08:21:25.000Z</time>
      </trkpt>
      <trkpt lat="47.26092" lon="-2.31571">
        <ele>23.60000038147</ele>
        <time>2020-02-13T08:21:26.000Z</time>
      </trkpt>
      <trkpt lat="47.26089" lon="-2.31568">
        <ele>24.200000762939</ele>
        <time>2020-02-13T08:21:27.000Z</time>
      </trkpt>
      <trkpt lat="47.26087" lon="-2.31566">
        <ele>24.60000038147</ele>
        <time>2020-02-13T08:21:28.000Z</time>
      </trkpt>
      <trkpt lat="47.26084" lon="-2.31564">
        <ele>25</ele>
        <time>2020-02-13T08:21:29.000Z</time>
      </trkpt>
      <trkpt lat="47.2608" lon="-2.31565">
        <ele>25</ele>
        <time>2020-02-13T08:21:30.000Z</time>
      </trkpt>
      <trkpt lat="47.26074" lon="-2.3157">
        <ele>25</ele>
        <time>2020-02-13T08:21:32.000Z</time>
      </trkpt>
      <trkpt lat="47.26063" lon="-2.31585">
        <ele>25.39999961853</ele>
        <time>2020-02-13T08:21:36.000Z</time>
      </trkpt>
      <trkpt lat="47.2606" lon="-2.31589">
        <ele>26</ele>
        <time>2020-02-13T08:21:37.000Z</time>
      </trkpt>
      <trkpt lat="47.26057" lon="-2.31592">
        <ele>26.39999961853</ele>
        <time>2020-02-13T08:21:38.000Z</time>
      </trkpt>
      <trkpt lat="47.26055" lon="-2.31596">
        <ele>27</ele>
        <time>2020-02-13T08:21:39.000Z</time>
      </trkpt>
      <trkpt lat="47.26052" lon="-2.316">
        <ele>27.39999961853</ele>
        <time>2020-02-13T08:21:40.000Z</time>
      </trkpt>
      <trkpt lat="47.26039" lon="-2.31616">
        <ele>27.39999961853</ele>
        <time>2020-02-13T08:21:44.000Z</time>
      </trkpt>
      <trkpt lat="47.26032" lon="-2.31623">
        <ele>27.39999961853</ele>
        <time>2020-02-13T08:21:46.000Z</time>
      </trkpt>
      <trkpt lat="47.26016" lon="-2.3164">
        <ele>27.39999961853</ele>
        <time>2020-02-13T08:21:51.000Z</time>
      </trkpt>
      <trkpt lat="47.26002" lon="-2.31651">
        <ele>27.39999961853</ele>
        <time>2020-02-13T08:21:55.000Z</time>
      </trkpt>
      <trkpt lat="47.25996" lon="-2.31657">
        <ele>27.39999961853</ele>
        <time>2020-02-13T08:21:57.000Z</time>
      </trkpt>
      <trkpt lat="47.2599" lon="-2.31675">
        <ele>27.39999961853</ele>
        <time>2020-02-13T08:22:00.000Z</time>
      </trkpt>
      <trkpt lat="47.2598" lon="-2.31684">
        <ele>27.39999961853</ele>
        <time>2020-02-13T08:22:03.000Z</time>
      </trkpt>
      <trkpt lat="47.25957" lon="-2.31705">
        <ele>27.39999961853</ele>
        <time>2020-02-13T08:22:10.000Z</time>
      </trkpt>
      <trkpt lat="47.25938" lon="-2.31732">
        <ele>27.39999961853</ele>
        <time>2020-02-13T08:22:16.000Z</time>
      </trkpt>
      <trkpt lat="47.2593" lon="-2.31746">
        <ele>27.799999237061</ele>
        <time>2020-02-13T08:22:19.000Z</time>
      </trkpt>
      <trkpt lat="47.25928" lon="-2.31751">
        <ele>28.39999961853</ele>
        <time>2020-02-13T08:22:20.000Z</time>
      </trkpt>
      <trkpt lat="47.25925" lon="-2.31756">
        <ele>28.799999237061</ele>
        <time>2020-02-13T08:22:21.000Z</time>
      </trkpt>
      <trkpt lat="47.25918" lon="-2.3176">
        <ele>28.60000038147</ele>
        <time>2020-02-13T08:22:22.000Z</time>
      </trkpt>
      <trkpt lat="47.25914" lon="-2.31766">
        <ele>28.200000762939</ele>
        <time>2020-02-13T08:22:23.000Z</time>
      </trkpt>
      <trkpt lat="47.25911" lon="-2.31771">
        <ele>28</ele>
        <time>2020-02-13T08:22:24.000Z</time>
      </trkpt>
      <trkpt lat="47.25908" lon="-2.31777">
        <ele>27.799999237061</ele>
        <time>2020-02-13T08:22:25.000Z</time>
      </trkpt>
      <trkpt lat="47.25906" lon="-2.31782">
        <ele>27.39999961853</ele>
        <time>2020-02-13T08:22:26.000Z</time>
      </trkpt>
      <trkpt lat="47.259" lon="-2.31799">
        <ele>27.39999961853</ele>
        <time>2020-02-13T08:22:29.000Z</time>
      </trkpt>
      <trkpt lat="47.25885" lon="-2.31828">
        <ele>27.39999961853</ele>
        <time>2020-02-13T08:22:35.000Z</time>
      </trkpt>
      <trkpt lat="47.25868" lon="-2.3186">
        <ele>27.39999961853</ele>
        <time>2020-02-13T08:22:42.000Z</time>
      </trkpt>
      <trkpt lat="47.25848" lon="-2.31885">
        <ele>27.39999961853</ele>
        <time>2020-02-13T08:22:49.000Z</time>
      </trkpt>
      <trkpt lat="47.25821" lon="-2.31907">
        <ele>27.39999961853</ele>
        <time>2020-02-13T08:22:57.000Z</time>
      </trkpt>
      <trkpt lat="47.258" lon="-2.31922">
        <ele>27.39999961853</ele>
        <time>2020-02-13T08:23:04.000Z</time>
      </trkpt>
      <trkpt lat="47.2578" lon="-2.31942">
        <ele>27.39999961853</ele>
        <time>2020-02-13T08:23:11.000Z</time>
      </trkpt>
      <trkpt lat="47.25772" lon="-2.31952">
        <ele>28</ele>
        <time>2020-02-13T08:23:14.000Z</time>
      </trkpt>
      <trkpt lat="47.25769" lon="-2.31955">
        <ele>28.39999961853</ele>
        <time>2020-02-13T08:23:15.000Z</time>
      </trkpt>
      <trkpt lat="47.25766" lon="-2.31957">
        <ele>28.799999237061</ele>
        <time>2020-02-13T08:23:16.000Z</time>
      </trkpt>
      <trkpt lat="47.25763" lon="-2.31959">
        <ele>29.200000762939</ele>
        <time>2020-02-13T08:23:17.000Z</time>
      </trkpt>
      <trkpt lat="47.2576" lon="-2.31961">
        <ele>29.799999237061</ele>
        <time>2020-02-13T08:23:18.000Z</time>
      </trkpt>
      <trkpt lat="47.25757" lon="-2.31964">
        <ele>30.200000762939</ele>
        <time>2020-02-13T08:23:19.000Z</time>
      </trkpt>
      <trkpt lat="47.25753" lon="-2.31966">
        <ele>30.799999237061</ele>
        <time>2020-02-13T08:23:20.000Z</time>
      </trkpt>
      <trkpt lat="47.2575" lon="-2.31969">
        <ele>31.200000762939</ele>
        <time>2020-02-13T08:23:21.000Z</time>
      </trkpt>
      <trkpt lat="47.25747" lon="-2.31971">
        <ele>31.799999237061</ele>
        <time>2020-02-13T08:23:22.000Z</time>
      </trkpt>
      <trkpt lat="47.25744" lon="-2.31973">
        <ele>31.799999237061</ele>
        <time>2020-02-13T08:23:23.000Z</time>
      </trkpt>
      <trkpt lat="47.25723" lon="-2.31985">
        <ele>31.799999237061</ele>
        <time>2020-02-13T08:23:30.000Z</time>
      </trkpt>
      <trkpt lat="47.25706" lon="-2.31993">
        <ele>31.799999237061</ele>
        <time>2020-02-13T08:23:36.000Z</time>
      </trkpt>
      <trkpt lat="47.257" lon="-2.3199">
        <ele>31.799999237061</ele>
        <time>2020-02-13T08:23:39.000Z</time>
      </trkpt>
      <trkpt lat="47.25698" lon="-2.31985">
        <ele>31.799999237061</ele>
        <time>2020-02-13T08:23:40.000Z</time>
      </trkpt>
      <trkpt lat="47.25694" lon="-2.31971">
        <ele>31.799999237061</ele>
        <time>2020-02-13T08:23:43.000Z</time>
      </trkpt>
      <trkpt lat="47.25693" lon="-2.31966">
        <ele>32.200000762939</ele>
        <time>2020-02-13T08:23:44.000Z</time>
      </trkpt>
      <trkpt lat="47.25692" lon="-2.3196">
        <ele>32.599998474121</ele>
        <time>2020-02-13T08:23:45.000Z</time>
      </trkpt>
      <trkpt lat="47.2569" lon="-2.31955">
        <ele>33</ele>
        <time>2020-02-13T08:23:46.000Z</time>
      </trkpt>
      <trkpt lat="47.25689" lon="-2.3195">
        <ele>33.599998474121</ele>
        <time>2020-02-13T08:23:47.000Z</time>
      </trkpt>
      <trkpt lat="47.25688" lon="-2.31945">
        <ele>34</ele>
        <time>2020-02-13T08:23:48.000Z</time>
      </trkpt>
      <trkpt lat="47.25681" lon="-2.31917">
        <ele>34</ele>
        <time>2020-02-13T08:23:54.000Z</time>
      </trkpt>
      <trkpt lat="47.25671" lon="-2.31885">
        <ele>34</ele>
        <time>2020-02-13T08:24:02.000Z</time>
      </trkpt>
      <trkpt lat="47.25663" lon="-2.31856">
        <ele>34</ele>
        <time>2020-02-13T08:24:08.000Z</time>
      </trkpt>
      <trkpt lat="47.25648" lon="-2.31813">
        <ele>34</ele>
        <time>2020-02-13T08:24:17.000Z</time>
      </trkpt>
      <trkpt lat="47.25632" lon="-2.31779">
        <ele>34</ele>
        <time>2020-02-13T08:24:25.000Z</time>
      </trkpt>
      <trkpt lat="47.25625" lon="-2.31778">
        <ele>34</ele>
        <time>2020-02-13T08:24:27.000Z</time>
      </trkpt>
      <trkpt lat="47.25619" lon="-2.31782">
        <ele>34</ele>
        <time>2020-02-13T08:24:29.000Z</time>
      </trkpt>
      <trkpt lat="47.25611" lon="-2.31777">
        <ele>34</ele>
        <time>2020-02-13T08:24:32.000Z</time>
      </trkpt>
      <trkpt lat="47.25608" lon="-2.31775">
        <ele>34.400001525879</ele>
        <time>2020-02-13T08:24:33.000Z</time>
      </trkpt>
      <trkpt lat="47.25604" lon="-2.31773">
        <ele>34.799999237061</ele>
        <time>2020-02-13T08:24:34.000Z</time>
      </trkpt>
      <trkpt lat="47.25602" lon="-2.31773">
        <ele>35.200000762939</ele>
        <time>2020-02-13T08:24:35.000Z</time>
      </trkpt>
      <trkpt lat="47.25598" lon="-2.31773">
        <ele>35.799999237061</ele>
        <time>2020-02-13T08:24:36.000Z</time>
      </trkpt>
      <trkpt lat="47.25595" lon="-2.31773">
        <ele>36.200000762939</ele>
        <time>2020-02-13T08:24:37.000Z</time>
      </trkpt>
      <trkpt lat="47.25583" lon="-2.31779">
        <ele>36.200000762939</ele>
        <time>2020-02-13T08:24:41.000Z</time>
      </trkpt>
      <trkpt lat="47.25572" lon="-2.31787">
        <ele>36.200000762939</ele>
        <time>2020-02-13T08:24:45.000Z</time>
      </trkpt>
      <trkpt lat="47.2557" lon="-2.3179">
        <ele>36.599998474121</ele>
        <time>2020-02-13T08:24:46.000Z</time>
      </trkpt>
      <trkpt lat="47.25567" lon="-2.31793">
        <ele>37</ele>
        <time>2020-02-13T08:24:47.000Z</time>
      </trkpt>
      <trkpt lat="47.25566" lon="-2.31795">
        <ele>37.599998474121</ele>
        <time>2020-02-13T08:24:48.000Z</time>
      </trkpt>
      <trkpt lat="47.25563" lon="-2.31798">
        <ele>38</ele>
        <time>2020-02-13T08:24:49.000Z</time>
      </trkpt>
      <trkpt lat="47.25561" lon="-2.318">
        <ele>38.400001525879</ele>
        <time>2020-02-13T08:24:50.000Z</time>
      </trkpt>
      <trkpt lat="47.25544" lon="-2.31808">
        <ele>38.400001525879</ele>
        <time>2020-02-13T08:24:56.000Z</time>
      </trkpt>
      <trkpt lat="47.2553" lon="-2.31811">
        <ele>39</ele>
        <time>2020-02-13T08:25:01.000Z</time>
      </trkpt>
      <trkpt lat="47.25528" lon="-2.31812">
        <ele>39.799999237061</ele>
        <time>2020-02-13T08:25:02.000Z</time>
      </trkpt>
      <trkpt lat="47.25525" lon="-2.31813">
        <ele>40.200000762939</ele>
        <time>2020-02-13T08:25:03.000Z</time>
      </trkpt>
      <trkpt lat="47.25522" lon="-2.31814">
        <ele>40.799999237061</ele>
        <time>2020-02-13T08:25:04.000Z</time>
      </trkpt>
      <trkpt lat="47.25509" lon="-2.31819">
        <ele>40.799999237061</ele>
        <time>2020-02-13T08:25:09.000Z</time>
      </trkpt>
      <trkpt lat="47.2551" lon="-2.31828">
        <ele>40.799999237061</ele>
        <time>2020-02-13T08:25:12.000Z</time>
      </trkpt>
      <trkpt lat="47.25516" lon="-2.31826">
        <ele>40.799999237061</ele>
        <time>2020-02-13T08:25:15.000Z</time>
      </trkpt>
      <trkpt lat="47.25517" lon="-2.31827">
        <ele>40.799999237061</ele>
        <time>2020-02-13T08:25:19.000Z</time>
      </trkpt>
      <trkpt lat="47.25524" lon="-2.31826">
        <ele>43</ele>
        <time>2020-02-13T08:28:26.000Z</time>
      </trkpt>
      <trkpt lat="47.25526" lon="-2.31826">
        <ele>43.599998474121</ele>
        <time>2020-02-13T08:28:27.000Z</time>
      </trkpt>
      <trkpt lat="47.25527" lon="-2.31827">
        <ele>44.400001525879</ele>
        <time>2020-02-13T08:28:28.000Z</time>
      </trkpt>
      <trkpt lat="47.25528" lon="-2.31829">
        <ele>45</ele>
        <time>2020-02-13T08:28:29.000Z</time>
      </trkpt>
      <trkpt lat="47.25529" lon="-2.31829">
        <ele>45.799999237061</ele>
        <time>2020-02-13T08:28:30.000Z</time>
      </trkpt>
      <trkpt lat="47.25529" lon="-2.31829">
        <ele>45.200000762939</ele>
        <time>2020-02-13T08:28:32.000Z</time>
      </trkpt>
      <trkpt lat="47.25527" lon="-2.31827">
        <ele>47.400001525879</ele>
        <time>2020-02-13T08:40:20.000Z</time>
      </trkpt>
      <trkpt lat="47.25524" lon="-2.3182">
        <ele>47.400001525879</ele>
        <time>2020-02-13T08:40:27.000Z</time>
      </trkpt>
      <trkpt lat="47.2552" lon="-2.31829">
        <ele>47.400001525879</ele>
        <time>2020-02-13T08:40:56.000Z</time>
      </trkpt>
      <trkpt lat="47.25521" lon="-2.31839">
        <ele>47.400001525879</ele>
        <time>2020-02-13T08:40:59.000Z</time>
      </trkpt>
      <trkpt lat="47.25522" lon="-2.31847">
        <ele>47.799999237061</ele>
        <time>2020-02-13T08:41:01.000Z</time>
      </trkpt>
      <trkpt lat="47.25522" lon="-2.31851">
        <ele>48.200000762939</ele>
        <time>2020-02-13T08:41:02.000Z</time>
      </trkpt>
      <trkpt lat="47.25522" lon="-2.31856">
        <ele>48.799999237061</ele>
        <time>2020-02-13T08:41:03.000Z</time>
      </trkpt>
      <trkpt lat="47.25522" lon="-2.31861">
        <ele>49.200000762939</ele>
        <time>2020-02-13T08:41:04.000Z</time>
      </trkpt>
      <trkpt lat="47.25522" lon="-2.31866">
        <ele>49.599998474121</ele>
        <time>2020-02-13T08:41:05.000Z</time>
      </trkpt>
      <trkpt lat="47.25524" lon="-2.31889">
        <ele>49.599998474121</ele>
        <time>2020-02-13T08:41:11.000Z</time>
      </trkpt>
      <trkpt lat="47.25524" lon="-2.31895">
        <ele>50</ele>
        <time>2020-02-13T08:41:13.000Z</time>
      </trkpt>
      <trkpt lat="47.25524" lon="-2.31897">
        <ele>50.599998474121</ele>
        <time>2020-02-13T08:41:14.000Z</time>
      </trkpt>
      <trkpt lat="47.25525" lon="-2.31899">
        <ele>51.200000762939</ele>
        <time>2020-02-13T08:41:15.000Z</time>
      </trkpt>
      <trkpt lat="47.25526" lon="-2.31902">
        <ele>51.599998474121</ele>
        <time>2020-02-13T08:41:16.000Z</time>
      </trkpt>
      <trkpt lat="47.25527" lon="-2.31905">
        <ele>52.200000762939</ele>
        <time>2020-02-13T08:41:17.000Z</time>
      </trkpt>
      <trkpt lat="47.25529" lon="-2.31912">
        <ele>51.599998474121</ele>
        <time>2020-02-13T08:41:19.000Z</time>
      </trkpt>
      <trkpt lat="47.25531" lon="-2.31915">
        <ele>51.200000762939</ele>
        <time>2020-02-13T08:41:20.000Z</time>
      </trkpt>
      <trkpt lat="47.25533" lon="-2.31918">
        <ele>50.599998474121</ele>
        <time>2020-02-13T08:41:21.000Z</time>
      </trkpt>
      <trkpt lat="47.25536" lon="-2.3192">
        <ele>50.200000762939</ele>
        <time>2020-02-13T08:41:22.000Z</time>
      </trkpt>
      <trkpt lat="47.25538" lon="-2.31921">
        <ele>49.599998474121</ele>
        <time>2020-02-13T08:41:23.000Z</time>
      </trkpt>
      <trkpt lat="47.25544" lon="-2.31919">
        <ele>49.599998474121</ele>
        <time>2020-02-13T08:41:25.000Z</time>
      </trkpt>
      <trkpt lat="47.25554" lon="-2.31915">
        <ele>49.200000762939</ele>
        <time>2020-02-13T08:41:30.000Z</time>
      </trkpt>
      <trkpt lat="47.25556" lon="-2.31916">
        <ele>48.599998474121</ele>
        <time>2020-02-13T08:41:31.000Z</time>
      </trkpt>
      <trkpt lat="47.25557" lon="-2.31918">
        <ele>48.200000762939</ele>
        <time>2020-02-13T08:41:32.000Z</time>
      </trkpt>
      <trkpt lat="47.25558" lon="-2.3192">
        <ele>47.799999237061</ele>
        <time>2020-02-13T08:41:33.000Z</time>
      </trkpt>
      <trkpt lat="47.25559" lon="-2.31923">
        <ele>47.400001525879</ele>
        <time>2020-02-13T08:41:34.000Z</time>
      </trkpt>
      <trkpt lat="47.2556" lon="-2.31931">
        <ele>47.400001525879</ele>
        <time>2020-02-13T08:41:36.000Z</time>
      </trkpt>
      <trkpt lat="47.25561" lon="-2.31946">
        <ele>47.400001525879</ele>
        <time>2020-02-13T08:41:39.000Z</time>
      </trkpt>
      <trkpt lat="47.25565" lon="-2.31974">
        <ele>47.400001525879</ele>
        <time>2020-02-13T08:41:45.000Z</time>
      </trkpt>
      <trkpt lat="47.25576" lon="-2.31993">
        <ele>47.400001525879</ele>
        <time>2020-02-13T08:41:50.000Z</time>
      </trkpt>
      <trkpt lat="47.25582" lon="-2.32012">
        <ele>47.400001525879</ele>
        <time>2020-02-13T08:41:54.000Z</time>
      </trkpt>
      <trkpt lat="47.25585" lon="-2.32024">
        <ele>47.400001525879</ele>
        <time>2020-02-13T08:41:56.000Z</time>
      </trkpt>
      <trkpt lat="47.25592" lon="-2.32042">
        <ele>47.400001525879</ele>
        <time>2020-02-13T08:41:59.000Z</time>
      </trkpt>
      <trkpt lat="47.25606" lon="-2.32079">
        <ele>47.400001525879</ele>
        <time>2020-02-13T08:42:06.000Z</time>
      </trkpt>
      <trkpt lat="47.25609" lon="-2.32081">
        <ele>47.400001525879</ele>
        <time>2020-02-13T08:42:07.000Z</time>
      </trkpt>
      <trkpt lat="47.25618" lon="-2.3208">
        <ele>47.400001525879</ele>
        <time>2020-02-13T08:42:09.000Z</time>
      </trkpt>
      <trkpt lat="47.25629" lon="-2.32072">
        <ele>47</ele>
        <time>2020-02-13T08:42:12.000Z</time>
      </trkpt>
      <trkpt lat="47.25633" lon="-2.32068">
        <ele>46.400001525879</ele>
        <time>2020-02-13T08:42:13.000Z</time>
      </trkpt>
      <trkpt lat="47.25637" lon="-2.32064">
        <ele>46</ele>
        <time>2020-02-13T08:42:14.000Z</time>
      </trkpt>
      <trkpt lat="47.2564" lon="-2.32061">
        <ele>45.599998474121</ele>
        <time>2020-02-13T08:42:15.000Z</time>
      </trkpt>
      <trkpt lat="47.25643" lon="-2.32058">
        <ele>45.200000762939</ele>
        <time>2020-02-13T08:42:16.000Z</time>
      </trkpt>
      <trkpt lat="47.25657" lon="-2.32046">
        <ele>45.200000762939</ele>
        <time>2020-02-13T08:42:20.000Z</time>
      </trkpt>
      <trkpt lat="47.25663" lon="-2.32039">
        <ele>45.200000762939</ele>
        <time>2020-02-13T08:42:22.000Z</time>
      </trkpt>
      <trkpt lat="47.25679" lon="-2.32018">
        <ele>45.200000762939</ele>
        <time>2020-02-13T08:42:28.000Z</time>
      </trkpt>
      <trkpt lat="47.25685" lon="-2.32002">
        <ele>45.200000762939</ele>
        <time>2020-02-13T08:42:33.000Z</time>
      </trkpt>
      <trkpt lat="47.25694" lon="-2.31994">
        <ele>45.200000762939</ele>
        <time>2020-02-13T08:42:37.000Z</time>
      </trkpt>
      <trkpt lat="47.25701" lon="-2.32004">
        <ele>45.200000762939</ele>
        <time>2020-02-13T08:42:40.000Z</time>
      </trkpt>
      <trkpt lat="47.25704" lon="-2.32014">
        <ele>45.200000762939</ele>
        <time>2020-02-13T08:42:42.000Z</time>
      </trkpt>
      <trkpt lat="47.25708" lon="-2.32029">
        <ele>45.200000762939</ele>
        <time>2020-02-13T08:42:45.000Z</time>
      </trkpt>
      <trkpt lat="47.25717" lon="-2.32061">
        <ele>45.200000762939</ele>
        <time>2020-02-13T08:42:52.000Z</time>
      </trkpt>
      <trkpt lat="47.25726" lon="-2.32096">
        <ele>45.200000762939</ele>
        <time>2020-02-13T08:42:59.000Z</time>
      </trkpt>
      <trkpt lat="47.25738" lon="-2.3214">
        <ele>45.200000762939</ele>
        <time>2020-02-13T08:43:07.000Z</time>
      </trkpt>
      <trkpt lat="47.25747" lon="-2.32172">
        <ele>45.200000762939</ele>
        <time>2020-02-13T08:43:13.000Z</time>
      </trkpt>
      <trkpt lat="47.25751" lon="-2.32191">
        <ele>45.200000762939</ele>
        <time>2020-02-13T08:43:16.000Z</time>
      </trkpt>
      <trkpt lat="47.25754" lon="-2.32216">
        <ele>45.200000762939</ele>
        <time>2020-02-13T08:43:20.000Z</time>
      </trkpt>
      <trkpt lat="47.2576" lon="-2.32252">
        <ele>45.200000762939</ele>
        <time>2020-02-13T08:43:27.000Z</time>
      </trkpt>
      <trkpt lat="47.25761" lon="-2.32259">
        <ele>44.799999237061</ele>
        <time>2020-02-13T08:43:28.000Z</time>
      </trkpt>
      <trkpt lat="47.25763" lon="-2.32265">
        <ele>44.400001525879</ele>
        <time>2020-02-13T08:43:29.000Z</time>
      </trkpt>
      <trkpt lat="47.25763" lon="-2.32271">
        <ele>44</ele>
        <time>2020-02-13T08:43:30.000Z</time>
      </trkpt>
      <trkpt lat="47.25764" lon="-2.32277">
        <ele>43.599998474121</ele>
        <time>2020-02-13T08:43:31.000Z</time>
      </trkpt>
      <trkpt lat="47.25765" lon="-2.32284">
        <ele>43.200000762939</ele>
        <time>2020-02-13T08:43:32.000Z</time>
      </trkpt>
      <trkpt lat="47.25766" lon="-2.3229">
        <ele>43.200000762939</ele>
        <time>2020-02-13T08:43:33.000Z</time>
      </trkpt>
      <trkpt lat="47.25768" lon="-2.32303">
        <ele>42.799999237061</ele>
        <time>2020-02-13T08:43:35.000Z</time>
      </trkpt>
      <trkpt lat="47.25769" lon="-2.3231">
        <ele>42.400001525879</ele>
        <time>2020-02-13T08:43:36.000Z</time>
      </trkpt>
      <trkpt lat="47.25769" lon="-2.32316">
        <ele>42</ele>
        <time>2020-02-13T08:43:37.000Z</time>
      </trkpt>
      <trkpt lat="47.2577" lon="-2.32323">
        <ele>41.599998474121</ele>
        <time>2020-02-13T08:43:38.000Z</time>
      </trkpt>
      <trkpt lat="47.25771" lon="-2.3233">
        <ele>41</ele>
        <time>2020-02-13T08:43:39.000Z</time>
      </trkpt>
      <trkpt lat="47.25775" lon="-2.32359">
        <ele>41</ele>
        <time>2020-02-13T08:43:43.000Z</time>
      </trkpt>
      <trkpt lat="47.25779" lon="-2.32372">
        <ele>40.599998474121</ele>
        <time>2020-02-13T08:43:45.000Z</time>
      </trkpt>
      <trkpt lat="47.25781" lon="-2.32379">
        <ele>40.200000762939</ele>
        <time>2020-02-13T08:43:46.000Z</time>
      </trkpt>
      <trkpt lat="47.25782" lon="-2.32386">
        <ele>39.799999237061</ele>
        <time>2020-02-13T08:43:47.000Z</time>
      </trkpt>
      <trkpt lat="47.25784" lon="-2.32393">
        <ele>39.400001525879</ele>
        <time>2020-02-13T08:43:48.000Z</time>
      </trkpt>
      <trkpt lat="47.25785" lon="-2.324">
        <ele>39</ele>
        <time>2020-02-13T08:43:49.000Z</time>
      </trkpt>
      <trkpt lat="47.25789" lon="-2.32417">
        <ele>39</ele>
        <time>2020-02-13T08:43:52.000Z</time>
      </trkpt>
      <trkpt lat="47.2579" lon="-2.3242">
        <ele>38.400001525879</ele>
        <time>2020-02-13T08:43:53.000Z</time>
      </trkpt>
      <trkpt lat="47.25792" lon="-2.32423">
        <ele>38</ele>
        <time>2020-02-13T08:43:54.000Z</time>
      </trkpt>
      <trkpt lat="47.25794" lon="-2.32427">
        <ele>37.599998474121</ele>
        <time>2020-02-13T08:43:55.000Z</time>
      </trkpt>
      <trkpt lat="47.25796" lon="-2.32431">
        <ele>37</ele>
        <time>2020-02-13T08:43:56.000Z</time>
      </trkpt>
      <trkpt lat="47.25798" lon="-2.32436">
        <ele>36.599998474121</ele>
        <time>2020-02-13T08:43:57.000Z</time>
      </trkpt>
      <trkpt lat="47.25806" lon="-2.32448">
        <ele>36.599998474121</ele>
        <time>2020-02-13T08:44:00.000Z</time>
      </trkpt>
      <trkpt lat="47.25809" lon="-2.32457">
        <ele>36.599998474121</ele>
        <time>2020-02-13T08:44:02.000Z</time>
      </trkpt>
      <trkpt lat="47.25809" lon="-2.32461">
        <ele>36.200000762939</ele>
        <time>2020-02-13T08:44:03.000Z</time>
      </trkpt>
      <trkpt lat="47.2581" lon="-2.32466">
        <ele>35.799999237061</ele>
        <time>2020-02-13T08:44:04.000Z</time>
      </trkpt>
      <trkpt lat="47.25811" lon="-2.32471">
        <ele>35.400001525879</ele>
        <time>2020-02-13T08:44:05.000Z</time>
      </trkpt>
      <trkpt lat="47.25814" lon="-2.32475">
        <ele>35</ele>
        <time>2020-02-13T08:44:06.000Z</time>
      </trkpt>
      <trkpt lat="47.25817" lon="-2.32479">
        <ele>34.599998474121</ele>
        <time>2020-02-13T08:44:07.000Z</time>
      </trkpt>
      <trkpt lat="47.2582" lon="-2.32482">
        <ele>35</ele>
        <time>2020-02-13T08:44:08.000Z</time>
      </trkpt>
      <trkpt lat="47.25823" lon="-2.32487">
        <ele>35.400001525879</ele>
        <time>2020-02-13T08:44:09.000Z</time>
      </trkpt>
      <trkpt lat="47.25826" lon="-2.32491">
        <ele>36</ele>
        <time>2020-02-13T08:44:10.000Z</time>
      </trkpt>
      <trkpt lat="47.25829" lon="-2.32496">
        <ele>36.400001525879</ele>
        <time>2020-02-13T08:44:11.000Z</time>
      </trkpt>
      <trkpt lat="47.25832" lon="-2.32501">
        <ele>36.799999237061</ele>
        <time>2020-02-13T08:44:12.000Z</time>
      </trkpt>
      <trkpt lat="47.25841" lon="-2.32514">
        <ele>36.799999237061</ele>
        <time>2020-02-13T08:44:15.000Z</time>
      </trkpt>
      <trkpt lat="47.25844" lon="-2.32519">
        <ele>36.400001525879</ele>
        <time>2020-02-13T08:44:16.000Z</time>
      </trkpt>
      <trkpt lat="47.25848" lon="-2.32523">
        <ele>36</ele>
        <time>2020-02-13T08:44:17.000Z</time>
      </trkpt>
      <trkpt lat="47.25851" lon="-2.32528">
        <ele>35.599998474121</ele>
        <time>2020-02-13T08:44:18.000Z</time>
      </trkpt>
      <trkpt lat="47.25854" lon="-2.32532">
        <ele>35.200000762939</ele>
        <time>2020-02-13T08:44:19.000Z</time>
      </trkpt>
      <trkpt lat="47.25856" lon="-2.32537">
        <ele>34.599998474121</ele>
        <time>2020-02-13T08:44:20.000Z</time>
      </trkpt>
      <trkpt lat="47.25859" lon="-2.32541">
        <ele>34.599998474121</ele>
        <time>2020-02-13T08:44:21.000Z</time>
      </trkpt>
      <trkpt lat="47.25862" lon="-2.32545">
        <ele>34.599998474121</ele>
        <time>2020-02-13T08:44:22.000Z</time>
      </trkpt>
      <trkpt lat="47.25876" lon="-2.32562">
        <ele>34.599998474121</ele>
        <time>2020-02-13T08:44:26.000Z</time>
      </trkpt>
      <trkpt lat="47.25878" lon="-2.32568">
        <ele>34.599998474121</ele>
        <time>2020-02-13T08:44:27.000Z</time>
      </trkpt>
      <trkpt lat="47.25888" lon="-2.3258">
        <ele>34.599998474121</ele>
        <time>2020-02-13T08:44:30.000Z</time>
      </trkpt>
      <trkpt lat="47.25892" lon="-2.32582">
        <ele>34.599998474121</ele>
        <time>2020-02-13T08:44:31.000Z</time>
      </trkpt>
      <trkpt lat="47.25908" lon="-2.32596">
        <ele>34.599998474121</ele>
        <time>2020-02-13T08:44:35.000Z</time>
      </trkpt>
      <trkpt lat="47.25911" lon="-2.32601">
        <ele>34.599998474121</ele>
        <time>2020-02-13T08:44:36.000Z</time>
      </trkpt>
      <trkpt lat="47.25914" lon="-2.32606">
        <ele>35.200000762939</ele>
        <time>2020-02-13T08:44:37.000Z</time>
      </trkpt>
      <trkpt lat="47.25917" lon="-2.3261">
        <ele>35.599998474121</ele>
        <time>2020-02-13T08:44:38.000Z</time>
      </trkpt>
      <trkpt lat="47.25919" lon="-2.32614">
        <ele>36</ele>
        <time>2020-02-13T08:44:39.000Z</time>
      </trkpt>
      <trkpt lat="47.25922" lon="-2.32619">
        <ele>36.599998474121</ele>
        <time>2020-02-13T08:44:40.000Z</time>
      </trkpt>
      <trkpt lat="47.25925" lon="-2.32624">
        <ele>37</ele>
        <time>2020-02-13T08:44:41.000Z</time>
      </trkpt>
      <trkpt lat="47.25945" lon="-2.32649">
        <ele>37</ele>
        <time>2020-02-13T08:44:48.000Z</time>
      </trkpt>
      <trkpt lat="47.25962" lon="-2.32658">
        <ele>37</ele>
        <time>2020-02-13T08:44:53.000Z</time>
      </trkpt>
      <trkpt lat="47.25966" lon="-2.32657">
        <ele>36.599998474121</ele>
        <time>2020-02-13T08:44:54.000Z</time>
      </trkpt>
      <trkpt lat="47.25971" lon="-2.32656">
        <ele>36.200000762939</ele>
        <time>2020-02-13T08:44:55.000Z</time>
      </trkpt>
      <trkpt lat="47.25975" lon="-2.32656">
        <ele>35.799999237061</ele>
        <time>2020-02-13T08:44:56.000Z</time>
      </trkpt>
      <trkpt lat="47.25979" lon="-2.32657">
        <ele>35.400001525879</ele>
        <time>2020-02-13T08:44:57.000Z</time>
      </trkpt>
      <trkpt lat="47.25983" lon="-2.32658">
        <ele>34.799999237061</ele>
        <time>2020-02-13T08:44:58.000Z</time>
      </trkpt>
      <trkpt lat="47.25987" lon="-2.32659">
        <ele>34.799999237061</ele>
        <time>2020-02-13T08:44:59.000Z</time>
      </trkpt>
      <trkpt lat="47.26006" lon="-2.32656">
        <ele>34.799999237061</ele>
        <time>2020-02-13T08:45:03.000Z</time>
      </trkpt>
      <trkpt lat="47.26019" lon="-2.32653">
        <ele>35.400001525879</ele>
        <time>2020-02-13T08:45:06.000Z</time>
      </trkpt>
      <trkpt lat="47.26024" lon="-2.32653">
        <ele>35.799999237061</ele>
        <time>2020-02-13T08:45:07.000Z</time>
      </trkpt>
      <trkpt lat="47.26029" lon="-2.32652">
        <ele>36.200000762939</ele>
        <time>2020-02-13T08:45:08.000Z</time>
      </trkpt>
      <trkpt lat="47.26033" lon="-2.32651">
        <ele>36.599998474121</ele>
        <time>2020-02-13T08:45:09.000Z</time>
      </trkpt>
      <trkpt lat="47.26037" lon="-2.3265">
        <ele>37</ele>
        <time>2020-02-13T08:45:10.000Z</time>
      </trkpt>
      <trkpt lat="47.26059" lon="-2.32644">
        <ele>37</ele>
        <time>2020-02-13T08:45:16.000Z</time>
      </trkpt>
      <trkpt lat="47.26078" lon="-2.3264">
        <ele>37</ele>
        <time>2020-02-13T08:45:21.000Z</time>
      </trkpt>
      <trkpt lat="47.26082" lon="-2.3264">
        <ele>37</ele>
        <time>2020-02-13T08:45:22.000Z</time>
      </trkpt>
      <trkpt lat="47.26117" lon="-2.32638">
        <ele>37</ele>
        <time>2020-02-13T08:45:30.000Z</time>
      </trkpt>
      <trkpt lat="47.2614" lon="-2.32641">
        <ele>37</ele>
        <time>2020-02-13T08:45:35.000Z</time>
      </trkpt>
      <trkpt lat="47.26149" lon="-2.32644">
        <ele>37</ele>
        <time>2020-02-13T08:45:37.000Z</time>
      </trkpt>
      <trkpt lat="47.2618" lon="-2.32661">
        <ele>37</ele>
        <time>2020-02-13T08:45:44.000Z</time>
      </trkpt>
      <trkpt lat="47.26205" lon="-2.32684">
        <ele>37</ele>
        <time>2020-02-13T08:45:50.000Z</time>
      </trkpt>
      <trkpt lat="47.26233" lon="-2.3272">
        <ele>37</ele>
        <time>2020-02-13T08:45:58.000Z</time>
      </trkpt>
      <trkpt lat="47.26252" lon="-2.32749">
        <ele>38.200000762939</ele>
        <time>2020-02-13T08:46:04.000Z</time>
      </trkpt>
      <trkpt lat="47.26256" lon="-2.32754">
        <ele>38.599998474121</ele>
        <time>2020-02-13T08:46:05.000Z</time>
      </trkpt>
      <trkpt lat="47.26259" lon="-2.3276">
        <ele>39.200000762939</ele>
        <time>2020-02-13T08:46:06.000Z</time>
      </trkpt>
      <trkpt lat="47.26262" lon="-2.32765">
        <ele>39.799999237061</ele>
        <time>2020-02-13T08:46:07.000Z</time>
      </trkpt>
      <trkpt lat="47.26266" lon="-2.32771">
        <ele>39.400001525879</ele>
        <time>2020-02-13T08:46:08.000Z</time>
      </trkpt>
      <trkpt lat="47.26269" lon="-2.32776">
        <ele>38.799999237061</ele>
        <time>2020-02-13T08:46:09.000Z</time>
      </trkpt>
      <trkpt lat="47.26272" lon="-2.32782">
        <ele>38.400001525879</ele>
        <time>2020-02-13T08:46:10.000Z</time>
      </trkpt>
      <trkpt lat="47.26274" lon="-2.32788">
        <ele>38</ele>
        <time>2020-02-13T08:46:11.000Z</time>
      </trkpt>
      <trkpt lat="47.26277" lon="-2.32793">
        <ele>37.599998474121</ele>
        <time>2020-02-13T08:46:12.000Z</time>
      </trkpt>
      <trkpt lat="47.26279" lon="-2.32799">
        <ele>37.599998474121</ele>
        <time>2020-02-13T08:46:13.000Z</time>
      </trkpt>
      <trkpt lat="47.26288" lon="-2.32838">
        <ele>37.599998474121</ele>
        <time>2020-02-13T08:46:20.000Z</time>
      </trkpt>
      <trkpt lat="47.26289" lon="-2.32843">
        <ele>37.200000762939</ele>
        <time>2020-02-13T08:46:21.000Z</time>
      </trkpt>
      <trkpt lat="47.26291" lon="-2.32849">
        <ele>36.799999237061</ele>
        <time>2020-02-13T08:46:22.000Z</time>
      </trkpt>
      <trkpt lat="47.26293" lon="-2.32853">
        <ele>36.400001525879</ele>
        <time>2020-02-13T08:46:23.000Z</time>
      </trkpt>
      <trkpt lat="47.26295" lon="-2.32857">
        <ele>36</ele>
        <time>2020-02-13T08:46:24.000Z</time>
      </trkpt>
      <trkpt lat="47.26299" lon="-2.32858">
        <ele>35.599998474121</ele>
        <time>2020-02-13T08:46:25.000Z</time>
      </trkpt>
      <trkpt lat="47.26307" lon="-2.32861">
        <ele>35.599998474121</ele>
        <time>2020-02-13T08:46:27.000Z</time>
      </trkpt>
      <trkpt lat="47.2632" lon="-2.32875">
        <ele>35.599998474121</ele>
        <time>2020-02-13T08:46:31.000Z</time>
      </trkpt>
      <trkpt lat="47.26324" lon="-2.32886">
        <ele>35.599998474121</ele>
        <time>2020-02-13T08:46:33.000Z</time>
      </trkpt>
      <trkpt lat="47.26333" lon="-2.32912">
        <ele>35.599998474121</ele>
        <time>2020-02-13T08:46:38.000Z</time>
      </trkpt>
      <trkpt lat="47.26347" lon="-2.32956">
        <ele>35.599998474121</ele>
        <time>2020-02-13T08:46:47.000Z</time>
      </trkpt>
      <trkpt lat="47.2636" lon="-2.32978">
        <ele>35.599998474121</ele>
        <time>2020-02-13T08:46:52.000Z</time>
      </trkpt>
      <trkpt lat="47.26363" lon="-2.32982">
        <ele>35.599998474121</ele>
        <time>2020-02-13T08:46:53.000Z</time>
      </trkpt>
      <trkpt lat="47.26368" lon="-2.32998">
        <ele>35.599998474121</ele>
        <time>2020-02-13T08:46:56.000Z</time>
      </trkpt>
      <trkpt lat="47.26368" lon="-2.33004">
        <ele>35.599998474121</ele>
        <time>2020-02-13T08:46:57.000Z</time>
      </trkpt>
      <trkpt lat="47.2637" lon="-2.33048">
        <ele>35.599998474121</ele>
        <time>2020-02-13T08:47:04.000Z</time>
      </trkpt>
      <trkpt lat="47.26372" lon="-2.33101">
        <ele>35.599998474121</ele>
        <time>2020-02-13T08:47:13.000Z</time>
      </trkpt>
      <trkpt lat="47.26375" lon="-2.33142">
        <ele>35.599998474121</ele>
        <time>2020-02-13T08:47:20.000Z</time>
      </trkpt>
      <trkpt lat="47.26378" lon="-2.3319">
        <ele>35.599998474121</ele>
        <time>2020-02-13T08:47:28.000Z</time>
      </trkpt>
      <trkpt lat="47.2638" lon="-2.33219">
        <ele>36.799999237061</ele>
        <time>2020-02-13T08:47:31.000Z</time>
      </trkpt>
      <trkpt lat="47.2638" lon="-2.33225">
        <ele>37.200000762939</ele>
        <time>2020-02-13T08:47:34.000Z</time>
      </trkpt>
      <trkpt lat="47.26381" lon="-2.3323">
        <ele>37.599998474121</ele>
        <time>2020-02-13T08:47:35.000Z</time>
      </trkpt>
      <trkpt lat="47.26382" lon="-2.33242">
        <ele>37.599998474121</ele>
        <time>2020-02-13T08:47:37.000Z</time>
      </trkpt>
      <trkpt lat="47.26387" lon="-2.33258">
        <ele>37.599998474121</ele>
        <time>2020-02-13T08:47:40.000Z</time>
      </trkpt>
      <trkpt lat="47.26394" lon="-2.33264">
        <ele>37.599998474121</ele>
        <time>2020-02-13T08:47:42.000Z</time>
      </trkpt>
      <trkpt lat="47.26403" lon="-2.33266">
        <ele>37.599998474121</ele>
        <time>2020-02-13T08:47:44.000Z</time>
      </trkpt>
      <trkpt lat="47.26416" lon="-2.33268">
        <ele>37.599998474121</ele>
        <time>2020-02-13T08:47:47.000Z</time>
      </trkpt>
      <trkpt lat="47.26445" lon="-2.33271">
        <ele>37.599998474121</ele>
        <time>2020-02-13T08:47:54.000Z</time>
      </trkpt>
      <trkpt lat="47.26458" lon="-2.33273">
        <ele>37.599998474121</ele>
        <time>2020-02-13T08:47:57.000Z</time>
      </trkpt>
      <trkpt lat="47.2647" lon="-2.33277">
        <ele>37.599998474121</ele>
        <time>2020-02-13T08:48:00.000Z</time>
      </trkpt>
      <trkpt lat="47.26487" lon="-2.33277">
        <ele>37.599998474121</ele>
        <time>2020-02-13T08:48:06.000Z</time>
      </trkpt>
      <trkpt lat="47.265" lon="-2.33279">
        <ele>37.599998474121</ele>
        <time>2020-02-13T08:48:11.000Z</time>
      </trkpt>
      <trkpt lat="47.26512" lon="-2.33286">
        <ele>37.599998474121</ele>
        <time>2020-02-13T08:48:15.000Z</time>
      </trkpt>
      <trkpt lat="47.2653" lon="-2.33288">
        <ele>37.599998474121</ele>
        <time>2020-02-13T08:48:20.000Z</time>
      </trkpt>
      <trkpt lat="47.26538" lon="-2.33299">
        <ele>37.599998474121</ele>
        <time>2020-02-13T08:48:24.000Z</time>
      </trkpt>
      <trkpt lat="47.2654" lon="-2.333">
        <ele>37.599998474121</ele>
        <time>2020-02-13T08:48:25.000Z</time>
      </trkpt>
      <trkpt lat="47.26545" lon="-2.33294">
        <ele>37.599998474121</ele>
        <time>2020-02-13T08:48:27.000Z</time>
      </trkpt>
      <trkpt lat="47.26553" lon="-2.33285">
        <ele>37.599998474121</ele>
        <time>2020-02-13T08:48:30.000Z</time>
      </trkpt>
      <trkpt lat="47.26558" lon="-2.33279">
        <ele>37.599998474121</ele>
        <time>2020-02-13T08:48:32.000Z</time>
      </trkpt>
      <trkpt lat="47.26578" lon="-2.3326">
        <ele>37.599998474121</ele>
        <time>2020-02-13T08:48:38.000Z</time>
      </trkpt>
      <trkpt lat="47.26601" lon="-2.33238">
        <ele>37.599998474121</ele>
        <time>2020-02-13T08:48:45.000Z</time>
      </trkpt>
      <trkpt lat="47.26625" lon="-2.33213">
        <ele>37.599998474121</ele>
        <time>2020-02-13T08:48:52.000Z</time>
      </trkpt>
      <trkpt lat="47.2664" lon="-2.33197">
        <ele>37.599998474121</ele>
        <time>2020-02-13T08:48:56.000Z</time>
      </trkpt>
      <trkpt lat="47.26647" lon="-2.33189">
        <ele>37.599998474121</ele>
        <time>2020-02-13T08:48:58.000Z</time>
      </trkpt>
      <trkpt lat="47.26665" lon="-2.3317">
        <ele>37.599998474121</ele>
        <time>2020-02-13T08:49:04.000Z</time>
      </trkpt>
      <trkpt lat="47.26676" lon="-2.33162">
        <ele>37.599998474121</ele>
        <time>2020-02-13T08:49:09.000Z</time>
      </trkpt>
      <trkpt lat="47.26677" lon="-2.33163">
        <ele>37.599998474121</ele>
        <time>2020-02-13T08:49:10.000Z</time>
      </trkpt>
      <trkpt lat="47.26683" lon="-2.3317">
        <ele>37.599998474121</ele>
        <time>2020-02-13T08:49:13.000Z</time>
      </trkpt>
      <trkpt lat="47.26693" lon="-2.33184">
        <ele>37.599998474121</ele>
        <time>2020-02-13T08:49:17.000Z</time>
      </trkpt>
      <trkpt lat="47.26697" lon="-2.33212">
        <ele>37.599998474121</ele>
        <time>2020-02-13T08:49:22.000Z</time>
      </trkpt>
      <trkpt lat="47.26702" lon="-2.33239">
        <ele>37.599998474121</ele>
        <time>2020-02-13T08:49:27.000Z</time>
      </trkpt>
      <trkpt lat="47.26707" lon="-2.3327">
        <ele>37.599998474121</ele>
        <time>2020-02-13T08:49:32.000Z</time>
      </trkpt>
      <trkpt lat="47.26707" lon="-2.33276">
        <ele>37.599998474121</ele>
        <time>2020-02-13T08:49:33.000Z</time>
      </trkpt>
      <trkpt lat="47.26708" lon="-2.33288">
        <ele>37.599998474121</ele>
        <time>2020-02-13T08:49:35.000Z</time>
      </trkpt>
      <trkpt lat="47.2671" lon="-2.33299">
        <ele>37.599998474121</ele>
        <time>2020-02-13T08:49:37.000Z</time>
      </trkpt>
      <trkpt lat="47.26711" lon="-2.33305">
        <ele>37.599998474121</ele>
        <time>2020-02-13T08:49:38.000Z</time>
      </trkpt>
      <trkpt lat="47.26723" lon="-2.33325">
        <ele>37.599998474121</ele>
        <time>2020-02-13T08:49:43.000Z</time>
      </trkpt>
      <trkpt lat="47.26733" lon="-2.3333">
        <ele>37.599998474121</ele>
        <time>2020-02-13T08:49:46.000Z</time>
      </trkpt>
      <trkpt lat="47.2674" lon="-2.33333">
        <ele>37.599998474121</ele>
        <time>2020-02-13T08:49:48.000Z</time>
      </trkpt>
      <trkpt lat="47.26748" lon="-2.33349">
        <ele>37.599998474121</ele>
        <time>2020-02-13T08:49:52.000Z</time>
      </trkpt>
      <trkpt lat="47.26751" lon="-2.33391">
        <ele>37.599998474121</ele>
        <time>2020-02-13T08:49:58.000Z</time>
      </trkpt>
      <trkpt lat="47.26758" lon="-2.33439">
        <ele>37.599998474121</ele>
        <time>2020-02-13T08:50:04.000Z</time>
      </trkpt>
      <trkpt lat="47.26763" lon="-2.33481">
        <ele>37.599998474121</ele>
        <time>2020-02-13T08:50:10.000Z</time>
      </trkpt>
      <trkpt lat="47.26771" lon="-2.33518">
        <ele>37.599998474121</ele>
        <time>2020-02-13T08:50:16.000Z</time>
      </trkpt>
      <trkpt lat="47.26777" lon="-2.3356">
        <ele>37.599998474121</ele>
        <time>2020-02-13T08:50:23.000Z</time>
      </trkpt>
      <trkpt lat="47.26778" lon="-2.33563">
        <ele>37.599998474121</ele>
        <time>2020-02-13T08:50:24.000Z</time>
      </trkpt>
      <trkpt lat="47.26783" lon="-2.33563">
        <ele>37.599998474121</ele>
        <time>2020-02-13T08:50:26.000Z</time>
      </trkpt>
      <trkpt lat="47.26792" lon="-2.33563">
        <ele>37.599998474121</ele>
        <time>2020-02-13T08:50:29.000Z</time>
      </trkpt>
      <trkpt lat="47.26796" lon="-2.33563">
        <ele>37.599998474121</ele>
        <time>2020-02-13T08:50:30.000Z</time>
      </trkpt>
      <trkpt lat="47.26821" lon="-2.33553">
        <ele>37.599998474121</ele>
        <time>2020-02-13T08:50:36.000Z</time>
      </trkpt>
      <trkpt lat="47.2683" lon="-2.33551">
        <ele>37.599998474121</ele>
        <time>2020-02-13T08:50:38.000Z</time>
      </trkpt>
      <trkpt lat="47.26845" lon="-2.33543">
        <ele>37.599998474121</ele>
        <time>2020-02-13T08:50:42.000Z</time>
      </trkpt>
      <trkpt lat="47.26855" lon="-2.33538">
        <ele>37.599998474121</ele>
        <time>2020-02-13T08:50:44.000Z</time>
      </trkpt>
      <trkpt lat="47.26872" lon="-2.33533">
        <ele>37.599998474121</ele>
        <time>2020-02-13T08:50:48.000Z</time>
      </trkpt>
      <trkpt lat="47.26886" lon="-2.33535">
        <ele>38</ele>
        <time>2020-02-13T08:50:52.000Z</time>
      </trkpt>
      <trkpt lat="47.26889" lon="-2.33538">
        <ele>38.400001525879</ele>
        <time>2020-02-13T08:50:53.000Z</time>
      </trkpt>
      <trkpt lat="47.26892" lon="-2.33542">
        <ele>38.799999237061</ele>
        <time>2020-02-13T08:50:54.000Z</time>
      </trkpt>
      <trkpt lat="47.26895" lon="-2.33547">
        <ele>39.200000762939</ele>
        <time>2020-02-13T08:50:55.000Z</time>
      </trkpt>
      <trkpt lat="47.26898" lon="-2.33552">
        <ele>39.599998474121</ele>
        <time>2020-02-13T08:50:56.000Z</time>
      </trkpt>
      <trkpt lat="47.26905" lon="-2.33567">
        <ele>40.200000762939</ele>
        <time>2020-02-13T08:50:59.000Z</time>
      </trkpt>
      <trkpt lat="47.26908" lon="-2.33572">
        <ele>40.599998474121</ele>
        <time>2020-02-13T08:51:00.000Z</time>
      </trkpt>
      <trkpt lat="47.2691" lon="-2.33577">
        <ele>41</ele>
        <time>2020-02-13T08:51:01.000Z</time>
      </trkpt>
      <trkpt lat="47.26912" lon="-2.33583">
        <ele>41.400001525879</ele>
        <time>2020-02-13T08:51:02.000Z</time>
      </trkpt>
      <trkpt lat="47.26914" lon="-2.33589">
        <ele>41.799999237061</ele>
        <time>2020-02-13T08:51:03.000Z</time>
      </trkpt>
      <trkpt lat="47.26916" lon="-2.33594">
        <ele>41.799999237061</ele>
        <time>2020-02-13T08:51:04.000Z</time>
      </trkpt>
      <trkpt lat="47.26923" lon="-2.33617">
        <ele>41.799999237061</ele>
        <time>2020-02-13T08:51:08.000Z</time>
      </trkpt>
      <trkpt lat="47.2693" lon="-2.33662">
        <ele>41.799999237061</ele>
        <time>2020-02-13T08:51:16.000Z</time>
      </trkpt>
      <trkpt lat="47.26931" lon="-2.33668">
        <ele>42.200000762939</ele>
        <time>2020-02-13T08:51:17.000Z</time>
      </trkpt>
      <trkpt lat="47.26932" lon="-2.33673">
        <ele>42.599998474121</ele>
        <time>2020-02-13T08:51:18.000Z</time>
      </trkpt>
      <trkpt lat="47.26934" lon="-2.33679">
        <ele>43</ele>
        <time>2020-02-13T08:51:19.000Z</time>
      </trkpt>
      <trkpt lat="47.26934" lon="-2.33685">
        <ele>43.400001525879</ele>
        <time>2020-02-13T08:51:20.000Z</time>
      </trkpt>
      <trkpt lat="47.26935" lon="-2.33691">
        <ele>43.799999237061</ele>
        <time>2020-02-13T08:51:21.000Z</time>
      </trkpt>
      <trkpt lat="47.26938" lon="-2.3371">
        <ele>43.799999237061</ele>
        <time>2020-02-13T08:51:25.000Z</time>
      </trkpt>
      <trkpt lat="47.26938" lon="-2.33727">
        <ele>43.799999237061</ele>
        <time>2020-02-13T08:51:28.000Z</time>
      </trkpt>
      <trkpt lat="47.26937" lon="-2.33733">
        <ele>44.400001525879</ele>
        <time>2020-02-13T08:51:29.000Z</time>
      </trkpt>
      <trkpt lat="47.26936" lon="-2.33739">
        <ele>44.799999237061</ele>
        <time>2020-02-13T08:51:30.000Z</time>
      </trkpt>
      <trkpt lat="47.26935" lon="-2.33745">
        <ele>45.200000762939</ele>
        <time>2020-02-13T08:51:31.000Z</time>
      </trkpt>
      <trkpt lat="47.26934" lon="-2.3375">
        <ele>45.799999237061</ele>
        <time>2020-02-13T08:51:32.000Z</time>
      </trkpt>
      <trkpt lat="47.26933" lon="-2.33755">
        <ele>46.200000762939</ele>
        <time>2020-02-13T08:51:33.000Z</time>
      </trkpt>
      <trkpt lat="47.26931" lon="-2.33769">
        <ele>46.200000762939</ele>
        <time>2020-02-13T08:51:36.000Z</time>
      </trkpt>
      <trkpt lat="47.2693" lon="-2.33798">
        <ele>46.200000762939</ele>
        <time>2020-02-13T08:51:41.000Z</time>
      </trkpt>
      <trkpt lat="47.26933" lon="-2.33803">
        <ele>46.200000762939</ele>
        <time>2020-02-13T08:51:42.000Z</time>
      </trkpt>
      <trkpt lat="47.26941" lon="-2.33816">
        <ele>46.200000762939</ele>
        <time>2020-02-13T08:51:45.000Z</time>
      </trkpt>
      <trkpt lat="47.26944" lon="-2.3382">
        <ele>46.200000762939</ele>
        <time>2020-02-13T08:51:46.000Z</time>
      </trkpt>
      <trkpt lat="47.26948" lon="-2.33823">
        <ele>46.200000762939</ele>
        <time>2020-02-13T08:51:47.000Z</time>
      </trkpt>
      <trkpt lat="47.26962" lon="-2.33832">
        <ele>46.200000762939</ele>
        <time>2020-02-13T08:51:51.000Z</time>
      </trkpt>
      <trkpt lat="47.26986" lon="-2.33845">
        <ele>46.200000762939</ele>
        <time>2020-02-13T08:51:58.000Z</time>
      </trkpt>
      <trkpt lat="47.26995" lon="-2.33857">
        <ele>46.599998474121</ele>
        <time>2020-02-13T08:52:02.000Z</time>
      </trkpt>
      <trkpt lat="47.26995" lon="-2.33862">
        <ele>47</ele>
        <time>2020-02-13T08:52:03.000Z</time>
      </trkpt>
      <trkpt lat="47.26994" lon="-2.33867">
        <ele>47.400001525879</ele>
        <time>2020-02-13T08:52:04.000Z</time>
      </trkpt>
      <trkpt lat="47.26992" lon="-2.33874">
        <ele>47.799999237061</ele>
        <time>2020-02-13T08:52:05.000Z</time>
      </trkpt>
      <trkpt lat="47.26991" lon="-2.3388">
        <ele>48.200000762939</ele>
        <time>2020-02-13T08:52:06.000Z</time>
      </trkpt>
      <trkpt lat="47.26989" lon="-2.33887">
        <ele>48.200000762939</ele>
        <time>2020-02-13T08:52:07.000Z</time>
      </trkpt>
      <trkpt lat="47.26988" lon="-2.33895">
        <ele>48.200000762939</ele>
        <time>2020-02-13T08:52:08.000Z</time>
      </trkpt>
      <trkpt lat="47.26978" lon="-2.33933">
        <ele>48.200000762939</ele>
        <time>2020-02-13T08:52:13.000Z</time>
      </trkpt>
      <trkpt lat="47.26968" lon="-2.33984">
        <ele>47.799999237061</ele>
        <time>2020-02-13T08:52:19.000Z</time>
      </trkpt>
      <trkpt lat="47.26967" lon="-2.33992">
        <ele>47.400001525879</ele>
        <time>2020-02-13T08:52:20.000Z</time>
      </trkpt>
      <trkpt lat="47.26966" lon="-2.34">
        <ele>46.799999237061</ele>
        <time>2020-02-13T08:52:21.000Z</time>
      </trkpt>
      <trkpt lat="47.26965" lon="-2.34007">
        <ele>46.400001525879</ele>
        <time>2020-02-13T08:52:22.000Z</time>
      </trkpt>
      <trkpt lat="47.26965" lon="-2.34014">
        <ele>46</ele>
        <time>2020-02-13T08:52:23.000Z</time>
      </trkpt>
      <trkpt lat="47.26967" lon="-2.34019">
        <ele>46</ele>
        <time>2020-02-13T08:52:24.000Z</time>
      </trkpt>
      <trkpt lat="47.2698" lon="-2.34022">
        <ele>46</ele>
        <time>2020-02-13T08:52:27.000Z</time>
      </trkpt>
      <trkpt lat="47.26995" lon="-2.34019">
        <ele>46</ele>
        <time>2020-02-13T08:52:30.000Z</time>
      </trkpt>
      <trkpt lat="47.2701" lon="-2.34018">
        <ele>46</ele>
        <time>2020-02-13T08:52:33.000Z</time>
      </trkpt>
      <trkpt lat="47.27028" lon="-2.34017">
        <ele>46</ele>
        <time>2020-02-13T08:52:37.000Z</time>
      </trkpt>
      <trkpt lat="47.27035" lon="-2.34018">
        <ele>46</ele>
        <time>2020-02-13T08:52:39.000Z</time>
      </trkpt>
      <trkpt lat="47.27043" lon="-2.34022">
        <ele>46</ele>
        <time>2020-02-13T08:52:42.000Z</time>
      </trkpt>
      <trkpt lat="47.27045" lon="-2.34025">
        <ele>46</ele>
        <time>2020-02-13T08:52:43.000Z</time>
      </trkpt>
      <trkpt lat="47.27048" lon="-2.34046">
        <ele>46</ele>
        <time>2020-02-13T08:52:47.000Z</time>
      </trkpt>
      <trkpt lat="47.27048" lon="-2.34053">
        <ele>46</ele>
        <time>2020-02-13T08:52:48.000Z</time>
      </trkpt>
      <trkpt lat="47.27047" lon="-2.34085">
        <ele>46</ele>
        <time>2020-02-13T08:52:53.000Z</time>
      </trkpt>
      <trkpt lat="47.27047" lon="-2.34104">
        <ele>46</ele>
        <time>2020-02-13T08:52:56.000Z</time>
      </trkpt>
      <trkpt lat="47.27047" lon="-2.3412">
        <ele>46</ele>
        <time>2020-02-13T08:52:59.000Z</time>
      </trkpt>
      <trkpt lat="47.27047" lon="-2.34125">
        <ele>46</ele>
        <time>2020-02-13T08:53:00.000Z</time>
      </trkpt>
      <trkpt lat="47.27049" lon="-2.34152">
        <ele>46</ele>
        <time>2020-02-13T08:53:06.000Z</time>
      </trkpt>
      <trkpt lat="47.27058" lon="-2.34146">
        <ele>46</ele>
        <time>2020-02-13T08:53:09.000Z</time>
      </trkpt>
      <trkpt lat="47.27067" lon="-2.34132">
        <ele>46</ele>
        <time>2020-02-13T08:53:12.000Z</time>
      </trkpt>
      <trkpt lat="47.2707" lon="-2.34127">
        <ele>46</ele>
        <time>2020-02-13T08:53:13.000Z</time>
      </trkpt>
      <trkpt lat="47.27085" lon="-2.34105">
        <ele>46</ele>
        <time>2020-02-13T08:53:18.000Z</time>
      </trkpt>
      <trkpt lat="47.2709" lon="-2.34102">
        <ele>46</ele>
        <time>2020-02-13T08:53:20.000Z</time>
      </trkpt>
      <trkpt lat="47.27094" lon="-2.34108">
        <ele>46.400001525879</ele>
        <time>2020-02-13T08:53:22.000Z</time>
      </trkpt>
      <trkpt lat="47.27094" lon="-2.34113">
        <ele>46.799999237061</ele>
        <time>2020-02-13T08:53:23.000Z</time>
      </trkpt>
      <trkpt lat="47.27095" lon="-2.34118">
        <ele>47.200000762939</ele>
        <time>2020-02-13T08:53:24.000Z</time>
      </trkpt>
      <trkpt lat="47.27095" lon="-2.34124">
        <ele>48.200000762939</ele>
        <time>2020-02-13T08:53:25.000Z</time>
      </trkpt>
      <trkpt lat="47.27097" lon="-2.34129">
        <ele>48.200000762939</ele>
        <time>2020-02-13T08:53:26.000Z</time>
      </trkpt>
      <trkpt lat="47.27103" lon="-2.34136">
        <ele>48.200000762939</ele>
        <time>2020-02-13T08:53:28.000Z</time>
      </trkpt>
      <trkpt lat="47.27108" lon="-2.34136">
        <ele>48.200000762939</ele>
        <time>2020-02-13T08:53:29.000Z</time>
      </trkpt>
      <trkpt lat="47.27132" lon="-2.34135">
        <ele>48.599998474121</ele>
        <time>2020-02-13T08:53:35.000Z</time>
      </trkpt>
      <trkpt lat="47.27136" lon="-2.34135">
        <ele>49</ele>
        <time>2020-02-13T08:53:36.000Z</time>
      </trkpt>
      <trkpt lat="47.2714" lon="-2.34134">
        <ele>49.400001525879</ele>
        <time>2020-02-13T08:53:37.000Z</time>
      </trkpt>
      <trkpt lat="47.27144" lon="-2.34134">
        <ele>49.799999237061</ele>
        <time>2020-02-13T08:53:38.000Z</time>
      </trkpt>
      <trkpt lat="47.27147" lon="-2.34133">
        <ele>50.200000762939</ele>
        <time>2020-02-13T08:53:39.000Z</time>
      </trkpt>
      <trkpt lat="47.27158" lon="-2.34133">
        <ele>50.599998474121</ele>
        <time>2020-02-13T08:53:42.000Z</time>
      </trkpt>
      <trkpt lat="47.27161" lon="-2.34132">
        <ele>51</ele>
        <time>2020-02-13T08:53:43.000Z</time>
      </trkpt>
      <trkpt lat="47.27165" lon="-2.34132">
        <ele>51.400001525879</ele>
        <time>2020-02-13T08:53:44.000Z</time>
      </trkpt>
      <trkpt lat="47.27168" lon="-2.34132">
        <ele>51.799999237061</ele>
        <time>2020-02-13T08:53:45.000Z</time>
      </trkpt>
      <trkpt lat="47.27172" lon="-2.34132">
        <ele>52.400001525879</ele>
        <time>2020-02-13T08:53:46.000Z</time>
      </trkpt>
      <trkpt lat="47.27179" lon="-2.3413">
        <ele>52.400001525879</ele>
        <time>2020-02-13T08:53:48.000Z</time>
      </trkpt>
      <trkpt lat="47.27185" lon="-2.34128">
        <ele>53.400001525879</ele>
        <time>2020-02-13T08:53:50.000Z</time>
      </trkpt>
      <trkpt lat="47.27189" lon="-2.34127">
        <ele>53.799999237061</ele>
        <time>2020-02-13T08:53:51.000Z</time>
      </trkpt>
      <trkpt lat="47.27192" lon="-2.34126">
        <ele>54.400001525879</ele>
        <time>2020-02-13T08:53:52.000Z</time>
      </trkpt>
      <trkpt lat="47.27196" lon="-2.34126">
        <ele>54.799999237061</ele>
        <time>2020-02-13T08:53:53.000Z</time>
      </trkpt>
      <trkpt lat="47.27203" lon="-2.34124">
        <ele>54.799999237061</ele>
        <time>2020-02-13T08:53:55.000Z</time>
      </trkpt>
      <trkpt lat="47.27207" lon="-2.34122">
        <ele>55.400001525879</ele>
        <time>2020-02-13T08:53:56.000Z</time>
      </trkpt>
      <trkpt lat="47.27211" lon="-2.34122">
        <ele>55.799999237061</ele>
        <time>2020-02-13T08:53:57.000Z</time>
      </trkpt>
      <trkpt lat="47.27215" lon="-2.34122">
        <ele>56.400001525879</ele>
        <time>2020-02-13T08:53:58.000Z</time>
      </trkpt>
      <trkpt lat="47.27219" lon="-2.34121">
        <ele>56.799999237061</ele>
        <time>2020-02-13T08:53:59.000Z</time>
      </trkpt>
      <trkpt lat="47.27224" lon="-2.34121">
        <ele>57.400001525879</ele>
        <time>2020-02-13T08:54:00.000Z</time>
      </trkpt>
      <trkpt lat="47.27246" lon="-2.34119">
        <ele>57.400001525879</ele>
        <time>2020-02-13T08:54:05.000Z</time>
      </trkpt>
      <trkpt lat="47.27261" lon="-2.34116">
        <ele>57.799999237061</ele>
        <time>2020-02-13T08:54:09.000Z</time>
      </trkpt>
      <trkpt lat="47.27265" lon="-2.34116">
        <ele>58.200000762939</ele>
        <time>2020-02-13T08:54:10.000Z</time>
      </trkpt>
      <trkpt lat="47.27269" lon="-2.34116">
        <ele>58.599998474121</ele>
        <time>2020-02-13T08:54:11.000Z</time>
      </trkpt>
      <trkpt lat="47.27273" lon="-2.34117">
        <ele>59.200000762939</ele>
        <time>2020-02-13T08:54:12.000Z</time>
      </trkpt>
      <trkpt lat="47.27276" lon="-2.34119">
        <ele>59.599998474121</ele>
        <time>2020-02-13T08:54:13.000Z</time>
      </trkpt>
      <trkpt lat="47.27293" lon="-2.34124">
        <ele>59.599998474121</ele>
        <time>2020-02-13T08:54:17.000Z</time>
      </trkpt>
      <trkpt lat="47.27297" lon="-2.34126">
        <ele>59.599998474121</ele>
        <time>2020-02-13T08:54:18.000Z</time>
      </trkpt>
      <trkpt lat="47.27313" lon="-2.34138">
        <ele>59.599998474121</ele>
        <time>2020-02-13T08:54:22.000Z</time>
      </trkpt>
      <trkpt lat="47.27346" lon="-2.3416">
        <ele>59.599998474121</ele>
        <time>2020-02-13T08:54:30.000Z</time>
      </trkpt>
      <trkpt lat="47.27374" lon="-2.34179">
        <ele>59.599998474121</ele>
        <time>2020-02-13T08:54:38.000Z</time>
      </trkpt>
      <trkpt lat="47.27391" lon="-2.34193">
        <ele>59.599998474121</ele>
        <time>2020-02-13T08:54:44.000Z</time>
      </trkpt>
      <trkpt lat="47.27398" lon="-2.34205">
        <ele>59.599998474121</ele>
        <time>2020-02-13T08:54:49.000Z</time>
      </trkpt>
      <trkpt lat="47.27401" lon="-2.34229">
        <ele>59.599998474121</ele>
        <time>2020-02-13T08:54:56.000Z</time>
      </trkpt>
      <trkpt lat="47.27404" lon="-2.34236">
        <ele>59.599998474121</ele>
        <time>2020-02-13T08:55:01.000Z</time>
      </trkpt>
      <trkpt lat="47.2741" lon="-2.34249">
        <ele>59.599998474121</ele>
        <time>2020-02-13T08:55:05.000Z</time>
      </trkpt>
      <trkpt lat="47.27411" lon="-2.3427">
        <ele>59.599998474121</ele>
        <time>2020-02-13T08:55:09.000Z</time>
      </trkpt>
      <trkpt lat="47.27414" lon="-2.34299">
        <ele>59.599998474121</ele>
        <time>2020-02-13T08:55:14.000Z</time>
      </trkpt>
      <trkpt lat="47.27413" lon="-2.34341">
        <ele>59.599998474121</ele>
        <time>2020-02-13T08:55:21.000Z</time>
      </trkpt>
      <trkpt lat="47.27414" lon="-2.34358">
        <ele>60</ele>
        <time>2020-02-13T08:55:24.000Z</time>
      </trkpt>
      <trkpt lat="47.27415" lon="-2.34364">
        <ele>60.400001525879</ele>
        <time>2020-02-13T08:55:25.000Z</time>
      </trkpt>
      <trkpt lat="47.27416" lon="-2.34369">
        <ele>60.799999237061</ele>
        <time>2020-02-13T08:55:26.000Z</time>
      </trkpt>
      <trkpt lat="47.27417" lon="-2.34374">
        <ele>61.599998474121</ele>
        <time>2020-02-13T08:55:27.000Z</time>
      </trkpt>
      <trkpt lat="47.27417" lon="-2.34379">
        <ele>61.599998474121</ele>
        <time>2020-02-13T08:55:28.000Z</time>
      </trkpt>
      <trkpt lat="47.2742" lon="-2.34415">
        <ele>62</ele>
        <time>2020-02-13T08:55:34.000Z</time>
      </trkpt>
      <trkpt lat="47.27421" lon="-2.3442">
        <ele>62.400001525879</ele>
        <time>2020-02-13T08:55:35.000Z</time>
      </trkpt>
      <trkpt lat="47.27421" lon="-2.34426">
        <ele>62.799999237061</ele>
        <time>2020-02-13T08:55:36.000Z</time>
      </trkpt>
      <trkpt lat="47.27422" lon="-2.34432">
        <ele>63.200000762939</ele>
        <time>2020-02-13T08:55:37.000Z</time>
      </trkpt>
      <trkpt lat="47.27422" lon="-2.34438">
        <ele>63.799999237061</ele>
        <time>2020-02-13T08:55:38.000Z</time>
      </trkpt>
      <trkpt lat="47.27424" lon="-2.34462">
        <ele>63.799999237061</ele>
        <time>2020-02-13T08:55:42.000Z</time>
      </trkpt>
      <trkpt lat="47.2743" lon="-2.34496">
        <ele>63.799999237061</ele>
        <time>2020-02-13T08:55:48.000Z</time>
      </trkpt>
      <trkpt lat="47.27436" lon="-2.34528">
        <ele>63.799999237061</ele>
        <time>2020-02-13T08:55:54.000Z</time>
      </trkpt>
      <trkpt lat="47.27441" lon="-2.34549">
        <ele>63.799999237061</ele>
        <time>2020-02-13T08:55:58.000Z</time>
      </trkpt>
      <trkpt lat="47.27443" lon="-2.3456">
        <ele>63.799999237061</ele>
        <time>2020-02-13T08:56:00.000Z</time>
      </trkpt>
      <trkpt lat="47.2745" lon="-2.34597">
        <ele>63.799999237061</ele>
        <time>2020-02-13T08:56:06.000Z</time>
      </trkpt>
      <trkpt lat="47.27456" lon="-2.34642">
        <ele>63.799999237061</ele>
        <time>2020-02-13T08:56:13.000Z</time>
      </trkpt>
      <trkpt lat="47.27459" lon="-2.34671">
        <ele>63.799999237061</ele>
        <time>2020-02-13T08:56:19.000Z</time>
      </trkpt>
      <trkpt lat="47.27462" lon="-2.34687">
        <ele>63.799999237061</ele>
        <time>2020-02-13T08:56:23.000Z</time>
      </trkpt>
      <trkpt lat="47.27465" lon="-2.34687">
        <ele>63.799999237061</ele>
        <time>2020-02-13T08:56:24.000Z</time>
      </trkpt>
      <trkpt lat="47.2748" lon="-2.34679">
        <ele>63.799999237061</ele>
        <time>2020-02-13T08:56:28.000Z</time>
      </trkpt>
      <trkpt lat="47.27489" lon="-2.34676">
        <ele>63.799999237061</ele>
        <time>2020-02-13T08:56:30.000Z</time>
      </trkpt>
      <trkpt lat="47.27503" lon="-2.34675">
        <ele>63.799999237061</ele>
        <time>2020-02-13T08:56:33.000Z</time>
      </trkpt>
      <trkpt lat="47.27528" lon="-2.34675">
        <ele>63.799999237061</ele>
        <time>2020-02-13T08:56:38.000Z</time>
      </trkpt>
      <trkpt lat="47.27538" lon="-2.34672">
        <ele>63.799999237061</ele>
        <time>2020-02-13T08:56:40.000Z</time>
      </trkpt>
      <trkpt lat="47.27567" lon="-2.3466">
        <ele>63.799999237061</ele>
        <time>2020-02-13T08:56:46.000Z</time>
      </trkpt>
      <trkpt lat="47.2757" lon="-2.34656">
        <ele>63.799999237061</ele>
        <time>2020-02-13T08:56:47.000Z</time>
      </trkpt>
      <trkpt lat="47.276" lon="-2.34629">
        <ele>63.799999237061</ele>
        <time>2020-02-13T08:56:54.000Z</time>
      </trkpt>
      <trkpt lat="47.27626" lon="-2.34603">
        <ele>63.799999237061</ele>
        <time>2020-02-13T08:57:00.000Z</time>
      </trkpt>
      <trkpt lat="47.27652" lon="-2.3458">
        <ele>63.799999237061</ele>
        <time>2020-02-13T08:57:06.000Z</time>
      </trkpt>
      <trkpt lat="47.27673" lon="-2.34562">
        <ele>63.799999237061</ele>
        <time>2020-02-13T08:57:12.000Z</time>
      </trkpt>
      <trkpt lat="47.27676" lon="-2.34562">
        <ele>63.799999237061</ele>
        <time>2020-02-13T08:57:14.000Z</time>
      </trkpt>
      <trkpt lat="47.27678" lon="-2.34565">
        <ele>63.799999237061</ele>
        <time>2020-02-13T08:57:16.000Z</time>
      </trkpt>
      <trkpt lat="47.27683" lon="-2.34574">
        <ele>63.799999237061</ele>
        <time>2020-02-13T08:57:20.000Z</time>
      </trkpt>
      <trkpt lat="47.27688" lon="-2.34581">
        <ele>63.799999237061</ele>
        <time>2020-02-13T08:57:23.000Z</time>
      </trkpt>
      <trkpt lat="47.27692" lon="-2.3459">
        <ele>63.799999237061</ele>
        <time>2020-02-13T08:57:25.000Z</time>
      </trkpt>
      <trkpt lat="47.27693" lon="-2.34597">
        <ele>63.799999237061</ele>
        <time>2020-02-13T08:57:26.000Z</time>
      </trkpt>
      <trkpt lat="47.27694" lon="-2.34621">
        <ele>63.799999237061</ele>
        <time>2020-02-13T08:57:29.000Z</time>
      </trkpt>
      <trkpt lat="47.27696" lon="-2.34657">
        <ele>63.799999237061</ele>
        <time>2020-02-13T08:57:35.000Z</time>
      </trkpt>
      <trkpt lat="47.277" lon="-2.3468">
        <ele>63.799999237061</ele>
        <time>2020-02-13T08:57:40.000Z</time>
      </trkpt>
      <trkpt lat="47.27705" lon="-2.34696">
        <ele>63.799999237061</ele>
        <time>2020-02-13T08:57:43.000Z</time>
      </trkpt>
      <trkpt lat="47.27706" lon="-2.34703">
        <ele>63.799999237061</ele>
        <time>2020-02-13T08:57:44.000Z</time>
      </trkpt>
      <trkpt lat="47.27715" lon="-2.34752">
        <ele>63.799999237061</ele>
        <time>2020-02-13T08:57:51.000Z</time>
      </trkpt>
      <trkpt lat="47.27723" lon="-2.34769">
        <ele>63.799999237061</ele>
        <time>2020-02-13T08:57:54.000Z</time>
      </trkpt>
      <trkpt lat="47.27729" lon="-2.34781">
        <ele>63.799999237061</ele>
        <time>2020-02-13T08:57:56.000Z</time>
      </trkpt>
      <trkpt lat="47.27731" lon="-2.34787">
        <ele>63.799999237061</ele>
        <time>2020-02-13T08:57:57.000Z</time>
      </trkpt>
      <trkpt lat="47.27743" lon="-2.34812">
        <ele>63.799999237061</ele>
        <time>2020-02-13T08:58:01.000Z</time>
      </trkpt>
      <trkpt lat="47.2775" lon="-2.34823">
        <ele>63.799999237061</ele>
        <time>2020-02-13T08:58:03.000Z</time>
      </trkpt>
      <trkpt lat="47.27759" lon="-2.34838">
        <ele>63.799999237061</ele>
        <time>2020-02-13T08:58:06.000Z</time>
      </trkpt>
      <trkpt lat="47.27768" lon="-2.34853">
        <ele>63.200000762939</ele>
        <time>2020-02-13T08:58:09.000Z</time>
      </trkpt>
      <trkpt lat="47.27771" lon="-2.34858">
        <ele>62.799999237061</ele>
        <time>2020-02-13T08:58:10.000Z</time>
      </trkpt>
      <trkpt lat="47.27773" lon="-2.34864">
        <ele>62.400001525879</ele>
        <time>2020-02-13T08:58:11.000Z</time>
      </trkpt>
      <trkpt lat="47.27775" lon="-2.34868">
        <ele>61.799999237061</ele>
        <time>2020-02-13T08:58:12.000Z</time>
      </trkpt>
      <trkpt lat="47.27779" lon="-2.34869">
        <ele>61.400001525879</ele>
        <time>2020-02-13T08:58:13.000Z</time>
      </trkpt>
      <trkpt lat="47.27782" lon="-2.34869">
        <ele>61.400001525879</ele>
        <time>2020-02-13T08:58:14.000Z</time>
      </trkpt>
      <trkpt lat="47.27785" lon="-2.34868">
        <ele>61</ele>
        <time>2020-02-13T08:58:15.000Z</time>
      </trkpt>
      <trkpt lat="47.27787" lon="-2.34866">
        <ele>60.599998474121</ele>
        <time>2020-02-13T08:58:16.000Z</time>
      </trkpt>
      <trkpt lat="47.27788" lon="-2.34865">
        <ele>60.200000762939</ele>
        <time>2020-02-13T08:58:17.000Z</time>
      </trkpt>
      <trkpt lat="47.2779" lon="-2.34866">
        <ele>59.799999237061</ele>
        <time>2020-02-13T08:58:18.000Z</time>
      </trkpt>
      <trkpt lat="47.27791" lon="-2.34868">
        <ele>59.400001525879</ele>
        <time>2020-02-13T08:58:19.000Z</time>
      </trkpt>
      <trkpt lat="47.27792" lon="-2.34872">
        <ele>59.400001525879</ele>
        <time>2020-02-13T08:58:20.000Z</time>
      </trkpt>
      <trkpt lat="47.27801" lon="-2.34882">
        <ele>59.400001525879</ele>
        <time>2020-02-13T08:58:24.000Z</time>
      </trkpt>
      <trkpt lat="47.27803" lon="-2.34883">
        <ele>59.400001525879</ele>
        <time>2020-02-13T08:58:25.000Z</time>
      </trkpt>
      <trkpt lat="47.27816" lon="-2.34893">
        <ele>59.400001525879</ele>
        <time>2020-02-13T08:58:29.000Z</time>
      </trkpt>
      <trkpt lat="47.27836" lon="-2.34916">
        <ele>59.400001525879</ele>
        <time>2020-02-13T08:58:36.000Z</time>
      </trkpt>
      <trkpt lat="47.27855" lon="-2.34937">
        <ele>59.400001525879</ele>
        <time>2020-02-13T08:58:42.000Z</time>
      </trkpt>
      <trkpt lat="47.2786" lon="-2.34943">
        <ele>59.799999237061</ele>
        <time>2020-02-13T08:58:44.000Z</time>
      </trkpt>
      <trkpt lat="47.27862" lon="-2.34945">
        <ele>60.799999237061</ele>
        <time>2020-02-13T08:58:45.000Z</time>
      </trkpt>
      <trkpt lat="47.27864" lon="-2.34948">
        <ele>61.200000762939</ele>
        <time>2020-02-13T08:58:46.000Z</time>
      </trkpt>
      <trkpt lat="47.27867" lon="-2.34952">
        <ele>61.599998474121</ele>
        <time>2020-02-13T08:58:47.000Z</time>
      </trkpt>
      <trkpt lat="47.2787" lon="-2.34956">
        <ele>61.599998474121</ele>
        <time>2020-02-13T08:58:48.000Z</time>
      </trkpt>
      <trkpt lat="47.27886" lon="-2.34984">
        <ele>61.599998474121</ele>
        <time>2020-02-13T08:58:54.000Z</time>
      </trkpt>
      <trkpt lat="47.27896" lon="-2.35009">
        <ele>61.599998474121</ele>
        <time>2020-02-13T08:58:59.000Z</time>
      </trkpt>
      <trkpt lat="47.27898" lon="-2.35016">
        <ele>61.599998474121</ele>
        <time>2020-02-13T08:59:00.000Z</time>
      </trkpt>
      <trkpt lat="47.27904" lon="-2.35039">
        <ele>61.599998474121</ele>
        <time>2020-02-13T08:59:05.000Z</time>
      </trkpt>
      <trkpt lat="47.27912" lon="-2.35039">
        <ele>61.599998474121</ele>
        <time>2020-02-13T08:59:08.000Z</time>
      </trkpt>
      <trkpt lat="47.27915" lon="-2.35035">
        <ele>61.599998474121</ele>
        <time>2020-02-13T08:59:09.000Z</time>
      </trkpt>
      <trkpt lat="47.27921" lon="-2.35033">
        <ele>61.599998474121</ele>
        <time>2020-02-13T08:59:11.000Z</time>
      </trkpt>
      <trkpt lat="47.27936" lon="-2.3504">
        <ele>61.599998474121</ele>
        <time>2020-02-13T08:59:15.000Z</time>
      </trkpt>
      <trkpt lat="47.27946" lon="-2.35055">
        <ele>61.599998474121</ele>
        <time>2020-02-13T08:59:18.000Z</time>
      </trkpt>
      <trkpt lat="47.27951" lon="-2.35061">
        <ele>61.599998474121</ele>
        <time>2020-02-13T08:59:19.000Z</time>
      </trkpt>
      <trkpt lat="47.27959" lon="-2.35071">
        <ele>61.599998474121</ele>
        <time>2020-02-13T08:59:21.000Z</time>
      </trkpt>
      <trkpt lat="47.27965" lon="-2.35089">
        <ele>61.599998474121</ele>
        <time>2020-02-13T08:59:24.000Z</time>
      </trkpt>
      <trkpt lat="47.27966" lon="-2.35096">
        <ele>61.200000762939</ele>
        <time>2020-02-13T08:59:25.000Z</time>
      </trkpt>
      <trkpt lat="47.27967" lon="-2.35102">
        <ele>60.799999237061</ele>
        <time>2020-02-13T08:59:26.000Z</time>
      </trkpt>
      <trkpt lat="47.27966" lon="-2.35109">
        <ele>60.400001525879</ele>
        <time>2020-02-13T08:59:27.000Z</time>
      </trkpt>
      <trkpt lat="47.27965" lon="-2.35115">
        <ele>60</ele>
        <time>2020-02-13T08:59:28.000Z</time>
      </trkpt>
      <trkpt lat="47.27964" lon="-2.35122">
        <ele>59.599998474121</ele>
        <time>2020-02-13T08:59:29.000Z</time>
      </trkpt>
      <trkpt lat="47.27956" lon="-2.35143">
        <ele>59.599998474121</ele>
        <time>2020-02-13T08:59:32.000Z</time>
      </trkpt>
      <trkpt lat="47.27945" lon="-2.35168">
        <ele>59.599998474121</ele>
        <time>2020-02-13T08:59:36.000Z</time>
      </trkpt>
      <trkpt lat="47.27942" lon="-2.35174">
        <ele>59.599998474121</ele>
        <time>2020-02-13T08:59:37.000Z</time>
      </trkpt>
      <trkpt lat="47.27922" lon="-2.35203">
        <ele>59.599998474121</ele>
        <time>2020-02-13T08:59:43.000Z</time>
      </trkpt>
      <trkpt lat="47.2792" lon="-2.35216">
        <ele>59.599998474121</ele>
        <time>2020-02-13T08:59:46.000Z</time>
      </trkpt>
      <trkpt lat="47.27923" lon="-2.35241">
        <ele>59.599998474121</ele>
        <time>2020-02-13T08:59:50.000Z</time>
      </trkpt>
      <trkpt lat="47.27924" lon="-2.35247">
        <ele>59.599998474121</ele>
        <time>2020-02-13T08:59:51.000Z</time>
      </trkpt>
      <trkpt lat="47.27926" lon="-2.35265">
        <ele>59.599998474121</ele>
        <time>2020-02-13T08:59:54.000Z</time>
      </trkpt>
      <trkpt lat="47.27928" lon="-2.35288">
        <ele>59.599998474121</ele>
        <time>2020-02-13T08:59:58.000Z</time>
      </trkpt>
      <trkpt lat="47.27932" lon="-2.35306">
        <ele>59.599998474121</ele>
        <time>2020-02-13T09:00:01.000Z</time>
      </trkpt>
      <trkpt lat="47.27935" lon="-2.35317">
        <ele>59.599998474121</ele>
        <time>2020-02-13T09:00:03.000Z</time>
      </trkpt>
      <trkpt lat="47.27933" lon="-2.35337">
        <ele>59.599998474121</ele>
        <time>2020-02-13T09:00:06.000Z</time>
      </trkpt>
      <trkpt lat="47.27932" lon="-2.35343">
        <ele>59.599998474121</ele>
        <time>2020-02-13T09:00:07.000Z</time>
      </trkpt>
      <trkpt lat="47.27931" lon="-2.3535">
        <ele>59.599998474121</ele>
        <time>2020-02-13T09:00:08.000Z</time>
      </trkpt>
      <trkpt lat="47.27931" lon="-2.3537">
        <ele>59.599998474121</ele>
        <time>2020-02-13T09:00:11.000Z</time>
      </trkpt>
      <trkpt lat="47.27936" lon="-2.35407">
        <ele>59.599998474121</ele>
        <time>2020-02-13T09:00:17.000Z</time>
      </trkpt>
      <trkpt lat="47.27945" lon="-2.35427">
        <ele>59.599998474121</ele>
        <time>2020-02-13T09:00:22.000Z</time>
      </trkpt>
      <trkpt lat="47.27947" lon="-2.35431">
        <ele>59.200000762939</ele>
        <time>2020-02-13T09:00:23.000Z</time>
      </trkpt>
      <trkpt lat="47.27949" lon="-2.35434">
        <ele>58.200000762939</ele>
        <time>2020-02-13T09:00:24.000Z</time>
      </trkpt>
      <trkpt lat="47.27951" lon="-2.35437">
        <ele>57.799999237061</ele>
        <time>2020-02-13T09:00:25.000Z</time>
      </trkpt>
      <trkpt lat="47.27953" lon="-2.35441">
        <ele>57.400001525879</ele>
        <time>2020-02-13T09:00:26.000Z</time>
      </trkpt>
      <trkpt lat="47.27955" lon="-2.35449">
        <ele>57.400001525879</ele>
        <time>2020-02-13T09:00:28.000Z</time>
      </trkpt>
      <trkpt lat="47.27958" lon="-2.35459">
        <ele>57.400001525879</ele>
        <time>2020-02-13T09:00:31.000Z</time>
      </trkpt>
      <trkpt lat="47.27969" lon="-2.35458">
        <ele>57.400001525879</ele>
        <time>2020-02-13T09:00:34.000Z</time>
      </trkpt>
      <trkpt lat="47.27977" lon="-2.35456">
        <ele>57.400001525879</ele>
        <time>2020-02-13T09:00:36.000Z</time>
      </trkpt>
      <trkpt lat="47.27993" lon="-2.35455">
        <ele>57.400001525879</ele>
        <time>2020-02-13T09:00:40.000Z</time>
      </trkpt>
      <trkpt lat="47.28013" lon="-2.35458">
        <ele>57.400001525879</ele>
        <time>2020-02-13T09:00:45.000Z</time>
      </trkpt>
      <trkpt lat="47.28018" lon="-2.35459">
        <ele>57.400001525879</ele>
        <time>2020-02-13T09:00:46.000Z</time>
      </trkpt>
      <trkpt lat="47.28031" lon="-2.35467">
        <ele>57.400001525879</ele>
        <time>2020-02-13T09:00:49.000Z</time>
      </trkpt>
      <trkpt lat="47.28044" lon="-2.35476">
        <ele>57.400001525879</ele>
        <time>2020-02-13T09:00:52.000Z</time>
      </trkpt>
      <trkpt lat="47.28059" lon="-2.35484">
        <ele>57.400001525879</ele>
        <time>2020-02-13T09:00:55.000Z</time>
      </trkpt>
      <trkpt lat="47.2807" lon="-2.35486">
        <ele>57.400001525879</ele>
        <time>2020-02-13T09:00:57.000Z</time>
      </trkpt>
      <trkpt lat="47.28089" lon="-2.35484">
        <ele>57.400001525879</ele>
        <time>2020-02-13T09:01:01.000Z</time>
      </trkpt>
      <trkpt lat="47.28094" lon="-2.35483">
        <ele>57.400001525879</ele>
        <time>2020-02-13T09:01:02.000Z</time>
      </trkpt>
      <trkpt lat="47.28099" lon="-2.35481">
        <ele>57.400001525879</ele>
        <time>2020-02-13T09:01:03.000Z</time>
      </trkpt>
      <trkpt lat="47.28113" lon="-2.35475">
        <ele>57.400001525879</ele>
        <time>2020-02-13T09:01:06.000Z</time>
      </trkpt>
      <trkpt lat="47.28127" lon="-2.3547">
        <ele>57.799999237061</ele>
        <time>2020-02-13T09:01:09.000Z</time>
      </trkpt>
      <trkpt lat="47.28131" lon="-2.35468">
        <ele>58.200000762939</ele>
        <time>2020-02-13T09:01:10.000Z</time>
      </trkpt>
      <trkpt lat="47.28135" lon="-2.35467">
        <ele>58.599998474121</ele>
        <time>2020-02-13T09:01:11.000Z</time>
      </trkpt>
      <trkpt lat="47.2814" lon="-2.35465">
        <ele>59</ele>
        <time>2020-02-13T09:01:12.000Z</time>
      </trkpt>
      <trkpt lat="47.28145" lon="-2.35463">
        <ele>59.400001525879</ele>
        <time>2020-02-13T09:01:13.000Z</time>
      </trkpt>
      <trkpt lat="47.28172" lon="-2.35452">
        <ele>59.400001525879</ele>
        <time>2020-02-13T09:01:19.000Z</time>
      </trkpt>
      <trkpt lat="47.28195" lon="-2.35443">
        <ele>59.400001525879</ele>
        <time>2020-02-13T09:01:24.000Z</time>
      </trkpt>
      <trkpt lat="47.28209" lon="-2.35435">
        <ele>59.799999237061</ele>
        <time>2020-02-13T09:01:27.000Z</time>
      </trkpt>
      <trkpt lat="47.28213" lon="-2.35431">
        <ele>60.200000762939</ele>
        <time>2020-02-13T09:01:28.000Z</time>
      </trkpt>
      <trkpt lat="47.28217" lon="-2.35427">
        <ele>60.599998474121</ele>
        <time>2020-02-13T09:01:29.000Z</time>
      </trkpt>
      <trkpt lat="47.28221" lon="-2.35423">
        <ele>61</ele>
        <time>2020-02-13T09:01:30.000Z</time>
      </trkpt>
      <trkpt lat="47.28225" lon="-2.3542">
        <ele>61.400001525879</ele>
        <time>2020-02-13T09:01:31.000Z</time>
      </trkpt>
      <trkpt lat="47.28237" lon="-2.35404">
        <ele>61.400001525879</ele>
        <time>2020-02-13T09:01:35.000Z</time>
      </trkpt>
      <trkpt lat="47.28245" lon="-2.35396">
        <ele>61.400001525879</ele>
        <time>2020-02-13T09:01:40.000Z</time>
      </trkpt>
      <trkpt lat="47.28251" lon="-2.35404">
        <ele>61.400001525879</ele>
        <time>2020-02-13T09:01:44.000Z</time>
      </trkpt>
      <trkpt lat="47.28263" lon="-2.35409">
        <ele>61.400001525879</ele>
        <time>2020-02-13T09:01:48.000Z</time>
      </trkpt>
      <trkpt lat="47.28276" lon="-2.35402">
        <ele>61.400001525879</ele>
        <time>2020-02-13T09:01:52.000Z</time>
      </trkpt>
      <trkpt lat="47.28282" lon="-2.35391">
        <ele>61.400001525879</ele>
        <time>2020-02-13T09:01:55.000Z</time>
      </trkpt>
      <trkpt lat="47.28284" lon="-2.35386">
        <ele>62</ele>
        <time>2020-02-13T09:01:56.000Z</time>
      </trkpt>
      <trkpt lat="47.28286" lon="-2.35382">
        <ele>62.400001525879</ele>
        <time>2020-02-13T09:01:57.000Z</time>
      </trkpt>
      <trkpt lat="47.28289" lon="-2.35377">
        <ele>62.799999237061</ele>
        <time>2020-02-13T09:01:58.000Z</time>
      </trkpt>
      <trkpt lat="47.28293" lon="-2.35374">
        <ele>63.200000762939</ele>
        <time>2020-02-13T09:01:59.000Z</time>
      </trkpt>
      <trkpt lat="47.28297" lon="-2.35371">
        <ele>63.599998474121</ele>
        <time>2020-02-13T09:02:00.000Z</time>
      </trkpt>
      <trkpt lat="47.28305" lon="-2.35366">
        <ele>63.599998474121</ele>
        <time>2020-02-13T09:02:02.000Z</time>
      </trkpt>
      <trkpt lat="47.28309" lon="-2.35363">
        <ele>63.599998474121</ele>
        <time>2020-02-13T09:02:03.000Z</time>
      </trkpt>
      <trkpt lat="47.28322" lon="-2.35355">
        <ele>63.599998474121</ele>
        <time>2020-02-13T09:02:06.000Z</time>
      </trkpt>
      <trkpt lat="47.28348" lon="-2.35341">
        <ele>63.599998474121</ele>
        <time>2020-02-13T09:02:13.000Z</time>
      </trkpt>
      <trkpt lat="47.28356" lon="-2.35338">
        <ele>63.599998474121</ele>
        <time>2020-02-13T09:02:17.000Z</time>
      </trkpt>
      <trkpt lat="47.28363" lon="-2.35352">
        <ele>63.599998474121</ele>
        <time>2020-02-13T09:02:22.000Z</time>
      </trkpt>
      <trkpt lat="47.28366" lon="-2.35361">
        <ele>63.599998474121</ele>
        <time>2020-02-13T09:02:25.000Z</time>
      </trkpt>
      <trkpt lat="47.28367" lon="-2.35364">
        <ele>64</ele>
        <time>2020-02-13T09:02:27.000Z</time>
      </trkpt>
      <trkpt lat="47.28368" lon="-2.35365">
        <ele>64.400001525879</ele>
        <time>2020-02-13T09:02:28.000Z</time>
      </trkpt>
      <trkpt lat="47.28369" lon="-2.35366">
        <ele>64.800003051758</ele>
        <time>2020-02-13T09:02:29.000Z</time>
      </trkpt>
      <trkpt lat="47.28371" lon="-2.35369">
        <ele>65.199996948242</ele>
        <time>2020-02-13T09:02:30.000Z</time>
      </trkpt>
      <trkpt lat="47.28372" lon="-2.35372">
        <ele>65.599998474121</ele>
        <time>2020-02-13T09:02:31.000Z</time>
      </trkpt>
      <trkpt lat="47.28373" lon="-2.3538">
        <ele>66</ele>
        <time>2020-02-13T09:02:33.000Z</time>
      </trkpt>
      <trkpt lat="47.28373" lon="-2.35384">
        <ele>66.599998474121</ele>
        <time>2020-02-13T09:02:34.000Z</time>
      </trkpt>
      <trkpt lat="47.28374" lon="-2.35386">
        <ele>67</ele>
        <time>2020-02-13T09:02:35.000Z</time>
      </trkpt>
      <trkpt lat="47.28374" lon="-2.35388">
        <ele>67.400001525879</ele>
        <time>2020-02-13T09:02:36.000Z</time>
      </trkpt>
      <trkpt lat="47.28374" lon="-2.3539">
        <ele>67.800003051758</ele>
        <time>2020-02-13T09:02:37.000Z</time>
      </trkpt>
      <trkpt lat="47.28375" lon="-2.35392">
        <ele>68.199996948242</ele>
        <time>2020-02-13T09:02:38.000Z</time>
      </trkpt>
      <trkpt lat="47.28375" lon="-2.35393">
        <ele>68.599998474121</ele>
        <time>2020-02-13T09:02:39.000Z</time>
      </trkpt>
      <trkpt lat="47.28377" lon="-2.35395">
        <ele>69</ele>
        <time>2020-02-13T09:02:40.000Z</time>
      </trkpt>
      <trkpt lat="47.28378" lon="-2.35396">
        <ele>69.400001525879</ele>
        <time>2020-02-13T09:02:41.000Z</time>
      </trkpt>
      <trkpt lat="47.2838" lon="-2.35398">
        <ele>70</ele>
        <time>2020-02-13T09:02:42.000Z</time>
      </trkpt>
      <trkpt lat="47.28382" lon="-2.35399">
        <ele>70.400001525879</ele>
        <time>2020-02-13T09:02:43.000Z</time>
      </trkpt>
      <trkpt lat="47.28383" lon="-2.35401">
        <ele>71</ele>
        <time>2020-02-13T09:02:44.000Z</time>
      </trkpt>
      <trkpt lat="47.28385" lon="-2.35404">
        <ele>71.400001525879</ele>
        <time>2020-02-13T09:02:45.000Z</time>
      </trkpt>
      <trkpt lat="47.28385" lon="-2.35407">
        <ele>72</ele>
        <time>2020-02-13T09:02:46.000Z</time>
      </trkpt>
      <trkpt lat="47.2839" lon="-2.35415">
        <ele>72</ele>
        <time>2020-02-13T09:02:49.000Z</time>
      </trkpt>
      <trkpt lat="47.28391" lon="-2.35417">
        <ele>72</ele>
        <time>2020-02-13T09:02:50.000Z</time>
      </trkpt>
      <trkpt lat="47.28395" lon="-2.35421">
        <ele>72</ele>
        <time>2020-02-13T09:02:56.000Z</time>
      </trkpt>
      <trkpt lat="47.28399" lon="-2.35425">
        <ele>74</ele>
        <time>2020-02-13T09:06:23.000Z</time>
      </trkpt>
      <trkpt lat="47.284" lon="-2.3543">
        <ele>74</ele>
        <time>2020-02-13T09:06:26.000Z</time>
      </trkpt>
      <trkpt lat="47.284" lon="-2.35429">
        <ele>74</ele>
        <time>2020-02-13T09:06:27.000Z</time>
      </trkpt>
      <trkpt lat="47.28405" lon="-2.35429">
        <ele>74</ele>
        <time>2020-02-13T09:06:30.000Z</time>
      </trkpt>
      <trkpt lat="47.2841" lon="-2.35424">
        <ele>74</ele>
        <time>2020-02-13T09:06:32.000Z</time>
      </trkpt>
      <trkpt lat="47.28424" lon="-2.35414">
        <ele>74</ele>
        <time>2020-02-13T09:06:38.000Z</time>
      </trkpt>
      <trkpt lat="47.28432" lon="-2.35409">
        <ele>74</ele>
        <time>2020-02-13T09:06:43.000Z</time>
      </trkpt>
      <trkpt lat="47.2844" lon="-2.35408">
        <ele>74</ele>
        <time>2020-02-13T09:06:46.000Z</time>
      </trkpt>
      <trkpt lat="47.28442" lon="-2.35406">
        <ele>74</ele>
        <time>2020-02-13T09:06:47.000Z</time>
      </trkpt>
      <trkpt lat="47.28454" lon="-2.35393">
        <ele>74</ele>
        <time>2020-02-13T09:06:51.000Z</time>
      </trkpt>
      <trkpt lat="47.28459" lon="-2.35383">
        <ele>73.599998474121</ele>
        <time>2020-02-13T09:06:54.000Z</time>
      </trkpt>
      <trkpt lat="47.28462" lon="-2.35379">
        <ele>73</ele>
        <time>2020-02-13T09:06:55.000Z</time>
      </trkpt>
      <trkpt lat="47.28463" lon="-2.35374">
        <ele>72.599998474121</ele>
        <time>2020-02-13T09:06:56.000Z</time>
      </trkpt>
      <trkpt lat="47.28465" lon="-2.35371">
        <ele>72</ele>
        <time>2020-02-13T09:06:57.000Z</time>
      </trkpt>
      <trkpt lat="47.28466" lon="-2.35366">
        <ele>70.800003051758</ele>
        <time>2020-02-13T09:06:58.000Z</time>
      </trkpt>
      <trkpt lat="47.28468" lon="-2.35361">
        <ele>70</ele>
        <time>2020-02-13T09:06:59.000Z</time>
      </trkpt>
      <trkpt lat="47.2847" lon="-2.35357">
        <ele>69.400001525879</ele>
        <time>2020-02-13T09:07:00.000Z</time>
      </trkpt>
      <trkpt lat="47.28472" lon="-2.35358">
        <ele>68.800003051758</ele>
        <time>2020-02-13T09:07:01.000Z</time>
      </trkpt>
      <trkpt lat="47.28473" lon="-2.35362">
        <ele>68.199996948242</ele>
        <time>2020-02-13T09:07:02.000Z</time>
      </trkpt>
      <trkpt lat="47.28475" lon="-2.35366">
        <ele>67.400001525879</ele>
        <time>2020-02-13T09:07:03.000Z</time>
      </trkpt>
      <trkpt lat="47.28476" lon="-2.35368">
        <ele>67.400001525879</ele>
        <time>2020-02-13T09:07:04.000Z</time>
      </trkpt>
      <trkpt lat="47.28481" lon="-2.35387">
        <ele>67.400001525879</ele>
        <time>2020-02-13T09:07:08.000Z</time>
      </trkpt>
      <trkpt lat="47.28484" lon="-2.35404">
        <ele>67.400001525879</ele>
        <time>2020-02-13T09:07:12.000Z</time>
      </trkpt>
      <trkpt lat="47.28488" lon="-2.35414">
        <ele>67.400001525879</ele>
        <time>2020-02-13T09:07:15.000Z</time>
      </trkpt>
      <trkpt lat="47.28488" lon="-2.35417">
        <ele>67.400001525879</ele>
        <time>2020-02-13T09:07:16.000Z</time>
      </trkpt>
      <trkpt lat="47.28488" lon="-2.35424">
        <ele>67.400001525879</ele>
        <time>2020-02-13T09:07:19.000Z</time>
      </trkpt>
      <trkpt lat="47.28486" lon="-2.35427">
        <ele>67.400001525879</ele>
        <time>2020-02-13T09:07:20.000Z</time>
      </trkpt>
      <trkpt lat="47.28484" lon="-2.35429">
        <ele>68</ele>
        <time>2020-02-13T09:07:21.000Z</time>
      </trkpt>
      <trkpt lat="47.28482" lon="-2.35431">
        <ele>68.800003051758</ele>
        <time>2020-02-13T09:07:22.000Z</time>
      </trkpt>
      <trkpt lat="47.2848" lon="-2.35432">
        <ele>69.199996948242</ele>
        <time>2020-02-13T09:07:23.000Z</time>
      </trkpt>
      <trkpt lat="47.2848" lon="-2.35434">
        <ele>69.599998474121</ele>
        <time>2020-02-13T09:07:24.000Z</time>
      </trkpt>
      <trkpt lat="47.28478" lon="-2.35435">
        <ele>69.599998474121</ele>
        <time>2020-02-13T09:07:25.000Z</time>
      </trkpt>
      <trkpt lat="47.28474" lon="-2.35435">
        <ele>70.199996948242</ele>
        <time>2020-02-13T09:07:28.000Z</time>
      </trkpt>
      <trkpt lat="47.28473" lon="-2.35436">
        <ele>70.599998474121</ele>
        <time>2020-02-13T09:07:29.000Z</time>
      </trkpt>
      <trkpt lat="47.28472" lon="-2.35436">
        <ele>71</ele>
        <time>2020-02-13T09:07:30.000Z</time>
      </trkpt>
      <trkpt lat="47.2847" lon="-2.35435">
        <ele>71.599998474121</ele>
        <time>2020-02-13T09:07:31.000Z</time>
      </trkpt>
      <trkpt lat="47.28469" lon="-2.35434">
        <ele>72</ele>
        <time>2020-02-13T09:07:32.000Z</time>
      </trkpt>
      <trkpt lat="47.28467" lon="-2.35433">
        <ele>72</ele>
        <time>2020-02-13T09:07:33.000Z</time>
      </trkpt>
      <trkpt lat="47.28464" lon="-2.3543">
        <ele>72.400001525879</ele>
        <time>2020-02-13T09:07:35.000Z</time>
      </trkpt>
      <trkpt lat="47.28463" lon="-2.35427">
        <ele>72.800003051758</ele>
        <time>2020-02-13T09:07:36.000Z</time>
      </trkpt>
      <trkpt lat="47.28463" lon="-2.35426">
        <ele>73.199996948242</ele>
        <time>2020-02-13T09:07:37.000Z</time>
      </trkpt>
      <trkpt lat="47.28461" lon="-2.35426">
        <ele>73.800003051758</ele>
        <time>2020-02-13T09:07:38.000Z</time>
      </trkpt>
      <trkpt lat="47.28458" lon="-2.35426">
        <ele>74.199996948242</ele>
        <time>2020-02-13T09:07:39.000Z</time>
      </trkpt>
      <trkpt lat="47.28456" lon="-2.35425">
        <ele>74.199996948242</ele>
        <time>2020-02-13T09:07:40.000Z</time>
      </trkpt>
      <trkpt lat="47.28451" lon="-2.35428">
        <ele>74.199996948242</ele>
        <time>2020-02-13T09:07:44.000Z</time>
      </trkpt>
      <trkpt lat="47.2845" lon="-2.3543">
        <ele>74.199996948242</ele>
        <time>2020-02-13T09:07:45.000Z</time>
      </trkpt>
      <trkpt lat="47.28447" lon="-2.35433">
        <ele>74.199996948242</ele>
        <time>2020-02-13T09:07:48.000Z</time>
      </trkpt>
      <trkpt lat="47.28446" lon="-2.35434">
        <ele>74.199996948242</ele>
        <time>2020-02-13T09:07:50.000Z</time>
      </trkpt>
      <trkpt lat="47.28447" lon="-2.35438">
        <ele>74.599998474121</ele>
        <time>2020-02-13T09:07:53.000Z</time>
      </trkpt>
      <trkpt lat="47.28447" lon="-2.3544">
        <ele>75</ele>
        <time>2020-02-13T09:07:54.000Z</time>
      </trkpt>
      <trkpt lat="47.28447" lon="-2.35441">
        <ele>75.400001525879</ele>
        <time>2020-02-13T09:07:55.000Z</time>
      </trkpt>
      <trkpt lat="47.28448" lon="-2.35445">
        <ele>75.800003051758</ele>
        <time>2020-02-13T09:07:56.000Z</time>
      </trkpt>
      <trkpt lat="47.28449" lon="-2.35449">
        <ele>76.199996948242</ele>
        <time>2020-02-13T09:07:57.000Z</time>
      </trkpt>
      <trkpt lat="47.28451" lon="-2.35457">
        <ele>76.800003051758</ele>
        <time>2020-02-13T09:08:00.000Z</time>
      </trkpt>
      <trkpt lat="47.28451" lon="-2.35458">
        <ele>77.199996948242</ele>
        <time>2020-02-13T09:08:01.000Z</time>
      </trkpt>
      <trkpt lat="47.28451" lon="-2.35461">
        <ele>77.599998474121</ele>
        <time>2020-02-13T09:08:02.000Z</time>
      </trkpt>
      <trkpt lat="47.28452" lon="-2.35462">
        <ele>78</ele>
        <time>2020-02-13T09:08:03.000Z</time>
      </trkpt>
      <trkpt lat="47.28453" lon="-2.35465">
        <ele>78.599998474121</ele>
        <time>2020-02-13T09:08:04.000Z</time>
      </trkpt>
      <trkpt lat="47.28454" lon="-2.35467">
        <ele>78.599998474121</ele>
        <time>2020-02-13T09:08:05.000Z</time>
      </trkpt>
      <trkpt lat="47.28458" lon="-2.35478">
        <ele>79</ele>
        <time>2020-02-13T09:08:10.000Z</time>
      </trkpt>
      <trkpt lat="47.28459" lon="-2.3548">
        <ele>79.400001525879</ele>
        <time>2020-02-13T09:08:11.000Z</time>
      </trkpt>
      <trkpt lat="47.2846" lon="-2.35482">
        <ele>80.400001525879</ele>
        <time>2020-02-13T09:08:12.000Z</time>
      </trkpt>
      <trkpt lat="47.28461" lon="-2.35484">
        <ele>80.800003051758</ele>
        <time>2020-02-13T09:08:13.000Z</time>
      </trkpt>
      <trkpt lat="47.28465" lon="-2.35491">
        <ele>80.800003051758</ele>
        <time>2020-02-13T09:08:17.000Z</time>
      </trkpt>
      <trkpt lat="47.28467" lon="-2.35494">
        <ele>80.800003051758</ele>
        <time>2020-02-13T09:08:18.000Z</time>
      </trkpt>
      <trkpt lat="47.28469" lon="-2.35496">
        <ele>81.199996948242</ele>
        <time>2020-02-13T09:08:19.000Z</time>
      </trkpt>
      <trkpt lat="47.2847" lon="-2.35498">
        <ele>81.599998474121</ele>
        <time>2020-02-13T09:08:20.000Z</time>
      </trkpt>
      <trkpt lat="47.28471" lon="-2.355">
        <ele>82</ele>
        <time>2020-02-13T09:08:21.000Z</time>
      </trkpt>
      <trkpt lat="47.28472" lon="-2.35502">
        <ele>82.400001525879</ele>
        <time>2020-02-13T09:08:22.000Z</time>
      </trkpt>
      <trkpt lat="47.28473" lon="-2.35505">
        <ele>82.800003051758</ele>
        <time>2020-02-13T09:08:23.000Z</time>
      </trkpt>
      <trkpt lat="47.28478" lon="-2.3552">
        <ele>82.800003051758</ele>
        <time>2020-02-13T09:08:28.000Z</time>
      </trkpt>
      <trkpt lat="47.28484" lon="-2.3554">
        <ele>82.800003051758</ele>
        <time>2020-02-13T09:08:33.000Z</time>
      </trkpt>
      <trkpt lat="47.28489" lon="-2.35556">
        <ele>82.800003051758</ele>
        <time>2020-02-13T09:08:37.000Z</time>
      </trkpt>
      <trkpt lat="47.285" lon="-2.3558">
        <ele>82.800003051758</ele>
        <time>2020-02-13T09:08:43.000Z</time>
      </trkpt>
      <trkpt lat="47.28503" lon="-2.35602">
        <ele>82.400001525879</ele>
        <time>2020-02-13T09:08:48.000Z</time>
      </trkpt>
      <trkpt lat="47.28505" lon="-2.35605">
        <ele>81.800003051758</ele>
        <time>2020-02-13T09:08:49.000Z</time>
      </trkpt>
      <trkpt lat="47.28508" lon="-2.35605">
        <ele>81.400001525879</ele>
        <time>2020-02-13T09:08:50.000Z</time>
      </trkpt>
      <trkpt lat="47.2851" lon="-2.35605">
        <ele>81</ele>
        <time>2020-02-13T09:08:51.000Z</time>
      </trkpt>
      <trkpt lat="47.28511" lon="-2.35606">
        <ele>80.400001525879</ele>
        <time>2020-02-13T09:08:52.000Z</time>
      </trkpt>
      <trkpt lat="47.28511" lon="-2.35607">
        <ele>80.400001525879</ele>
        <time>2020-02-13T09:08:54.000Z</time>
      </trkpt>
      <trkpt lat="47.28514" lon="-2.35604">
        <ele>80.400001525879</ele>
        <time>2020-02-13T09:09:10.000Z</time>
      </trkpt>
      <trkpt lat="47.28516" lon="-2.35604">
        <ele>80.400001525879</ele>
        <time>2020-02-13T09:09:11.000Z</time>
      </trkpt>
      <trkpt lat="47.28523" lon="-2.356">
        <ele>80</ele>
        <time>2020-02-13T09:09:13.000Z</time>
      </trkpt>
      <trkpt lat="47.28524" lon="-2.35596">
        <ele>79.599998474121</ele>
        <time>2020-02-13T09:09:14.000Z</time>
      </trkpt>
      <trkpt lat="47.28527" lon="-2.35592">
        <ele>79.199996948242</ele>
        <time>2020-02-13T09:09:15.000Z</time>
      </trkpt>
      <trkpt lat="47.2853" lon="-2.35587">
        <ele>78.800003051758</ele>
        <time>2020-02-13T09:09:16.000Z</time>
      </trkpt>
      <trkpt lat="47.28532" lon="-2.35581">
        <ele>78.400001525879</ele>
        <time>2020-02-13T09:09:17.000Z</time>
      </trkpt>
      <trkpt lat="47.28537" lon="-2.35564">
        <ele>78</ele>
        <time>2020-02-13T09:09:20.000Z</time>
      </trkpt>
      <trkpt lat="47.28537" lon="-2.35556">
        <ele>77.599998474121</ele>
        <time>2020-02-13T09:09:21.000Z</time>
      </trkpt>
      <trkpt lat="47.28537" lon="-2.3555">
        <ele>77</ele>
        <time>2020-02-13T09:09:22.000Z</time>
      </trkpt>
      <trkpt lat="47.28535" lon="-2.35542">
        <ele>76.599998474121</ele>
        <time>2020-02-13T09:09:23.000Z</time>
      </trkpt>
      <trkpt lat="47.28533" lon="-2.35536">
        <ele>76.199996948242</ele>
        <time>2020-02-13T09:09:24.000Z</time>
      </trkpt>
      <trkpt lat="47.28531" lon="-2.35532">
        <ele>76.199996948242</ele>
        <time>2020-02-13T09:09:25.000Z</time>
      </trkpt>
      <trkpt lat="47.28529" lon="-2.35526">
        <ele>75.199996948242</ele>
        <time>2020-02-13T09:09:26.000Z</time>
      </trkpt>
      <trkpt lat="47.28528" lon="-2.35519">
        <ele>74.800003051758</ele>
        <time>2020-02-13T09:09:27.000Z</time>
      </trkpt>
      <trkpt lat="47.28528" lon="-2.35512">
        <ele>74.400001525879</ele>
        <time>2020-02-13T09:09:28.000Z</time>
      </trkpt>
      <trkpt lat="47.28529" lon="-2.35504">
        <ele>73.800003051758</ele>
        <time>2020-02-13T09:09:29.000Z</time>
      </trkpt>
      <trkpt lat="47.28532" lon="-2.35499">
        <ele>73.199996948242</ele>
        <time>2020-02-13T09:09:30.000Z</time>
      </trkpt>
      <trkpt lat="47.28534" lon="-2.35494">
        <ele>72.599998474121</ele>
        <time>2020-02-13T09:09:31.000Z</time>
      </trkpt>
      <trkpt lat="47.28538" lon="-2.35493">
        <ele>71.800003051758</ele>
        <time>2020-02-13T09:09:32.000Z</time>
      </trkpt>
      <trkpt lat="47.28542" lon="-2.35493">
        <ele>71.199996948242</ele>
        <time>2020-02-13T09:09:33.000Z</time>
      </trkpt>
      <trkpt lat="47.28546" lon="-2.35496">
        <ele>71.199996948242</ele>
        <time>2020-02-13T09:09:34.000Z</time>
      </trkpt>
      <trkpt lat="47.2856" lon="-2.35496">
        <ele>71.199996948242</ele>
        <time>2020-02-13T09:09:37.000Z</time>
      </trkpt>
      <trkpt lat="47.28562" lon="-2.35497">
        <ele>71.199996948242</ele>
        <time>2020-02-13T09:09:38.000Z</time>
      </trkpt>
      <trkpt lat="47.28562" lon="-2.355">
        <ele>71.199996948242</ele>
        <time>2020-02-13T09:09:39.000Z</time>
      </trkpt>
      <trkpt lat="47.28562" lon="-2.35506">
        <ele>71.199996948242</ele>
        <time>2020-02-13T09:09:41.000Z</time>
      </trkpt>
      <trkpt lat="47.28562" lon="-2.3551">
        <ele>71.199996948242</ele>
        <time>2020-02-13T09:09:46.000Z</time>
      </trkpt>
      <trkpt lat="47.28565" lon="-2.35521">
        <ele>71.199996948242</ele>
        <time>2020-02-13T09:09:52.000Z</time>
      </trkpt>
      <trkpt lat="47.28566" lon="-2.35526">
        <ele>71.199996948242</ele>
        <time>2020-02-13T09:09:54.000Z</time>
      </trkpt>
      <trkpt lat="47.28568" lon="-2.35534">
        <ele>71.199996948242</ele>
        <time>2020-02-13T09:09:58.000Z</time>
      </trkpt>
      <trkpt lat="47.28571" lon="-2.35554">
        <ele>71.199996948242</ele>
        <time>2020-02-13T09:10:03.000Z</time>
      </trkpt>
      <trkpt lat="47.28573" lon="-2.35582">
        <ele>71.199996948242</ele>
        <time>2020-02-13T09:10:08.000Z</time>
      </trkpt>
      <trkpt lat="47.28574" lon="-2.35586">
        <ele>71.199996948242</ele>
        <time>2020-02-13T09:10:09.000Z</time>
      </trkpt>
      <trkpt lat="47.28579" lon="-2.35604">
        <ele>71.199996948242</ele>
        <time>2020-02-13T09:10:14.000Z</time>
      </trkpt>
      <trkpt lat="47.2858" lon="-2.35609">
        <ele>71.199996948242</ele>
        <time>2020-02-13T09:10:15.000Z</time>
      </trkpt>
      <trkpt lat="47.2858" lon="-2.35623">
        <ele>71.199996948242</ele>
        <time>2020-02-13T09:10:19.000Z</time>
      </trkpt>
      <trkpt lat="47.28579" lon="-2.35633">
        <ele>71.800003051758</ele>
        <time>2020-02-13T09:10:22.000Z</time>
      </trkpt>
      <trkpt lat="47.28579" lon="-2.35637">
        <ele>72.199996948242</ele>
        <time>2020-02-13T09:10:23.000Z</time>
      </trkpt>
      <trkpt lat="47.28579" lon="-2.35641">
        <ele>72.800003051758</ele>
        <time>2020-02-13T09:10:24.000Z</time>
      </trkpt>
      <trkpt lat="47.28579" lon="-2.35643">
        <ele>73.199996948242</ele>
        <time>2020-02-13T09:10:25.000Z</time>
      </trkpt>
      <trkpt lat="47.28578" lon="-2.35644">
        <ele>73.599998474121</ele>
        <time>2020-02-13T09:10:26.000Z</time>
      </trkpt>
      <trkpt lat="47.28578" lon="-2.35646">
        <ele>73.599998474121</ele>
        <time>2020-02-13T09:10:28.000Z</time>
      </trkpt>
      <trkpt lat="47.2858" lon="-2.35653">
        <ele>73.599998474121</ele>
        <time>2020-02-13T09:10:32.000Z</time>
      </trkpt>
      <trkpt lat="47.2858" lon="-2.35656">
        <ele>73.599998474121</ele>
        <time>2020-02-13T09:10:33.000Z</time>
      </trkpt>
      <trkpt lat="47.28585" lon="-2.35676">
        <ele>73.599998474121</ele>
        <time>2020-02-13T09:10:39.000Z</time>
      </trkpt>
      <trkpt lat="47.28587" lon="-2.3568">
        <ele>73.599998474121</ele>
        <time>2020-02-13T09:10:40.000Z</time>
      </trkpt>
      <trkpt lat="47.28588" lon="-2.35688">
        <ele>74</ele>
        <time>2020-02-13T09:10:42.000Z</time>
      </trkpt>
      <trkpt lat="47.28588" lon="-2.35692">
        <ele>74.400001525879</ele>
        <time>2020-02-13T09:10:43.000Z</time>
      </trkpt>
      <trkpt lat="47.28589" lon="-2.35694">
        <ele>74.800003051758</ele>
        <time>2020-02-13T09:10:44.000Z</time>
      </trkpt>
      <trkpt lat="47.28589" lon="-2.35697">
        <ele>75.199996948242</ele>
        <time>2020-02-13T09:10:45.000Z</time>
      </trkpt>
      <trkpt lat="47.28589" lon="-2.35704">
        <ele>75.599998474121</ele>
        <time>2020-02-13T09:10:46.000Z</time>
      </trkpt>
      <trkpt lat="47.28585" lon="-2.35732">
        <ele>75.599998474121</ele>
        <time>2020-02-13T09:10:52.000Z</time>
      </trkpt>
      <trkpt lat="47.28582" lon="-2.35746">
        <ele>75.599998474121</ele>
        <time>2020-02-13T09:10:57.000Z</time>
      </trkpt>
      <trkpt lat="47.28573" lon="-2.35757">
        <ele>75.599998474121</ele>
        <time>2020-02-13T09:11:03.000Z</time>
      </trkpt>
      <trkpt lat="47.28571" lon="-2.3576">
        <ele>75.199996948242</ele>
        <time>2020-02-13T09:11:04.000Z</time>
      </trkpt>
      <trkpt lat="47.28568" lon="-2.35763">
        <ele>74.800003051758</ele>
        <time>2020-02-13T09:11:05.000Z</time>
      </trkpt>
      <trkpt lat="47.28565" lon="-2.35766">
        <ele>74.400001525879</ele>
        <time>2020-02-13T09:11:06.000Z</time>
      </trkpt>
      <trkpt lat="47.28562" lon="-2.35769">
        <ele>74</ele>
        <time>2020-02-13T09:11:07.000Z</time>
      </trkpt>
      <trkpt lat="47.2856" lon="-2.3577">
        <ele>73.599998474121</ele>
        <time>2020-02-13T09:11:08.000Z</time>
      </trkpt>
      <trkpt lat="47.28557" lon="-2.35779">
        <ele>73.599998474121</ele>
        <time>2020-02-13T09:11:11.000Z</time>
      </trkpt>
      <trkpt lat="47.28556" lon="-2.35791">
        <ele>73.599998474121</ele>
        <time>2020-02-13T09:11:14.000Z</time>
      </trkpt>
      <trkpt lat="47.28557" lon="-2.35798">
        <ele>73.599998474121</ele>
        <time>2020-02-13T09:11:16.000Z</time>
      </trkpt>
      <trkpt lat="47.28558" lon="-2.35804">
        <ele>73.599998474121</ele>
        <time>2020-02-13T09:11:19.000Z</time>
      </trkpt>
      <trkpt lat="47.28559" lon="-2.35809">
        <ele>73.599998474121</ele>
        <time>2020-02-13T09:11:21.000Z</time>
      </trkpt>
      <trkpt lat="47.28559" lon="-2.35812">
        <ele>73.599998474121</ele>
        <time>2020-02-13T09:11:22.000Z</time>
      </trkpt>
      <trkpt lat="47.28559" lon="-2.35835">
        <ele>73.599998474121</ele>
        <time>2020-02-13T09:12:00.000Z</time>
      </trkpt>
      <trkpt lat="47.28559" lon="-2.35842">
        <ele>73.599998474121</ele>
        <time>2020-02-13T09:12:02.000Z</time>
      </trkpt>
      <trkpt lat="47.28561" lon="-2.35861">
        <ele>73.599998474121</ele>
        <time>2020-02-13T09:12:06.000Z</time>
      </trkpt>
      <trkpt lat="47.28563" lon="-2.35867">
        <ele>73.599998474121</ele>
        <time>2020-02-13T09:12:07.000Z</time>
      </trkpt>
      <trkpt lat="47.28571" lon="-2.35887">
        <ele>73.599998474121</ele>
        <time>2020-02-13T09:12:12.000Z</time>
      </trkpt>
      <trkpt lat="47.28584" lon="-2.35913">
        <ele>73.599998474121</ele>
        <time>2020-02-13T09:12:18.000Z</time>
      </trkpt>
      <trkpt lat="47.28588" lon="-2.35922">
        <ele>74.199996948242</ele>
        <time>2020-02-13T09:12:20.000Z</time>
      </trkpt>
      <trkpt lat="47.28591" lon="-2.35927">
        <ele>74.599998474121</ele>
        <time>2020-02-13T09:12:21.000Z</time>
      </trkpt>
      <trkpt lat="47.28593" lon="-2.35931">
        <ele>75</ele>
        <time>2020-02-13T09:12:22.000Z</time>
      </trkpt>
      <trkpt lat="47.28595" lon="-2.35936">
        <ele>75.400001525879</ele>
        <time>2020-02-13T09:12:23.000Z</time>
      </trkpt>
      <trkpt lat="47.28597" lon="-2.3594">
        <ele>75.800003051758</ele>
        <time>2020-02-13T09:12:24.000Z</time>
      </trkpt>
      <trkpt lat="47.28604" lon="-2.35957">
        <ele>75.800003051758</ele>
        <time>2020-02-13T09:12:28.000Z</time>
      </trkpt>
      <trkpt lat="47.28614" lon="-2.3598">
        <ele>75.800003051758</ele>
        <time>2020-02-13T09:12:33.000Z</time>
      </trkpt>
      <trkpt lat="47.28624" lon="-2.36004">
        <ele>76.199996948242</ele>
        <time>2020-02-13T09:12:38.000Z</time>
      </trkpt>
      <trkpt lat="47.28625" lon="-2.36008">
        <ele>76.599998474121</ele>
        <time>2020-02-13T09:12:39.000Z</time>
      </trkpt>
      <trkpt lat="47.28627" lon="-2.36013">
        <ele>77</ele>
        <time>2020-02-13T09:12:40.000Z</time>
      </trkpt>
      <trkpt lat="47.28629" lon="-2.36018">
        <ele>77.400001525879</ele>
        <time>2020-02-13T09:12:41.000Z</time>
      </trkpt>
      <trkpt lat="47.28631" lon="-2.36023">
        <ele>77.800003051758</ele>
        <time>2020-02-13T09:12:42.000Z</time>
      </trkpt>
      <trkpt lat="47.28636" lon="-2.36032">
        <ele>77.800003051758</ele>
        <time>2020-02-13T09:12:44.000Z</time>
      </trkpt>
      <trkpt lat="47.28642" lon="-2.36059">
        <ele>77.800003051758</ele>
        <time>2020-02-13T09:12:49.000Z</time>
      </trkpt>
      <trkpt lat="47.2865" lon="-2.36081">
        <ele>77.800003051758</ele>
        <time>2020-02-13T09:12:54.000Z</time>
      </trkpt>
      <trkpt lat="47.28653" lon="-2.36085">
        <ele>78.199996948242</ele>
        <time>2020-02-13T09:12:55.000Z</time>
      </trkpt>
      <trkpt lat="47.28656" lon="-2.3609">
        <ele>78.800003051758</ele>
        <time>2020-02-13T09:12:56.000Z</time>
      </trkpt>
      <trkpt lat="47.28658" lon="-2.36095">
        <ele>79.199996948242</ele>
        <time>2020-02-13T09:12:57.000Z</time>
      </trkpt>
      <trkpt lat="47.2866" lon="-2.36099">
        <ele>79.599998474121</ele>
        <time>2020-02-13T09:12:58.000Z</time>
      </trkpt>
      <trkpt lat="47.28663" lon="-2.36103">
        <ele>80</ele>
        <time>2020-02-13T09:12:59.000Z</time>
      </trkpt>
      <trkpt lat="47.28666" lon="-2.36112">
        <ele>80</ele>
        <time>2020-02-13T09:13:01.000Z</time>
      </trkpt>
      <trkpt lat="47.28669" lon="-2.36123">
        <ele>80</ele>
        <time>2020-02-13T09:13:03.000Z</time>
      </trkpt>
      <trkpt lat="47.28674" lon="-2.36147">
        <ele>80</ele>
        <time>2020-02-13T09:13:08.000Z</time>
      </trkpt>
      <trkpt lat="47.28676" lon="-2.36155">
        <ele>80</ele>
        <time>2020-02-13T09:13:12.000Z</time>
      </trkpt>
      <trkpt lat="47.28678" lon="-2.36162">
        <ele>80</ele>
        <time>2020-02-13T09:13:17.000Z</time>
      </trkpt>
      <trkpt lat="47.28681" lon="-2.36169">
        <ele>80</ele>
        <time>2020-02-13T09:13:22.000Z</time>
      </trkpt>
      <trkpt lat="47.28687" lon="-2.36179">
        <ele>80</ele>
        <time>2020-02-13T09:13:26.000Z</time>
      </trkpt>
      <trkpt lat="47.28695" lon="-2.36206">
        <ele>80</ele>
        <time>2020-02-13T09:13:31.000Z</time>
      </trkpt>
      <trkpt lat="47.28695" lon="-2.36211">
        <ele>80</ele>
        <time>2020-02-13T09:13:32.000Z</time>
      </trkpt>
      <trkpt lat="47.28694" lon="-2.36217">
        <ele>80</ele>
        <time>2020-02-13T09:13:34.000Z</time>
      </trkpt>
      <trkpt lat="47.28691" lon="-2.36219">
        <ele>80</ele>
        <time>2020-02-13T09:13:39.000Z</time>
      </trkpt>
      <trkpt lat="47.28686" lon="-2.3622">
        <ele>80</ele>
        <time>2020-02-13T09:13:45.000Z</time>
      </trkpt>
      <trkpt lat="47.28684" lon="-2.36219">
        <ele>80.400001525879</ele>
        <time>2020-02-13T09:13:49.000Z</time>
      </trkpt>
      <trkpt lat="47.28684" lon="-2.36218">
        <ele>80.800003051758</ele>
        <time>2020-02-13T09:13:50.000Z</time>
      </trkpt>
      <trkpt lat="47.28684" lon="-2.36218">
        <ele>81.199996948242</ele>
        <time>2020-02-13T09:13:51.000Z</time>
      </trkpt>
      <trkpt lat="47.28683" lon="-2.36217">
        <ele>81.599998474121</ele>
        <time>2020-02-13T09:13:52.000Z</time>
      </trkpt>
      <trkpt lat="47.28682" lon="-2.36217">
        <ele>82</ele>
        <time>2020-02-13T09:13:53.000Z</time>
      </trkpt>
      <trkpt lat="47.2868" lon="-2.36215">
        <ele>82</ele>
        <time>2020-02-13T09:13:55.000Z</time>
      </trkpt>
      <trkpt lat="47.28679" lon="-2.36214">
        <ele>82.400001525879</ele>
        <time>2020-02-13T09:13:56.000Z</time>
      </trkpt>
      <trkpt lat="47.28678" lon="-2.36212">
        <ele>83.199996948242</ele>
        <time>2020-02-13T09:13:57.000Z</time>
      </trkpt>
      <trkpt lat="47.28677" lon="-2.36211">
        <ele>83.599998474121</ele>
        <time>2020-02-13T09:13:58.000Z</time>
      </trkpt>
      <trkpt lat="47.28676" lon="-2.36209">
        <ele>84</ele>
        <time>2020-02-13T09:13:59.000Z</time>
      </trkpt>
      <trkpt lat="47.28675" lon="-2.36206">
        <ele>84</ele>
        <time>2020-02-13T09:14:01.000Z</time>
      </trkpt>
      <trkpt lat="47.28672" lon="-2.36199">
        <ele>84</ele>
        <time>2020-02-13T09:14:10.000Z</time>
      </trkpt>
      <trkpt lat="47.28667" lon="-2.3619">
        <ele>84</ele>
        <time>2020-02-13T09:14:16.000Z</time>
      </trkpt>
      <trkpt lat="47.2866" lon="-2.36179">
        <ele>84.400001525879</ele>
        <time>2020-02-13T09:14:23.000Z</time>
      </trkpt>
      <trkpt lat="47.28659" lon="-2.36178">
        <ele>84.800003051758</ele>
        <time>2020-02-13T09:14:24.000Z</time>
      </trkpt>
      <trkpt lat="47.28657" lon="-2.36176">
        <ele>85.199996948242</ele>
        <time>2020-02-13T09:14:25.000Z</time>
      </trkpt>
      <trkpt lat="47.28656" lon="-2.36174">
        <ele>85.599998474121</ele>
        <time>2020-02-13T09:14:26.000Z</time>
      </trkpt>
      <trkpt lat="47.28655" lon="-2.36173">
        <ele>86</ele>
        <time>2020-02-13T09:14:27.000Z</time>
      </trkpt>
      <trkpt lat="47.28649" lon="-2.36169">
        <ele>86</ele>
        <time>2020-02-13T09:14:31.000Z</time>
      </trkpt>
      <trkpt lat="47.28641" lon="-2.36156">
        <ele>86</ele>
        <time>2020-02-13T09:14:38.000Z</time>
      </trkpt>
      <trkpt lat="47.28639" lon="-2.36153">
        <ele>86.400001525879</ele>
        <time>2020-02-13T09:14:41.000Z</time>
      </trkpt>
      <trkpt lat="47.28638" lon="-2.36152">
        <ele>86.800003051758</ele>
        <time>2020-02-13T09:14:42.000Z</time>
      </trkpt>
      <trkpt lat="47.28637" lon="-2.3615">
        <ele>87.400001525879</ele>
        <time>2020-02-13T09:14:43.000Z</time>
      </trkpt>
      <trkpt lat="47.28637" lon="-2.36149">
        <ele>87.800003051758</ele>
        <time>2020-02-13T09:14:44.000Z</time>
      </trkpt>
      <trkpt lat="47.28637" lon="-2.36148">
        <ele>88.199996948242</ele>
        <time>2020-02-13T09:14:45.000Z</time>
      </trkpt>
      <trkpt lat="47.28637" lon="-2.36147">
        <ele>88.199996948242</ele>
        <time>2020-02-13T09:14:46.000Z</time>
      </trkpt>
      <trkpt lat="47.28633" lon="-2.36143">
        <ele>88.199996948242</ele>
        <time>2020-02-13T09:15:06.000Z</time>
      </trkpt>
      <trkpt lat="47.2863" lon="-2.36143">
        <ele>88.199996948242</ele>
        <time>2020-02-13T09:15:07.000Z</time>
      </trkpt>
      <trkpt lat="47.28621" lon="-2.36148">
        <ele>88.199996948242</ele>
        <time>2020-02-13T09:15:12.000Z</time>
      </trkpt>
      <trkpt lat="47.28618" lon="-2.36151">
        <ele>88.199996948242</ele>
        <time>2020-02-13T09:15:14.000Z</time>
      </trkpt>
      <trkpt lat="47.2861" lon="-2.36156">
        <ele>88.199996948242</ele>
        <time>2020-02-13T09:15:17.000Z</time>
      </trkpt>
      <trkpt lat="47.28595" lon="-2.36154">
        <ele>88.199996948242</ele>
        <time>2020-02-13T09:15:22.000Z</time>
      </trkpt>
      <trkpt lat="47.2858" lon="-2.36146">
        <ele>88.199996948242</ele>
        <time>2020-02-13T09:15:27.000Z</time>
      </trkpt>
      <trkpt lat="47.28566" lon="-2.36152">
        <ele>88.199996948242</ele>
        <time>2020-02-13T09:15:31.000Z</time>
      </trkpt>
      <trkpt lat="47.28557" lon="-2.36154">
        <ele>88.199996948242</ele>
        <time>2020-02-13T09:15:34.000Z</time>
      </trkpt>
      <trkpt lat="47.28556" lon="-2.36152">
        <ele>87.800003051758</ele>
        <time>2020-02-13T09:15:35.000Z</time>
      </trkpt>
      <trkpt lat="47.28554" lon="-2.3615">
        <ele>86.800003051758</ele>
        <time>2020-02-13T09:15:36.000Z</time>
      </trkpt>
      <trkpt lat="47.2855" lon="-2.36145">
        <ele>86.400001525879</ele>
        <time>2020-02-13T09:15:37.000Z</time>
      </trkpt>
      <trkpt lat="47.28546" lon="-2.36139">
        <ele>86</ele>
        <time>2020-02-13T09:15:38.000Z</time>
      </trkpt>
      <trkpt lat="47.28544" lon="-2.36134">
        <ele>86</ele>
        <time>2020-02-13T09:15:39.000Z</time>
      </trkpt>
      <trkpt lat="47.28534" lon="-2.36101">
        <ele>86</ele>
        <time>2020-02-13T09:15:45.000Z</time>
      </trkpt>
      <trkpt lat="47.28532" lon="-2.36084">
        <ele>86</ele>
        <time>2020-02-13T09:15:49.000Z</time>
      </trkpt>
      <trkpt lat="47.28522" lon="-2.36068">
        <ele>86</ele>
        <time>2020-02-13T09:15:53.000Z</time>
      </trkpt>
      <trkpt lat="47.28502" lon="-2.36042">
        <ele>86</ele>
        <time>2020-02-13T09:15:59.000Z</time>
      </trkpt>
      <trkpt lat="47.28489" lon="-2.36033">
        <ele>86</ele>
        <time>2020-02-13T09:16:03.000Z</time>
      </trkpt>
      <trkpt lat="47.28485" lon="-2.36033">
        <ele>86</ele>
        <time>2020-02-13T09:16:04.000Z</time>
      </trkpt>
      <trkpt lat="47.28475" lon="-2.36031">
        <ele>86</ele>
        <time>2020-02-13T09:16:07.000Z</time>
      </trkpt>
      <trkpt lat="47.28473" lon="-2.36028">
        <ele>86</ele>
        <time>2020-02-13T09:16:08.000Z</time>
      </trkpt>
      <trkpt lat="47.28469" lon="-2.3602">
        <ele>86</ele>
        <time>2020-02-13T09:16:10.000Z</time>
      </trkpt>
      <trkpt lat="47.28462" lon="-2.3601">
        <ele>86</ele>
        <time>2020-02-13T09:16:13.000Z</time>
      </trkpt>
      <trkpt lat="47.28457" lon="-2.36006">
        <ele>86</ele>
        <time>2020-02-13T09:16:15.000Z</time>
      </trkpt>
      <trkpt lat="47.28453" lon="-2.35993">
        <ele>86</ele>
        <time>2020-02-13T09:16:20.000Z</time>
      </trkpt>
      <trkpt lat="47.28451" lon="-2.3599">
        <ele>86</ele>
        <time>2020-02-13T09:16:23.000Z</time>
      </trkpt>
      <trkpt lat="47.28441" lon="-2.35995">
        <ele>86</ele>
        <time>2020-02-13T09:16:28.000Z</time>
      </trkpt>
      <trkpt lat="47.28428" lon="-2.36005">
        <ele>86</ele>
        <time>2020-02-13T09:16:33.000Z</time>
      </trkpt>
      <trkpt lat="47.28413" lon="-2.36021">
        <ele>86</ele>
        <time>2020-02-13T09:16:39.000Z</time>
      </trkpt>
      <trkpt lat="47.28397" lon="-2.36022">
        <ele>86</ele>
        <time>2020-02-13T09:16:43.000Z</time>
      </trkpt>
      <trkpt lat="47.28376" lon="-2.36024">
        <ele>85.599998474121</ele>
        <time>2020-02-13T09:16:47.000Z</time>
      </trkpt>
      <trkpt lat="47.28369" lon="-2.36023">
        <ele>85</ele>
        <time>2020-02-13T09:16:48.000Z</time>
      </trkpt>
      <trkpt lat="47.28363" lon="-2.36025">
        <ele>84.599998474121</ele>
        <time>2020-02-13T09:16:49.000Z</time>
      </trkpt>
      <trkpt lat="47.28357" lon="-2.36027">
        <ele>83.599998474121</ele>
        <time>2020-02-13T09:16:50.000Z</time>
      </trkpt>
      <trkpt lat="47.2835" lon="-2.36031">
        <ele>83</ele>
        <time>2020-02-13T09:16:51.000Z</time>
      </trkpt>
      <trkpt lat="47.28344" lon="-2.36035">
        <ele>82.400001525879</ele>
        <time>2020-02-13T09:16:52.000Z</time>
      </trkpt>
      <trkpt lat="47.28338" lon="-2.36041">
        <ele>81.800003051758</ele>
        <time>2020-02-13T09:16:53.000Z</time>
      </trkpt>
      <trkpt lat="47.28332" lon="-2.36046">
        <ele>81.400001525879</ele>
        <time>2020-02-13T09:16:54.000Z</time>
      </trkpt>
      <trkpt lat="47.28327" lon="-2.36049">
        <ele>80.800003051758</ele>
        <time>2020-02-13T09:16:55.000Z</time>
      </trkpt>
      <trkpt lat="47.28323" lon="-2.3605">
        <ele>80.400001525879</ele>
        <time>2020-02-13T09:16:56.000Z</time>
      </trkpt>
      <trkpt lat="47.28319" lon="-2.36051">
        <ele>80</ele>
        <time>2020-02-13T09:16:57.000Z</time>
      </trkpt>
      <trkpt lat="47.28315" lon="-2.36052">
        <ele>79.400001525879</ele>
        <time>2020-02-13T09:16:58.000Z</time>
      </trkpt>
      <trkpt lat="47.2831" lon="-2.36051">
        <ele>79</ele>
        <time>2020-02-13T09:16:59.000Z</time>
      </trkpt>
      <trkpt lat="47.28302" lon="-2.36049">
        <ele>78.599998474121</ele>
        <time>2020-02-13T09:17:01.000Z</time>
      </trkpt>
      <trkpt lat="47.28297" lon="-2.36046">
        <ele>78.199996948242</ele>
        <time>2020-02-13T09:17:02.000Z</time>
      </trkpt>
      <trkpt lat="47.28293" lon="-2.36041">
        <ele>77.800003051758</ele>
        <time>2020-02-13T09:17:03.000Z</time>
      </trkpt>
      <trkpt lat="47.28289" lon="-2.36034">
        <ele>77</ele>
        <time>2020-02-13T09:17:04.000Z</time>
      </trkpt>
      <trkpt lat="47.28286" lon="-2.36029">
        <ele>76.400001525879</ele>
        <time>2020-02-13T09:17:05.000Z</time>
      </trkpt>
      <trkpt lat="47.28284" lon="-2.36023">
        <ele>75.599998474121</ele>
        <time>2020-02-13T09:17:06.000Z</time>
      </trkpt>
      <trkpt lat="47.28282" lon="-2.36019">
        <ele>74.599998474121</ele>
        <time>2020-02-13T09:17:07.000Z</time>
      </trkpt>
      <trkpt lat="47.2828" lon="-2.36014">
        <ele>73.800003051758</ele>
        <time>2020-02-13T09:17:08.000Z</time>
      </trkpt>
      <trkpt lat="47.28279" lon="-2.36009">
        <ele>73</ele>
        <time>2020-02-13T09:17:09.000Z</time>
      </trkpt>
      <trkpt lat="47.28278" lon="-2.36005">
        <ele>72.199996948242</ele>
        <time>2020-02-13T09:17:10.000Z</time>
      </trkpt>
      <trkpt lat="47.28278" lon="-2.36001">
        <ele>71.400001525879</ele>
        <time>2020-02-13T09:17:11.000Z</time>
      </trkpt>
      <trkpt lat="47.28279" lon="-2.35997">
        <ele>70.599998474121</ele>
        <time>2020-02-13T09:17:12.000Z</time>
      </trkpt>
      <trkpt lat="47.2828" lon="-2.35993">
        <ele>69.800003051758</ele>
        <time>2020-02-13T09:17:13.000Z</time>
      </trkpt>
      <trkpt lat="47.28282" lon="-2.3599">
        <ele>69.199996948242</ele>
        <time>2020-02-13T09:17:14.000Z</time>
      </trkpt>
      <trkpt lat="47.28284" lon="-2.35985">
        <ele>67.599998474121</ele>
        <time>2020-02-13T09:17:15.000Z</time>
      </trkpt>
      <trkpt lat="47.28284" lon="-2.3598">
        <ele>67.599998474121</ele>
        <time>2020-02-13T09:17:16.000Z</time>
      </trkpt>
      <trkpt lat="47.28283" lon="-2.35975">
        <ele>67.599998474121</ele>
        <time>2020-02-13T09:17:17.000Z</time>
      </trkpt>
      <trkpt lat="47.28273" lon="-2.3596">
        <ele>67.599998474121</ele>
        <time>2020-02-13T09:17:21.000Z</time>
      </trkpt>
      <trkpt lat="47.28264" lon="-2.35938">
        <ele>67.599998474121</ele>
        <time>2020-02-13T09:17:26.000Z</time>
      </trkpt>
      <trkpt lat="47.28263" lon="-2.35935">
        <ele>68.199996948242</ele>
        <time>2020-02-13T09:17:27.000Z</time>
      </trkpt>
      <trkpt lat="47.28262" lon="-2.35932">
        <ele>68.599998474121</ele>
        <time>2020-02-13T09:17:28.000Z</time>
      </trkpt>
      <trkpt lat="47.2826" lon="-2.35929">
        <ele>69</ele>
        <time>2020-02-13T09:17:29.000Z</time>
      </trkpt>
      <trkpt lat="47.28259" lon="-2.35926">
        <ele>69.400001525879</ele>
        <time>2020-02-13T09:17:30.000Z</time>
      </trkpt>
      <trkpt lat="47.28258" lon="-2.35922">
        <ele>69.800003051758</ele>
        <time>2020-02-13T09:17:31.000Z</time>
      </trkpt>
      <trkpt lat="47.28257" lon="-2.35919">
        <ele>69.800003051758</ele>
        <time>2020-02-13T09:17:32.000Z</time>
      </trkpt>
      <trkpt lat="47.28255" lon="-2.35916">
        <ele>69.800003051758</ele>
        <time>2020-02-13T09:17:33.000Z</time>
      </trkpt>
      <trkpt lat="47.2825" lon="-2.35915">
        <ele>69.800003051758</ele>
        <time>2020-02-13T09:17:35.000Z</time>
      </trkpt>
      <trkpt lat="47.28237" lon="-2.35914">
        <ele>69.800003051758</ele>
        <time>2020-02-13T09:17:39.000Z</time>
      </trkpt>
      <trkpt lat="47.28229" lon="-2.35912">
        <ele>69.800003051758</ele>
        <time>2020-02-13T09:17:41.000Z</time>
      </trkpt>
      <trkpt lat="47.28222" lon="-2.3591">
        <ele>69.800003051758</ele>
        <time>2020-02-13T09:17:43.000Z</time>
      </trkpt>
      <trkpt lat="47.28205" lon="-2.35904">
        <ele>69.800003051758</ele>
        <time>2020-02-13T09:17:48.000Z</time>
      </trkpt>
      <trkpt lat="47.28188" lon="-2.359">
        <ele>69.800003051758</ele>
        <time>2020-02-13T09:17:53.000Z</time>
      </trkpt>
      <trkpt lat="47.28185" lon="-2.35898">
        <ele>69.400001525879</ele>
        <time>2020-02-13T09:17:54.000Z</time>
      </trkpt>
      <trkpt lat="47.28184" lon="-2.35897">
        <ele>69</ele>
        <time>2020-02-13T09:17:55.000Z</time>
      </trkpt>
      <trkpt lat="47.28182" lon="-2.35894">
        <ele>68.599998474121</ele>
        <time>2020-02-13T09:17:56.000Z</time>
      </trkpt>
      <trkpt lat="47.28179" lon="-2.35891">
        <ele>68</ele>
        <time>2020-02-13T09:17:57.000Z</time>
      </trkpt>
      <trkpt lat="47.28177" lon="-2.35889">
        <ele>67.599998474121</ele>
        <time>2020-02-13T09:17:58.000Z</time>
      </trkpt>
      <trkpt lat="47.28162" lon="-2.35886">
        <ele>67.599998474121</ele>
        <time>2020-02-13T09:18:04.000Z</time>
      </trkpt>
      <trkpt lat="47.2816" lon="-2.35885">
        <ele>67.599998474121</ele>
        <time>2020-02-13T09:18:05.000Z</time>
      </trkpt>
      <trkpt lat="47.28149" lon="-2.35878">
        <ele>67.599998474121</ele>
        <time>2020-02-13T09:18:09.000Z</time>
      </trkpt>
      <trkpt lat="47.28136" lon="-2.35872">
        <ele>67.599998474121</ele>
        <time>2020-02-13T09:18:13.000Z</time>
      </trkpt>
      <trkpt lat="47.28133" lon="-2.35871">
        <ele>67.599998474121</ele>
        <time>2020-02-13T09:18:14.000Z</time>
      </trkpt>
      <trkpt lat="47.28131" lon="-2.35866">
        <ele>67.599998474121</ele>
        <time>2020-02-13T09:18:15.000Z</time>
      </trkpt>
      <trkpt lat="47.28127" lon="-2.35856">
        <ele>67.599998474121</ele>
        <time>2020-02-13T09:18:18.000Z</time>
      </trkpt>
      <trkpt lat="47.28125" lon="-2.35841">
        <ele>67.599998474121</ele>
        <time>2020-02-13T09:18:23.000Z</time>
      </trkpt>
      <trkpt lat="47.28127" lon="-2.3583">
        <ele>67.599998474121</ele>
        <time>2020-02-13T09:18:27.000Z</time>
      </trkpt>
      <trkpt lat="47.28126" lon="-2.35823">
        <ele>67.599998474121</ele>
        <time>2020-02-13T09:18:29.000Z</time>
      </trkpt>
      <trkpt lat="47.28121" lon="-2.35814">
        <ele>67.599998474121</ele>
        <time>2020-02-13T09:18:34.000Z</time>
      </trkpt>
      <trkpt lat="47.28109" lon="-2.3581">
        <ele>67.599998474121</ele>
        <time>2020-02-13T09:18:40.000Z</time>
      </trkpt>
      <trkpt lat="47.28105" lon="-2.35809">
        <ele>67.199996948242</ele>
        <time>2020-02-13T09:18:42.000Z</time>
      </trkpt>
      <trkpt lat="47.28103" lon="-2.35809">
        <ele>66.800003051758</ele>
        <time>2020-02-13T09:18:43.000Z</time>
      </trkpt>
      <trkpt lat="47.28102" lon="-2.35808">
        <ele>66.400001525879</ele>
        <time>2020-02-13T09:18:44.000Z</time>
      </trkpt>
      <trkpt lat="47.281" lon="-2.35807">
        <ele>66</ele>
        <time>2020-02-13T09:18:45.000Z</time>
      </trkpt>
      <trkpt lat="47.28099" lon="-2.35807">
        <ele>65.599998474121</ele>
        <time>2020-02-13T09:18:46.000Z</time>
      </trkpt>
      <trkpt lat="47.28092" lon="-2.35808">
        <ele>65.599998474121</ele>
        <time>2020-02-13T09:18:51.000Z</time>
      </trkpt>
      <trkpt lat="47.28084" lon="-2.35807">
        <ele>65.599998474121</ele>
        <time>2020-02-13T09:18:55.000Z</time>
      </trkpt>
      <trkpt lat="47.28079" lon="-2.35804">
        <ele>65.599998474121</ele>
        <time>2020-02-13T09:18:57.000Z</time>
      </trkpt>
      <trkpt lat="47.28077" lon="-2.35802">
        <ele>66</ele>
        <time>2020-02-13T09:18:58.000Z</time>
      </trkpt>
      <trkpt lat="47.28076" lon="-2.358">
        <ele>66.400001525879</ele>
        <time>2020-02-13T09:18:59.000Z</time>
      </trkpt>
      <trkpt lat="47.28076" lon="-2.35798">
        <ele>66.800003051758</ele>
        <time>2020-02-13T09:19:00.000Z</time>
      </trkpt>
      <trkpt lat="47.28076" lon="-2.35796">
        <ele>67.199996948242</ele>
        <time>2020-02-13T09:19:01.000Z</time>
      </trkpt>
      <trkpt lat="47.28077" lon="-2.35793">
        <ele>67.800003051758</ele>
        <time>2020-02-13T09:19:02.000Z</time>
      </trkpt>
      <trkpt lat="47.28084" lon="-2.35771">
        <ele>67.800003051758</ele>
        <time>2020-02-13T09:19:07.000Z</time>
      </trkpt>
      <trkpt lat="47.28089" lon="-2.35752">
        <ele>68.199996948242</ele>
        <time>2020-02-13T09:19:11.000Z</time>
      </trkpt>
      <trkpt lat="47.2809" lon="-2.35746">
        <ele>68.599998474121</ele>
        <time>2020-02-13T09:19:12.000Z</time>
      </trkpt>
      <trkpt lat="47.28091" lon="-2.35741">
        <ele>69</ele>
        <time>2020-02-13T09:19:13.000Z</time>
      </trkpt>
      <trkpt lat="47.28092" lon="-2.35737">
        <ele>69.400001525879</ele>
        <time>2020-02-13T09:19:14.000Z</time>
      </trkpt>
      <trkpt lat="47.28093" lon="-2.35732">
        <ele>69.800003051758</ele>
        <time>2020-02-13T09:19:15.000Z</time>
      </trkpt>
      <trkpt lat="47.28094" lon="-2.35727">
        <ele>70.199996948242</ele>
        <time>2020-02-13T09:19:16.000Z</time>
      </trkpt>
      <trkpt lat="47.28095" lon="-2.35723">
        <ele>70.599998474121</ele>
        <time>2020-02-13T09:19:17.000Z</time>
      </trkpt>
      <trkpt lat="47.28095" lon="-2.35719">
        <ele>71.599998474121</ele>
        <time>2020-02-13T09:19:18.000Z</time>
      </trkpt>
      <trkpt lat="47.28095" lon="-2.35715">
        <ele>72</ele>
        <time>2020-02-13T09:19:19.000Z</time>
      </trkpt>
      <trkpt lat="47.28092" lon="-2.35694">
        <ele>72</ele>
        <time>2020-02-13T09:19:23.000Z</time>
      </trkpt>
      <trkpt lat="47.2809" lon="-2.35674">
        <ele>72</ele>
        <time>2020-02-13T09:19:26.000Z</time>
      </trkpt>
      <trkpt lat="47.28084" lon="-2.35657">
        <ele>72</ele>
        <time>2020-02-13T09:19:28.000Z</time>
      </trkpt>
      <trkpt lat="47.28079" lon="-2.35641">
        <ele>72</ele>
        <time>2020-02-13T09:19:30.000Z</time>
      </trkpt>
      <trkpt lat="47.28078" lon="-2.35633">
        <ele>71.400001525879</ele>
        <time>2020-02-13T09:19:31.000Z</time>
      </trkpt>
      <trkpt lat="47.28078" lon="-2.35625">
        <ele>71</ele>
        <time>2020-02-13T09:19:32.000Z</time>
      </trkpt>
      <trkpt lat="47.28077" lon="-2.35617">
        <ele>70.599998474121</ele>
        <time>2020-02-13T09:19:33.000Z</time>
      </trkpt>
      <trkpt lat="47.28074" lon="-2.35611">
        <ele>70</ele>
        <time>2020-02-13T09:19:34.000Z</time>
      </trkpt>
      <trkpt lat="47.28071" lon="-2.35605">
        <ele>69.599998474121</ele>
        <time>2020-02-13T09:19:35.000Z</time>
      </trkpt>
      <trkpt lat="47.28068" lon="-2.35598">
        <ele>69.599998474121</ele>
        <time>2020-02-13T09:19:36.000Z</time>
      </trkpt>
      <trkpt lat="47.28066" lon="-2.35593">
        <ele>69.199996948242</ele>
        <time>2020-02-13T09:19:37.000Z</time>
      </trkpt>
      <trkpt lat="47.28064" lon="-2.3559">
        <ele>68.599998474121</ele>
        <time>2020-02-13T09:19:38.000Z</time>
      </trkpt>
      <trkpt lat="47.28063" lon="-2.35587">
        <ele>68.199996948242</ele>
        <time>2020-02-13T09:19:39.000Z</time>
      </trkpt>
      <trkpt lat="47.28062" lon="-2.35587">
        <ele>67.800003051758</ele>
        <time>2020-02-13T09:19:40.000Z</time>
      </trkpt>
      <trkpt lat="47.28062" lon="-2.35586">
        <ele>67.400001525879</ele>
        <time>2020-02-13T09:19:41.000Z</time>
      </trkpt>
      <trkpt lat="47.28061" lon="-2.35586">
        <ele>67.400001525879</ele>
        <time>2020-02-13T09:19:43.000Z</time>
      </trkpt>
      <trkpt lat="47.28063" lon="-2.3559">
        <ele>65.199996948242</ele>
        <time>2020-02-13T09:20:54.000Z</time>
      </trkpt>
      <trkpt lat="47.28066" lon="-2.35596">
        <ele>65.199996948242</ele>
        <time>2020-02-13T09:20:56.000Z</time>
      </trkpt>
      <trkpt lat="47.28071" lon="-2.35619">
        <ele>65.199996948242</ele>
        <time>2020-02-13T09:21:01.000Z</time>
      </trkpt>
      <trkpt lat="47.28073" lon="-2.35627">
        <ele>65.199996948242</ele>
        <time>2020-02-13T09:21:03.000Z</time>
      </trkpt>
      <trkpt lat="47.28074" lon="-2.35631">
        <ele>65.599998474121</ele>
        <time>2020-02-13T09:21:04.000Z</time>
      </trkpt>
      <trkpt lat="47.28075" lon="-2.35635">
        <ele>66</ele>
        <time>2020-02-13T09:21:05.000Z</time>
      </trkpt>
      <trkpt lat="47.28075" lon="-2.35639">
        <ele>66.400001525879</ele>
        <time>2020-02-13T09:21:06.000Z</time>
      </trkpt>
      <trkpt lat="47.28076" lon="-2.35642">
        <ele>66.800003051758</ele>
        <time>2020-02-13T09:21:07.000Z</time>
      </trkpt>
      <trkpt lat="47.28077" lon="-2.35645">
        <ele>67.400001525879</ele>
        <time>2020-02-13T09:21:08.000Z</time>
      </trkpt>
      <trkpt lat="47.28079" lon="-2.35648">
        <ele>67.400001525879</ele>
        <time>2020-02-13T09:21:09.000Z</time>
      </trkpt>
      <trkpt lat="47.2808" lon="-2.35652">
        <ele>67.400001525879</ele>
        <time>2020-02-13T09:21:10.000Z</time>
      </trkpt>
      <trkpt lat="47.28081" lon="-2.35655">
        <ele>67.800003051758</ele>
        <time>2020-02-13T09:21:11.000Z</time>
      </trkpt>
      <trkpt lat="47.28082" lon="-2.35659">
        <ele>68.199996948242</ele>
        <time>2020-02-13T09:21:12.000Z</time>
      </trkpt>
      <trkpt lat="47.28083" lon="-2.35663">
        <ele>68.800003051758</ele>
        <time>2020-02-13T09:21:13.000Z</time>
      </trkpt>
      <trkpt lat="47.28084" lon="-2.35666">
        <ele>69.199996948242</ele>
        <time>2020-02-13T09:21:14.000Z</time>
      </trkpt>
      <trkpt lat="47.28085" lon="-2.35668">
        <ele>69.599998474121</ele>
        <time>2020-02-13T09:21:15.000Z</time>
      </trkpt>
      <trkpt lat="47.28086" lon="-2.35671">
        <ele>69.599998474121</ele>
        <time>2020-02-13T09:21:16.000Z</time>
      </trkpt>
      <trkpt lat="47.28089" lon="-2.35686">
        <ele>69.599998474121</ele>
        <time>2020-02-13T09:21:22.000Z</time>
      </trkpt>
      <trkpt lat="47.28089" lon="-2.35688">
        <ele>70.199996948242</ele>
        <time>2020-02-13T09:21:24.000Z</time>
      </trkpt>
      <trkpt lat="47.28089" lon="-2.35689">
        <ele>70.599998474121</ele>
        <time>2020-02-13T09:21:25.000Z</time>
      </trkpt>
      <trkpt lat="47.28089" lon="-2.3569">
        <ele>71.199996948242</ele>
        <time>2020-02-13T09:21:26.000Z</time>
      </trkpt>
      <trkpt lat="47.28089" lon="-2.35691">
        <ele>71.599998474121</ele>
        <time>2020-02-13T09:21:27.000Z</time>
      </trkpt>
      <trkpt lat="47.28099" lon="-2.35688">
        <ele>72.199996948242</ele>
        <time>2020-02-13T09:22:02.000Z</time>
      </trkpt>
      <trkpt lat="47.28103" lon="-2.35686">
        <ele>72.199996948242</ele>
        <time>2020-02-13T09:22:04.000Z</time>
      </trkpt>
      <trkpt lat="47.28108" lon="-2.35682">
        <ele>72.599998474121</ele>
        <time>2020-02-13T09:22:06.000Z</time>
      </trkpt>
      <trkpt lat="47.2811" lon="-2.35681">
        <ele>73</ele>
        <time>2020-02-13T09:22:07.000Z</time>
      </trkpt>
      <trkpt lat="47.28112" lon="-2.3568">
        <ele>73.599998474121</ele>
        <time>2020-02-13T09:22:08.000Z</time>
      </trkpt>
      <trkpt lat="47.28114" lon="-2.35679">
        <ele>74</ele>
        <time>2020-02-13T09:22:09.000Z</time>
      </trkpt>
      <trkpt lat="47.28116" lon="-2.35679">
        <ele>74.400001525879</ele>
        <time>2020-02-13T09:22:10.000Z</time>
      </trkpt>
      <trkpt lat="47.28117" lon="-2.35679">
        <ele>75</ele>
        <time>2020-02-13T09:22:11.000Z</time>
      </trkpt>
      <trkpt lat="47.28119" lon="-2.35678">
        <ele>76</ele>
        <time>2020-02-13T09:22:12.000Z</time>
      </trkpt>
      <trkpt lat="47.2812" lon="-2.35678">
        <ele>76.400001525879</ele>
        <time>2020-02-13T09:22:13.000Z</time>
      </trkpt>
      <trkpt lat="47.28121" lon="-2.35677">
        <ele>77</ele>
        <time>2020-02-13T09:22:14.000Z</time>
      </trkpt>
      <trkpt lat="47.28131" lon="-2.35673">
        <ele>77.400001525879</ele>
        <time>2020-02-13T09:22:19.000Z</time>
      </trkpt>
      <trkpt lat="47.28133" lon="-2.35672">
        <ele>77.800003051758</ele>
        <time>2020-02-13T09:22:20.000Z</time>
      </trkpt>
      <trkpt lat="47.28135" lon="-2.3567">
        <ele>78.199996948242</ele>
        <time>2020-02-13T09:22:21.000Z</time>
      </trkpt>
      <trkpt lat="47.28137" lon="-2.35669">
        <ele>78.599998474121</ele>
        <time>2020-02-13T09:22:22.000Z</time>
      </trkpt>
      <trkpt lat="47.28139" lon="-2.35668">
        <ele>79</ele>
        <time>2020-02-13T09:22:23.000Z</time>
      </trkpt>
      <trkpt lat="47.28144" lon="-2.35666">
        <ele>79</ele>
        <time>2020-02-13T09:22:26.000Z</time>
      </trkpt>
      <trkpt lat="47.28146" lon="-2.35667">
        <ele>79</ele>
        <time>2020-02-13T09:22:27.000Z</time>
      </trkpt>
      <trkpt lat="47.2815" lon="-2.35674">
        <ele>79</ele>
        <time>2020-02-13T09:22:30.000Z</time>
      </trkpt>
      <trkpt lat="47.28157" lon="-2.3568">
        <ele>78.599998474121</ele>
        <time>2020-02-13T09:22:34.000Z</time>
      </trkpt>
      <trkpt lat="47.28158" lon="-2.35679">
        <ele>78.199996948242</ele>
        <time>2020-02-13T09:22:35.000Z</time>
      </trkpt>
      <trkpt lat="47.28159" lon="-2.35679">
        <ele>77.400001525879</ele>
        <time>2020-02-13T09:22:36.000Z</time>
      </trkpt>
      <trkpt lat="47.28163" lon="-2.35682">
        <ele>77</ele>
        <time>2020-02-13T09:22:42.000Z</time>
      </trkpt>
      <trkpt lat="47.28167" lon="-2.35686">
        <ele>77</ele>
        <time>2020-02-13T09:22:44.000Z</time>
      </trkpt>
      <trkpt lat="47.2817" lon="-2.35688">
        <ele>76.400001525879</ele>
        <time>2020-02-13T09:22:45.000Z</time>
      </trkpt>
      <trkpt lat="47.28172" lon="-2.35692">
        <ele>75.800003051758</ele>
        <time>2020-02-13T09:22:46.000Z</time>
      </trkpt>
      <trkpt lat="47.28174" lon="-2.35696">
        <ele>75.199996948242</ele>
        <time>2020-02-13T09:22:47.000Z</time>
      </trkpt>
      <trkpt lat="47.28175" lon="-2.35699">
        <ele>74.599998474121</ele>
        <time>2020-02-13T09:22:48.000Z</time>
      </trkpt>
      <trkpt lat="47.28177" lon="-2.35703">
        <ele>74</ele>
        <time>2020-02-13T09:22:49.000Z</time>
      </trkpt>
      <trkpt lat="47.28181" lon="-2.35706">
        <ele>73.400001525879</ele>
        <time>2020-02-13T09:22:51.000Z</time>
      </trkpt>
      <trkpt lat="47.28184" lon="-2.35706">
        <ele>73</ele>
        <time>2020-02-13T09:22:52.000Z</time>
      </trkpt>
      <trkpt lat="47.28186" lon="-2.35705">
        <ele>72.400001525879</ele>
        <time>2020-02-13T09:22:53.000Z</time>
      </trkpt>
      <trkpt lat="47.28188" lon="-2.35705">
        <ele>72</ele>
        <time>2020-02-13T09:22:54.000Z</time>
      </trkpt>
      <trkpt lat="47.2819" lon="-2.35707">
        <ele>71.400001525879</ele>
        <time>2020-02-13T09:22:55.000Z</time>
      </trkpt>
      <trkpt lat="47.28191" lon="-2.35709">
        <ele>71</ele>
        <time>2020-02-13T09:22:56.000Z</time>
      </trkpt>
      <trkpt lat="47.28192" lon="-2.35711">
        <ele>70.400001525879</ele>
        <time>2020-02-13T09:22:57.000Z</time>
      </trkpt>
      <trkpt lat="47.28193" lon="-2.35713">
        <ele>70</ele>
        <time>2020-02-13T09:22:58.000Z</time>
      </trkpt>
      <trkpt lat="47.28195" lon="-2.35715">
        <ele>69.400001525879</ele>
        <time>2020-02-13T09:22:59.000Z</time>
      </trkpt>
      <trkpt lat="47.28198" lon="-2.3572">
        <ele>69.400001525879</ele>
        <time>2020-02-13T09:23:01.000Z</time>
      </trkpt>
      <trkpt lat="47.28203" lon="-2.35734">
        <ele>69.400001525879</ele>
        <time>2020-02-13T09:23:05.000Z</time>
      </trkpt>
      <trkpt lat="47.28203" lon="-2.35737">
        <ele>70</ele>
        <time>2020-02-13T09:23:06.000Z</time>
      </trkpt>
      <trkpt lat="47.28202" lon="-2.35741">
        <ele>70.400001525879</ele>
        <time>2020-02-13T09:23:07.000Z</time>
      </trkpt>
      <trkpt lat="47.28203" lon="-2.35744">
        <ele>70.800003051758</ele>
        <time>2020-02-13T09:23:08.000Z</time>
      </trkpt>
      <trkpt lat="47.28202" lon="-2.35748">
        <ele>71.400001525879</ele>
        <time>2020-02-13T09:23:09.000Z</time>
      </trkpt>
      <trkpt lat="47.28203" lon="-2.35752">
        <ele>71.800003051758</ele>
        <time>2020-02-13T09:23:10.000Z</time>
      </trkpt>
      <trkpt lat="47.28204" lon="-2.35763">
        <ele>72.199996948242</ele>
        <time>2020-02-13T09:23:14.000Z</time>
      </trkpt>
      <trkpt lat="47.28204" lon="-2.35766">
        <ele>72.599998474121</ele>
        <time>2020-02-13T09:23:15.000Z</time>
      </trkpt>
      <trkpt lat="47.28204" lon="-2.35769">
        <ele>73</ele>
        <time>2020-02-13T09:23:16.000Z</time>
      </trkpt>
      <trkpt lat="47.28204" lon="-2.35771">
        <ele>73.400001525879</ele>
        <time>2020-02-13T09:23:17.000Z</time>
      </trkpt>
      <trkpt lat="47.28205" lon="-2.35773">
        <ele>73.800003051758</ele>
        <time>2020-02-13T09:23:18.000Z</time>
      </trkpt>
      <trkpt lat="47.28209" lon="-2.35782">
        <ele>73.800003051758</ele>
        <time>2020-02-13T09:23:24.000Z</time>
      </trkpt>
      <trkpt lat="47.28212" lon="-2.35784">
        <ele>73.800003051758</ele>
        <time>2020-02-13T09:23:26.000Z</time>
      </trkpt>
      <trkpt lat="47.28215" lon="-2.35786">
        <ele>73.800003051758</ele>
        <time>2020-02-13T09:23:28.000Z</time>
      </trkpt>
      <trkpt lat="47.28216" lon="-2.35785">
        <ele>73.800003051758</ele>
        <time>2020-02-13T09:23:29.000Z</time>
      </trkpt>
      <trkpt lat="47.28218" lon="-2.35783">
        <ele>73.800003051758</ele>
        <time>2020-02-13T09:23:31.000Z</time>
      </trkpt>
      <trkpt lat="47.28224" lon="-2.35776">
        <ele>73.800003051758</ele>
        <time>2020-02-13T09:23:36.000Z</time>
      </trkpt>
      <trkpt lat="47.28226" lon="-2.35773">
        <ele>73.800003051758</ele>
        <time>2020-02-13T09:23:37.000Z</time>
      </trkpt>
      <trkpt lat="47.28231" lon="-2.35769">
        <ele>73.800003051758</ele>
        <time>2020-02-13T09:23:40.000Z</time>
      </trkpt>
      <trkpt lat="47.28237" lon="-2.35774">
        <ele>73.800003051758</ele>
        <time>2020-02-13T09:24:34.000Z</time>
      </trkpt>
      <trkpt lat="47.28238" lon="-2.35776">
        <ele>73.800003051758</ele>
        <time>2020-02-13T09:24:35.000Z</time>
      </trkpt>
      <trkpt lat="47.28244" lon="-2.35783">
        <ele>73.800003051758</ele>
        <time>2020-02-13T09:24:38.000Z</time>
      </trkpt>
      <trkpt lat="47.28247" lon="-2.35785">
        <ele>73.800003051758</ele>
        <time>2020-02-13T09:24:39.000Z</time>
      </trkpt>
      <trkpt lat="47.28253" lon="-2.35791">
        <ele>73.800003051758</ele>
        <time>2020-02-13T09:24:42.000Z</time>
      </trkpt>
      <trkpt lat="47.28256" lon="-2.35795">
        <ele>73.800003051758</ele>
        <time>2020-02-13T09:24:44.000Z</time>
      </trkpt>
      <trkpt lat="47.28263" lon="-2.3581">
        <ele>73.800003051758</ele>
        <time>2020-02-13T09:24:49.000Z</time>
      </trkpt>
      <trkpt lat="47.28264" lon="-2.35814">
        <ele>73.800003051758</ele>
        <time>2020-02-13T09:24:50.000Z</time>
      </trkpt>
      <trkpt lat="47.2827" lon="-2.35817">
        <ele>73.800003051758</ele>
        <time>2020-02-13T09:24:53.000Z</time>
      </trkpt>
      <trkpt lat="47.28283" lon="-2.35812">
        <ele>73.800003051758</ele>
        <time>2020-02-13T09:24:59.000Z</time>
      </trkpt>
      <trkpt lat="47.28285" lon="-2.35811">
        <ele>73.800003051758</ele>
        <time>2020-02-13T09:25:00.000Z</time>
      </trkpt>
      <trkpt lat="47.28293" lon="-2.35805">
        <ele>73.800003051758</ele>
        <time>2020-02-13T09:25:05.000Z</time>
      </trkpt>
      <trkpt lat="47.28296" lon="-2.35807">
        <ele>74.199996948242</ele>
        <time>2020-02-13T09:25:09.000Z</time>
      </trkpt>
      <trkpt lat="47.28297" lon="-2.35808">
        <ele>74.599998474121</ele>
        <time>2020-02-13T09:25:10.000Z</time>
      </trkpt>
      <trkpt lat="47.28297" lon="-2.3581">
        <ele>75.199996948242</ele>
        <time>2020-02-13T09:25:11.000Z</time>
      </trkpt>
      <trkpt lat="47.28297" lon="-2.35812">
        <ele>75.599998474121</ele>
        <time>2020-02-13T09:25:12.000Z</time>
      </trkpt>
      <trkpt lat="47.28298" lon="-2.35813">
        <ele>76</ele>
        <time>2020-02-13T09:25:13.000Z</time>
      </trkpt>
      <trkpt lat="47.28299" lon="-2.35818">
        <ele>76</ele>
        <time>2020-02-13T09:25:15.000Z</time>
      </trkpt>
      <trkpt lat="47.28305" lon="-2.35829">
        <ele>76</ele>
        <time>2020-02-13T09:25:21.000Z</time>
      </trkpt>
      <trkpt lat="47.2831" lon="-2.35838">
        <ele>76</ele>
        <time>2020-02-13T09:25:27.000Z</time>
      </trkpt>
      <trkpt lat="47.28315" lon="-2.35858">
        <ele>76</ele>
        <time>2020-02-13T09:25:32.000Z</time>
      </trkpt>
      <trkpt lat="47.28317" lon="-2.3587">
        <ele>76</ele>
        <time>2020-02-13T09:25:36.000Z</time>
      </trkpt>
      <trkpt lat="47.28321" lon="-2.35873">
        <ele>76</ele>
        <time>2020-02-13T09:25:38.000Z</time>
      </trkpt>
      <trkpt lat="47.28328" lon="-2.3587">
        <ele>76</ele>
        <time>2020-02-13T09:25:42.000Z</time>
      </trkpt>
      <trkpt lat="47.28328" lon="-2.35868">
        <ele>76</ele>
        <time>2020-02-13T09:25:44.000Z</time>
      </trkpt>
      <trkpt lat="47.28328" lon="-2.35865">
        <ele>76</ele>
        <time>2020-02-13T09:25:46.000Z</time>
      </trkpt>
      <trkpt lat="47.28332" lon="-2.3586">
        <ele>76</ele>
        <time>2020-02-13T09:25:49.000Z</time>
      </trkpt>
      <trkpt lat="47.28339" lon="-2.35856">
        <ele>76</ele>
        <time>2020-02-13T09:25:51.000Z</time>
      </trkpt>
      <trkpt lat="47.28354" lon="-2.35854">
        <ele>76</ele>
        <time>2020-02-13T09:25:54.000Z</time>
      </trkpt>
      <trkpt lat="47.28359" lon="-2.35854">
        <ele>76</ele>
        <time>2020-02-13T09:25:55.000Z</time>
      </trkpt>
      <trkpt lat="47.28379" lon="-2.35854">
        <ele>76</ele>
        <time>2020-02-13T09:26:00.000Z</time>
      </trkpt>
      <trkpt lat="47.28396" lon="-2.35847">
        <ele>76</ele>
        <time>2020-02-13T09:26:04.000Z</time>
      </trkpt>
      <trkpt lat="47.28401" lon="-2.35845">
        <ele>76</ele>
        <time>2020-02-13T09:26:05.000Z</time>
      </trkpt>
      <trkpt lat="47.28409" lon="-2.35842">
        <ele>76</ele>
        <time>2020-02-13T09:26:08.000Z</time>
      </trkpt>
      <trkpt lat="47.28411" lon="-2.35843">
        <ele>76</ele>
        <time>2020-02-13T09:26:09.000Z</time>
      </trkpt>
      <trkpt lat="47.28422" lon="-2.35854">
        <ele>76</ele>
        <time>2020-02-13T09:26:13.000Z</time>
      </trkpt>
      <trkpt lat="47.2843" lon="-2.35867">
        <ele>76.400001525879</ele>
        <time>2020-02-13T09:26:17.000Z</time>
      </trkpt>
      <trkpt lat="47.28435" lon="-2.35873">
        <ele>76.800003051758</ele>
        <time>2020-02-13T09:26:18.000Z</time>
      </trkpt>
      <trkpt lat="47.28437" lon="-2.35877">
        <ele>77.599998474121</ele>
        <time>2020-02-13T09:26:19.000Z</time>
      </trkpt>
      <trkpt lat="47.28441" lon="-2.3588">
        <ele>78</ele>
        <time>2020-02-13T09:26:20.000Z</time>
      </trkpt>
      <trkpt lat="47.28456" lon="-2.35886">
        <ele>78</ele>
        <time>2020-02-13T09:26:25.000Z</time>
      </trkpt>
      <trkpt lat="47.28462" lon="-2.35887">
        <ele>78</ele>
        <time>2020-02-13T09:26:28.000Z</time>
      </trkpt>
      <trkpt lat="47.28463" lon="-2.35888">
        <ele>78</ele>
        <time>2020-02-13T09:26:30.000Z</time>
      </trkpt>
      <trkpt lat="47.28464" lon="-2.35886">
        <ele>78</ele>
        <time>2020-02-13T09:26:32.000Z</time>
      </trkpt>
      <trkpt lat="47.28464" lon="-2.35878">
        <ele>78</ele>
        <time>2020-02-13T09:26:36.000Z</time>
      </trkpt>
      <trkpt lat="47.28464" lon="-2.35872">
        <ele>78</ele>
        <time>2020-02-13T09:26:38.000Z</time>
      </trkpt>
      <trkpt lat="47.28469" lon="-2.35859">
        <ele>78</ele>
        <time>2020-02-13T09:26:43.000Z</time>
      </trkpt>
      <trkpt lat="47.28472" lon="-2.35845">
        <ele>78</ele>
        <time>2020-02-13T09:26:47.000Z</time>
      </trkpt>
      <trkpt lat="47.28472" lon="-2.35844">
        <ele>78</ele>
        <time>2020-02-13T09:26:48.000Z</time>
      </trkpt>
      <trkpt lat="47.28476" lon="-2.35843">
        <ele>78</ele>
        <time>2020-02-13T09:26:53.000Z</time>
      </trkpt>
      <trkpt lat="47.28476" lon="-2.35845">
        <ele>78</ele>
        <time>2020-02-13T09:26:54.000Z</time>
      </trkpt>
      <trkpt lat="47.28477" lon="-2.3585">
        <ele>78</ele>
        <time>2020-02-13T09:26:56.000Z</time>
      </trkpt>
      <trkpt lat="47.28485" lon="-2.35856">
        <ele>78</ele>
        <time>2020-02-13T09:27:00.000Z</time>
      </trkpt>
      <trkpt lat="47.28493" lon="-2.35862">
        <ele>78</ele>
        <time>2020-02-13T09:27:03.000Z</time>
      </trkpt>
      <trkpt lat="47.28497" lon="-2.35865">
        <ele>78</ele>
        <time>2020-02-13T09:27:04.000Z</time>
      </trkpt>
      <trkpt lat="47.28514" lon="-2.35879">
        <ele>78.599998474121</ele>
        <time>2020-02-13T09:27:10.000Z</time>
      </trkpt>
      <trkpt lat="47.28516" lon="-2.35881">
        <ele>79</ele>
        <time>2020-02-13T09:27:11.000Z</time>
      </trkpt>
      <trkpt lat="47.28518" lon="-2.35883">
        <ele>79.400001525879</ele>
        <time>2020-02-13T09:27:12.000Z</time>
      </trkpt>
      <trkpt lat="47.28519" lon="-2.35885">
        <ele>80</ele>
        <time>2020-02-13T09:27:13.000Z</time>
      </trkpt>
      <trkpt lat="47.2852" lon="-2.35886">
        <ele>80.400001525879</ele>
        <time>2020-02-13T09:27:14.000Z</time>
      </trkpt>
      <trkpt lat="47.28522" lon="-2.35887">
        <ele>80.800003051758</ele>
        <time>2020-02-13T09:27:15.000Z</time>
      </trkpt>
      <trkpt lat="47.28522" lon="-2.35887">
        <ele>81.400001525879</ele>
        <time>2020-02-13T09:27:16.000Z</time>
      </trkpt>
      <trkpt lat="47.28523" lon="-2.35888">
        <ele>81.800003051758</ele>
        <time>2020-02-13T09:27:17.000Z</time>
      </trkpt>
      <trkpt lat="47.28526" lon="-2.35888">
        <ele>82.199996948242</ele>
        <time>2020-02-13T09:27:18.000Z</time>
      </trkpt>
      <trkpt lat="47.28529" lon="-2.35888">
        <ele>82.800003051758</ele>
        <time>2020-02-13T09:27:19.000Z</time>
      </trkpt>
      <trkpt lat="47.2853" lon="-2.35888">
        <ele>83.400001525879</ele>
        <time>2020-02-13T09:27:20.000Z</time>
      </trkpt>
      <trkpt lat="47.28533" lon="-2.35888">
        <ele>84</ele>
        <time>2020-02-13T09:27:21.000Z</time>
      </trkpt>
      <trkpt lat="47.28535" lon="-2.35888">
        <ele>84.599998474121</ele>
        <time>2020-02-13T09:27:22.000Z</time>
      </trkpt>
      <trkpt lat="47.28536" lon="-2.3589">
        <ele>85.199996948242</ele>
        <time>2020-02-13T09:27:23.000Z</time>
      </trkpt>
      <trkpt lat="47.28537" lon="-2.35892">
        <ele>85.199996948242</ele>
        <time>2020-02-13T09:27:25.000Z</time>
      </trkpt>
      <trkpt lat="47.28545" lon="-2.35905">
        <ele>87.199996948242</ele>
        <time>2020-02-13T09:27:48.000Z</time>
      </trkpt>
      <trkpt lat="47.28546" lon="-2.35907">
        <ele>87.199996948242</ele>
        <time>2020-02-13T09:27:50.000Z</time>
      </trkpt>
      <trkpt lat="47.28545" lon="-2.35909">
        <ele>87.199996948242</ele>
        <time>2020-02-13T09:27:51.000Z</time>
      </trkpt>
      <trkpt lat="47.28544" lon="-2.35915">
        <ele>87.199996948242</ele>
        <time>2020-02-13T09:27:55.000Z</time>
      </trkpt>
      <trkpt lat="47.28539" lon="-2.35926">
        <ele>87.199996948242</ele>
        <time>2020-02-13T09:28:01.000Z</time>
      </trkpt>
      <trkpt lat="47.28537" lon="-2.35929">
        <ele>87.800003051758</ele>
        <time>2020-02-13T09:28:03.000Z</time>
      </trkpt>
      <trkpt lat="47.28535" lon="-2.3593">
        <ele>88.199996948242</ele>
        <time>2020-02-13T09:28:04.000Z</time>
      </trkpt>
      <trkpt lat="47.28534" lon="-2.35931">
        <ele>88.800003051758</ele>
        <time>2020-02-13T09:28:05.000Z</time>
      </trkpt>
      <trkpt lat="47.28533" lon="-2.35932">
        <ele>89.199996948242</ele>
        <time>2020-02-13T09:28:06.000Z</time>
      </trkpt>
      <trkpt lat="47.2853" lon="-2.35932">
        <ele>89.800003051758</ele>
        <time>2020-02-13T09:28:07.000Z</time>
      </trkpt>
      <trkpt lat="47.28518" lon="-2.35934">
        <ele>89.800003051758</ele>
        <time>2020-02-13T09:28:11.000Z</time>
      </trkpt>
      <trkpt lat="47.28515" lon="-2.35935">
        <ele>89.800003051758</ele>
        <time>2020-02-13T09:28:12.000Z</time>
      </trkpt>
      <trkpt lat="47.28495" lon="-2.35938">
        <ele>89.800003051758</ele>
        <time>2020-02-13T09:28:18.000Z</time>
      </trkpt>
      <trkpt lat="47.28477" lon="-2.35956">
        <ele>89.800003051758</ele>
        <time>2020-02-13T09:28:23.000Z</time>
      </trkpt>
      <trkpt lat="47.28468" lon="-2.35969">
        <ele>89.800003051758</ele>
        <time>2020-02-13T09:28:28.000Z</time>
      </trkpt>
      <trkpt lat="47.28467" lon="-2.35971">
        <ele>89.800003051758</ele>
        <time>2020-02-13T09:28:29.000Z</time>
      </trkpt>
      <trkpt lat="47.28461" lon="-2.35983">
        <ele>89.800003051758</ele>
        <time>2020-02-13T09:28:33.000Z</time>
      </trkpt>
      <trkpt lat="47.28451" lon="-2.36">
        <ele>89.800003051758</ele>
        <time>2020-02-13T09:28:39.000Z</time>
      </trkpt>
      <trkpt lat="47.28448" lon="-2.36004">
        <ele>89.800003051758</ele>
        <time>2020-02-13T09:28:41.000Z</time>
      </trkpt>
      <trkpt lat="47.28446" lon="-2.36009">
        <ele>89.800003051758</ele>
        <time>2020-02-13T09:28:44.000Z</time>
      </trkpt>
      <trkpt lat="47.28445" lon="-2.36011">
        <ele>89.800003051758</ele>
        <time>2020-02-13T09:28:46.000Z</time>
      </trkpt>
      <trkpt lat="47.28442" lon="-2.36021">
        <ele>89.800003051758</ele>
        <time>2020-02-13T09:28:57.000Z</time>
      </trkpt>
      <trkpt lat="47.28442" lon="-2.36023">
        <ele>89.800003051758</ele>
        <time>2020-02-13T09:28:58.000Z</time>
      </trkpt>
      <trkpt lat="47.28439" lon="-2.3604">
        <ele>89.800003051758</ele>
        <time>2020-02-13T09:29:05.000Z</time>
      </trkpt>
      <trkpt lat="47.28437" lon="-2.36058">
        <ele>89.800003051758</ele>
        <time>2020-02-13T09:29:12.000Z</time>
      </trkpt>
      <trkpt lat="47.28436" lon="-2.36062">
        <ele>89.800003051758</ele>
        <time>2020-02-13T09:29:14.000Z</time>
      </trkpt>
      <trkpt lat="47.28436" lon="-2.3607">
        <ele>89.800003051758</ele>
        <time>2020-02-13T09:29:18.000Z</time>
      </trkpt>
      <trkpt lat="47.28436" lon="-2.36073">
        <ele>89.800003051758</ele>
        <time>2020-02-13T09:29:20.000Z</time>
      </trkpt>
      <trkpt lat="47.28436" lon="-2.3608">
        <ele>89.800003051758</ele>
        <time>2020-02-13T09:29:24.000Z</time>
      </trkpt>
      <trkpt lat="47.28436" lon="-2.36092">
        <ele>89.199996948242</ele>
        <time>2020-02-13T09:29:30.000Z</time>
      </trkpt>
      <trkpt lat="47.28436" lon="-2.36093">
        <ele>88.800003051758</ele>
        <time>2020-02-13T09:29:31.000Z</time>
      </trkpt>
      <trkpt lat="47.28436" lon="-2.36094">
        <ele>88.400001525879</ele>
        <time>2020-02-13T09:29:32.000Z</time>
      </trkpt>
      <trkpt lat="47.28433" lon="-2.36088">
        <ele>87.599998474121</ele>
        <time>2020-02-13T09:30:12.000Z</time>
      </trkpt>
      <trkpt lat="47.28431" lon="-2.36089">
        <ele>87.599998474121</ele>
        <time>2020-02-13T09:30:13.000Z</time>
      </trkpt>
      <trkpt lat="47.28424" lon="-2.36095">
        <ele>87.599998474121</ele>
        <time>2020-02-13T09:30:18.000Z</time>
      </trkpt>
      <trkpt lat="47.28424" lon="-2.36098">
        <ele>87.599998474121</ele>
        <time>2020-02-13T09:30:19.000Z</time>
      </trkpt>
      <trkpt lat="47.28422" lon="-2.36101">
        <ele>87.599998474121</ele>
        <time>2020-02-13T09:30:22.000Z</time>
      </trkpt>
      <trkpt lat="47.28422" lon="-2.36106">
        <ele>87.599998474121</ele>
        <time>2020-02-13T09:30:25.000Z</time>
      </trkpt>
      <trkpt lat="47.28422" lon="-2.36107">
        <ele>87.599998474121</ele>
        <time>2020-02-13T09:30:26.000Z</time>
      </trkpt>
      <trkpt lat="47.28422" lon="-2.36108">
        <ele>87.599998474121</ele>
        <time>2020-02-13T09:30:27.000Z</time>
      </trkpt>
      <trkpt lat="47.28417" lon="-2.36115">
        <ele>85.599998474121</ele>
        <time>2020-02-13T09:30:45.000Z</time>
      </trkpt>
      <trkpt lat="47.28415" lon="-2.36116">
        <ele>85.599998474121</ele>
        <time>2020-02-13T09:30:47.000Z</time>
      </trkpt>
      <trkpt lat="47.28414" lon="-2.36116">
        <ele>85.599998474121</ele>
        <time>2020-02-13T09:30:48.000Z</time>
      </trkpt>
      <trkpt lat="47.28409" lon="-2.36117">
        <ele>85.599998474121</ele>
        <time>2020-02-13T09:30:52.000Z</time>
      </trkpt>
      <trkpt lat="47.28404" lon="-2.36117">
        <ele>85.599998474121</ele>
        <time>2020-02-13T09:30:54.000Z</time>
      </trkpt>
      <trkpt lat="47.28391" lon="-2.36118">
        <ele>85.599998474121</ele>
        <time>2020-02-13T09:31:00.000Z</time>
      </trkpt>
      <trkpt lat="47.28389" lon="-2.36121">
        <ele>85.599998474121</ele>
        <time>2020-02-13T09:31:01.000Z</time>
      </trkpt>
      <trkpt lat="47.28386" lon="-2.36129">
        <ele>85.599998474121</ele>
        <time>2020-02-13T09:31:03.000Z</time>
      </trkpt>
      <trkpt lat="47.2838" lon="-2.36141">
        <ele>85.599998474121</ele>
        <time>2020-02-13T09:31:07.000Z</time>
      </trkpt>
      <trkpt lat="47.28374" lon="-2.36147">
        <ele>85.599998474121</ele>
        <time>2020-02-13T09:31:11.000Z</time>
      </trkpt>
      <trkpt lat="47.28371" lon="-2.36148">
        <ele>85.599998474121</ele>
        <time>2020-02-13T09:31:12.000Z</time>
      </trkpt>
      <trkpt lat="47.28366" lon="-2.36155">
        <ele>85</ele>
        <time>2020-02-13T09:31:15.000Z</time>
      </trkpt>
      <trkpt lat="47.28364" lon="-2.36158">
        <ele>84</ele>
        <time>2020-02-13T09:31:16.000Z</time>
      </trkpt>
      <trkpt lat="47.28361" lon="-2.36161">
        <ele>83.400001525879</ele>
        <time>2020-02-13T09:31:17.000Z</time>
      </trkpt>
      <trkpt lat="47.28358" lon="-2.36164">
        <ele>82.800003051758</ele>
        <time>2020-02-13T09:31:18.000Z</time>
      </trkpt>
      <trkpt lat="47.28353" lon="-2.36167">
        <ele>81.800003051758</ele>
        <time>2020-02-13T09:31:19.000Z</time>
      </trkpt>
      <trkpt lat="47.28349" lon="-2.36171">
        <ele>81</ele>
        <time>2020-02-13T09:31:20.000Z</time>
      </trkpt>
      <trkpt lat="47.28344" lon="-2.36176">
        <ele>80</ele>
        <time>2020-02-13T09:31:21.000Z</time>
      </trkpt>
      <trkpt lat="47.28341" lon="-2.36183">
        <ele>79</ele>
        <time>2020-02-13T09:31:22.000Z</time>
      </trkpt>
      <trkpt lat="47.28338" lon="-2.36188">
        <ele>78.199996948242</ele>
        <time>2020-02-13T09:31:23.000Z</time>
      </trkpt>
      <trkpt lat="47.28333" lon="-2.36193">
        <ele>77.199996948242</ele>
        <time>2020-02-13T09:31:24.000Z</time>
      </trkpt>
      <trkpt lat="47.28325" lon="-2.36202">
        <ele>76.400001525879</ele>
        <time>2020-02-13T09:31:25.000Z</time>
      </trkpt>
      <trkpt lat="47.28318" lon="-2.36208">
        <ele>75.400001525879</ele>
        <time>2020-02-13T09:31:26.000Z</time>
      </trkpt>
      <trkpt lat="47.28313" lon="-2.36212">
        <ele>74.599998474121</ele>
        <time>2020-02-13T09:31:27.000Z</time>
      </trkpt>
      <trkpt lat="47.28309" lon="-2.36214">
        <ele>73.599998474121</ele>
        <time>2020-02-13T09:31:28.000Z</time>
      </trkpt>
      <trkpt lat="47.28296" lon="-2.36226">
        <ele>73.599998474121</ele>
        <time>2020-02-13T09:31:32.000Z</time>
      </trkpt>
      <trkpt lat="47.28294" lon="-2.36227">
        <ele>73.199996948242</ele>
        <time>2020-02-13T09:31:33.000Z</time>
      </trkpt>
      <trkpt lat="47.28292" lon="-2.36228">
        <ele>72.800003051758</ele>
        <time>2020-02-13T09:31:34.000Z</time>
      </trkpt>
      <trkpt lat="47.2829" lon="-2.36228">
        <ele>72.400001525879</ele>
        <time>2020-02-13T09:31:35.000Z</time>
      </trkpt>
      <trkpt lat="47.28289" lon="-2.36228">
        <ele>72</ele>
        <time>2020-02-13T09:31:36.000Z</time>
      </trkpt>
      <trkpt lat="47.28287" lon="-2.36231">
        <ele>71.599998474121</ele>
        <time>2020-02-13T09:31:37.000Z</time>
      </trkpt>
      <trkpt lat="47.28288" lon="-2.36242">
        <ele>71.599998474121</ele>
        <time>2020-02-13T09:31:40.000Z</time>
      </trkpt>
      <trkpt lat="47.28291" lon="-2.36245">
        <ele>70.800003051758</ele>
        <time>2020-02-13T09:31:41.000Z</time>
      </trkpt>
      <trkpt lat="47.28295" lon="-2.36247">
        <ele>70.400001525879</ele>
        <time>2020-02-13T09:31:42.000Z</time>
      </trkpt>
      <trkpt lat="47.28299" lon="-2.36248">
        <ele>70</ele>
        <time>2020-02-13T09:31:43.000Z</time>
      </trkpt>
      <trkpt lat="47.28304" lon="-2.36247">
        <ele>69.599998474121</ele>
        <time>2020-02-13T09:31:44.000Z</time>
      </trkpt>
      <trkpt lat="47.28308" lon="-2.36247">
        <ele>69.599998474121</ele>
        <time>2020-02-13T09:31:45.000Z</time>
      </trkpt>
      <trkpt lat="47.28315" lon="-2.36249">
        <ele>69.599998474121</ele>
        <time>2020-02-13T09:31:47.000Z</time>
      </trkpt>
      <trkpt lat="47.28328" lon="-2.36256">
        <ele>69.599998474121</ele>
        <time>2020-02-13T09:31:51.000Z</time>
      </trkpt>
      <trkpt lat="47.28344" lon="-2.36257">
        <ele>69.599998474121</ele>
        <time>2020-02-13T09:31:57.000Z</time>
      </trkpt>
      <trkpt lat="47.28355" lon="-2.36261">
        <ele>70</ele>
        <time>2020-02-13T09:32:02.000Z</time>
      </trkpt>
      <trkpt lat="47.28356" lon="-2.36263">
        <ele>70.400001525879</ele>
        <time>2020-02-13T09:32:03.000Z</time>
      </trkpt>
      <trkpt lat="47.28356" lon="-2.36265">
        <ele>71</ele>
        <time>2020-02-13T09:32:04.000Z</time>
      </trkpt>
      <trkpt lat="47.28357" lon="-2.36267">
        <ele>71.800003051758</ele>
        <time>2020-02-13T09:32:05.000Z</time>
      </trkpt>
      <trkpt lat="47.28356" lon="-2.36272">
        <ele>71.800003051758</ele>
        <time>2020-02-13T09:32:07.000Z</time>
      </trkpt>
      <trkpt lat="47.28356" lon="-2.36283">
        <ele>71.800003051758</ele>
        <time>2020-02-13T09:32:11.000Z</time>
      </trkpt>
      <trkpt lat="47.28363" lon="-2.36298">
        <ele>71.800003051758</ele>
        <time>2020-02-13T09:32:16.000Z</time>
      </trkpt>
      <trkpt lat="47.28364" lon="-2.36299">
        <ele>71.800003051758</ele>
        <time>2020-02-13T09:32:17.000Z</time>
      </trkpt>
      <trkpt lat="47.28367" lon="-2.363">
        <ele>72.199996948242</ele>
        <time>2020-02-13T09:32:19.000Z</time>
      </trkpt>
      <trkpt lat="47.2837" lon="-2.36301">
        <ele>72.800003051758</ele>
        <time>2020-02-13T09:32:20.000Z</time>
      </trkpt>
      <trkpt lat="47.28371" lon="-2.36302">
        <ele>73.199996948242</ele>
        <time>2020-02-13T09:32:21.000Z</time>
      </trkpt>
      <trkpt lat="47.28374" lon="-2.36304">
        <ele>73.599998474121</ele>
        <time>2020-02-13T09:32:22.000Z</time>
      </trkpt>
      <trkpt lat="47.28377" lon="-2.36309">
        <ele>74</ele>
        <time>2020-02-13T09:32:23.000Z</time>
      </trkpt>
      <trkpt lat="47.28382" lon="-2.36316">
        <ele>74</ele>
        <time>2020-02-13T09:32:25.000Z</time>
      </trkpt>
      <trkpt lat="47.284" lon="-2.36334">
        <ele>74</ele>
        <time>2020-02-13T09:32:32.000Z</time>
      </trkpt>
      <trkpt lat="47.28415" lon="-2.36359">
        <ele>74</ele>
        <time>2020-02-13T09:32:39.000Z</time>
      </trkpt>
      <trkpt lat="47.28423" lon="-2.36368">
        <ele>74.400001525879</ele>
        <time>2020-02-13T09:32:42.000Z</time>
      </trkpt>
      <trkpt lat="47.28426" lon="-2.3637">
        <ele>75</ele>
        <time>2020-02-13T09:32:43.000Z</time>
      </trkpt>
      <trkpt lat="47.28427" lon="-2.36372">
        <ele>75.400001525879</ele>
        <time>2020-02-13T09:32:44.000Z</time>
      </trkpt>
      <trkpt lat="47.2843" lon="-2.36374">
        <ele>75.800003051758</ele>
        <time>2020-02-13T09:32:45.000Z</time>
      </trkpt>
      <trkpt lat="47.28432" lon="-2.36376">
        <ele>76.199996948242</ele>
        <time>2020-02-13T09:32:46.000Z</time>
      </trkpt>
      <trkpt lat="47.28441" lon="-2.36382">
        <ele>76.199996948242</ele>
        <time>2020-02-13T09:32:50.000Z</time>
      </trkpt>
      <trkpt lat="47.28454" lon="-2.36392">
        <ele>76.199996948242</ele>
        <time>2020-02-13T09:32:56.000Z</time>
      </trkpt>
      <trkpt lat="47.2846" lon="-2.36397">
        <ele>76.599998474121</ele>
        <time>2020-02-13T09:32:59.000Z</time>
      </trkpt>
      <trkpt lat="47.28461" lon="-2.36399">
        <ele>77</ele>
        <time>2020-02-13T09:33:00.000Z</time>
      </trkpt>
      <trkpt lat="47.28463" lon="-2.36401">
        <ele>77.400001525879</ele>
        <time>2020-02-13T09:33:01.000Z</time>
      </trkpt>
      <trkpt lat="47.28464" lon="-2.36403">
        <ele>78</ele>
        <time>2020-02-13T09:33:02.000Z</time>
      </trkpt>
      <trkpt lat="47.28466" lon="-2.36405">
        <ele>78.400001525879</ele>
        <time>2020-02-13T09:33:03.000Z</time>
      </trkpt>
      <trkpt lat="47.28472" lon="-2.36415">
        <ele>78.400001525879</ele>
        <time>2020-02-13T09:33:06.000Z</time>
      </trkpt>
      <trkpt lat="47.28474" lon="-2.36418">
        <ele>78.400001525879</ele>
        <time>2020-02-13T09:33:07.000Z</time>
      </trkpt>
      <trkpt lat="47.28484" lon="-2.3643">
        <ele>78.400001525879</ele>
        <time>2020-02-13T09:33:10.000Z</time>
      </trkpt>
      <trkpt lat="47.28492" lon="-2.36441">
        <ele>78.400001525879</ele>
        <time>2020-02-13T09:33:12.000Z</time>
      </trkpt>
      <trkpt lat="47.28503" lon="-2.36448">
        <ele>78.400001525879</ele>
        <time>2020-02-13T09:33:15.000Z</time>
      </trkpt>
      <trkpt lat="47.28515" lon="-2.36466">
        <ele>78.400001525879</ele>
        <time>2020-02-13T09:33:19.000Z</time>
      </trkpt>
      <trkpt lat="47.28518" lon="-2.36488">
        <ele>78.400001525879</ele>
        <time>2020-02-13T09:33:23.000Z</time>
      </trkpt>
      <trkpt lat="47.28517" lon="-2.36503">
        <ele>78.400001525879</ele>
        <time>2020-02-13T09:33:26.000Z</time>
      </trkpt>
      <trkpt lat="47.28505" lon="-2.36518">
        <ele>78.400001525879</ele>
        <time>2020-02-13T09:33:29.000Z</time>
      </trkpt>
      <trkpt lat="47.285" lon="-2.36521">
        <ele>78.400001525879</ele>
        <time>2020-02-13T09:33:30.000Z</time>
      </trkpt>
      <trkpt lat="47.28482" lon="-2.36548">
        <ele>78.400001525879</ele>
        <time>2020-02-13T09:33:35.000Z</time>
      </trkpt>
      <trkpt lat="47.28472" lon="-2.36564">
        <ele>77.800003051758</ele>
        <time>2020-02-13T09:33:38.000Z</time>
      </trkpt>
      <trkpt lat="47.2847" lon="-2.36569">
        <ele>77.400001525879</ele>
        <time>2020-02-13T09:33:39.000Z</time>
      </trkpt>
      <trkpt lat="47.28471" lon="-2.36577">
        <ele>77</ele>
        <time>2020-02-13T09:33:40.000Z</time>
      </trkpt>
      <trkpt lat="47.28473" lon="-2.36584">
        <ele>76.400001525879</ele>
        <time>2020-02-13T09:33:41.000Z</time>
      </trkpt>
      <trkpt lat="47.28475" lon="-2.36591">
        <ele>76</ele>
        <time>2020-02-13T09:33:42.000Z</time>
      </trkpt>
      <trkpt lat="47.28479" lon="-2.36605">
        <ele>76</ele>
        <time>2020-02-13T09:33:44.000Z</time>
      </trkpt>
      <trkpt lat="47.28489" lon="-2.36632">
        <ele>76</ele>
        <time>2020-02-13T09:33:50.000Z</time>
      </trkpt>
      <trkpt lat="47.28492" lon="-2.36645">
        <ele>75.599998474121</ele>
        <time>2020-02-13T09:33:53.000Z</time>
      </trkpt>
      <trkpt lat="47.28493" lon="-2.36649">
        <ele>75.199996948242</ele>
        <time>2020-02-13T09:33:54.000Z</time>
      </trkpt>
      <trkpt lat="47.28494" lon="-2.36653">
        <ele>74.800003051758</ele>
        <time>2020-02-13T09:33:55.000Z</time>
      </trkpt>
      <trkpt lat="47.28495" lon="-2.36656">
        <ele>74.199996948242</ele>
        <time>2020-02-13T09:33:56.000Z</time>
      </trkpt>
      <trkpt lat="47.28497" lon="-2.3666">
        <ele>73.800003051758</ele>
        <time>2020-02-13T09:33:57.000Z</time>
      </trkpt>
      <trkpt lat="47.28499" lon="-2.36662">
        <ele>73.800003051758</ele>
        <time>2020-02-13T09:33:58.000Z</time>
      </trkpt>
      <trkpt lat="47.28501" lon="-2.36668">
        <ele>73.800003051758</ele>
        <time>2020-02-13T09:34:02.000Z</time>
      </trkpt>
      <trkpt lat="47.28503" lon="-2.3667">
        <ele>73.800003051758</ele>
        <time>2020-02-13T09:34:25.000Z</time>
      </trkpt>
      <trkpt lat="47.28507" lon="-2.36673">
        <ele>73.800003051758</ele>
        <time>2020-02-13T09:34:27.000Z</time>
      </trkpt>
      <trkpt lat="47.28518" lon="-2.3669">
        <ele>73.800003051758</ele>
        <time>2020-02-13T09:34:32.000Z</time>
      </trkpt>
      <trkpt lat="47.2853" lon="-2.36709">
        <ele>73.800003051758</ele>
        <time>2020-02-13T09:34:36.000Z</time>
      </trkpt>
      <trkpt lat="47.28532" lon="-2.36715">
        <ele>73.400001525879</ele>
        <time>2020-02-13T09:34:37.000Z</time>
      </trkpt>
      <trkpt lat="47.28535" lon="-2.36721">
        <ele>73</ele>
        <time>2020-02-13T09:34:38.000Z</time>
      </trkpt>
      <trkpt lat="47.28539" lon="-2.36727">
        <ele>72.599998474121</ele>
        <time>2020-02-13T09:34:39.000Z</time>
      </trkpt>
      <trkpt lat="47.28542" lon="-2.36734">
        <ele>72.199996948242</ele>
        <time>2020-02-13T09:34:40.000Z</time>
      </trkpt>
      <trkpt lat="47.28545" lon="-2.3674">
        <ele>71.599998474121</ele>
        <time>2020-02-13T09:34:41.000Z</time>
      </trkpt>
      <trkpt lat="47.28553" lon="-2.36754">
        <ele>71.599998474121</ele>
        <time>2020-02-13T09:34:43.000Z</time>
      </trkpt>
      <trkpt lat="47.28564" lon="-2.36776">
        <ele>71.199996948242</ele>
        <time>2020-02-13T09:34:46.000Z</time>
      </trkpt>
      <trkpt lat="47.28568" lon="-2.36783">
        <ele>70.800003051758</ele>
        <time>2020-02-13T09:34:47.000Z</time>
      </trkpt>
      <trkpt lat="47.28572" lon="-2.3679">
        <ele>70.400001525879</ele>
        <time>2020-02-13T09:34:48.000Z</time>
      </trkpt>
      <trkpt lat="47.28575" lon="-2.36797">
        <ele>70</ele>
        <time>2020-02-13T09:34:49.000Z</time>
      </trkpt>
      <trkpt lat="47.28579" lon="-2.36804">
        <ele>69.599998474121</ele>
        <time>2020-02-13T09:34:50.000Z</time>
      </trkpt>
      <trkpt lat="47.28595" lon="-2.36835">
        <ele>69.599998474121</ele>
        <time>2020-02-13T09:34:55.000Z</time>
      </trkpt>
      <trkpt lat="47.28599" lon="-2.3684">
        <ele>69.199996948242</ele>
        <time>2020-02-13T09:34:56.000Z</time>
      </trkpt>
      <trkpt lat="47.28603" lon="-2.36844">
        <ele>68.599998474121</ele>
        <time>2020-02-13T09:34:57.000Z</time>
      </trkpt>
      <trkpt lat="47.28607" lon="-2.36845">
        <ele>67.800003051758</ele>
        <time>2020-02-13T09:34:58.000Z</time>
      </trkpt>
      <trkpt lat="47.28611" lon="-2.36844">
        <ele>67.400001525879</ele>
        <time>2020-02-13T09:34:59.000Z</time>
      </trkpt>
      <trkpt lat="47.28625" lon="-2.3683">
        <ele>67.400001525879</ele>
        <time>2020-02-13T09:35:03.000Z</time>
      </trkpt>
      <trkpt lat="47.28628" lon="-2.36827">
        <ele>67.400001525879</ele>
        <time>2020-02-13T09:35:04.000Z</time>
      </trkpt>
      <trkpt lat="47.28644" lon="-2.36809">
        <ele>67.400001525879</ele>
        <time>2020-02-13T09:35:10.000Z</time>
      </trkpt>
      <trkpt lat="47.28658" lon="-2.36795">
        <ele>67.400001525879</ele>
        <time>2020-02-13T09:35:16.000Z</time>
      </trkpt>
      <trkpt lat="47.28661" lon="-2.36791">
        <ele>67.800003051758</ele>
        <time>2020-02-13T09:35:18.000Z</time>
      </trkpt>
      <trkpt lat="47.28663" lon="-2.36789">
        <ele>68.199996948242</ele>
        <time>2020-02-13T09:35:19.000Z</time>
      </trkpt>
      <trkpt lat="47.28665" lon="-2.36789">
        <ele>68.599998474121</ele>
        <time>2020-02-13T09:35:20.000Z</time>
      </trkpt>
      <trkpt lat="47.28666" lon="-2.36788">
        <ele>69</ele>
        <time>2020-02-13T09:35:21.000Z</time>
      </trkpt>
      <trkpt lat="47.28668" lon="-2.36786">
        <ele>69.400001525879</ele>
        <time>2020-02-13T09:35:22.000Z</time>
      </trkpt>
      <trkpt lat="47.28672" lon="-2.3678">
        <ele>69.400001525879</ele>
        <time>2020-02-13T09:35:26.000Z</time>
      </trkpt>
      <trkpt lat="47.28672" lon="-2.36779">
        <ele>69.800003051758</ele>
        <time>2020-02-13T09:35:27.000Z</time>
      </trkpt>
      <trkpt lat="47.28673" lon="-2.36777">
        <ele>70.199996948242</ele>
        <time>2020-02-13T09:35:28.000Z</time>
      </trkpt>
      <trkpt lat="47.28674" lon="-2.36775">
        <ele>70.599998474121</ele>
        <time>2020-02-13T09:35:29.000Z</time>
      </trkpt>
      <trkpt lat="47.28675" lon="-2.36773">
        <ele>71</ele>
        <time>2020-02-13T09:35:30.000Z</time>
      </trkpt>
      <trkpt lat="47.28676" lon="-2.36772">
        <ele>71.400001525879</ele>
        <time>2020-02-13T09:35:31.000Z</time>
      </trkpt>
      <trkpt lat="47.28681" lon="-2.36767">
        <ele>71.400001525879</ele>
        <time>2020-02-13T09:35:35.000Z</time>
      </trkpt>
      <trkpt lat="47.28683" lon="-2.36765">
        <ele>71.400001525879</ele>
        <time>2020-02-13T09:35:37.000Z</time>
      </trkpt>
      <trkpt lat="47.28686" lon="-2.36763">
        <ele>71.800003051758</ele>
        <time>2020-02-13T09:35:39.000Z</time>
      </trkpt>
      <trkpt lat="47.28687" lon="-2.36761">
        <ele>72.199996948242</ele>
        <time>2020-02-13T09:35:40.000Z</time>
      </trkpt>
      <trkpt lat="47.28688" lon="-2.36759">
        <ele>72.599998474121</ele>
        <time>2020-02-13T09:35:41.000Z</time>
      </trkpt>
      <trkpt lat="47.28689" lon="-2.36758">
        <ele>73</ele>
        <time>2020-02-13T09:35:42.000Z</time>
      </trkpt>
      <trkpt lat="47.2869" lon="-2.36757">
        <ele>73.400001525879</ele>
        <time>2020-02-13T09:35:43.000Z</time>
      </trkpt>
      <trkpt lat="47.28697" lon="-2.3675">
        <ele>73.400001525879</ele>
        <time>2020-02-13T09:35:48.000Z</time>
      </trkpt>
      <trkpt lat="47.28702" lon="-2.36745">
        <ele>73.400001525879</ele>
        <time>2020-02-13T09:35:53.000Z</time>
      </trkpt>
      <trkpt lat="47.28704" lon="-2.36742">
        <ele>73.400001525879</ele>
        <time>2020-02-13T09:35:56.000Z</time>
      </trkpt>
      <trkpt lat="47.2872" lon="-2.36709">
        <ele>75.400001525879</ele>
        <time>2020-02-13T09:37:04.000Z</time>
      </trkpt>
      <trkpt lat="47.28722" lon="-2.36704">
        <ele>75.400001525879</ele>
        <time>2020-02-13T09:37:06.000Z</time>
      </trkpt>
      <trkpt lat="47.28728" lon="-2.36694">
        <ele>75.800003051758</ele>
        <time>2020-02-13T09:37:11.000Z</time>
      </trkpt>
      <trkpt lat="47.2873" lon="-2.36691">
        <ele>76.199996948242</ele>
        <time>2020-02-13T09:37:12.000Z</time>
      </trkpt>
      <trkpt lat="47.28731" lon="-2.36689">
        <ele>76.599998474121</ele>
        <time>2020-02-13T09:37:13.000Z</time>
      </trkpt>
      <trkpt lat="47.28732" lon="-2.36687">
        <ele>77.199996948242</ele>
        <time>2020-02-13T09:37:14.000Z</time>
      </trkpt>
      <trkpt lat="47.28733" lon="-2.36684">
        <ele>77.599998474121</ele>
        <time>2020-02-13T09:37:15.000Z</time>
      </trkpt>
      <trkpt lat="47.28733" lon="-2.36681">
        <ele>77.599998474121</ele>
        <time>2020-02-13T09:37:16.000Z</time>
      </trkpt>
      <trkpt lat="47.2874" lon="-2.36667">
        <ele>78</ele>
        <time>2020-02-13T09:37:20.000Z</time>
      </trkpt>
      <trkpt lat="47.28742" lon="-2.36664">
        <ele>78.400001525879</ele>
        <time>2020-02-13T09:37:21.000Z</time>
      </trkpt>
      <trkpt lat="47.28745" lon="-2.3666">
        <ele>78.800003051758</ele>
        <time>2020-02-13T09:37:22.000Z</time>
      </trkpt>
      <trkpt lat="47.28748" lon="-2.36655">
        <ele>79.199996948242</ele>
        <time>2020-02-13T09:37:23.000Z</time>
      </trkpt>
      <trkpt lat="47.28751" lon="-2.36651">
        <ele>79.599998474121</ele>
        <time>2020-02-13T09:37:24.000Z</time>
      </trkpt>
      <trkpt lat="47.28755" lon="-2.36643">
        <ele>79.599998474121</ele>
        <time>2020-02-13T09:37:26.000Z</time>
      </trkpt>
      <trkpt lat="47.28772" lon="-2.36612">
        <ele>79.599998474121</ele>
        <time>2020-02-13T09:37:34.000Z</time>
      </trkpt>
      <trkpt lat="47.28775" lon="-2.36606">
        <ele>80</ele>
        <time>2020-02-13T09:37:36.000Z</time>
      </trkpt>
      <trkpt lat="47.28777" lon="-2.36602">
        <ele>80.400001525879</ele>
        <time>2020-02-13T09:37:37.000Z</time>
      </trkpt>
      <trkpt lat="47.2878" lon="-2.36597">
        <ele>80.800003051758</ele>
        <time>2020-02-13T09:37:38.000Z</time>
      </trkpt>
      <trkpt lat="47.28781" lon="-2.36594">
        <ele>81.199996948242</ele>
        <time>2020-02-13T09:37:39.000Z</time>
      </trkpt>
      <trkpt lat="47.28783" lon="-2.36591">
        <ele>81.599998474121</ele>
        <time>2020-02-13T09:37:40.000Z</time>
      </trkpt>
      <trkpt lat="47.28791" lon="-2.3657">
        <ele>81.599998474121</ele>
        <time>2020-02-13T09:37:44.000Z</time>
      </trkpt>
      <trkpt lat="47.2879" lon="-2.36559">
        <ele>81.599998474121</ele>
        <time>2020-02-13T09:37:47.000Z</time>
      </trkpt>
      <trkpt lat="47.28788" lon="-2.36539">
        <ele>81.599998474121</ele>
        <time>2020-02-13T09:37:52.000Z</time>
      </trkpt>
      <trkpt lat="47.28792" lon="-2.36518">
        <ele>81.599998474121</ele>
        <time>2020-02-13T09:37:57.000Z</time>
      </trkpt>
      <trkpt lat="47.28793" lon="-2.36512">
        <ele>82.199996948242</ele>
        <time>2020-02-13T09:37:59.000Z</time>
      </trkpt>
      <trkpt lat="47.28794" lon="-2.36508">
        <ele>82.599998474121</ele>
        <time>2020-02-13T09:38:00.000Z</time>
      </trkpt>
      <trkpt lat="47.28795" lon="-2.36505">
        <ele>83</ele>
        <time>2020-02-13T09:38:01.000Z</time>
      </trkpt>
      <trkpt lat="47.28795" lon="-2.36503">
        <ele>83.400001525879</ele>
        <time>2020-02-13T09:38:02.000Z</time>
      </trkpt>
      <trkpt lat="47.28795" lon="-2.36501">
        <ele>84</ele>
        <time>2020-02-13T09:38:03.000Z</time>
      </trkpt>
      <trkpt lat="47.28795" lon="-2.36493">
        <ele>84</ele>
        <time>2020-02-13T09:38:07.000Z</time>
      </trkpt>
      <trkpt lat="47.28797" lon="-2.36482">
        <ele>84.400001525879</ele>
        <time>2020-02-13T09:38:11.000Z</time>
      </trkpt>
      <trkpt lat="47.28797" lon="-2.36478">
        <ele>84.800003051758</ele>
        <time>2020-02-13T09:38:12.000Z</time>
      </trkpt>
      <trkpt lat="47.28798" lon="-2.36473">
        <ele>85.199996948242</ele>
        <time>2020-02-13T09:38:13.000Z</time>
      </trkpt>
      <trkpt lat="47.28799" lon="-2.36468">
        <ele>85.599998474121</ele>
        <time>2020-02-13T09:38:14.000Z</time>
      </trkpt>
      <trkpt lat="47.288" lon="-2.36464">
        <ele>86</ele>
        <time>2020-02-13T09:38:15.000Z</time>
      </trkpt>
      <trkpt lat="47.28801" lon="-2.36453">
        <ele>86</ele>
        <time>2020-02-13T09:38:18.000Z</time>
      </trkpt>
      <trkpt lat="47.288" lon="-2.3643">
        <ele>86</ele>
        <time>2020-02-13T09:38:24.000Z</time>
      </trkpt>
      <trkpt lat="47.28802" lon="-2.36426">
        <ele>86</ele>
        <time>2020-02-13T09:38:27.000Z</time>
      </trkpt>
      <trkpt lat="47.28804" lon="-2.36425">
        <ele>86</ele>
        <time>2020-02-13T09:38:28.000Z</time>
      </trkpt>
      <trkpt lat="47.28811" lon="-2.36421">
        <ele>86.400001525879</ele>
        <time>2020-02-13T09:38:32.000Z</time>
      </trkpt>
      <trkpt lat="47.28812" lon="-2.3642">
        <ele>86.800003051758</ele>
        <time>2020-02-13T09:38:33.000Z</time>
      </trkpt>
      <trkpt lat="47.28814" lon="-2.36419">
        <ele>87.199996948242</ele>
        <time>2020-02-13T09:38:34.000Z</time>
      </trkpt>
      <trkpt lat="47.28815" lon="-2.36418">
        <ele>87.599998474121</ele>
        <time>2020-02-13T09:38:35.000Z</time>
      </trkpt>
      <trkpt lat="47.28817" lon="-2.36417">
        <ele>88</ele>
        <time>2020-02-13T09:38:36.000Z</time>
      </trkpt>
      <trkpt lat="47.28824" lon="-2.3641">
        <ele>88</ele>
        <time>2020-02-13T09:38:40.000Z</time>
      </trkpt>
      <trkpt lat="47.28825" lon="-2.3641">
        <ele>88</ele>
        <time>2020-02-13T09:38:41.000Z</time>
      </trkpt>
      <trkpt lat="47.2883" lon="-2.36403">
        <ele>88</ele>
        <time>2020-02-13T09:38:46.000Z</time>
      </trkpt>
      <trkpt lat="47.2883" lon="-2.36397">
        <ele>88</ele>
        <time>2020-02-13T09:38:49.000Z</time>
      </trkpt>
      <trkpt lat="47.28831" lon="-2.3639">
        <ele>88</ele>
        <time>2020-02-13T09:38:51.000Z</time>
      </trkpt>
      <trkpt lat="47.28836" lon="-2.36381">
        <ele>88</ele>
        <time>2020-02-13T09:38:55.000Z</time>
      </trkpt>
      <trkpt lat="47.28841" lon="-2.36367">
        <ele>88</ele>
        <time>2020-02-13T09:38:59.000Z</time>
      </trkpt>
      <trkpt lat="47.28842" lon="-2.3636">
        <ele>88</ele>
        <time>2020-02-13T09:39:01.000Z</time>
      </trkpt>
      <trkpt lat="47.28845" lon="-2.36349">
        <ele>88</ele>
        <time>2020-02-13T09:39:05.000Z</time>
      </trkpt>
      <trkpt lat="47.28847" lon="-2.36345">
        <ele>88</ele>
        <time>2020-02-13T09:39:07.000Z</time>
      </trkpt>
      <trkpt lat="47.28851" lon="-2.36338">
        <ele>87.400001525879</ele>
        <time>2020-02-13T09:39:11.000Z</time>
      </trkpt>
      <trkpt lat="47.28852" lon="-2.36336">
        <ele>87</ele>
        <time>2020-02-13T09:39:12.000Z</time>
      </trkpt>
      <trkpt lat="47.28854" lon="-2.36334">
        <ele>86.400001525879</ele>
        <time>2020-02-13T09:39:13.000Z</time>
      </trkpt>
      <trkpt lat="47.28855" lon="-2.36332">
        <ele>86</ele>
        <time>2020-02-13T09:39:14.000Z</time>
      </trkpt>
      <trkpt lat="47.28856" lon="-2.36333">
        <ele>85.400001525879</ele>
        <time>2020-02-13T09:39:15.000Z</time>
      </trkpt>
      <trkpt lat="47.28859" lon="-2.36334">
        <ele>84.800003051758</ele>
        <time>2020-02-13T09:39:16.000Z</time>
      </trkpt>
      <trkpt lat="47.28861" lon="-2.36334">
        <ele>84.400001525879</ele>
        <time>2020-02-13T09:39:17.000Z</time>
      </trkpt>
      <trkpt lat="47.28862" lon="-2.36334">
        <ele>83.800003051758</ele>
        <time>2020-02-13T09:39:18.000Z</time>
      </trkpt>
      <trkpt lat="47.28862" lon="-2.36334">
        <ele>83.199996948242</ele>
        <time>2020-02-13T09:39:19.000Z</time>
      </trkpt>
      <trkpt lat="47.28868" lon="-2.3634">
        <ele>80.199996948242</ele>
        <time>2020-02-13T09:39:46.000Z</time>
      </trkpt>
      <trkpt lat="47.28867" lon="-2.36341">
        <ele>79.800003051758</ele>
        <time>2020-02-13T09:39:47.000Z</time>
      </trkpt>
      <trkpt lat="47.28865" lon="-2.36343">
        <ele>79.400001525879</ele>
        <time>2020-02-13T09:39:48.000Z</time>
      </trkpt>
      <trkpt lat="47.28863" lon="-2.36347">
        <ele>79</ele>
        <time>2020-02-13T09:39:49.000Z</time>
      </trkpt>
      <trkpt lat="47.28862" lon="-2.36351">
        <ele>79</ele>
        <time>2020-02-13T09:39:50.000Z</time>
      </trkpt>
      <trkpt lat="47.28861" lon="-2.36354">
        <ele>79</ele>
        <time>2020-02-13T09:39:51.000Z</time>
      </trkpt>
      <trkpt lat="47.28861" lon="-2.36361">
        <ele>79</ele>
        <time>2020-02-13T09:39:53.000Z</time>
      </trkpt>
      <trkpt lat="47.28862" lon="-2.36367">
        <ele>79</ele>
        <time>2020-02-13T09:39:55.000Z</time>
      </trkpt>
      <trkpt lat="47.28862" lon="-2.3637">
        <ele>79.800003051758</ele>
        <time>2020-02-13T09:39:56.000Z</time>
      </trkpt>
      <trkpt lat="47.28862" lon="-2.36373">
        <ele>80.199996948242</ele>
        <time>2020-02-13T09:39:57.000Z</time>
      </trkpt>
      <trkpt lat="47.28863" lon="-2.36376">
        <ele>80.599998474121</ele>
        <time>2020-02-13T09:39:58.000Z</time>
      </trkpt>
      <trkpt lat="47.28863" lon="-2.36379">
        <ele>81</ele>
        <time>2020-02-13T09:39:59.000Z</time>
      </trkpt>
      <trkpt lat="47.28863" lon="-2.36385">
        <ele>81</ele>
        <time>2020-02-13T09:40:01.000Z</time>
      </trkpt>
      <trkpt lat="47.28862" lon="-2.36387">
        <ele>81</ele>
        <time>2020-02-13T09:40:02.000Z</time>
      </trkpt>
      <trkpt lat="47.28859" lon="-2.36395">
        <ele>81.599998474121</ele>
        <time>2020-02-13T09:40:05.000Z</time>
      </trkpt>
      <trkpt lat="47.28857" lon="-2.36398">
        <ele>82</ele>
        <time>2020-02-13T09:40:06.000Z</time>
      </trkpt>
      <trkpt lat="47.28856" lon="-2.364">
        <ele>82.400001525879</ele>
        <time>2020-02-13T09:40:07.000Z</time>
      </trkpt>
      <trkpt lat="47.28853" lon="-2.36403">
        <ele>82.800003051758</ele>
        <time>2020-02-13T09:40:08.000Z</time>
      </trkpt>
      <trkpt lat="47.28852" lon="-2.36404">
        <ele>83.400001525879</ele>
        <time>2020-02-13T09:40:09.000Z</time>
      </trkpt>
      <trkpt lat="47.28852" lon="-2.36404">
        <ele>83.800003051758</ele>
        <time>2020-02-13T09:40:10.000Z</time>
      </trkpt>
      <trkpt lat="47.28852" lon="-2.36405">
        <ele>84.400001525879</ele>
        <time>2020-02-13T09:40:11.000Z</time>
      </trkpt>
      <trkpt lat="47.28851" lon="-2.36411">
        <ele>87.400001525879</ele>
        <time>2020-02-13T09:41:40.000Z</time>
      </trkpt>
      <trkpt lat="47.28851" lon="-2.36421">
        <ele>87.400001525879</ele>
        <time>2020-02-13T09:41:42.000Z</time>
      </trkpt>
      <trkpt lat="47.28853" lon="-2.36427">
        <ele>87</ele>
        <time>2020-02-13T09:41:43.000Z</time>
      </trkpt>
      <trkpt lat="47.28854" lon="-2.36434">
        <ele>86.599998474121</ele>
        <time>2020-02-13T09:41:44.000Z</time>
      </trkpt>
      <trkpt lat="47.28854" lon="-2.36441">
        <ele>86.199996948242</ele>
        <time>2020-02-13T09:41:45.000Z</time>
      </trkpt>
      <trkpt lat="47.28854" lon="-2.36448">
        <ele>85.800003051758</ele>
        <time>2020-02-13T09:41:46.000Z</time>
      </trkpt>
      <trkpt lat="47.28853" lon="-2.36455">
        <ele>85.400001525879</ele>
        <time>2020-02-13T09:41:47.000Z</time>
      </trkpt>
      <trkpt lat="47.28853" lon="-2.36464">
        <ele>85</ele>
        <time>2020-02-13T09:41:49.000Z</time>
      </trkpt>
      <trkpt lat="47.28853" lon="-2.36469">
        <ele>84.599998474121</ele>
        <time>2020-02-13T09:41:50.000Z</time>
      </trkpt>
      <trkpt lat="47.28854" lon="-2.36474">
        <ele>84.199996948242</ele>
        <time>2020-02-13T09:41:51.000Z</time>
      </trkpt>
      <trkpt lat="47.28855" lon="-2.36478">
        <ele>83.800003051758</ele>
        <time>2020-02-13T09:41:52.000Z</time>
      </trkpt>
      <trkpt lat="47.28857" lon="-2.36481">
        <ele>83.400001525879</ele>
        <time>2020-02-13T09:41:53.000Z</time>
      </trkpt>
      <trkpt lat="47.28859" lon="-2.36491">
        <ele>83.400001525879</ele>
        <time>2020-02-13T09:41:55.000Z</time>
      </trkpt>
      <trkpt lat="47.28859" lon="-2.36514">
        <ele>82.800003051758</ele>
        <time>2020-02-13T09:41:59.000Z</time>
      </trkpt>
      <trkpt lat="47.2886" lon="-2.36526">
        <ele>82.400001525879</ele>
        <time>2020-02-13T09:42:00.000Z</time>
      </trkpt>
      <trkpt lat="47.28863" lon="-2.36535">
        <ele>82</ele>
        <time>2020-02-13T09:42:01.000Z</time>
      </trkpt>
      <trkpt lat="47.28864" lon="-2.36543">
        <ele>81.400001525879</ele>
        <time>2020-02-13T09:42:02.000Z</time>
      </trkpt>
      <trkpt lat="47.28864" lon="-2.36551">
        <ele>80.800003051758</ele>
        <time>2020-02-13T09:42:03.000Z</time>
      </trkpt>
      <trkpt lat="47.28862" lon="-2.36557">
        <ele>80.400001525879</ele>
        <time>2020-02-13T09:42:04.000Z</time>
      </trkpt>
      <trkpt lat="47.2886" lon="-2.36563">
        <ele>79.800003051758</ele>
        <time>2020-02-13T09:42:05.000Z</time>
      </trkpt>
      <trkpt lat="47.28858" lon="-2.36568">
        <ele>79.199996948242</ele>
        <time>2020-02-13T09:42:06.000Z</time>
      </trkpt>
      <trkpt lat="47.28856" lon="-2.36574">
        <ele>78.800003051758</ele>
        <time>2020-02-13T09:42:07.000Z</time>
      </trkpt>
      <trkpt lat="47.28851" lon="-2.3659">
        <ele>78.800003051758</ele>
        <time>2020-02-13T09:42:11.000Z</time>
      </trkpt>
      <trkpt lat="47.2884" lon="-2.36611">
        <ele>78.800003051758</ele>
        <time>2020-02-13T09:42:15.000Z</time>
      </trkpt>
      <trkpt lat="47.28836" lon="-2.36616">
        <ele>78.800003051758</ele>
        <time>2020-02-13T09:42:16.000Z</time>
      </trkpt>
      <trkpt lat="47.28827" lon="-2.36632">
        <ele>78.800003051758</ele>
        <time>2020-02-13T09:42:19.000Z</time>
      </trkpt>
      <trkpt lat="47.28819" lon="-2.36643">
        <ele>78.800003051758</ele>
        <time>2020-02-13T09:42:21.000Z</time>
      </trkpt>
      <trkpt lat="47.28817" lon="-2.36648">
        <ele>78.800003051758</ele>
        <time>2020-02-13T09:42:22.000Z</time>
      </trkpt>
      <trkpt lat="47.28811" lon="-2.36662">
        <ele>78.800003051758</ele>
        <time>2020-02-13T09:42:24.000Z</time>
      </trkpt>
      <trkpt lat="47.28809" lon="-2.36671">
        <ele>78.400001525879</ele>
        <time>2020-02-13T09:42:25.000Z</time>
      </trkpt>
      <trkpt lat="47.28808" lon="-2.36679">
        <ele>78</ele>
        <time>2020-02-13T09:42:26.000Z</time>
      </trkpt>
      <trkpt lat="47.28806" lon="-2.36687">
        <ele>77.599998474121</ele>
        <time>2020-02-13T09:42:27.000Z</time>
      </trkpt>
      <trkpt lat="47.28804" lon="-2.36696">
        <ele>77.199996948242</ele>
        <time>2020-02-13T09:42:28.000Z</time>
      </trkpt>
      <trkpt lat="47.28803" lon="-2.36708">
        <ele>76.599998474121</ele>
        <time>2020-02-13T09:42:29.000Z</time>
      </trkpt>
      <trkpt lat="47.28799" lon="-2.36724">
        <ele>76</ele>
        <time>2020-02-13T09:42:30.000Z</time>
      </trkpt>
      <trkpt lat="47.28796" lon="-2.36739">
        <ele>75.599998474121</ele>
        <time>2020-02-13T09:42:31.000Z</time>
      </trkpt>
      <trkpt lat="47.28793" lon="-2.36754">
        <ele>75</ele>
        <time>2020-02-13T09:42:32.000Z</time>
      </trkpt>
      <trkpt lat="47.28791" lon="-2.36768">
        <ele>74.400001525879</ele>
        <time>2020-02-13T09:42:33.000Z</time>
      </trkpt>
      <trkpt lat="47.28789" lon="-2.3678">
        <ele>74</ele>
        <time>2020-02-13T09:42:34.000Z</time>
      </trkpt>
      <trkpt lat="47.28787" lon="-2.36793">
        <ele>73.400001525879</ele>
        <time>2020-02-13T09:42:35.000Z</time>
      </trkpt>
      <trkpt lat="47.28785" lon="-2.36804">
        <ele>72.599998474121</ele>
        <time>2020-02-13T09:42:36.000Z</time>
      </trkpt>
      <trkpt lat="47.28783" lon="-2.36817">
        <ele>71.800003051758</ele>
        <time>2020-02-13T09:42:37.000Z</time>
      </trkpt>
      <trkpt lat="47.28781" lon="-2.36829">
        <ele>71.199996948242</ele>
        <time>2020-02-13T09:42:38.000Z</time>
      </trkpt>
      <trkpt lat="47.28779" lon="-2.36841">
        <ele>70.400001525879</ele>
        <time>2020-02-13T09:42:39.000Z</time>
      </trkpt>
      <trkpt lat="47.28778" lon="-2.36853">
        <ele>69.599998474121</ele>
        <time>2020-02-13T09:42:40.000Z</time>
      </trkpt>
      <trkpt lat="47.28775" lon="-2.36863">
        <ele>68.800003051758</ele>
        <time>2020-02-13T09:42:41.000Z</time>
      </trkpt>
      <trkpt lat="47.28772" lon="-2.36872">
        <ele>68</ele>
        <time>2020-02-13T09:42:42.000Z</time>
      </trkpt>
      <trkpt lat="47.28768" lon="-2.36879">
        <ele>67.199996948242</ele>
        <time>2020-02-13T09:42:43.000Z</time>
      </trkpt>
      <trkpt lat="47.28764" lon="-2.36885">
        <ele>66.400001525879</ele>
        <time>2020-02-13T09:42:44.000Z</time>
      </trkpt>
      <trkpt lat="47.2876" lon="-2.36887">
        <ele>65.599998474121</ele>
        <time>2020-02-13T09:42:45.000Z</time>
      </trkpt>
      <trkpt lat="47.28757" lon="-2.3689">
        <ele>64.800003051758</ele>
        <time>2020-02-13T09:42:46.000Z</time>
      </trkpt>
      <trkpt lat="47.28753" lon="-2.36892">
        <ele>64</ele>
        <time>2020-02-13T09:42:47.000Z</time>
      </trkpt>
      <trkpt lat="47.2875" lon="-2.36895">
        <ele>62.400001525879</ele>
        <time>2020-02-13T09:42:48.000Z</time>
      </trkpt>
      <trkpt lat="47.28746" lon="-2.36898">
        <ele>62.400001525879</ele>
        <time>2020-02-13T09:42:49.000Z</time>
      </trkpt>
      <trkpt lat="47.28735" lon="-2.36909">
        <ele>62.799999237061</ele>
        <time>2020-02-13T09:42:52.000Z</time>
      </trkpt>
      <trkpt lat="47.28732" lon="-2.36911">
        <ele>63.200000762939</ele>
        <time>2020-02-13T09:42:53.000Z</time>
      </trkpt>
      <trkpt lat="47.28729" lon="-2.3691">
        <ele>63.799999237061</ele>
        <time>2020-02-13T09:42:54.000Z</time>
      </trkpt>
      <trkpt lat="47.28726" lon="-2.36911">
        <ele>64.199996948242</ele>
        <time>2020-02-13T09:42:55.000Z</time>
      </trkpt>
      <trkpt lat="47.28724" lon="-2.3691">
        <ele>64.599998474121</ele>
        <time>2020-02-13T09:42:56.000Z</time>
      </trkpt>
      <trkpt lat="47.28721" lon="-2.36906">
        <ele>64.599998474121</ele>
        <time>2020-02-13T09:42:58.000Z</time>
      </trkpt>
      <trkpt lat="47.2872" lon="-2.36905">
        <ele>64.599998474121</ele>
        <time>2020-02-13T09:42:59.000Z</time>
      </trkpt>
      <trkpt lat="47.28718" lon="-2.36904">
        <ele>65</ele>
        <time>2020-02-13T09:43:01.000Z</time>
      </trkpt>
      <trkpt lat="47.28717" lon="-2.36904">
        <ele>65.400001525879</ele>
        <time>2020-02-13T09:43:02.000Z</time>
      </trkpt>
      <trkpt lat="47.28716" lon="-2.36902">
        <ele>66</ele>
        <time>2020-02-13T09:43:03.000Z</time>
      </trkpt>
      <trkpt lat="47.28715" lon="-2.369">
        <ele>66.400001525879</ele>
        <time>2020-02-13T09:43:04.000Z</time>
      </trkpt>
      <trkpt lat="47.28713" lon="-2.36898">
        <ele>66.800003051758</ele>
        <time>2020-02-13T09:43:05.000Z</time>
      </trkpt>
      <trkpt lat="47.28711" lon="-2.36889">
        <ele>66.800003051758</ele>
        <time>2020-02-13T09:43:10.000Z</time>
      </trkpt>
      <trkpt lat="47.28716" lon="-2.36886">
        <ele>66.800003051758</ele>
        <time>2020-02-13T09:43:18.000Z</time>
      </trkpt>
      <trkpt lat="47.28727" lon="-2.36901">
        <ele>66.800003051758</ele>
        <time>2020-02-13T09:43:22.000Z</time>
      </trkpt>
      <trkpt lat="47.2873" lon="-2.36909">
        <ele>66.800003051758</ele>
        <time>2020-02-13T09:43:23.000Z</time>
      </trkpt>
      <trkpt lat="47.28739" lon="-2.36927">
        <ele>66.800003051758</ele>
        <time>2020-02-13T09:43:26.000Z</time>
      </trkpt>
      <trkpt lat="47.28741" lon="-2.3693">
        <ele>66.800003051758</ele>
        <time>2020-02-13T09:43:28.000Z</time>
      </trkpt>
      <trkpt lat="47.28742" lon="-2.36931">
        <ele>66.800003051758</ele>
        <time>2020-02-13T09:43:29.000Z</time>
      </trkpt>
      <trkpt lat="47.28746" lon="-2.36938">
        <ele>66.800003051758</ele>
        <time>2020-02-13T09:43:36.000Z</time>
      </trkpt>
      <trkpt lat="47.28747" lon="-2.36941">
        <ele>66.800003051758</ele>
        <time>2020-02-13T09:43:38.000Z</time>
      </trkpt>
      <trkpt lat="47.28752" lon="-2.36947">
        <ele>66.800003051758</ele>
        <time>2020-02-13T09:43:41.000Z</time>
      </trkpt>
      <trkpt lat="47.28751" lon="-2.3695">
        <ele>66.800003051758</ele>
        <time>2020-02-13T09:43:42.000Z</time>
      </trkpt>
      <trkpt lat="47.28752" lon="-2.36951">
        <ele>67.199996948242</ele>
        <time>2020-02-13T09:43:43.000Z</time>
      </trkpt>
      <trkpt lat="47.28753" lon="-2.36954">
        <ele>67.800003051758</ele>
        <time>2020-02-13T09:43:44.000Z</time>
      </trkpt>
      <trkpt lat="47.28753" lon="-2.36956">
        <ele>68.199996948242</ele>
        <time>2020-02-13T09:43:45.000Z</time>
      </trkpt>
      <trkpt lat="47.28754" lon="-2.36959">
        <ele>68.599998474121</ele>
        <time>2020-02-13T09:43:46.000Z</time>
      </trkpt>
      <trkpt lat="47.28754" lon="-2.36962">
        <ele>69.199996948242</ele>
        <time>2020-02-13T09:43:47.000Z</time>
      </trkpt>
      <trkpt lat="47.28754" lon="-2.36965">
        <ele>69.800003051758</ele>
        <time>2020-02-13T09:43:48.000Z</time>
      </trkpt>
      <trkpt lat="47.28755" lon="-2.36968">
        <ele>70.400001525879</ele>
        <time>2020-02-13T09:43:49.000Z</time>
      </trkpt>
      <trkpt lat="47.28756" lon="-2.3697">
        <ele>70.800003051758</ele>
        <time>2020-02-13T09:43:50.000Z</time>
      </trkpt>
      <trkpt lat="47.28757" lon="-2.36973">
        <ele>71.400001525879</ele>
        <time>2020-02-13T09:43:51.000Z</time>
      </trkpt>
      <trkpt lat="47.28764" lon="-2.36987">
        <ele>71.400001525879</ele>
        <time>2020-02-13T09:43:56.000Z</time>
      </trkpt>
      <trkpt lat="47.28771" lon="-2.37001">
        <ele>71.400001525879</ele>
        <time>2020-02-13T09:44:01.000Z</time>
      </trkpt>
      <trkpt lat="47.28774" lon="-2.37016">
        <ele>71.400001525879</ele>
        <time>2020-02-13T09:44:04.000Z</time>
      </trkpt>
      <trkpt lat="47.2878" lon="-2.37037">
        <ele>71.400001525879</ele>
        <time>2020-02-13T09:44:08.000Z</time>
      </trkpt>
      <trkpt lat="47.28783" lon="-2.37049">
        <ele>71</ele>
        <time>2020-02-13T09:44:10.000Z</time>
      </trkpt>
      <trkpt lat="47.28784" lon="-2.37055">
        <ele>70.599998474121</ele>
        <time>2020-02-13T09:44:11.000Z</time>
      </trkpt>
      <trkpt lat="47.28785" lon="-2.37061">
        <ele>70</ele>
        <time>2020-02-13T09:44:12.000Z</time>
      </trkpt>
      <trkpt lat="47.28785" lon="-2.37069">
        <ele>69.599998474121</ele>
        <time>2020-02-13T09:44:13.000Z</time>
      </trkpt>
      <trkpt lat="47.28786" lon="-2.37076">
        <ele>69.199996948242</ele>
        <time>2020-02-13T09:44:14.000Z</time>
      </trkpt>
      <trkpt lat="47.28788" lon="-2.37082">
        <ele>68.599998474121</ele>
        <time>2020-02-13T09:44:15.000Z</time>
      </trkpt>
      <trkpt lat="47.28789" lon="-2.37089">
        <ele>68.199996948242</ele>
        <time>2020-02-13T09:44:16.000Z</time>
      </trkpt>
      <trkpt lat="47.28791" lon="-2.37094">
        <ele>67.599998474121</ele>
        <time>2020-02-13T09:44:17.000Z</time>
      </trkpt>
      <trkpt lat="47.28795" lon="-2.37098">
        <ele>67.199996948242</ele>
        <time>2020-02-13T09:44:18.000Z</time>
      </trkpt>
      <trkpt lat="47.28798" lon="-2.371">
        <ele>66.599998474121</ele>
        <time>2020-02-13T09:44:19.000Z</time>
      </trkpt>
      <trkpt lat="47.28801" lon="-2.37102">
        <ele>66</ele>
        <time>2020-02-13T09:44:20.000Z</time>
      </trkpt>
      <trkpt lat="47.28805" lon="-2.37102">
        <ele>65.400001525879</ele>
        <time>2020-02-13T09:44:21.000Z</time>
      </trkpt>
      <trkpt lat="47.28809" lon="-2.371">
        <ele>64.800003051758</ele>
        <time>2020-02-13T09:44:22.000Z</time>
      </trkpt>
      <trkpt lat="47.28812" lon="-2.37097">
        <ele>64.400001525879</ele>
        <time>2020-02-13T09:44:23.000Z</time>
      </trkpt>
      <trkpt lat="47.28816" lon="-2.37096">
        <ele>63.799999237061</ele>
        <time>2020-02-13T09:44:24.000Z</time>
      </trkpt>
      <trkpt lat="47.28819" lon="-2.37097">
        <ele>63</ele>
        <time>2020-02-13T09:44:25.000Z</time>
      </trkpt>
      <trkpt lat="47.28821" lon="-2.37101">
        <ele>62.200000762939</ele>
        <time>2020-02-13T09:44:26.000Z</time>
      </trkpt>
      <trkpt lat="47.28825" lon="-2.37106">
        <ele>61.400001525879</ele>
        <time>2020-02-13T09:44:27.000Z</time>
      </trkpt>
      <trkpt lat="47.28828" lon="-2.37108">
        <ele>59.799999237061</ele>
        <time>2020-02-13T09:44:28.000Z</time>
      </trkpt>
      <trkpt lat="47.2883" lon="-2.37113">
        <ele>59.799999237061</ele>
        <time>2020-02-13T09:44:29.000Z</time>
      </trkpt>
      <trkpt lat="47.2883" lon="-2.37118">
        <ele>59.799999237061</ele>
        <time>2020-02-13T09:44:30.000Z</time>
      </trkpt>
      <trkpt lat="47.28829" lon="-2.37143">
        <ele>59.799999237061</ele>
        <time>2020-02-13T09:44:34.000Z</time>
      </trkpt>
      <trkpt lat="47.2883" lon="-2.3715">
        <ele>59.799999237061</ele>
        <time>2020-02-13T09:44:35.000Z</time>
      </trkpt>
      <trkpt lat="47.28832" lon="-2.3717">
        <ele>59.799999237061</ele>
        <time>2020-02-13T09:44:38.000Z</time>
      </trkpt>
      <trkpt lat="47.28835" lon="-2.37208">
        <ele>59.799999237061</ele>
        <time>2020-02-13T09:44:44.000Z</time>
      </trkpt>
      <trkpt lat="47.28837" lon="-2.37223">
        <ele>59.799999237061</ele>
        <time>2020-02-13T09:44:46.000Z</time>
      </trkpt>
      <trkpt lat="47.28843" lon="-2.37243">
        <ele>59.799999237061</ele>
        <time>2020-02-13T09:44:49.000Z</time>
      </trkpt>
      <trkpt lat="47.28847" lon="-2.37268">
        <ele>59.799999237061</ele>
        <time>2020-02-13T09:44:53.000Z</time>
      </trkpt>
      <trkpt lat="47.28848" lon="-2.37274">
        <ele>59.799999237061</ele>
        <time>2020-02-13T09:44:54.000Z</time>
      </trkpt>
      <trkpt lat="47.28853" lon="-2.37312">
        <ele>59.799999237061</ele>
        <time>2020-02-13T09:44:59.000Z</time>
      </trkpt>
      <trkpt lat="47.28856" lon="-2.37334">
        <ele>59.799999237061</ele>
        <time>2020-02-13T09:45:02.000Z</time>
      </trkpt>
      <trkpt lat="47.28857" lon="-2.3735">
        <ele>59.799999237061</ele>
        <time>2020-02-13T09:45:04.000Z</time>
      </trkpt>
      <trkpt lat="47.28861" lon="-2.37383">
        <ele>59.400001525879</ele>
        <time>2020-02-13T09:45:08.000Z</time>
      </trkpt>
      <trkpt lat="47.28862" lon="-2.3739">
        <ele>59</ele>
        <time>2020-02-13T09:45:09.000Z</time>
      </trkpt>
      <trkpt lat="47.28863" lon="-2.37398">
        <ele>58.599998474121</ele>
        <time>2020-02-13T09:45:10.000Z</time>
      </trkpt>
      <trkpt lat="47.28864" lon="-2.37405">
        <ele>58.200000762939</ele>
        <time>2020-02-13T09:45:11.000Z</time>
      </trkpt>
      <trkpt lat="47.28866" lon="-2.37412">
        <ele>57.799999237061</ele>
        <time>2020-02-13T09:45:12.000Z</time>
      </trkpt>
      <trkpt lat="47.28866" lon="-2.3742">
        <ele>57.799999237061</ele>
        <time>2020-02-13T09:45:13.000Z</time>
      </trkpt>
      <trkpt lat="47.28871" lon="-2.37456">
        <ele>57.799999237061</ele>
        <time>2020-02-13T09:45:19.000Z</time>
      </trkpt>
      <trkpt lat="47.28875" lon="-2.37483">
        <ele>57.799999237061</ele>
        <time>2020-02-13T09:45:24.000Z</time>
      </trkpt>
      <trkpt lat="47.28877" lon="-2.37503">
        <ele>57.799999237061</ele>
        <time>2020-02-13T09:45:27.000Z</time>
      </trkpt>
      <trkpt lat="47.28879" lon="-2.37514">
        <ele>57.799999237061</ele>
        <time>2020-02-13T09:45:29.000Z</time>
      </trkpt>
      <trkpt lat="47.2888" lon="-2.37527">
        <ele>57.799999237061</ele>
        <time>2020-02-13T09:45:31.000Z</time>
      </trkpt>
      <trkpt lat="47.28881" lon="-2.37537">
        <ele>57.799999237061</ele>
        <time>2020-02-13T09:45:33.000Z</time>
      </trkpt>
      <trkpt lat="47.28879" lon="-2.37542">
        <ele>57.799999237061</ele>
        <time>2020-02-13T09:45:34.000Z</time>
      </trkpt>
      <trkpt lat="47.2887" lon="-2.37561">
        <ele>57.799999237061</ele>
        <time>2020-02-13T09:45:38.000Z</time>
      </trkpt>
      <trkpt lat="47.28864" lon="-2.37575">
        <ele>57.799999237061</ele>
        <time>2020-02-13T09:45:43.000Z</time>
      </trkpt>
      <trkpt lat="47.28863" lon="-2.37579">
        <ele>57.200000762939</ele>
        <time>2020-02-13T09:45:45.000Z</time>
      </trkpt>
      <trkpt lat="47.28862" lon="-2.37581">
        <ele>56.799999237061</ele>
        <time>2020-02-13T09:45:46.000Z</time>
      </trkpt>
      <trkpt lat="47.28862" lon="-2.37583">
        <ele>56.400001525879</ele>
        <time>2020-02-13T09:45:47.000Z</time>
      </trkpt>
      <trkpt lat="47.28861" lon="-2.37585">
        <ele>56</ele>
        <time>2020-02-13T09:45:48.000Z</time>
      </trkpt>
      <trkpt lat="47.2886" lon="-2.37587">
        <ele>55.599998474121</ele>
        <time>2020-02-13T09:45:49.000Z</time>
      </trkpt>
      <trkpt lat="47.28861" lon="-2.37589">
        <ele>55.599998474121</ele>
        <time>2020-02-13T09:45:50.000Z</time>
      </trkpt>
      <trkpt lat="47.2886" lon="-2.37598">
        <ele>55.599998474121</ele>
        <time>2020-02-13T09:45:52.000Z</time>
      </trkpt>
      <trkpt lat="47.28857" lon="-2.37615">
        <ele>55.599998474121</ele>
        <time>2020-02-13T09:45:55.000Z</time>
      </trkpt>
      <trkpt lat="47.28854" lon="-2.37622">
        <ele>55.599998474121</ele>
        <time>2020-02-13T09:45:56.000Z</time>
      </trkpt>
      <trkpt lat="47.28841" lon="-2.37645">
        <ele>55.599998474121</ele>
        <time>2020-02-13T09:46:00.000Z</time>
      </trkpt>
      <trkpt lat="47.28839" lon="-2.3765">
        <ele>55.599998474121</ele>
        <time>2020-02-13T09:46:01.000Z</time>
      </trkpt>
      <trkpt lat="47.28821" lon="-2.37688">
        <ele>55.599998474121</ele>
        <time>2020-02-13T09:46:07.000Z</time>
      </trkpt>
      <trkpt lat="47.28799" lon="-2.37743">
        <ele>55.599998474121</ele>
        <time>2020-02-13T09:46:15.000Z</time>
      </trkpt>
      <trkpt lat="47.28781" lon="-2.37796">
        <ele>55.599998474121</ele>
        <time>2020-02-13T09:46:22.000Z</time>
      </trkpt>
      <trkpt lat="47.28775" lon="-2.37818">
        <ele>55.599998474121</ele>
        <time>2020-02-13T09:46:25.000Z</time>
      </trkpt>
      <trkpt lat="47.28771" lon="-2.37833">
        <ele>55.599998474121</ele>
        <time>2020-02-13T09:46:27.000Z</time>
      </trkpt>
      <trkpt lat="47.28769" lon="-2.37842">
        <ele>55.599998474121</ele>
        <time>2020-02-13T09:46:28.000Z</time>
      </trkpt>
      <trkpt lat="47.28757" lon="-2.37901">
        <ele>55.599998474121</ele>
        <time>2020-02-13T09:46:35.000Z</time>
      </trkpt>
      <trkpt lat="47.28756" lon="-2.37909">
        <ele>55.200000762939</ele>
        <time>2020-02-13T09:46:36.000Z</time>
      </trkpt>
      <trkpt lat="47.28755" lon="-2.37918">
        <ele>54.799999237061</ele>
        <time>2020-02-13T09:46:37.000Z</time>
      </trkpt>
      <trkpt lat="47.28754" lon="-2.37926">
        <ele>54.400001525879</ele>
        <time>2020-02-13T09:46:38.000Z</time>
      </trkpt>
      <trkpt lat="47.28753" lon="-2.37934">
        <ele>54</ele>
        <time>2020-02-13T09:46:39.000Z</time>
      </trkpt>
      <trkpt lat="47.28752" lon="-2.37942">
        <ele>53.599998474121</ele>
        <time>2020-02-13T09:46:40.000Z</time>
      </trkpt>
      <trkpt lat="47.28752" lon="-2.3795">
        <ele>53.599998474121</ele>
        <time>2020-02-13T09:46:41.000Z</time>
      </trkpt>
      <trkpt lat="47.2875" lon="-2.37996">
        <ele>53.599998474121</ele>
        <time>2020-02-13T09:46:47.000Z</time>
      </trkpt>
      <trkpt lat="47.28749" lon="-2.38054">
        <ele>53.599998474121</ele>
        <time>2020-02-13T09:46:54.000Z</time>
      </trkpt>
      <trkpt lat="47.28754" lon="-2.38103">
        <ele>53.599998474121</ele>
        <time>2020-02-13T09:47:00.000Z</time>
      </trkpt>
      <trkpt lat="47.28755" lon="-2.38117">
        <ele>53.599998474121</ele>
        <time>2020-02-13T09:47:02.000Z</time>
      </trkpt>
      <trkpt lat="47.28756" lon="-2.38136">
        <ele>53.599998474121</ele>
        <time>2020-02-13T09:47:05.000Z</time>
      </trkpt>
      <trkpt lat="47.28755" lon="-2.38141">
        <ele>53.599998474121</ele>
        <time>2020-02-13T09:47:06.000Z</time>
      </trkpt>
      <trkpt lat="47.28747" lon="-2.3815">
        <ele>53.599998474121</ele>
        <time>2020-02-13T09:47:08.000Z</time>
      </trkpt>
      <trkpt lat="47.28739" lon="-2.38155">
        <ele>53.599998474121</ele>
        <time>2020-02-13T09:47:10.000Z</time>
      </trkpt>
      <trkpt lat="47.28721" lon="-2.38167">
        <ele>53.599998474121</ele>
        <time>2020-02-13T09:47:14.000Z</time>
      </trkpt>
      <trkpt lat="47.28696" lon="-2.38185">
        <ele>53.599998474121</ele>
        <time>2020-02-13T09:47:20.000Z</time>
      </trkpt>
      <trkpt lat="47.28691" lon="-2.38188">
        <ele>54</ele>
        <time>2020-02-13T09:47:21.000Z</time>
      </trkpt>
      <trkpt lat="47.28686" lon="-2.38191">
        <ele>54.599998474121</ele>
        <time>2020-02-13T09:47:22.000Z</time>
      </trkpt>
      <trkpt lat="47.28682" lon="-2.38193">
        <ele>55</ele>
        <time>2020-02-13T09:47:23.000Z</time>
      </trkpt>
      <trkpt lat="47.28677" lon="-2.38196">
        <ele>55.400001525879</ele>
        <time>2020-02-13T09:47:24.000Z</time>
      </trkpt>
      <trkpt lat="47.28672" lon="-2.382">
        <ele>55.799999237061</ele>
        <time>2020-02-13T09:47:25.000Z</time>
      </trkpt>
      <trkpt lat="47.28652" lon="-2.38213">
        <ele>55.799999237061</ele>
        <time>2020-02-13T09:47:30.000Z</time>
      </trkpt>
      <trkpt lat="47.28638" lon="-2.38221">
        <ele>55.799999237061</ele>
        <time>2020-02-13T09:47:34.000Z</time>
      </trkpt>
      <trkpt lat="47.28625" lon="-2.3823">
        <ele>55.799999237061</ele>
        <time>2020-02-13T09:47:37.000Z</time>
      </trkpt>
      <trkpt lat="47.2862" lon="-2.3824">
        <ele>55.799999237061</ele>
        <time>2020-02-13T09:47:39.000Z</time>
      </trkpt>
      <trkpt lat="47.28622" lon="-2.38263">
        <ele>55.799999237061</ele>
        <time>2020-02-13T09:47:43.000Z</time>
      </trkpt>
      <trkpt lat="47.28632" lon="-2.3831">
        <ele>55.799999237061</ele>
        <time>2020-02-13T09:47:50.000Z</time>
      </trkpt>
      <trkpt lat="47.28637" lon="-2.3833">
        <ele>55.799999237061</ele>
        <time>2020-02-13T09:47:53.000Z</time>
      </trkpt>
      <trkpt lat="47.28638" lon="-2.38343">
        <ele>55.799999237061</ele>
        <time>2020-02-13T09:47:55.000Z</time>
      </trkpt>
      <trkpt lat="47.28641" lon="-2.38382">
        <ele>55.799999237061</ele>
        <time>2020-02-13T09:48:01.000Z</time>
      </trkpt>
      <trkpt lat="47.28645" lon="-2.38432">
        <ele>55.799999237061</ele>
        <time>2020-02-13T09:48:08.000Z</time>
      </trkpt>
      <trkpt lat="47.28649" lon="-2.38489">
        <ele>55.799999237061</ele>
        <time>2020-02-13T09:48:15.000Z</time>
      </trkpt>
      <trkpt lat="47.28654" lon="-2.38533">
        <ele>55.799999237061</ele>
        <time>2020-02-13T09:48:21.000Z</time>
      </trkpt>
      <trkpt lat="47.28656" lon="-2.38568">
        <ele>55.200000762939</ele>
        <time>2020-02-13T09:48:26.000Z</time>
      </trkpt>
      <trkpt lat="47.28657" lon="-2.38576">
        <ele>54.799999237061</ele>
        <time>2020-02-13T09:48:27.000Z</time>
      </trkpt>
      <trkpt lat="47.28658" lon="-2.38582">
        <ele>54.400001525879</ele>
        <time>2020-02-13T09:48:28.000Z</time>
      </trkpt>
      <trkpt lat="47.28659" lon="-2.38589">
        <ele>54</ele>
        <time>2020-02-13T09:48:29.000Z</time>
      </trkpt>
      <trkpt lat="47.2866" lon="-2.38597">
        <ele>53.599998474121</ele>
        <time>2020-02-13T09:48:30.000Z</time>
      </trkpt>
      <trkpt lat="47.28661" lon="-2.38612">
        <ele>53.599998474121</ele>
        <time>2020-02-13T09:48:32.000Z</time>
      </trkpt>
      <trkpt lat="47.28663" lon="-2.38649">
        <ele>53.599998474121</ele>
        <time>2020-02-13T09:48:38.000Z</time>
      </trkpt>
      <trkpt lat="47.28668" lon="-2.38693">
        <ele>53.599998474121</ele>
        <time>2020-02-13T09:48:45.000Z</time>
      </trkpt>
      <trkpt lat="47.2867" lon="-2.38706">
        <ele>53.599998474121</ele>
        <time>2020-02-13T09:48:47.000Z</time>
      </trkpt>
      <trkpt lat="47.28674" lon="-2.3874">
        <ele>53.599998474121</ele>
        <time>2020-02-13T09:48:52.000Z</time>
      </trkpt>
      <trkpt lat="47.28674" lon="-2.3879">
        <ele>53.599998474121</ele>
        <time>2020-02-13T09:48:59.000Z</time>
      </trkpt>
      <trkpt lat="47.28673" lon="-2.38811">
        <ele>53.599998474121</ele>
        <time>2020-02-13T09:49:02.000Z</time>
      </trkpt>
      <trkpt lat="47.28672" lon="-2.38818">
        <ele>54</ele>
        <time>2020-02-13T09:49:03.000Z</time>
      </trkpt>
      <trkpt lat="47.28671" lon="-2.38825">
        <ele>54.400001525879</ele>
        <time>2020-02-13T09:49:04.000Z</time>
      </trkpt>
      <trkpt lat="47.2867" lon="-2.38832">
        <ele>54.799999237061</ele>
        <time>2020-02-13T09:49:05.000Z</time>
      </trkpt>
      <trkpt lat="47.28669" lon="-2.38838">
        <ele>55.200000762939</ele>
        <time>2020-02-13T09:49:06.000Z</time>
      </trkpt>
      <trkpt lat="47.28667" lon="-2.38845">
        <ele>55.599998474121</ele>
        <time>2020-02-13T09:49:07.000Z</time>
      </trkpt>
      <trkpt lat="47.28663" lon="-2.38864">
        <ele>55.599998474121</ele>
        <time>2020-02-13T09:49:10.000Z</time>
      </trkpt>
      <trkpt lat="47.28652" lon="-2.38911">
        <ele>55.599998474121</ele>
        <time>2020-02-13T09:49:18.000Z</time>
      </trkpt>
      <trkpt lat="47.28647" lon="-2.38939">
        <ele>55.599998474121</ele>
        <time>2020-02-13T09:49:24.000Z</time>
      </trkpt>
      <trkpt lat="47.28639" lon="-2.38953">
        <ele>55.599998474121</ele>
        <time>2020-02-13T09:49:29.000Z</time>
      </trkpt>
      <trkpt lat="47.28638" lon="-2.38956">
        <ele>55.599998474121</ele>
        <time>2020-02-13T09:49:30.000Z</time>
      </trkpt>
      <trkpt lat="47.28641" lon="-2.38969">
        <ele>55.599998474121</ele>
        <time>2020-02-13T09:49:33.000Z</time>
      </trkpt>
      <trkpt lat="47.28643" lon="-2.38977">
        <ele>55.599998474121</ele>
        <time>2020-02-13T09:49:35.000Z</time>
      </trkpt>
      <trkpt lat="47.28646" lon="-2.38988">
        <ele>55.599998474121</ele>
        <time>2020-02-13T09:49:38.000Z</time>
      </trkpt>
      <trkpt lat="47.28645" lon="-2.38991">
        <ele>55.599998474121</ele>
        <time>2020-02-13T09:49:39.000Z</time>
      </trkpt>
      <trkpt lat="47.28641" lon="-2.38996">
        <ele>55.599998474121</ele>
        <time>2020-02-13T09:49:42.000Z</time>
      </trkpt>
      <trkpt lat="47.28636" lon="-2.39001">
        <ele>55.599998474121</ele>
        <time>2020-02-13T09:49:45.000Z</time>
      </trkpt>
      <trkpt lat="47.28636" lon="-2.39003">
        <ele>55.200000762939</ele>
        <time>2020-02-13T09:49:46.000Z</time>
      </trkpt>
      <trkpt lat="47.28635" lon="-2.39005">
        <ele>54.799999237061</ele>
        <time>2020-02-13T09:49:47.000Z</time>
      </trkpt>
      <trkpt lat="47.28634" lon="-2.39007">
        <ele>54.400001525879</ele>
        <time>2020-02-13T09:49:48.000Z</time>
      </trkpt>
      <trkpt lat="47.28634" lon="-2.39008">
        <ele>53.599998474121</ele>
        <time>2020-02-13T09:49:49.000Z</time>
      </trkpt>
      <trkpt lat="47.28632" lon="-2.39011">
        <ele>53.599998474121</ele>
        <time>2020-02-13T09:49:51.000Z</time>
      </trkpt>
      <trkpt lat="47.28632" lon="-2.39012">
        <ele>53.599998474121</ele>
        <time>2020-02-13T09:49:52.000Z</time>
      </trkpt>
      <trkpt lat="47.28628" lon="-2.39017">
        <ele>53.599998474121</ele>
        <time>2020-02-13T09:49:56.000Z</time>
      </trkpt>
      <trkpt lat="47.28626" lon="-2.39024">
        <ele>53.599998474121</ele>
        <time>2020-02-13T09:49:59.000Z</time>
      </trkpt>
      <trkpt lat="47.28628" lon="-2.39028">
        <ele>53.599998474121</ele>
        <time>2020-02-13T09:50:01.000Z</time>
      </trkpt>
      <trkpt lat="47.2863" lon="-2.3904">
        <ele>54</ele>
        <time>2020-02-13T09:50:07.000Z</time>
      </trkpt>
      <trkpt lat="47.2863" lon="-2.39041">
        <ele>54.400001525879</ele>
        <time>2020-02-13T09:50:08.000Z</time>
      </trkpt>
      <trkpt lat="47.2863" lon="-2.39042">
        <ele>54.799999237061</ele>
        <time>2020-02-13T09:50:09.000Z</time>
      </trkpt>
      <trkpt lat="47.28638" lon="-2.3904">
        <ele>53.599998474121</ele>
        <time>2020-02-13T09:51:23.000Z</time>
      </trkpt>
      <trkpt lat="47.28637" lon="-2.3904">
        <ele>53.599998474121</ele>
        <time>2020-02-13T09:51:24.000Z</time>
      </trkpt>
      <trkpt lat="47.28632" lon="-2.39053">
        <ele>52.400001525879</ele>
        <time>2020-02-13T10:00:51.000Z</time>
      </trkpt>
      <trkpt lat="47.28633" lon="-2.39058">
        <ele>52.400001525879</ele>
        <time>2020-02-13T10:00:53.000Z</time>
      </trkpt>
      <trkpt lat="47.2864" lon="-2.3907">
        <ele>52.400001525879</ele>
        <time>2020-02-13T10:00:58.000Z</time>
      </trkpt>
      <trkpt lat="47.28645" lon="-2.39078">
        <ele>52.400001525879</ele>
        <time>2020-02-13T10:01:02.000Z</time>
      </trkpt>
      <trkpt lat="47.28653" lon="-2.39088">
        <ele>52.400001525879</ele>
        <time>2020-02-13T10:01:07.000Z</time>
      </trkpt>
      <trkpt lat="47.28655" lon="-2.3909">
        <ele>52.400001525879</ele>
        <time>2020-02-13T10:01:08.000Z</time>
      </trkpt>
      <trkpt lat="47.28664" lon="-2.39105">
        <ele>52.400001525879</ele>
        <time>2020-02-13T10:01:13.000Z</time>
      </trkpt>
      <trkpt lat="47.28666" lon="-2.39113">
        <ele>52.400001525879</ele>
        <time>2020-02-13T10:01:15.000Z</time>
      </trkpt>
      <trkpt lat="47.28668" lon="-2.39123">
        <ele>52.400001525879</ele>
        <time>2020-02-13T10:01:17.000Z</time>
      </trkpt>
      <trkpt lat="47.28669" lon="-2.39134">
        <ele>52.400001525879</ele>
        <time>2020-02-13T10:01:21.000Z</time>
      </trkpt>
      <trkpt lat="47.28669" lon="-2.39142">
        <ele>52.400001525879</ele>
        <time>2020-02-13T10:01:25.000Z</time>
      </trkpt>
      <trkpt lat="47.28667" lon="-2.39144">
        <ele>52.400001525879</ele>
        <time>2020-02-13T10:01:26.000Z</time>
      </trkpt>
      <trkpt lat="47.2866" lon="-2.39153">
        <ele>52.400001525879</ele>
        <time>2020-02-13T10:01:30.000Z</time>
      </trkpt>
      <trkpt lat="47.28648" lon="-2.39157">
        <ele>52.400001525879</ele>
        <time>2020-02-13T10:01:33.000Z</time>
      </trkpt>
      <trkpt lat="47.28637" lon="-2.39158">
        <ele>52.400001525879</ele>
        <time>2020-02-13T10:01:35.000Z</time>
      </trkpt>
      <trkpt lat="47.28627" lon="-2.39159">
        <ele>52.400001525879</ele>
        <time>2020-02-13T10:01:37.000Z</time>
      </trkpt>
      <trkpt lat="47.28606" lon="-2.39164">
        <ele>52.400001525879</ele>
        <time>2020-02-13T10:01:41.000Z</time>
      </trkpt>
      <trkpt lat="47.28597" lon="-2.39167">
        <ele>52.400001525879</ele>
        <time>2020-02-13T10:01:43.000Z</time>
      </trkpt>
      <trkpt lat="47.28588" lon="-2.39167">
        <ele>52.400001525879</ele>
        <time>2020-02-13T10:01:45.000Z</time>
      </trkpt>
      <trkpt lat="47.28582" lon="-2.39168">
        <ele>52.400001525879</ele>
        <time>2020-02-13T10:01:46.000Z</time>
      </trkpt>
      <trkpt lat="47.28563" lon="-2.39171">
        <ele>52.400001525879</ele>
        <time>2020-02-13T10:01:51.000Z</time>
      </trkpt>
      <trkpt lat="47.28558" lon="-2.39174">
        <ele>52.400001525879</ele>
        <time>2020-02-13T10:01:53.000Z</time>
      </trkpt>
      <trkpt lat="47.28557" lon="-2.39181">
        <ele>52.400001525879</ele>
        <time>2020-02-13T10:01:55.000Z</time>
      </trkpt>
      <trkpt lat="47.28555" lon="-2.39212">
        <ele>52.400001525879</ele>
        <time>2020-02-13T10:02:00.000Z</time>
      </trkpt>
      <trkpt lat="47.28553" lon="-2.3924">
        <ele>52.400001525879</ele>
        <time>2020-02-13T10:02:05.000Z</time>
      </trkpt>
      <trkpt lat="47.28559" lon="-2.39285">
        <ele>52.400001525879</ele>
        <time>2020-02-13T10:02:13.000Z</time>
      </trkpt>
      <trkpt lat="47.28559" lon="-2.39322">
        <ele>52.400001525879</ele>
        <time>2020-02-13T10:02:19.000Z</time>
      </trkpt>
      <trkpt lat="47.28559" lon="-2.39348">
        <ele>52.400001525879</ele>
        <time>2020-02-13T10:02:24.000Z</time>
      </trkpt>
      <trkpt lat="47.28561" lon="-2.39369">
        <ele>52.400001525879</ele>
        <time>2020-02-13T10:02:29.000Z</time>
      </trkpt>
      <trkpt lat="47.28561" lon="-2.39394">
        <ele>52.400001525879</ele>
        <time>2020-02-13T10:02:33.000Z</time>
      </trkpt>
      <trkpt lat="47.28559" lon="-2.39413">
        <ele>52.400001525879</ele>
        <time>2020-02-13T10:02:36.000Z</time>
      </trkpt>
      <trkpt lat="47.28554" lon="-2.39439">
        <ele>52.400001525879</ele>
        <time>2020-02-13T10:02:40.000Z</time>
      </trkpt>
      <trkpt lat="47.2855" lon="-2.39458">
        <ele>52.400001525879</ele>
        <time>2020-02-13T10:02:43.000Z</time>
      </trkpt>
      <trkpt lat="47.28543" lon="-2.39474">
        <ele>52.400001525879</ele>
        <time>2020-02-13T10:02:46.000Z</time>
      </trkpt>
      <trkpt lat="47.28537" lon="-2.39489">
        <ele>52.799999237061</ele>
        <time>2020-02-13T10:02:49.000Z</time>
      </trkpt>
      <trkpt lat="47.28535" lon="-2.39494">
        <ele>53.400001525879</ele>
        <time>2020-02-13T10:02:50.000Z</time>
      </trkpt>
      <trkpt lat="47.28533" lon="-2.39498">
        <ele>53.799999237061</ele>
        <time>2020-02-13T10:02:51.000Z</time>
      </trkpt>
      <trkpt lat="47.28531" lon="-2.39503">
        <ele>53.599998474121</ele>
        <time>2020-02-13T10:02:52.000Z</time>
      </trkpt>
      <trkpt lat="47.2853" lon="-2.39507">
        <ele>53.200000762939</ele>
        <time>2020-02-13T10:02:53.000Z</time>
      </trkpt>
      <trkpt lat="47.28528" lon="-2.39511">
        <ele>53</ele>
        <time>2020-02-13T10:02:54.000Z</time>
      </trkpt>
      <trkpt lat="47.28526" lon="-2.39515">
        <ele>52.599998474121</ele>
        <time>2020-02-13T10:02:55.000Z</time>
      </trkpt>
      <trkpt lat="47.28525" lon="-2.39519">
        <ele>52.400001525879</ele>
        <time>2020-02-13T10:02:56.000Z</time>
      </trkpt>
      <trkpt lat="47.28521" lon="-2.39534">
        <ele>52.400001525879</ele>
        <time>2020-02-13T10:02:59.000Z</time>
      </trkpt>
      <trkpt lat="47.28512" lon="-2.39558">
        <ele>52.400001525879</ele>
        <time>2020-02-13T10:03:04.000Z</time>
      </trkpt>
      <trkpt lat="47.2851" lon="-2.39562">
        <ele>52.400001525879</ele>
        <time>2020-02-13T10:03:07.000Z</time>
      </trkpt>
      <trkpt lat="47.28507" lon="-2.3957">
        <ele>52.400001525879</ele>
        <time>2020-02-13T10:03:10.000Z</time>
      </trkpt>
      <trkpt lat="47.28506" lon="-2.39573">
        <ele>52.400001525879</ele>
        <time>2020-02-13T10:03:11.000Z</time>
      </trkpt>
      <trkpt lat="47.28502" lon="-2.39587">
        <ele>52.400001525879</ele>
        <time>2020-02-13T10:03:14.000Z</time>
      </trkpt>
      <trkpt lat="47.28499" lon="-2.39598">
        <ele>52.400001525879</ele>
        <time>2020-02-13T10:03:16.000Z</time>
      </trkpt>
      <trkpt lat="47.28497" lon="-2.39603">
        <ele>52.400001525879</ele>
        <time>2020-02-13T10:03:17.000Z</time>
      </trkpt>
      <trkpt lat="47.28487" lon="-2.39631">
        <ele>52.400001525879</ele>
        <time>2020-02-13T10:03:22.000Z</time>
      </trkpt>
      <trkpt lat="47.28469" lon="-2.3967">
        <ele>52.400001525879</ele>
        <time>2020-02-13T10:03:28.000Z</time>
      </trkpt>
      <trkpt lat="47.28451" lon="-2.39719">
        <ele>52.400001525879</ele>
        <time>2020-02-13T10:03:35.000Z</time>
      </trkpt>
      <trkpt lat="47.28442" lon="-2.39741">
        <ele>52.400001525879</ele>
        <time>2020-02-13T10:03:40.000Z</time>
      </trkpt>
      <trkpt lat="47.28428" lon="-2.39765">
        <ele>52.400001525879</ele>
        <time>2020-02-13T10:03:45.000Z</time>
      </trkpt>
      <trkpt lat="47.28414" lon="-2.39794">
        <ele>52.400001525879</ele>
        <time>2020-02-13T10:03:50.000Z</time>
      </trkpt>
      <trkpt lat="47.28413" lon="-2.39801">
        <ele>52.400001525879</ele>
        <time>2020-02-13T10:03:51.000Z</time>
      </trkpt>
      <trkpt lat="47.28412" lon="-2.39824">
        <ele>52.400001525879</ele>
        <time>2020-02-13T10:03:54.000Z</time>
      </trkpt>
      <trkpt lat="47.28413" lon="-2.39832">
        <ele>52.400001525879</ele>
        <time>2020-02-13T10:03:55.000Z</time>
      </trkpt>
      <trkpt lat="47.28413" lon="-2.39866">
        <ele>52.400001525879</ele>
        <time>2020-02-13T10:03:59.000Z</time>
      </trkpt>
      <trkpt lat="47.28412" lon="-2.39874">
        <ele>52</ele>
        <time>2020-02-13T10:04:00.000Z</time>
      </trkpt>
      <trkpt lat="47.2841" lon="-2.39881">
        <ele>51.599998474121</ele>
        <time>2020-02-13T10:04:01.000Z</time>
      </trkpt>
      <trkpt lat="47.28408" lon="-2.39888">
        <ele>51.200000762939</ele>
        <time>2020-02-13T10:04:02.000Z</time>
      </trkpt>
      <trkpt lat="47.28405" lon="-2.39894">
        <ele>50.799999237061</ele>
        <time>2020-02-13T10:04:03.000Z</time>
      </trkpt>
      <trkpt lat="47.28403" lon="-2.39899">
        <ele>50.400001525879</ele>
        <time>2020-02-13T10:04:04.000Z</time>
      </trkpt>
      <trkpt lat="47.284" lon="-2.39903">
        <ele>50.400001525879</ele>
        <time>2020-02-13T10:04:05.000Z</time>
      </trkpt>
      <trkpt lat="47.28395" lon="-2.3991">
        <ele>50.400001525879</ele>
        <time>2020-02-13T10:04:07.000Z</time>
      </trkpt>
      <trkpt lat="47.2838" lon="-2.39922">
        <ele>50.400001525879</ele>
        <time>2020-02-13T10:04:12.000Z</time>
      </trkpt>
      <trkpt lat="47.28357" lon="-2.39936">
        <ele>50.400001525879</ele>
        <time>2020-02-13T10:04:18.000Z</time>
      </trkpt>
      <trkpt lat="47.28333" lon="-2.39955">
        <ele>50.799999237061</ele>
        <time>2020-02-13T10:04:24.000Z</time>
      </trkpt>
      <trkpt lat="47.28328" lon="-2.39959">
        <ele>51.200000762939</ele>
        <time>2020-02-13T10:04:25.000Z</time>
      </trkpt>
      <trkpt lat="47.28323" lon="-2.39962">
        <ele>51.599998474121</ele>
        <time>2020-02-13T10:04:26.000Z</time>
      </trkpt>
      <trkpt lat="47.28319" lon="-2.39965">
        <ele>52</ele>
        <time>2020-02-13T10:04:27.000Z</time>
      </trkpt>
      <trkpt lat="47.28314" lon="-2.39966">
        <ele>52.400001525879</ele>
        <time>2020-02-13T10:04:28.000Z</time>
      </trkpt>
      <trkpt lat="47.28308" lon="-2.39966">
        <ele>52.400001525879</ele>
        <time>2020-02-13T10:04:29.000Z</time>
      </trkpt>
      <trkpt lat="47.28303" lon="-2.39964">
        <ele>52</ele>
        <time>2020-02-13T10:04:30.000Z</time>
      </trkpt>
      <trkpt lat="47.28298" lon="-2.39961">
        <ele>51.599998474121</ele>
        <time>2020-02-13T10:04:31.000Z</time>
      </trkpt>
      <trkpt lat="47.28294" lon="-2.39956">
        <ele>51.200000762939</ele>
        <time>2020-02-13T10:04:32.000Z</time>
      </trkpt>
      <trkpt lat="47.2829" lon="-2.39951">
        <ele>50.799999237061</ele>
        <time>2020-02-13T10:04:33.000Z</time>
      </trkpt>
      <trkpt lat="47.28286" lon="-2.39945">
        <ele>50.400001525879</ele>
        <time>2020-02-13T10:04:34.000Z</time>
      </trkpt>
      <trkpt lat="47.28282" lon="-2.3994">
        <ele>50.400001525879</ele>
        <time>2020-02-13T10:04:35.000Z</time>
      </trkpt>
      <trkpt lat="47.28278" lon="-2.39935">
        <ele>50.400001525879</ele>
        <time>2020-02-13T10:04:36.000Z</time>
      </trkpt>
      <trkpt lat="47.28273" lon="-2.3993">
        <ele>50.400001525879</ele>
        <time>2020-02-13T10:04:37.000Z</time>
      </trkpt>
      <trkpt lat="47.2826" lon="-2.39915">
        <ele>50.400001525879</ele>
        <time>2020-02-13T10:04:40.000Z</time>
      </trkpt>
      <trkpt lat="47.2825" lon="-2.39907">
        <ele>50.400001525879</ele>
        <time>2020-02-13T10:04:42.000Z</time>
      </trkpt>
      <trkpt lat="47.28232" lon="-2.39896">
        <ele>50.400001525879</ele>
        <time>2020-02-13T10:04:47.000Z</time>
      </trkpt>
      <trkpt lat="47.2823" lon="-2.39897">
        <ele>50.400001525879</ele>
        <time>2020-02-13T10:04:48.000Z</time>
      </trkpt>
      <trkpt lat="47.28227" lon="-2.39902">
        <ele>50.400001525879</ele>
        <time>2020-02-13T10:04:50.000Z</time>
      </trkpt>
      <trkpt lat="47.28226" lon="-2.39926">
        <ele>50.400001525879</ele>
        <time>2020-02-13T10:04:54.000Z</time>
      </trkpt>
      <trkpt lat="47.28225" lon="-2.39934">
        <ele>50.400001525879</ele>
        <time>2020-02-13T10:04:55.000Z</time>
      </trkpt>
      <trkpt lat="47.28222" lon="-2.3997">
        <ele>50.400001525879</ele>
        <time>2020-02-13T10:05:00.000Z</time>
      </trkpt>
      <trkpt lat="47.28221" lon="-2.39977">
        <ele>50.400001525879</ele>
        <time>2020-02-13T10:05:01.000Z</time>
      </trkpt>
      <trkpt lat="47.28214" lon="-2.39998">
        <ele>50.400001525879</ele>
        <time>2020-02-13T10:05:05.000Z</time>
      </trkpt>
      <trkpt lat="47.28202" lon="-2.40004">
        <ele>50.400001525879</ele>
        <time>2020-02-13T10:05:08.000Z</time>
      </trkpt>
      <trkpt lat="47.28194" lon="-2.40005">
        <ele>50.400001525879</ele>
        <time>2020-02-13T10:05:10.000Z</time>
      </trkpt>
      <trkpt lat="47.28193" lon="-2.40008">
        <ele>50.400001525879</ele>
        <time>2020-02-13T10:05:11.000Z</time>
      </trkpt>
      <trkpt lat="47.28192" lon="-2.40021">
        <ele>50.400001525879</ele>
        <time>2020-02-13T10:05:14.000Z</time>
      </trkpt>
      <trkpt lat="47.28193" lon="-2.40026">
        <ele>50.400001525879</ele>
        <time>2020-02-13T10:05:15.000Z</time>
      </trkpt>
      <trkpt lat="47.28199" lon="-2.40037">
        <ele>50.400001525879</ele>
        <time>2020-02-13T10:05:17.000Z</time>
      </trkpt>
      <trkpt lat="47.28205" lon="-2.40049">
        <ele>50.400001525879</ele>
        <time>2020-02-13T10:05:20.000Z</time>
      </trkpt>
      <trkpt lat="47.28209" lon="-2.40055">
        <ele>50.400001525879</ele>
        <time>2020-02-13T10:05:21.000Z</time>
      </trkpt>
      <trkpt lat="47.28211" lon="-2.40061">
        <ele>50.400001525879</ele>
        <time>2020-02-13T10:05:22.000Z</time>
      </trkpt>
      <trkpt lat="47.28218" lon="-2.40074">
        <ele>50.400001525879</ele>
        <time>2020-02-13T10:05:25.000Z</time>
      </trkpt>
      <trkpt lat="47.28222" lon="-2.40091">
        <ele>50.400001525879</ele>
        <time>2020-02-13T10:05:28.000Z</time>
      </trkpt>
      <trkpt lat="47.28224" lon="-2.40097">
        <ele>50.400001525879</ele>
        <time>2020-02-13T10:05:29.000Z</time>
      </trkpt>
      <trkpt lat="47.28227" lon="-2.4011">
        <ele>50.400001525879</ele>
        <time>2020-02-13T10:05:31.000Z</time>
      </trkpt>
      <trkpt lat="47.28232" lon="-2.40131">
        <ele>50.400001525879</ele>
        <time>2020-02-13T10:05:34.000Z</time>
      </trkpt>
      <trkpt lat="47.28235" lon="-2.40153">
        <ele>50.400001525879</ele>
        <time>2020-02-13T10:05:37.000Z</time>
      </trkpt>
      <trkpt lat="47.28236" lon="-2.40167">
        <ele>50.400001525879</ele>
        <time>2020-02-13T10:05:39.000Z</time>
      </trkpt>
      <trkpt lat="47.28236" lon="-2.40181">
        <ele>50.400001525879</ele>
        <time>2020-02-13T10:05:41.000Z</time>
      </trkpt>
      <trkpt lat="47.28234" lon="-2.40205">
        <ele>50.400001525879</ele>
        <time>2020-02-13T10:05:44.000Z</time>
      </trkpt>
      <trkpt lat="47.28232" lon="-2.40228">
        <ele>50.400001525879</ele>
        <time>2020-02-13T10:05:47.000Z</time>
      </trkpt>
      <trkpt lat="47.2823" lon="-2.40243">
        <ele>50.400001525879</ele>
        <time>2020-02-13T10:05:49.000Z</time>
      </trkpt>
      <trkpt lat="47.28226" lon="-2.40281">
        <ele>50.400001525879</ele>
        <time>2020-02-13T10:05:54.000Z</time>
      </trkpt>
      <trkpt lat="47.28221" lon="-2.40322">
        <ele>50.400001525879</ele>
        <time>2020-02-13T10:05:59.000Z</time>
      </trkpt>
      <trkpt lat="47.28219" lon="-2.4033">
        <ele>50.400001525879</ele>
        <time>2020-02-13T10:06:00.000Z</time>
      </trkpt>
      <trkpt lat="47.28212" lon="-2.40378">
        <ele>50.400001525879</ele>
        <time>2020-02-13T10:06:06.000Z</time>
      </trkpt>
      <trkpt lat="47.28211" lon="-2.40391">
        <ele>50.400001525879</ele>
        <time>2020-02-13T10:06:08.000Z</time>
      </trkpt>
      <trkpt lat="47.28209" lon="-2.40412">
        <ele>50.400001525879</ele>
        <time>2020-02-13T10:06:11.000Z</time>
      </trkpt>
      <trkpt lat="47.28207" lon="-2.40419">
        <ele>50.400001525879</ele>
        <time>2020-02-13T10:06:12.000Z</time>
      </trkpt>
      <trkpt lat="47.28206" lon="-2.40439">
        <ele>50.400001525879</ele>
        <time>2020-02-13T10:06:15.000Z</time>
      </trkpt>
      <trkpt lat="47.28199" lon="-2.40491">
        <ele>50.400001525879</ele>
        <time>2020-02-13T10:06:22.000Z</time>
      </trkpt>
      <trkpt lat="47.28196" lon="-2.40535">
        <ele>50.400001525879</ele>
        <time>2020-02-13T10:06:29.000Z</time>
      </trkpt>
      <trkpt lat="47.28194" lon="-2.40541">
        <ele>50.400001525879</ele>
        <time>2020-02-13T10:06:30.000Z</time>
      </trkpt>
      <trkpt lat="47.2819" lon="-2.40553">
        <ele>50.400001525879</ele>
        <time>2020-02-13T10:06:32.000Z</time>
      </trkpt>
      <trkpt lat="47.28188" lon="-2.4056">
        <ele>50.400001525879</ele>
        <time>2020-02-13T10:06:33.000Z</time>
      </trkpt>
      <trkpt lat="47.28177" lon="-2.4061">
        <ele>50.400001525879</ele>
        <time>2020-02-13T10:06:40.000Z</time>
      </trkpt>
      <trkpt lat="47.28168" lon="-2.40647">
        <ele>50.400001525879</ele>
        <time>2020-02-13T10:06:46.000Z</time>
      </trkpt>
      <trkpt lat="47.28165" lon="-2.40656">
        <ele>50</ele>
        <time>2020-02-13T10:06:48.000Z</time>
      </trkpt>
      <trkpt lat="47.28165" lon="-2.40658">
        <ele>49.599998474121</ele>
        <time>2020-02-13T10:06:49.000Z</time>
      </trkpt>
      <trkpt lat="47.28164" lon="-2.40661">
        <ele>49.200000762939</ele>
        <time>2020-02-13T10:06:50.000Z</time>
      </trkpt>
      <trkpt lat="47.28163" lon="-2.40666">
        <ele>48.799999237061</ele>
        <time>2020-02-13T10:06:51.000Z</time>
      </trkpt>
      <trkpt lat="47.28161" lon="-2.40671">
        <ele>48.400001525879</ele>
        <time>2020-02-13T10:06:52.000Z</time>
      </trkpt>
      <trkpt lat="47.2816" lon="-2.40676">
        <ele>48.799999237061</ele>
        <time>2020-02-13T10:06:53.000Z</time>
      </trkpt>
      <trkpt lat="47.28158" lon="-2.40682">
        <ele>49.200000762939</ele>
        <time>2020-02-13T10:06:54.000Z</time>
      </trkpt>
      <trkpt lat="47.28156" lon="-2.40688">
        <ele>49.799999237061</ele>
        <time>2020-02-13T10:06:55.000Z</time>
      </trkpt>
      <trkpt lat="47.28155" lon="-2.40694">
        <ele>50.200000762939</ele>
        <time>2020-02-13T10:06:56.000Z</time>
      </trkpt>
      <trkpt lat="47.28153" lon="-2.407">
        <ele>50.599998474121</ele>
        <time>2020-02-13T10:06:57.000Z</time>
      </trkpt>
      <trkpt lat="47.28145" lon="-2.40733">
        <ele>50.599998474121</ele>
        <time>2020-02-13T10:07:02.000Z</time>
      </trkpt>
      <trkpt lat="47.28135" lon="-2.40764">
        <ele>50.599998474121</ele>
        <time>2020-02-13T10:07:07.000Z</time>
      </trkpt>
      <trkpt lat="47.28135" lon="-2.40781">
        <ele>50.599998474121</ele>
        <time>2020-02-13T10:07:10.000Z</time>
      </trkpt>
      <trkpt lat="47.28139" lon="-2.40785">
        <ele>50.599998474121</ele>
        <time>2020-02-13T10:07:11.000Z</time>
      </trkpt>
      <trkpt lat="47.28156" lon="-2.40795">
        <ele>50.599998474121</ele>
        <time>2020-02-13T10:07:15.000Z</time>
      </trkpt>
      <trkpt lat="47.28176" lon="-2.40811">
        <ele>50.599998474121</ele>
        <time>2020-02-13T10:07:19.000Z</time>
      </trkpt>
      <trkpt lat="47.28209" lon="-2.40841">
        <ele>50.599998474121</ele>
        <time>2020-02-13T10:07:26.000Z</time>
      </trkpt>
      <trkpt lat="47.28232" lon="-2.40857">
        <ele>50.599998474121</ele>
        <time>2020-02-13T10:07:31.000Z</time>
      </trkpt>
      <trkpt lat="47.28236" lon="-2.4086">
        <ele>50.599998474121</ele>
        <time>2020-02-13T10:07:32.000Z</time>
      </trkpt>
      <trkpt lat="47.28252" lon="-2.40874">
        <ele>50.599998474121</ele>
        <time>2020-02-13T10:07:37.000Z</time>
      </trkpt>
      <trkpt lat="47.28255" lon="-2.40883">
        <ele>50.599998474121</ele>
        <time>2020-02-13T10:07:41.000Z</time>
      </trkpt>
      <trkpt lat="47.28255" lon="-2.40885">
        <ele>50.599998474121</ele>
        <time>2020-02-13T10:07:42.000Z</time>
      </trkpt>
      <trkpt lat="47.2826" lon="-2.40893">
        <ele>50.599998474121</ele>
        <time>2020-02-13T10:07:46.000Z</time>
      </trkpt>
      <trkpt lat="47.28258" lon="-2.40902">
        <ele>50.599998474121</ele>
        <time>2020-02-13T10:07:49.000Z</time>
      </trkpt>
      <trkpt lat="47.28258" lon="-2.40905">
        <ele>50.599998474121</ele>
        <time>2020-02-13T10:07:50.000Z</time>
      </trkpt>
      <trkpt lat="47.28257" lon="-2.40911">
        <ele>50.599998474121</ele>
        <time>2020-02-13T10:07:52.000Z</time>
      </trkpt>
      <trkpt lat="47.2826" lon="-2.40921">
        <ele>50.599998474121</ele>
        <time>2020-02-13T10:07:54.000Z</time>
      </trkpt>
      <trkpt lat="47.28261" lon="-2.40933">
        <ele>50.599998474121</ele>
        <time>2020-02-13T10:07:56.000Z</time>
      </trkpt>
      <trkpt lat="47.28262" lon="-2.40939">
        <ele>50.599998474121</ele>
        <time>2020-02-13T10:07:57.000Z</time>
      </trkpt>
      <trkpt lat="47.28262" lon="-2.40945">
        <ele>50.599998474121</ele>
        <time>2020-02-13T10:07:58.000Z</time>
      </trkpt>
      <trkpt lat="47.28258" lon="-2.40968">
        <ele>50.599998474121</ele>
        <time>2020-02-13T10:08:02.000Z</time>
      </trkpt>
      <trkpt lat="47.28256" lon="-2.40974">
        <ele>50.599998474121</ele>
        <time>2020-02-13T10:08:03.000Z</time>
      </trkpt>
      <trkpt lat="47.28252" lon="-2.40991">
        <ele>50.599998474121</ele>
        <time>2020-02-13T10:08:07.000Z</time>
      </trkpt>
      <trkpt lat="47.28253" lon="-2.40993">
        <ele>50.599998474121</ele>
        <time>2020-02-13T10:08:08.000Z</time>
      </trkpt>
      <trkpt lat="47.28256" lon="-2.40999">
        <ele>50.599998474121</ele>
        <time>2020-02-13T10:08:10.000Z</time>
      </trkpt>
      <trkpt lat="47.28254" lon="-2.41012">
        <ele>50.599998474121</ele>
        <time>2020-02-13T10:08:13.000Z</time>
      </trkpt>
      <trkpt lat="47.28264" lon="-2.41023">
        <ele>50.599998474121</ele>
        <time>2020-02-13T10:08:16.000Z</time>
      </trkpt>
      <trkpt lat="47.28273" lon="-2.41029">
        <ele>50.599998474121</ele>
        <time>2020-02-13T10:08:18.000Z</time>
      </trkpt>
      <trkpt lat="47.28288" lon="-2.41038">
        <ele>50.599998474121</ele>
        <time>2020-02-13T10:08:21.000Z</time>
      </trkpt>
      <trkpt lat="47.28317" lon="-2.41058">
        <ele>50.599998474121</ele>
        <time>2020-02-13T10:08:27.000Z</time>
      </trkpt>
      <trkpt lat="47.28323" lon="-2.4106">
        <ele>50.599998474121</ele>
        <time>2020-02-13T10:08:28.000Z</time>
      </trkpt>
      <trkpt lat="47.28338" lon="-2.41069">
        <ele>50.200000762939</ele>
        <time>2020-02-13T10:08:31.000Z</time>
      </trkpt>
      <trkpt lat="47.28351" lon="-2.41074">
        <ele>49</ele>
        <time>2020-02-13T10:08:32.000Z</time>
      </trkpt>
      <trkpt lat="47.28356" lon="-2.41076">
        <ele>48.599998474121</ele>
        <time>2020-02-13T10:08:35.000Z</time>
      </trkpt>
      <trkpt lat="47.28365" lon="-2.41081">
        <ele>48.599998474121</ele>
        <time>2020-02-13T10:08:37.000Z</time>
      </trkpt>
      <trkpt lat="47.28378" lon="-2.41093">
        <ele>48.599998474121</ele>
        <time>2020-02-13T10:08:41.000Z</time>
      </trkpt>
      <trkpt lat="47.28379" lon="-2.41098">
        <ele>48.599998474121</ele>
        <time>2020-02-13T10:08:42.000Z</time>
      </trkpt>
      <trkpt lat="47.28376" lon="-2.41108">
        <ele>48.599998474121</ele>
        <time>2020-02-13T10:08:44.000Z</time>
      </trkpt>
      <trkpt lat="47.28368" lon="-2.41147">
        <ele>48.599998474121</ele>
        <time>2020-02-13T10:08:50.000Z</time>
      </trkpt>
      <trkpt lat="47.2836" lon="-2.41184">
        <ele>48.599998474121</ele>
        <time>2020-02-13T10:08:56.000Z</time>
      </trkpt>
      <trkpt lat="47.28356" lon="-2.41196">
        <ele>48.599998474121</ele>
        <time>2020-02-13T10:09:00.000Z</time>
      </trkpt>
      <trkpt lat="47.28353" lon="-2.41211">
        <ele>48.599998474121</ele>
        <time>2020-02-13T10:09:05.000Z</time>
      </trkpt>
      <trkpt lat="47.28349" lon="-2.41227">
        <ele>48.599998474121</ele>
        <time>2020-02-13T10:09:10.000Z</time>
      </trkpt>
      <trkpt lat="47.28341" lon="-2.41259">
        <ele>48.599998474121</ele>
        <time>2020-02-13T10:09:15.000Z</time>
      </trkpt>
      <trkpt lat="47.28331" lon="-2.41304">
        <ele>48.599998474121</ele>
        <time>2020-02-13T10:09:22.000Z</time>
      </trkpt>
      <trkpt lat="47.28323" lon="-2.41336">
        <ele>48.599998474121</ele>
        <time>2020-02-13T10:09:27.000Z</time>
      </trkpt>
      <trkpt lat="47.2832" lon="-2.4135">
        <ele>48.599998474121</ele>
        <time>2020-02-13T10:09:29.000Z</time>
      </trkpt>
      <trkpt lat="47.28317" lon="-2.41363">
        <ele>48.599998474121</ele>
        <time>2020-02-13T10:09:31.000Z</time>
      </trkpt>
      <trkpt lat="47.28314" lon="-2.41375">
        <ele>49</ele>
        <time>2020-02-13T10:09:33.000Z</time>
      </trkpt>
      <trkpt lat="47.28312" lon="-2.41382">
        <ele>49.400001525879</ele>
        <time>2020-02-13T10:09:34.000Z</time>
      </trkpt>
      <trkpt lat="47.28311" lon="-2.41388">
        <ele>49.799999237061</ele>
        <time>2020-02-13T10:09:35.000Z</time>
      </trkpt>
      <trkpt lat="47.2831" lon="-2.41394">
        <ele>50.599998474121</ele>
        <time>2020-02-13T10:09:36.000Z</time>
      </trkpt>
      <trkpt lat="47.28307" lon="-2.41412">
        <ele>50.599998474121</ele>
        <time>2020-02-13T10:09:39.000Z</time>
      </trkpt>
      <trkpt lat="47.28301" lon="-2.41435">
        <ele>50.200000762939</ele>
        <time>2020-02-13T10:09:43.000Z</time>
      </trkpt>
      <trkpt lat="47.28298" lon="-2.41441">
        <ele>49.799999237061</ele>
        <time>2020-02-13T10:09:44.000Z</time>
      </trkpt>
      <trkpt lat="47.28297" lon="-2.41447">
        <ele>49.200000762939</ele>
        <time>2020-02-13T10:09:45.000Z</time>
      </trkpt>
      <trkpt lat="47.28295" lon="-2.41453">
        <ele>48.799999237061</ele>
        <time>2020-02-13T10:09:46.000Z</time>
      </trkpt>
      <trkpt lat="47.28294" lon="-2.4146">
        <ele>48.400001525879</ele>
        <time>2020-02-13T10:09:47.000Z</time>
      </trkpt>
      <trkpt lat="47.28282" lon="-2.4151">
        <ele>48.400001525879</ele>
        <time>2020-02-13T10:09:55.000Z</time>
      </trkpt>
      <trkpt lat="47.28277" lon="-2.41534">
        <ele>48.400001525879</ele>
        <time>2020-02-13T10:09:59.000Z</time>
      </trkpt>
      <trkpt lat="47.28275" lon="-2.41554">
        <ele>48.400001525879</ele>
        <time>2020-02-13T10:10:02.000Z</time>
      </trkpt>
      <trkpt lat="47.28272" lon="-2.41573">
        <ele>48.400001525879</ele>
        <time>2020-02-13T10:10:05.000Z</time>
      </trkpt>
      <trkpt lat="47.28267" lon="-2.41592">
        <ele>48.400001525879</ele>
        <time>2020-02-13T10:10:08.000Z</time>
      </trkpt>
      <trkpt lat="47.28262" lon="-2.41628">
        <ele>48.400001525879</ele>
        <time>2020-02-13T10:10:14.000Z</time>
      </trkpt>
      <trkpt lat="47.28264" lon="-2.41636">
        <ele>48.400001525879</ele>
        <time>2020-02-13T10:10:16.000Z</time>
      </trkpt>
      <trkpt lat="47.28272" lon="-2.41642">
        <ele>48.400001525879</ele>
        <time>2020-02-13T10:10:18.000Z</time>
      </trkpt>
      <trkpt lat="47.28294" lon="-2.41654">
        <ele>48.400001525879</ele>
        <time>2020-02-13T10:10:23.000Z</time>
      </trkpt>
      <trkpt lat="47.28312" lon="-2.41664">
        <ele>48.400001525879</ele>
        <time>2020-02-13T10:10:27.000Z</time>
      </trkpt>
      <trkpt lat="47.28316" lon="-2.41666">
        <ele>48.400001525879</ele>
        <time>2020-02-13T10:10:28.000Z</time>
      </trkpt>
      <trkpt lat="47.28344" lon="-2.4168">
        <ele>48.400001525879</ele>
        <time>2020-02-13T10:10:34.000Z</time>
      </trkpt>
      <trkpt lat="47.28367" lon="-2.41692">
        <ele>48.400001525879</ele>
        <time>2020-02-13T10:10:41.000Z</time>
      </trkpt>
      <trkpt lat="47.28376" lon="-2.417">
        <ele>48.400001525879</ele>
        <time>2020-02-13T10:10:46.000Z</time>
      </trkpt>
      <trkpt lat="47.28375" lon="-2.41708">
        <ele>48.400001525879</ele>
        <time>2020-02-13T10:10:48.000Z</time>
      </trkpt>
      <trkpt lat="47.28373" lon="-2.41714">
        <ele>48.400001525879</ele>
        <time>2020-02-13T10:10:49.000Z</time>
      </trkpt>
      <trkpt lat="47.28361" lon="-2.41752">
        <ele>48.400001525879</ele>
        <time>2020-02-13T10:10:55.000Z</time>
      </trkpt>
      <trkpt lat="47.28354" lon="-2.41768">
        <ele>48.400001525879</ele>
        <time>2020-02-13T10:10:58.000Z</time>
      </trkpt>
      <trkpt lat="47.28352" lon="-2.41775">
        <ele>48.400001525879</ele>
        <time>2020-02-13T10:10:59.000Z</time>
      </trkpt>
      <trkpt lat="47.28344" lon="-2.41803">
        <ele>48.400001525879</ele>
        <time>2020-02-13T10:11:03.000Z</time>
      </trkpt>
      <trkpt lat="47.2834" lon="-2.41817">
        <ele>48.400001525879</ele>
        <time>2020-02-13T10:11:05.000Z</time>
      </trkpt>
      <trkpt lat="47.28336" lon="-2.4183">
        <ele>48.400001525879</ele>
        <time>2020-02-13T10:11:07.000Z</time>
      </trkpt>
      <trkpt lat="47.28331" lon="-2.41844">
        <ele>48.400001525879</ele>
        <time>2020-02-13T10:11:09.000Z</time>
      </trkpt>
      <trkpt lat="47.28328" lon="-2.41858">
        <ele>48.400001525879</ele>
        <time>2020-02-13T10:11:11.000Z</time>
      </trkpt>
      <trkpt lat="47.28321" lon="-2.41887">
        <ele>48.799999237061</ele>
        <time>2020-02-13T10:11:15.000Z</time>
      </trkpt>
      <trkpt lat="47.28319" lon="-2.41894">
        <ele>49.400001525879</ele>
        <time>2020-02-13T10:11:16.000Z</time>
      </trkpt>
      <trkpt lat="47.28317" lon="-2.41901">
        <ele>49.799999237061</ele>
        <time>2020-02-13T10:11:17.000Z</time>
      </trkpt>
      <trkpt lat="47.28316" lon="-2.41908">
        <ele>50.200000762939</ele>
        <time>2020-02-13T10:11:18.000Z</time>
      </trkpt>
      <trkpt lat="47.28314" lon="-2.41915">
        <ele>50.599998474121</ele>
        <time>2020-02-13T10:11:19.000Z</time>
      </trkpt>
      <trkpt lat="47.28307" lon="-2.41946">
        <ele>50.599998474121</ele>
        <time>2020-02-13T10:11:24.000Z</time>
      </trkpt>
      <trkpt lat="47.28302" lon="-2.41971">
        <ele>50.599998474121</ele>
        <time>2020-02-13T10:11:29.000Z</time>
      </trkpt>
      <trkpt lat="47.28307" lon="-2.41992">
        <ele>50.599998474121</ele>
        <time>2020-02-13T10:11:34.000Z</time>
      </trkpt>
      <trkpt lat="47.2831" lon="-2.42012">
        <ele>50.599998474121</ele>
        <time>2020-02-13T10:11:38.000Z</time>
      </trkpt>
      <trkpt lat="47.28309" lon="-2.42024">
        <ele>50.599998474121</ele>
        <time>2020-02-13T10:11:40.000Z</time>
      </trkpt>
      <trkpt lat="47.28308" lon="-2.4203">
        <ele>51.200000762939</ele>
        <time>2020-02-13T10:11:41.000Z</time>
      </trkpt>
      <trkpt lat="47.28307" lon="-2.42036">
        <ele>51.799999237061</ele>
        <time>2020-02-13T10:11:42.000Z</time>
      </trkpt>
      <trkpt lat="47.28306" lon="-2.42042">
        <ele>52.400001525879</ele>
        <time>2020-02-13T10:11:43.000Z</time>
      </trkpt>
      <trkpt lat="47.28304" lon="-2.42048">
        <ele>52.799999237061</ele>
        <time>2020-02-13T10:11:44.000Z</time>
      </trkpt>
      <trkpt lat="47.28303" lon="-2.42054">
        <ele>53.400001525879</ele>
        <time>2020-02-13T10:11:45.000Z</time>
      </trkpt>
      <trkpt lat="47.28297" lon="-2.42093">
        <ele>53.400001525879</ele>
        <time>2020-02-13T10:11:51.000Z</time>
      </trkpt>
      <trkpt lat="47.28293" lon="-2.42126">
        <ele>53.400001525879</ele>
        <time>2020-02-13T10:11:56.000Z</time>
      </trkpt>
      <trkpt lat="47.28293" lon="-2.42133">
        <ele>53.400001525879</ele>
        <time>2020-02-13T10:11:57.000Z</time>
      </trkpt>
      <trkpt lat="47.28292" lon="-2.4214">
        <ele>53.400001525879</ele>
        <time>2020-02-13T10:11:58.000Z</time>
      </trkpt>
      <trkpt lat="47.28291" lon="-2.42152">
        <ele>54</ele>
        <time>2020-02-13T10:12:00.000Z</time>
      </trkpt>
      <trkpt lat="47.28289" lon="-2.42158">
        <ele>54.599998474121</ele>
        <time>2020-02-13T10:12:01.000Z</time>
      </trkpt>
      <trkpt lat="47.28288" lon="-2.42165">
        <ele>55</ele>
        <time>2020-02-13T10:12:02.000Z</time>
      </trkpt>
      <trkpt lat="47.28288" lon="-2.42172">
        <ele>55.599998474121</ele>
        <time>2020-02-13T10:12:03.000Z</time>
      </trkpt>
      <trkpt lat="47.28287" lon="-2.42179">
        <ele>55.799999237061</ele>
        <time>2020-02-13T10:12:04.000Z</time>
      </trkpt>
      <trkpt lat="47.28286" lon="-2.42186">
        <ele>55.400001525879</ele>
        <time>2020-02-13T10:12:05.000Z</time>
      </trkpt>
      <trkpt lat="47.28286" lon="-2.42193">
        <ele>55</ele>
        <time>2020-02-13T10:12:06.000Z</time>
      </trkpt>
      <trkpt lat="47.28285" lon="-2.422">
        <ele>54.599998474121</ele>
        <time>2020-02-13T10:12:07.000Z</time>
      </trkpt>
      <trkpt lat="47.28284" lon="-2.42208">
        <ele>54.200000762939</ele>
        <time>2020-02-13T10:12:08.000Z</time>
      </trkpt>
      <trkpt lat="47.28278" lon="-2.42242">
        <ele>54.200000762939</ele>
        <time>2020-02-13T10:12:13.000Z</time>
      </trkpt>
      <trkpt lat="47.28276" lon="-2.42249">
        <ele>54.200000762939</ele>
        <time>2020-02-13T10:12:14.000Z</time>
      </trkpt>
      <trkpt lat="47.28275" lon="-2.42257">
        <ele>54.200000762939</ele>
        <time>2020-02-13T10:12:15.000Z</time>
      </trkpt>
      <trkpt lat="47.2827" lon="-2.42292">
        <ele>54.200000762939</ele>
        <time>2020-02-13T10:12:20.000Z</time>
      </trkpt>
      <trkpt lat="47.28269" lon="-2.42307">
        <ele>54.200000762939</ele>
        <time>2020-02-13T10:12:22.000Z</time>
      </trkpt>
      <trkpt lat="47.28265" lon="-2.42334">
        <ele>54.200000762939</ele>
        <time>2020-02-13T10:12:26.000Z</time>
      </trkpt>
      <trkpt lat="47.28258" lon="-2.42375">
        <ele>53.799999237061</ele>
        <time>2020-02-13T10:12:32.000Z</time>
      </trkpt>
      <trkpt lat="47.28256" lon="-2.42382">
        <ele>53.200000762939</ele>
        <time>2020-02-13T10:12:33.000Z</time>
      </trkpt>
      <trkpt lat="47.28255" lon="-2.42388">
        <ele>52.799999237061</ele>
        <time>2020-02-13T10:12:34.000Z</time>
      </trkpt>
      <trkpt lat="47.28253" lon="-2.42394">
        <ele>52.400001525879</ele>
        <time>2020-02-13T10:12:35.000Z</time>
      </trkpt>
      <trkpt lat="47.28251" lon="-2.424">
        <ele>51.799999237061</ele>
        <time>2020-02-13T10:12:36.000Z</time>
      </trkpt>
      <trkpt lat="47.28245" lon="-2.42426">
        <ele>51.799999237061</ele>
        <time>2020-02-13T10:12:40.000Z</time>
      </trkpt>
      <trkpt lat="47.28239" lon="-2.42445">
        <ele>51.799999237061</ele>
        <time>2020-02-13T10:12:43.000Z</time>
      </trkpt>
      <trkpt lat="47.28231" lon="-2.42461">
        <ele>51.799999237061</ele>
        <time>2020-02-13T10:12:46.000Z</time>
      </trkpt>
      <trkpt lat="47.28214" lon="-2.42495">
        <ele>51.799999237061</ele>
        <time>2020-02-13T10:12:52.000Z</time>
      </trkpt>
      <trkpt lat="47.28211" lon="-2.42499">
        <ele>51.799999237061</ele>
        <time>2020-02-13T10:12:53.000Z</time>
      </trkpt>
      <trkpt lat="47.28198" lon="-2.42514">
        <ele>51.799999237061</ele>
        <time>2020-02-13T10:12:57.000Z</time>
      </trkpt>
      <trkpt lat="47.28187" lon="-2.42521">
        <ele>51.799999237061</ele>
        <time>2020-02-13T10:13:00.000Z</time>
      </trkpt>
      <trkpt lat="47.28179" lon="-2.42524">
        <ele>51.799999237061</ele>
        <time>2020-02-13T10:13:02.000Z</time>
      </trkpt>
      <trkpt lat="47.28175" lon="-2.42525">
        <ele>51.400001525879</ele>
        <time>2020-02-13T10:13:03.000Z</time>
      </trkpt>
      <trkpt lat="47.28171" lon="-2.42526">
        <ele>51</ele>
        <time>2020-02-13T10:13:04.000Z</time>
      </trkpt>
      <trkpt lat="47.28167" lon="-2.42528">
        <ele>50.599998474121</ele>
        <time>2020-02-13T10:13:05.000Z</time>
      </trkpt>
      <trkpt lat="47.28163" lon="-2.42529">
        <ele>50.200000762939</ele>
        <time>2020-02-13T10:13:06.000Z</time>
      </trkpt>
      <trkpt lat="47.28159" lon="-2.4253">
        <ele>49.799999237061</ele>
        <time>2020-02-13T10:13:07.000Z</time>
      </trkpt>
      <trkpt lat="47.28134" lon="-2.42539">
        <ele>49.799999237061</ele>
        <time>2020-02-13T10:13:13.000Z</time>
      </trkpt>
      <trkpt lat="47.28113" lon="-2.42545">
        <ele>49.799999237061</ele>
        <time>2020-02-13T10:13:19.000Z</time>
      </trkpt>
      <trkpt lat="47.28103" lon="-2.4255">
        <ele>49.799999237061</ele>
        <time>2020-02-13T10:13:25.000Z</time>
      </trkpt>
      <trkpt lat="47.28097" lon="-2.42557">
        <ele>50.200000762939</ele>
        <time>2020-02-13T10:13:29.000Z</time>
      </trkpt>
      <trkpt lat="47.28095" lon="-2.42558">
        <ele>50.599998474121</ele>
        <time>2020-02-13T10:13:30.000Z</time>
      </trkpt>
      <trkpt lat="47.28094" lon="-2.42559">
        <ele>51.200000762939</ele>
        <time>2020-02-13T10:13:31.000Z</time>
      </trkpt>
      <trkpt lat="47.28092" lon="-2.4256">
        <ele>51.599998474121</ele>
        <time>2020-02-13T10:13:32.000Z</time>
      </trkpt>
      <trkpt lat="47.2809" lon="-2.42561">
        <ele>52</ele>
        <time>2020-02-13T10:13:33.000Z</time>
      </trkpt>
      <trkpt lat="47.28083" lon="-2.42565">
        <ele>52</ele>
        <time>2020-02-13T10:13:36.000Z</time>
      </trkpt>
      <trkpt lat="47.28071" lon="-2.42582">
        <ele>52</ele>
        <time>2020-02-13T10:13:40.000Z</time>
      </trkpt>
      <trkpt lat="47.28067" lon="-2.42586">
        <ele>52</ele>
        <time>2020-02-13T10:13:41.000Z</time>
      </trkpt>
      <trkpt lat="47.28053" lon="-2.42595">
        <ele>51.599998474121</ele>
        <time>2020-02-13T10:13:44.000Z</time>
      </trkpt>
      <trkpt lat="47.28049" lon="-2.42597">
        <ele>51.200000762939</ele>
        <time>2020-02-13T10:13:45.000Z</time>
      </trkpt>
      <trkpt lat="47.28044" lon="-2.426">
        <ele>50.799999237061</ele>
        <time>2020-02-13T10:13:46.000Z</time>
      </trkpt>
      <trkpt lat="47.28039" lon="-2.42602">
        <ele>50.200000762939</ele>
        <time>2020-02-13T10:13:47.000Z</time>
      </trkpt>
      <trkpt lat="47.28035" lon="-2.42606">
        <ele>49.799999237061</ele>
        <time>2020-02-13T10:13:48.000Z</time>
      </trkpt>
      <trkpt lat="47.28031" lon="-2.4261">
        <ele>49.799999237061</ele>
        <time>2020-02-13T10:13:49.000Z</time>
      </trkpt>
      <trkpt lat="47.28017" lon="-2.42623">
        <ele>49.799999237061</ele>
        <time>2020-02-13T10:13:52.000Z</time>
      </trkpt>
      <trkpt lat="47.28008" lon="-2.42631">
        <ele>49.799999237061</ele>
        <time>2020-02-13T10:13:54.000Z</time>
      </trkpt>
      <trkpt lat="47.27999" lon="-2.42637">
        <ele>49.799999237061</ele>
        <time>2020-02-13T10:13:56.000Z</time>
      </trkpt>
      <trkpt lat="47.2798" lon="-2.42642">
        <ele>49.799999237061</ele>
        <time>2020-02-13T10:14:00.000Z</time>
      </trkpt>
      <trkpt lat="47.27971" lon="-2.42644">
        <ele>49.799999237061</ele>
        <time>2020-02-13T10:14:02.000Z</time>
      </trkpt>
      <trkpt lat="47.27952" lon="-2.42653">
        <ele>49.799999237061</ele>
        <time>2020-02-13T10:14:06.000Z</time>
      </trkpt>
      <trkpt lat="47.27928" lon="-2.42669">
        <ele>49.799999237061</ele>
        <time>2020-02-13T10:14:12.000Z</time>
      </trkpt>
      <trkpt lat="47.2791" lon="-2.42683">
        <ele>49.799999237061</ele>
        <time>2020-02-13T10:14:17.000Z</time>
      </trkpt>
      <trkpt lat="47.27894" lon="-2.42692">
        <ele>49.799999237061</ele>
        <time>2020-02-13T10:14:21.000Z</time>
      </trkpt>
      <trkpt lat="47.27889" lon="-2.42695">
        <ele>49.799999237061</ele>
        <time>2020-02-13T10:14:22.000Z</time>
      </trkpt>
      <trkpt lat="47.27867" lon="-2.42708">
        <ele>49.799999237061</ele>
        <time>2020-02-13T10:14:27.000Z</time>
      </trkpt>
      <trkpt lat="47.27855" lon="-2.42713">
        <ele>49.799999237061</ele>
        <time>2020-02-13T10:14:30.000Z</time>
      </trkpt>
      <trkpt lat="47.27844" lon="-2.42718">
        <ele>49.799999237061</ele>
        <time>2020-02-13T10:14:33.000Z</time>
      </trkpt>
      <trkpt lat="47.27841" lon="-2.42719">
        <ele>49.799999237061</ele>
        <time>2020-02-13T10:14:34.000Z</time>
      </trkpt>
      <trkpt lat="47.27832" lon="-2.4273">
        <ele>49.799999237061</ele>
        <time>2020-02-13T10:14:38.000Z</time>
      </trkpt>
      <trkpt lat="47.27831" lon="-2.42748">
        <ele>49.799999237061</ele>
        <time>2020-02-13T10:14:41.000Z</time>
      </trkpt>
      <trkpt lat="47.27831" lon="-2.42762">
        <ele>50.400001525879</ele>
        <time>2020-02-13T10:14:43.000Z</time>
      </trkpt>
      <trkpt lat="47.27832" lon="-2.42768">
        <ele>50.799999237061</ele>
        <time>2020-02-13T10:14:44.000Z</time>
      </trkpt>
      <trkpt lat="47.27832" lon="-2.42774">
        <ele>51.200000762939</ele>
        <time>2020-02-13T10:14:45.000Z</time>
      </trkpt>
      <trkpt lat="47.27832" lon="-2.42781">
        <ele>51.599998474121</ele>
        <time>2020-02-13T10:14:46.000Z</time>
      </trkpt>
      <trkpt lat="47.27833" lon="-2.42787">
        <ele>52.200000762939</ele>
        <time>2020-02-13T10:14:47.000Z</time>
      </trkpt>
      <trkpt lat="47.27833" lon="-2.42799">
        <ele>52.200000762939</ele>
        <time>2020-02-13T10:14:49.000Z</time>
      </trkpt>
      <trkpt lat="47.27833" lon="-2.42805">
        <ele>52.200000762939</ele>
        <time>2020-02-13T10:14:50.000Z</time>
      </trkpt>
      <trkpt lat="47.27833" lon="-2.42827">
        <ele>52.200000762939</ele>
        <time>2020-02-13T10:14:54.000Z</time>
      </trkpt>
      <trkpt lat="47.27821" lon="-2.42827">
        <ele>52.200000762939</ele>
        <time>2020-02-13T10:14:57.000Z</time>
      </trkpt>
      <trkpt lat="47.27816" lon="-2.42825">
        <ele>52.200000762939</ele>
        <time>2020-02-13T10:14:58.000Z</time>
      </trkpt>
      <trkpt lat="47.2779" lon="-2.4282">
        <ele>52.200000762939</ele>
        <time>2020-02-13T10:15:03.000Z</time>
      </trkpt>
      <trkpt lat="47.27756" lon="-2.42813">
        <ele>52.200000762939</ele>
        <time>2020-02-13T10:15:10.000Z</time>
      </trkpt>
      <trkpt lat="47.27731" lon="-2.42807">
        <ele>52.200000762939</ele>
        <time>2020-02-13T10:15:16.000Z</time>
      </trkpt>
      <trkpt lat="47.27698" lon="-2.42797">
        <ele>52.200000762939</ele>
        <time>2020-02-13T10:15:23.000Z</time>
      </trkpt>
      <trkpt lat="47.27667" lon="-2.4278">
        <ele>52.200000762939</ele>
        <time>2020-02-13T10:15:30.000Z</time>
      </trkpt>
      <trkpt lat="47.2765" lon="-2.42766">
        <ele>52.200000762939</ele>
        <time>2020-02-13T10:15:34.000Z</time>
      </trkpt>
      <trkpt lat="47.27641" lon="-2.42757">
        <ele>52.200000762939</ele>
        <time>2020-02-13T10:15:36.000Z</time>
      </trkpt>
      <trkpt lat="47.27628" lon="-2.42743">
        <ele>52.200000762939</ele>
        <time>2020-02-13T10:15:39.000Z</time>
      </trkpt>
      <trkpt lat="47.27614" lon="-2.42727">
        <ele>52.200000762939</ele>
        <time>2020-02-13T10:15:42.000Z</time>
      </trkpt>
      <trkpt lat="47.27604" lon="-2.42716">
        <ele>52.200000762939</ele>
        <time>2020-02-13T10:15:44.000Z</time>
      </trkpt>
      <trkpt lat="47.27587" lon="-2.42694">
        <ele>52.200000762939</ele>
        <time>2020-02-13T10:15:48.000Z</time>
      </trkpt>
      <trkpt lat="47.27571" lon="-2.42674">
        <ele>52.200000762939</ele>
        <time>2020-02-13T10:15:52.000Z</time>
      </trkpt>
      <trkpt lat="47.27567" lon="-2.4267">
        <ele>52.200000762939</ele>
        <time>2020-02-13T10:15:53.000Z</time>
      </trkpt>
      <trkpt lat="47.27561" lon="-2.42661">
        <ele>52.200000762939</ele>
        <time>2020-02-13T10:15:55.000Z</time>
      </trkpt>
      <trkpt lat="47.27552" lon="-2.42648">
        <ele>52.200000762939</ele>
        <time>2020-02-13T10:15:58.000Z</time>
      </trkpt>
      <trkpt lat="47.27539" lon="-2.42634">
        <ele>52.200000762939</ele>
        <time>2020-02-13T10:16:01.000Z</time>
      </trkpt>
      <trkpt lat="47.27533" lon="-2.42626">
        <ele>52.200000762939</ele>
        <time>2020-02-13T10:16:03.000Z</time>
      </trkpt>
      <trkpt lat="47.27516" lon="-2.42607">
        <ele>52.200000762939</ele>
        <time>2020-02-13T10:16:07.000Z</time>
      </trkpt>
      <trkpt lat="47.27512" lon="-2.42603">
        <ele>52.200000762939</ele>
        <time>2020-02-13T10:16:08.000Z</time>
      </trkpt>
      <trkpt lat="47.27509" lon="-2.42597">
        <ele>52.200000762939</ele>
        <time>2020-02-13T10:16:09.000Z</time>
      </trkpt>
      <trkpt lat="47.27496" lon="-2.42584">
        <ele>52.200000762939</ele>
        <time>2020-02-13T10:16:12.000Z</time>
      </trkpt>
      <trkpt lat="47.27457" lon="-2.42545">
        <ele>52.200000762939</ele>
        <time>2020-02-13T10:16:21.000Z</time>
      </trkpt>
      <trkpt lat="47.27434" lon="-2.42522">
        <ele>52.200000762939</ele>
        <time>2020-02-13T10:16:27.000Z</time>
      </trkpt>
      <trkpt lat="47.27425" lon="-2.42516">
        <ele>52.200000762939</ele>
        <time>2020-02-13T10:16:29.000Z</time>
      </trkpt>
      <trkpt lat="47.27413" lon="-2.42503">
        <ele>52.200000762939</ele>
        <time>2020-02-13T10:16:32.000Z</time>
      </trkpt>
      <trkpt lat="47.27386" lon="-2.42474">
        <ele>52.200000762939</ele>
        <time>2020-02-13T10:16:39.000Z</time>
      </trkpt>
      <trkpt lat="47.27367" lon="-2.42456">
        <ele>52.200000762939</ele>
        <time>2020-02-13T10:16:45.000Z</time>
      </trkpt>
      <trkpt lat="47.27356" lon="-2.42464">
        <ele>52.200000762939</ele>
        <time>2020-02-13T10:16:49.000Z</time>
      </trkpt>
      <trkpt lat="47.27354" lon="-2.42468">
        <ele>52.200000762939</ele>
        <time>2020-02-13T10:16:51.000Z</time>
      </trkpt>
      <trkpt lat="47.27353" lon="-2.42469">
        <ele>52.200000762939</ele>
        <time>2020-02-13T10:16:52.000Z</time>
      </trkpt>
      <trkpt lat="47.27345" lon="-2.42476">
        <ele>52.200000762939</ele>
        <time>2020-02-13T10:16:56.000Z</time>
      </trkpt>
      <trkpt lat="47.27331" lon="-2.42487">
        <ele>52.200000762939</ele>
        <time>2020-02-13T10:17:02.000Z</time>
      </trkpt>
      <trkpt lat="47.27314" lon="-2.42496">
        <ele>52.200000762939</ele>
        <time>2020-02-13T10:17:08.000Z</time>
      </trkpt>
      <trkpt lat="47.2731" lon="-2.42498">
        <ele>52.200000762939</ele>
        <time>2020-02-13T10:17:09.000Z</time>
      </trkpt>
      <trkpt lat="47.27289" lon="-2.42507">
        <ele>52.200000762939</ele>
        <time>2020-02-13T10:17:14.000Z</time>
      </trkpt>
      <trkpt lat="47.27269" lon="-2.42513">
        <ele>52.599998474121</ele>
        <time>2020-02-13T10:17:18.000Z</time>
      </trkpt>
      <trkpt lat="47.27264" lon="-2.42514">
        <ele>53</ele>
        <time>2020-02-13T10:17:19.000Z</time>
      </trkpt>
      <trkpt lat="47.27259" lon="-2.42516">
        <ele>53.400001525879</ele>
        <time>2020-02-13T10:17:20.000Z</time>
      </trkpt>
      <trkpt lat="47.27254" lon="-2.42517">
        <ele>53.799999237061</ele>
        <time>2020-02-13T10:17:21.000Z</time>
      </trkpt>
      <trkpt lat="47.27249" lon="-2.42519">
        <ele>54.400001525879</ele>
        <time>2020-02-13T10:17:22.000Z</time>
      </trkpt>
      <trkpt lat="47.27231" lon="-2.42524">
        <ele>54.400001525879</ele>
        <time>2020-02-13T10:17:26.000Z</time>
      </trkpt>
      <trkpt lat="47.27201" lon="-2.42529">
        <ele>54.400001525879</ele>
        <time>2020-02-13T10:17:33.000Z</time>
      </trkpt>
      <trkpt lat="47.27176" lon="-2.42528">
        <ele>54.400001525879</ele>
        <time>2020-02-13T10:17:38.000Z</time>
      </trkpt>
      <trkpt lat="47.27137" lon="-2.42526">
        <ele>54.400001525879</ele>
        <time>2020-02-13T10:17:46.000Z</time>
      </trkpt>
      <trkpt lat="47.27133" lon="-2.42526">
        <ele>54.400001525879</ele>
        <time>2020-02-13T10:17:47.000Z</time>
      </trkpt>
      <trkpt lat="47.27111" lon="-2.42523">
        <ele>54.400001525879</ele>
        <time>2020-02-13T10:17:52.000Z</time>
      </trkpt>
      <trkpt lat="47.27088" lon="-2.42516">
        <ele>54.400001525879</ele>
        <time>2020-02-13T10:17:57.000Z</time>
      </trkpt>
      <trkpt lat="47.27061" lon="-2.42502">
        <ele>54.400001525879</ele>
        <time>2020-02-13T10:18:03.000Z</time>
      </trkpt>
      <trkpt lat="47.27046" lon="-2.4249">
        <ele>54.400001525879</ele>
        <time>2020-02-13T10:18:07.000Z</time>
      </trkpt>
      <trkpt lat="47.27041" lon="-2.4248">
        <ele>54.400001525879</ele>
        <time>2020-02-13T10:18:09.000Z</time>
      </trkpt>
      <trkpt lat="47.27036" lon="-2.42467">
        <ele>54.400001525879</ele>
        <time>2020-02-13T10:18:12.000Z</time>
      </trkpt>
      <trkpt lat="47.27036" lon="-2.42462">
        <ele>54.400001525879</ele>
        <time>2020-02-13T10:18:13.000Z</time>
      </trkpt>
      <trkpt lat="47.27034" lon="-2.42453">
        <ele>54</ele>
        <time>2020-02-13T10:18:15.000Z</time>
      </trkpt>
      <trkpt lat="47.27033" lon="-2.42448">
        <ele>53</ele>
        <time>2020-02-13T10:18:16.000Z</time>
      </trkpt>
      <trkpt lat="47.27032" lon="-2.42445">
        <ele>52.599998474121</ele>
        <time>2020-02-13T10:18:17.000Z</time>
      </trkpt>
      <trkpt lat="47.2703" lon="-2.42442">
        <ele>52.200000762939</ele>
        <time>2020-02-13T10:18:18.000Z</time>
      </trkpt>
      <trkpt lat="47.27022" lon="-2.42421">
        <ele>51.799999237061</ele>
        <time>2020-02-13T10:18:22.000Z</time>
      </trkpt>
      <trkpt lat="47.27018" lon="-2.42417">
        <ele>51.400001525879</ele>
        <time>2020-02-13T10:18:23.000Z</time>
      </trkpt>
      <trkpt lat="47.27014" lon="-2.42412">
        <ele>50.799999237061</ele>
        <time>2020-02-13T10:18:24.000Z</time>
      </trkpt>
      <trkpt lat="47.27011" lon="-2.42408">
        <ele>50.400001525879</ele>
        <time>2020-02-13T10:18:25.000Z</time>
      </trkpt>
      <trkpt lat="47.27008" lon="-2.42403">
        <ele>50</ele>
        <time>2020-02-13T10:18:26.000Z</time>
      </trkpt>
      <trkpt lat="47.27004" lon="-2.42397">
        <ele>50</ele>
        <time>2020-02-13T10:18:27.000Z</time>
      </trkpt>
      <trkpt lat="47.26998" lon="-2.42388">
        <ele>50</ele>
        <time>2020-02-13T10:18:29.000Z</time>
      </trkpt>
      <trkpt lat="47.26982" lon="-2.42369">
        <ele>50</ele>
        <time>2020-02-13T10:18:33.000Z</time>
      </trkpt>
      <trkpt lat="47.26951" lon="-2.42343">
        <ele>50</ele>
        <time>2020-02-13T10:18:40.000Z</time>
      </trkpt>
      <trkpt lat="47.26941" lon="-2.42335">
        <ele>50</ele>
        <time>2020-02-13T10:18:42.000Z</time>
      </trkpt>
      <trkpt lat="47.26927" lon="-2.42333">
        <ele>50</ele>
        <time>2020-02-13T10:18:45.000Z</time>
      </trkpt>
      <trkpt lat="47.26922" lon="-2.42334">
        <ele>50</ele>
        <time>2020-02-13T10:18:46.000Z</time>
      </trkpt>
      <trkpt lat="47.26912" lon="-2.42335">
        <ele>50</ele>
        <time>2020-02-13T10:18:48.000Z</time>
      </trkpt>
      <trkpt lat="47.26893" lon="-2.42336">
        <ele>50</ele>
        <time>2020-02-13T10:18:52.000Z</time>
      </trkpt>
      <trkpt lat="47.26865" lon="-2.42332">
        <ele>50</ele>
        <time>2020-02-13T10:18:57.000Z</time>
      </trkpt>
      <trkpt lat="47.2684" lon="-2.42322">
        <ele>50</ele>
        <time>2020-02-13T10:19:02.000Z</time>
      </trkpt>
      <trkpt lat="47.26836" lon="-2.42322">
        <ele>50</ele>
        <time>2020-02-13T10:19:03.000Z</time>
      </trkpt>
      <trkpt lat="47.26818" lon="-2.4232">
        <ele>50</ele>
        <time>2020-02-13T10:19:08.000Z</time>
      </trkpt>
      <trkpt lat="47.26808" lon="-2.42301">
        <ele>49.599998474121</ele>
        <time>2020-02-13T10:19:12.000Z</time>
      </trkpt>
      <trkpt lat="47.26803" lon="-2.42296">
        <ele>49.200000762939</ele>
        <time>2020-02-13T10:19:13.000Z</time>
      </trkpt>
      <trkpt lat="47.26799" lon="-2.42292">
        <ele>48.799999237061</ele>
        <time>2020-02-13T10:19:14.000Z</time>
      </trkpt>
      <trkpt lat="47.26795" lon="-2.42287">
        <ele>48.400001525879</ele>
        <time>2020-02-13T10:19:15.000Z</time>
      </trkpt>
      <trkpt lat="47.26791" lon="-2.42282">
        <ele>48</ele>
        <time>2020-02-13T10:19:16.000Z</time>
      </trkpt>
      <trkpt lat="47.26787" lon="-2.42278">
        <ele>48</ele>
        <time>2020-02-13T10:19:17.000Z</time>
      </trkpt>
      <trkpt lat="47.26774" lon="-2.42267">
        <ele>48</ele>
        <time>2020-02-13T10:19:20.000Z</time>
      </trkpt>
      <trkpt lat="47.26765" lon="-2.42262">
        <ele>48</ele>
        <time>2020-02-13T10:19:22.000Z</time>
      </trkpt>
      <trkpt lat="47.26744" lon="-2.42248">
        <ele>48</ele>
        <time>2020-02-13T10:19:27.000Z</time>
      </trkpt>
      <trkpt lat="47.2674" lon="-2.42245">
        <ele>48</ele>
        <time>2020-02-13T10:19:28.000Z</time>
      </trkpt>
      <trkpt lat="47.26726" lon="-2.42236">
        <ele>48</ele>
        <time>2020-02-13T10:19:32.000Z</time>
      </trkpt>
      <trkpt lat="47.26695" lon="-2.42225">
        <ele>48</ele>
        <time>2020-02-13T10:19:39.000Z</time>
      </trkpt>
      <trkpt lat="47.26686" lon="-2.42222">
        <ele>48</ele>
        <time>2020-02-13T10:19:41.000Z</time>
      </trkpt>
      <trkpt lat="47.26674" lon="-2.42213">
        <ele>48</ele>
        <time>2020-02-13T10:19:44.000Z</time>
      </trkpt>
      <trkpt lat="47.2667" lon="-2.42209">
        <ele>48</ele>
        <time>2020-02-13T10:19:45.000Z</time>
      </trkpt>
      <trkpt lat="47.26652" lon="-2.42183">
        <ele>48</ele>
        <time>2020-02-13T10:19:50.000Z</time>
      </trkpt>
      <trkpt lat="47.26649" lon="-2.42177">
        <ele>48</ele>
        <time>2020-02-13T10:19:51.000Z</time>
      </trkpt>
      <trkpt lat="47.2664" lon="-2.42158">
        <ele>48</ele>
        <time>2020-02-13T10:19:54.000Z</time>
      </trkpt>
      <trkpt lat="47.26629" lon="-2.42142">
        <ele>48</ele>
        <time>2020-02-13T10:19:57.000Z</time>
      </trkpt>
      <trkpt lat="47.26613" lon="-2.42136">
        <ele>48</ele>
        <time>2020-02-13T10:20:01.000Z</time>
      </trkpt>
      <trkpt lat="47.26604" lon="-2.42136">
        <ele>48</ele>
        <time>2020-02-13T10:20:03.000Z</time>
      </trkpt>
      <trkpt lat="47.26596" lon="-2.42138">
        <ele>48</ele>
        <time>2020-02-13T10:20:05.000Z</time>
      </trkpt>
      <trkpt lat="47.26589" lon="-2.42141">
        <ele>48</ele>
        <time>2020-02-13T10:20:07.000Z</time>
      </trkpt>
      <trkpt lat="47.26584" lon="-2.42151">
        <ele>48</ele>
        <time>2020-02-13T10:20:10.000Z</time>
      </trkpt>
      <trkpt lat="47.26583" lon="-2.42161">
        <ele>48.799999237061</ele>
        <time>2020-02-13T10:20:13.000Z</time>
      </trkpt>
      <trkpt lat="47.26581" lon="-2.42163">
        <ele>49.200000762939</ele>
        <time>2020-02-13T10:20:14.000Z</time>
      </trkpt>
      <trkpt lat="47.2658" lon="-2.42164">
        <ele>49.799999237061</ele>
        <time>2020-02-13T10:20:15.000Z</time>
      </trkpt>
      <trkpt lat="47.26579" lon="-2.42165">
        <ele>50.200000762939</ele>
        <time>2020-02-13T10:20:16.000Z</time>
      </trkpt>
      <trkpt lat="47.26578" lon="-2.4217">
        <ele>50.200000762939</ele>
        <time>2020-02-13T10:20:19.000Z</time>
      </trkpt>
      <trkpt lat="47.26575" lon="-2.4218">
        <ele>50.200000762939</ele>
        <time>2020-02-13T10:20:24.000Z</time>
      </trkpt>
      <trkpt lat="47.26574" lon="-2.4218">
        <ele>50.200000762939</ele>
        <time>2020-02-13T10:20:27.000Z</time>
      </trkpt>
      <trkpt lat="47.26572" lon="-2.42177">
        <ele>50.200000762939</ele>
        <time>2020-02-13T10:21:14.000Z</time>
      </trkpt>
      <trkpt lat="47.26569" lon="-2.42175">
        <ele>50.200000762939</ele>
        <time>2020-02-13T10:21:15.000Z</time>
      </trkpt>
      <trkpt lat="47.26554" lon="-2.42168">
        <ele>50.200000762939</ele>
        <time>2020-02-13T10:21:20.000Z</time>
      </trkpt>
      <trkpt lat="47.26538" lon="-2.42156">
        <ele>50.200000762939</ele>
        <time>2020-02-13T10:21:25.000Z</time>
      </trkpt>
      <trkpt lat="47.26521" lon="-2.42139">
        <ele>50.200000762939</ele>
        <time>2020-02-13T10:21:30.000Z</time>
      </trkpt>
      <trkpt lat="47.26498" lon="-2.42113">
        <ele>50.200000762939</ele>
        <time>2020-02-13T10:21:36.000Z</time>
      </trkpt>
      <trkpt lat="47.26494" lon="-2.42109">
        <ele>50.599998474121</ele>
        <time>2020-02-13T10:21:37.000Z</time>
      </trkpt>
      <trkpt lat="47.2649" lon="-2.42104">
        <ele>51.200000762939</ele>
        <time>2020-02-13T10:21:38.000Z</time>
      </trkpt>
      <trkpt lat="47.26486" lon="-2.421">
        <ele>51.599998474121</ele>
        <time>2020-02-13T10:21:39.000Z</time>
      </trkpt>
      <trkpt lat="47.26482" lon="-2.42096">
        <ele>52</ele>
        <time>2020-02-13T10:21:40.000Z</time>
      </trkpt>
      <trkpt lat="47.26478" lon="-2.42092">
        <ele>52.599998474121</ele>
        <time>2020-02-13T10:21:41.000Z</time>
      </trkpt>
      <trkpt lat="47.26466" lon="-2.42079">
        <ele>52.599998474121</ele>
        <time>2020-02-13T10:21:44.000Z</time>
      </trkpt>
      <trkpt lat="47.26435" lon="-2.42046">
        <ele>52.599998474121</ele>
        <time>2020-02-13T10:21:52.000Z</time>
      </trkpt>
      <trkpt lat="47.26405" lon="-2.42017">
        <ele>52.599998474121</ele>
        <time>2020-02-13T10:22:00.000Z</time>
      </trkpt>
      <trkpt lat="47.2639" lon="-2.42002">
        <ele>52.599998474121</ele>
        <time>2020-02-13T10:22:04.000Z</time>
      </trkpt>
      <trkpt lat="47.26381" lon="-2.41996">
        <ele>52.599998474121</ele>
        <time>2020-02-13T10:22:06.000Z</time>
      </trkpt>
      <trkpt lat="47.26349" lon="-2.41975">
        <ele>52.599998474121</ele>
        <time>2020-02-13T10:22:13.000Z</time>
      </trkpt>
      <trkpt lat="47.26329" lon="-2.41963">
        <ele>52.599998474121</ele>
        <time>2020-02-13T10:22:17.000Z</time>
      </trkpt>
      <trkpt lat="47.2632" lon="-2.41957">
        <ele>52.599998474121</ele>
        <time>2020-02-13T10:22:19.000Z</time>
      </trkpt>
      <trkpt lat="47.2628" lon="-2.41932">
        <ele>52.599998474121</ele>
        <time>2020-02-13T10:22:28.000Z</time>
      </trkpt>
      <trkpt lat="47.26243" lon="-2.41907">
        <ele>52.599998474121</ele>
        <time>2020-02-13T10:22:36.000Z</time>
      </trkpt>
      <trkpt lat="47.26229" lon="-2.41897">
        <ele>53</ele>
        <time>2020-02-13T10:22:39.000Z</time>
      </trkpt>
      <trkpt lat="47.26224" lon="-2.41893">
        <ele>53.400001525879</ele>
        <time>2020-02-13T10:22:40.000Z</time>
      </trkpt>
      <trkpt lat="47.26219" lon="-2.41889">
        <ele>54.200000762939</ele>
        <time>2020-02-13T10:22:41.000Z</time>
      </trkpt>
      <trkpt lat="47.26215" lon="-2.41886">
        <ele>54.599998474121</ele>
        <time>2020-02-13T10:22:42.000Z</time>
      </trkpt>
      <trkpt lat="47.2621" lon="-2.41881">
        <ele>54.599998474121</ele>
        <time>2020-02-13T10:22:43.000Z</time>
      </trkpt>
      <trkpt lat="47.26184" lon="-2.41851">
        <ele>54.599998474121</ele>
        <time>2020-02-13T10:22:50.000Z</time>
      </trkpt>
      <trkpt lat="47.26159" lon="-2.41823">
        <ele>54.599998474121</ele>
        <time>2020-02-13T10:22:57.000Z</time>
      </trkpt>
      <trkpt lat="47.2615" lon="-2.41816">
        <ele>54.599998474121</ele>
        <time>2020-02-13T10:22:59.000Z</time>
      </trkpt>
      <trkpt lat="47.26136" lon="-2.41809">
        <ele>54.599998474121</ele>
        <time>2020-02-13T10:23:02.000Z</time>
      </trkpt>
      <trkpt lat="47.26131" lon="-2.41808">
        <ele>54.599998474121</ele>
        <time>2020-02-13T10:23:03.000Z</time>
      </trkpt>
      <trkpt lat="47.26119" lon="-2.41811">
        <ele>55</ele>
        <time>2020-02-13T10:23:06.000Z</time>
      </trkpt>
      <trkpt lat="47.26117" lon="-2.41816">
        <ele>55.400001525879</ele>
        <time>2020-02-13T10:23:07.000Z</time>
      </trkpt>
      <trkpt lat="47.26115" lon="-2.4182">
        <ele>56</ele>
        <time>2020-02-13T10:23:08.000Z</time>
      </trkpt>
      <trkpt lat="47.26112" lon="-2.41825">
        <ele>56.400001525879</ele>
        <time>2020-02-13T10:23:09.000Z</time>
      </trkpt>
      <trkpt lat="47.26108" lon="-2.41829">
        <ele>56.799999237061</ele>
        <time>2020-02-13T10:23:10.000Z</time>
      </trkpt>
      <trkpt lat="47.26086" lon="-2.41863">
        <ele>56.799999237061</ele>
        <time>2020-02-13T10:23:17.000Z</time>
      </trkpt>
      <trkpt lat="47.26076" lon="-2.41877">
        <ele>56.799999237061</ele>
        <time>2020-02-13T10:23:20.000Z</time>
      </trkpt>
      <trkpt lat="47.26066" lon="-2.4189">
        <ele>56.799999237061</ele>
        <time>2020-02-13T10:23:23.000Z</time>
      </trkpt>
      <trkpt lat="47.26051" lon="-2.41911">
        <ele>56.799999237061</ele>
        <time>2020-02-13T10:23:28.000Z</time>
      </trkpt>
      <trkpt lat="47.26048" lon="-2.41915">
        <ele>57.200000762939</ele>
        <time>2020-02-13T10:23:29.000Z</time>
      </trkpt>
      <trkpt lat="47.26045" lon="-2.41918">
        <ele>57.799999237061</ele>
        <time>2020-02-13T10:23:30.000Z</time>
      </trkpt>
      <trkpt lat="47.26042" lon="-2.41922">
        <ele>59</ele>
        <time>2020-02-13T10:23:31.000Z</time>
      </trkpt>
      <trkpt lat="47.26039" lon="-2.41926">
        <ele>59.400001525879</ele>
        <time>2020-02-13T10:23:32.000Z</time>
      </trkpt>
      <trkpt lat="47.26024" lon="-2.41947">
        <ele>59.400001525879</ele>
        <time>2020-02-13T10:23:37.000Z</time>
      </trkpt>
      <trkpt lat="47.26013" lon="-2.41968">
        <ele>59.400001525879</ele>
        <time>2020-02-13T10:23:42.000Z</time>
      </trkpt>
      <trkpt lat="47.26002" lon="-2.41989">
        <ele>59.400001525879</ele>
        <time>2020-02-13T10:23:47.000Z</time>
      </trkpt>
      <trkpt lat="47.25998" lon="-2.42011">
        <ele>59.400001525879</ele>
        <time>2020-02-13T10:23:52.000Z</time>
      </trkpt>
      <trkpt lat="47.25998" lon="-2.42015">
        <ele>59.400001525879</ele>
        <time>2020-02-13T10:23:53.000Z</time>
      </trkpt>
      <trkpt lat="47.26007" lon="-2.42036">
        <ele>59.400001525879</ele>
        <time>2020-02-13T10:23:57.000Z</time>
      </trkpt>
      <trkpt lat="47.2602" lon="-2.42077">
        <ele>59.400001525879</ele>
        <time>2020-02-13T10:24:03.000Z</time>
      </trkpt>
      <trkpt lat="47.26029" lon="-2.42103">
        <ele>59.400001525879</ele>
        <time>2020-02-13T10:24:07.000Z</time>
      </trkpt>
      <trkpt lat="47.26032" lon="-2.42117">
        <ele>59.400001525879</ele>
        <time>2020-02-13T10:24:09.000Z</time>
      </trkpt>
      <trkpt lat="47.26038" lon="-2.4213">
        <ele>59.400001525879</ele>
        <time>2020-02-13T10:24:11.000Z</time>
      </trkpt>
      <trkpt lat="47.26043" lon="-2.42141">
        <ele>59.400001525879</ele>
        <time>2020-02-13T10:24:13.000Z</time>
      </trkpt>
      <trkpt lat="47.26051" lon="-2.42161">
        <ele>59.400001525879</ele>
        <time>2020-02-13T10:24:16.000Z</time>
      </trkpt>
      <trkpt lat="47.26053" lon="-2.42168">
        <ele>59</ele>
        <time>2020-02-13T10:24:17.000Z</time>
      </trkpt>
      <trkpt lat="47.26056" lon="-2.42174">
        <ele>58.400001525879</ele>
        <time>2020-02-13T10:24:18.000Z</time>
      </trkpt>
      <trkpt lat="47.26058" lon="-2.4218">
        <ele>58</ele>
        <time>2020-02-13T10:24:19.000Z</time>
      </trkpt>
      <trkpt lat="47.26061" lon="-2.42187">
        <ele>57</ele>
        <time>2020-02-13T10:24:20.000Z</time>
      </trkpt>
      <trkpt lat="47.26065" lon="-2.42199">
        <ele>57</ele>
        <time>2020-02-13T10:24:22.000Z</time>
      </trkpt>
      <trkpt lat="47.26067" lon="-2.42205">
        <ele>57</ele>
        <time>2020-02-13T10:24:23.000Z</time>
      </trkpt>
      <trkpt lat="47.2608" lon="-2.42241">
        <ele>57</ele>
        <time>2020-02-13T10:24:29.000Z</time>
      </trkpt>
      <trkpt lat="47.26093" lon="-2.42284">
        <ele>57</ele>
        <time>2020-02-13T10:24:36.000Z</time>
      </trkpt>
      <trkpt lat="47.26099" lon="-2.42302">
        <ele>57</ele>
        <time>2020-02-13T10:24:40.000Z</time>
      </trkpt>
      <trkpt lat="47.26101" lon="-2.4231">
        <ele>57</ele>
        <time>2020-02-13T10:24:45.000Z</time>
      </trkpt>
      <trkpt lat="47.26101" lon="-2.4231">
        <ele>57</ele>
        <time>2020-02-13T10:24:48.000Z</time>
      </trkpt>
      <trkpt lat="47.26101" lon="-2.42313">
        <ele>57</ele>
        <time>2020-02-13T10:24:50.000Z</time>
      </trkpt>
      <trkpt lat="47.26102" lon="-2.42317">
        <ele>57</ele>
        <time>2020-02-13T10:24:51.000Z</time>
      </trkpt>
      <trkpt lat="47.26108" lon="-2.42339">
        <ele>57</ele>
        <time>2020-02-13T10:24:55.000Z</time>
      </trkpt>
      <trkpt lat="47.26114" lon="-2.42374">
        <ele>57</ele>
        <time>2020-02-13T10:25:00.000Z</time>
      </trkpt>
      <trkpt lat="47.26115" lon="-2.42381">
        <ele>57</ele>
        <time>2020-02-13T10:25:01.000Z</time>
      </trkpt>
      <trkpt lat="47.26119" lon="-2.42415">
        <ele>57</ele>
        <time>2020-02-13T10:25:06.000Z</time>
      </trkpt>
      <trkpt lat="47.2612" lon="-2.42421">
        <ele>57</ele>
        <time>2020-02-13T10:25:07.000Z</time>
      </trkpt>
      <trkpt lat="47.26117" lon="-2.42441">
        <ele>57</ele>
        <time>2020-02-13T10:25:11.000Z</time>
      </trkpt>
      <trkpt lat="47.26101" lon="-2.42446">
        <ele>57</ele>
        <time>2020-02-13T10:25:15.000Z</time>
      </trkpt>
      <trkpt lat="47.26063" lon="-2.42458">
        <ele>57</ele>
        <time>2020-02-13T10:25:24.000Z</time>
      </trkpt>
      <trkpt lat="47.26052" lon="-2.42466">
        <ele>57</ele>
        <time>2020-02-13T10:25:27.000Z</time>
      </trkpt>
      <trkpt lat="47.26045" lon="-2.42473">
        <ele>57</ele>
        <time>2020-02-13T10:25:29.000Z</time>
      </trkpt>
      <trkpt lat="47.26029" lon="-2.42482">
        <ele>57</ele>
        <time>2020-02-13T10:25:33.000Z</time>
      </trkpt>
      <trkpt lat="47.26002" lon="-2.42488">
        <ele>57</ele>
        <time>2020-02-13T10:25:40.000Z</time>
      </trkpt>
      <trkpt lat="47.25994" lon="-2.42492">
        <ele>57</ele>
        <time>2020-02-13T10:25:44.000Z</time>
      </trkpt>
      <trkpt lat="47.25994" lon="-2.42494">
        <ele>57</ele>
        <time>2020-02-13T10:25:45.000Z</time>
      </trkpt>
      <trkpt lat="47.25986" lon="-2.425">
        <ele>57</ele>
        <time>2020-02-13T10:25:49.000Z</time>
      </trkpt>
      <trkpt lat="47.25981" lon="-2.42519">
        <ele>57</ele>
        <time>2020-02-13T10:25:53.000Z</time>
      </trkpt>
      <trkpt lat="47.25976" lon="-2.42542">
        <ele>57.400001525879</ele>
        <time>2020-02-13T10:25:57.000Z</time>
      </trkpt>
      <trkpt lat="47.25974" lon="-2.42547">
        <ele>57.799999237061</ele>
        <time>2020-02-13T10:25:58.000Z</time>
      </trkpt>
      <trkpt lat="47.25974" lon="-2.42552">
        <ele>58.200000762939</ele>
        <time>2020-02-13T10:25:59.000Z</time>
      </trkpt>
      <trkpt lat="47.25973" lon="-2.42557">
        <ele>59.200000762939</ele>
        <time>2020-02-13T10:26:00.000Z</time>
      </trkpt>
      <trkpt lat="47.25971" lon="-2.42568">
        <ele>58.599998474121</ele>
        <time>2020-02-13T10:26:03.000Z</time>
      </trkpt>
      <trkpt lat="47.2597" lon="-2.4257">
        <ele>58.200000762939</ele>
        <time>2020-02-13T10:26:04.000Z</time>
      </trkpt>
      <trkpt lat="47.25968" lon="-2.42573">
        <ele>57.799999237061</ele>
        <time>2020-02-13T10:26:05.000Z</time>
      </trkpt>
      <trkpt lat="47.25967" lon="-2.42575">
        <ele>57.400001525879</ele>
        <time>2020-02-13T10:26:06.000Z</time>
      </trkpt>
      <trkpt lat="47.25966" lon="-2.42576">
        <ele>57</ele>
        <time>2020-02-13T10:26:07.000Z</time>
      </trkpt>
      <trkpt lat="47.25962" lon="-2.42582">
        <ele>57</ele>
        <time>2020-02-13T10:26:09.000Z</time>
      </trkpt>
      <trkpt lat="47.25953" lon="-2.42606">
        <ele>57.400001525879</ele>
        <time>2020-02-13T10:26:14.000Z</time>
      </trkpt>
      <trkpt lat="47.25953" lon="-2.42612">
        <ele>57.799999237061</ele>
        <time>2020-02-13T10:26:15.000Z</time>
      </trkpt>
      <trkpt lat="47.25954" lon="-2.42618">
        <ele>58.200000762939</ele>
        <time>2020-02-13T10:26:16.000Z</time>
      </trkpt>
      <trkpt lat="47.25955" lon="-2.42624">
        <ele>58.599998474121</ele>
        <time>2020-02-13T10:26:17.000Z</time>
      </trkpt>
      <trkpt lat="47.25958" lon="-2.42629">
        <ele>59</ele>
        <time>2020-02-13T10:26:18.000Z</time>
      </trkpt>
      <trkpt lat="47.2597" lon="-2.42644">
        <ele>59</ele>
        <time>2020-02-13T10:26:22.000Z</time>
      </trkpt>
      <trkpt lat="47.25971" lon="-2.4265">
        <ele>58.599998474121</ele>
        <time>2020-02-13T10:26:23.000Z</time>
      </trkpt>
      <trkpt lat="47.25972" lon="-2.42656">
        <ele>57.599998474121</ele>
        <time>2020-02-13T10:26:24.000Z</time>
      </trkpt>
      <trkpt lat="47.25973" lon="-2.42662">
        <ele>57.200000762939</ele>
        <time>2020-02-13T10:26:25.000Z</time>
      </trkpt>
      <trkpt lat="47.25974" lon="-2.42669">
        <ele>56.799999237061</ele>
        <time>2020-02-13T10:26:26.000Z</time>
      </trkpt>
      <trkpt lat="47.25979" lon="-2.42714">
        <ele>56.799999237061</ele>
        <time>2020-02-13T10:26:33.000Z</time>
      </trkpt>
      <trkpt lat="47.25978" lon="-2.42741">
        <ele>56.799999237061</ele>
        <time>2020-02-13T10:26:39.000Z</time>
      </trkpt>
      <trkpt lat="47.25966" lon="-2.42751">
        <ele>56.799999237061</ele>
        <time>2020-02-13T10:26:43.000Z</time>
      </trkpt>
      <trkpt lat="47.25963" lon="-2.42775">
        <ele>56.799999237061</ele>
        <time>2020-02-13T10:26:48.000Z</time>
      </trkpt>
      <trkpt lat="47.25964" lon="-2.42789">
        <ele>56.799999237061</ele>
        <time>2020-02-13T10:26:51.000Z</time>
      </trkpt>
      <trkpt lat="47.25969" lon="-2.42795">
        <ele>56.799999237061</ele>
        <time>2020-02-13T10:26:53.000Z</time>
      </trkpt>
      <trkpt lat="47.25975" lon="-2.42807">
        <ele>56.799999237061</ele>
        <time>2020-02-13T10:26:56.000Z</time>
      </trkpt>
      <trkpt lat="47.25976" lon="-2.42812">
        <ele>56.799999237061</ele>
        <time>2020-02-13T10:26:57.000Z</time>
      </trkpt>
      <trkpt lat="47.25979" lon="-2.42833">
        <ele>56.799999237061</ele>
        <time>2020-02-13T10:27:01.000Z</time>
      </trkpt>
      <trkpt lat="47.25979" lon="-2.42845">
        <ele>56.799999237061</ele>
        <time>2020-02-13T10:27:03.000Z</time>
      </trkpt>
      <trkpt lat="47.25977" lon="-2.42886">
        <ele>56.799999237061</ele>
        <time>2020-02-13T10:27:10.000Z</time>
      </trkpt>
      <trkpt lat="47.25976" lon="-2.42891">
        <ele>56.799999237061</ele>
        <time>2020-02-13T10:27:11.000Z</time>
      </trkpt>
      <trkpt lat="47.25971" lon="-2.42907">
        <ele>57.200000762939</ele>
        <time>2020-02-13T10:27:14.000Z</time>
      </trkpt>
      <trkpt lat="47.25968" lon="-2.42912">
        <ele>57.599998474121</ele>
        <time>2020-02-13T10:27:15.000Z</time>
      </trkpt>
      <trkpt lat="47.25966" lon="-2.42916">
        <ele>58.200000762939</ele>
        <time>2020-02-13T10:27:16.000Z</time>
      </trkpt>
      <trkpt lat="47.25964" lon="-2.42921">
        <ele>58.599998474121</ele>
        <time>2020-02-13T10:27:17.000Z</time>
      </trkpt>
      <trkpt lat="47.25961" lon="-2.42926">
        <ele>59</ele>
        <time>2020-02-13T10:27:18.000Z</time>
      </trkpt>
      <trkpt lat="47.25957" lon="-2.42936">
        <ele>59</ele>
        <time>2020-02-13T10:27:20.000Z</time>
      </trkpt>
      <trkpt lat="47.25952" lon="-2.42966">
        <ele>59</ele>
        <time>2020-02-13T10:27:25.000Z</time>
      </trkpt>
      <trkpt lat="47.25952" lon="-2.42971">
        <ele>59</ele>
        <time>2020-02-13T10:27:26.000Z</time>
      </trkpt>
      <trkpt lat="47.25953" lon="-2.42982">
        <ele>59.400001525879</ele>
        <time>2020-02-13T10:27:28.000Z</time>
      </trkpt>
      <trkpt lat="47.25953" lon="-2.42987">
        <ele>59.799999237061</ele>
        <time>2020-02-13T10:27:29.000Z</time>
      </trkpt>
      <trkpt lat="47.25953" lon="-2.42993">
        <ele>60.400001525879</ele>
        <time>2020-02-13T10:27:30.000Z</time>
      </trkpt>
      <trkpt lat="47.25952" lon="-2.42998">
        <ele>60.799999237061</ele>
        <time>2020-02-13T10:27:31.000Z</time>
      </trkpt>
      <trkpt lat="47.25951" lon="-2.43005">
        <ele>61.200000762939</ele>
        <time>2020-02-13T10:27:32.000Z</time>
      </trkpt>
      <trkpt lat="47.25947" lon="-2.43017">
        <ele>60.799999237061</ele>
        <time>2020-02-13T10:27:34.000Z</time>
      </trkpt>
      <trkpt lat="47.25943" lon="-2.43021">
        <ele>60.400001525879</ele>
        <time>2020-02-13T10:27:35.000Z</time>
      </trkpt>
      <trkpt lat="47.2594" lon="-2.43025">
        <ele>60</ele>
        <time>2020-02-13T10:27:36.000Z</time>
      </trkpt>
      <trkpt lat="47.25936" lon="-2.43028">
        <ele>59.400001525879</ele>
        <time>2020-02-13T10:27:37.000Z</time>
      </trkpt>
      <trkpt lat="47.25932" lon="-2.43031">
        <ele>59</ele>
        <time>2020-02-13T10:27:38.000Z</time>
      </trkpt>
      <trkpt lat="47.25916" lon="-2.43041">
        <ele>59</ele>
        <time>2020-02-13T10:27:42.000Z</time>
      </trkpt>
      <trkpt lat="47.25907" lon="-2.43046">
        <ele>59</ele>
        <time>2020-02-13T10:27:44.000Z</time>
      </trkpt>
      <trkpt lat="47.25892" lon="-2.4305">
        <ele>59</ele>
        <time>2020-02-13T10:27:47.000Z</time>
      </trkpt>
      <trkpt lat="47.25888" lon="-2.43053">
        <ele>59</ele>
        <time>2020-02-13T10:27:48.000Z</time>
      </trkpt>
      <trkpt lat="47.25882" lon="-2.43062">
        <ele>59</ele>
        <time>2020-02-13T10:27:50.000Z</time>
      </trkpt>
      <trkpt lat="47.25876" lon="-2.43086">
        <ele>59</ele>
        <time>2020-02-13T10:27:54.000Z</time>
      </trkpt>
      <trkpt lat="47.25875" lon="-2.43093">
        <ele>59</ele>
        <time>2020-02-13T10:27:55.000Z</time>
      </trkpt>
      <trkpt lat="47.25873" lon="-2.43099">
        <ele>59</ele>
        <time>2020-02-13T10:27:56.000Z</time>
      </trkpt>
      <trkpt lat="47.25866" lon="-2.43113">
        <ele>59</ele>
        <time>2020-02-13T10:27:59.000Z</time>
      </trkpt>
      <trkpt lat="47.25863" lon="-2.43117">
        <ele>58.599998474121</ele>
        <time>2020-02-13T10:28:00.000Z</time>
      </trkpt>
      <trkpt lat="47.2586" lon="-2.43122">
        <ele>58.200000762939</ele>
        <time>2020-02-13T10:28:01.000Z</time>
      </trkpt>
      <trkpt lat="47.25856" lon="-2.43126">
        <ele>57.599998474121</ele>
        <time>2020-02-13T10:28:02.000Z</time>
      </trkpt>
      <trkpt lat="47.25853" lon="-2.4313">
        <ele>56.799999237061</ele>
        <time>2020-02-13T10:28:03.000Z</time>
      </trkpt>
      <trkpt lat="47.25847" lon="-2.4314">
        <ele>56.799999237061</ele>
        <time>2020-02-13T10:28:05.000Z</time>
      </trkpt>
      <trkpt lat="47.25845" lon="-2.43152">
        <ele>57.200000762939</ele>
        <time>2020-02-13T10:28:07.000Z</time>
      </trkpt>
      <trkpt lat="47.25845" lon="-2.43157">
        <ele>57.599998474121</ele>
        <time>2020-02-13T10:28:08.000Z</time>
      </trkpt>
      <trkpt lat="47.25846" lon="-2.43162">
        <ele>58</ele>
        <time>2020-02-13T10:28:09.000Z</time>
      </trkpt>
      <trkpt lat="47.25847" lon="-2.43167">
        <ele>58.400001525879</ele>
        <time>2020-02-13T10:28:10.000Z</time>
      </trkpt>
      <trkpt lat="47.25849" lon="-2.43171">
        <ele>58.799999237061</ele>
        <time>2020-02-13T10:28:11.000Z</time>
      </trkpt>
      <trkpt lat="47.25852" lon="-2.43174">
        <ele>58.799999237061</ele>
        <time>2020-02-13T10:28:12.000Z</time>
      </trkpt>
      <trkpt lat="47.25862" lon="-2.43181">
        <ele>58.400001525879</ele>
        <time>2020-02-13T10:28:15.000Z</time>
      </trkpt>
      <trkpt lat="47.25865" lon="-2.43182">
        <ele>57.799999237061</ele>
        <time>2020-02-13T10:28:16.000Z</time>
      </trkpt>
      <trkpt lat="47.25869" lon="-2.43184">
        <ele>57.400001525879</ele>
        <time>2020-02-13T10:28:17.000Z</time>
      </trkpt>
      <trkpt lat="47.25873" lon="-2.43186">
        <ele>57</ele>
        <time>2020-02-13T10:28:18.000Z</time>
      </trkpt>
      <trkpt lat="47.25877" lon="-2.43189">
        <ele>56.599998474121</ele>
        <time>2020-02-13T10:28:19.000Z</time>
      </trkpt>
      <trkpt lat="47.25887" lon="-2.432">
        <ele>56.599998474121</ele>
        <time>2020-02-13T10:28:22.000Z</time>
      </trkpt>
      <trkpt lat="47.25892" lon="-2.4321">
        <ele>56.599998474121</ele>
        <time>2020-02-13T10:28:24.000Z</time>
      </trkpt>
      <trkpt lat="47.25895" lon="-2.43215">
        <ele>56.599998474121</ele>
        <time>2020-02-13T10:28:25.000Z</time>
      </trkpt>
      <trkpt lat="47.25899" lon="-2.43219">
        <ele>56.599998474121</ele>
        <time>2020-02-13T10:28:26.000Z</time>
      </trkpt>
      <trkpt lat="47.25918" lon="-2.43235">
        <ele>56</ele>
        <time>2020-02-13T10:28:31.000Z</time>
      </trkpt>
      <trkpt lat="47.25923" lon="-2.43236">
        <ele>55.599998474121</ele>
        <time>2020-02-13T10:28:32.000Z</time>
      </trkpt>
      <trkpt lat="47.25928" lon="-2.43234">
        <ele>55</ele>
        <time>2020-02-13T10:28:33.000Z</time>
      </trkpt>
      <trkpt lat="47.25933" lon="-2.43234">
        <ele>54.599998474121</ele>
        <time>2020-02-13T10:28:34.000Z</time>
      </trkpt>
      <trkpt lat="47.25937" lon="-2.43234">
        <ele>54</ele>
        <time>2020-02-13T10:28:35.000Z</time>
      </trkpt>
      <trkpt lat="47.25942" lon="-2.4324">
        <ele>54.599998474121</ele>
        <time>2020-02-13T10:28:37.000Z</time>
      </trkpt>
      <trkpt lat="47.25943" lon="-2.43245">
        <ele>55.200000762939</ele>
        <time>2020-02-13T10:28:38.000Z</time>
      </trkpt>
      <trkpt lat="47.25943" lon="-2.43251">
        <ele>55.799999237061</ele>
        <time>2020-02-13T10:28:39.000Z</time>
      </trkpt>
      <trkpt lat="47.25944" lon="-2.43258">
        <ele>56.400001525879</ele>
        <time>2020-02-13T10:28:40.000Z</time>
      </trkpt>
      <trkpt lat="47.25944" lon="-2.43264">
        <ele>57</ele>
        <time>2020-02-13T10:28:41.000Z</time>
      </trkpt>
      <trkpt lat="47.2595" lon="-2.43305">
        <ele>57</ele>
        <time>2020-02-13T10:28:47.000Z</time>
      </trkpt>
      <trkpt lat="47.25958" lon="-2.43346">
        <ele>57</ele>
        <time>2020-02-13T10:28:53.000Z</time>
      </trkpt>
      <trkpt lat="47.25962" lon="-2.43359">
        <ele>57</ele>
        <time>2020-02-13T10:28:55.000Z</time>
      </trkpt>
      <trkpt lat="47.25964" lon="-2.43364">
        <ele>57.400001525879</ele>
        <time>2020-02-13T10:28:56.000Z</time>
      </trkpt>
      <trkpt lat="47.25966" lon="-2.43369">
        <ele>58</ele>
        <time>2020-02-13T10:28:57.000Z</time>
      </trkpt>
      <trkpt lat="47.25968" lon="-2.43375">
        <ele>58.400001525879</ele>
        <time>2020-02-13T10:28:58.000Z</time>
      </trkpt>
      <trkpt lat="47.2597" lon="-2.43381">
        <ele>58.799999237061</ele>
        <time>2020-02-13T10:28:59.000Z</time>
      </trkpt>
      <trkpt lat="47.25972" lon="-2.43386">
        <ele>59.200000762939</ele>
        <time>2020-02-13T10:29:00.000Z</time>
      </trkpt>
      <trkpt lat="47.25974" lon="-2.43392">
        <ele>59.599998474121</ele>
        <time>2020-02-13T10:29:01.000Z</time>
      </trkpt>
      <trkpt lat="47.25976" lon="-2.43397">
        <ele>60.200000762939</ele>
        <time>2020-02-13T10:29:02.000Z</time>
      </trkpt>
      <trkpt lat="47.25977" lon="-2.43403">
        <ele>60.599998474121</ele>
        <time>2020-02-13T10:29:03.000Z</time>
      </trkpt>
      <trkpt lat="47.25979" lon="-2.43408">
        <ele>61</ele>
        <time>2020-02-13T10:29:04.000Z</time>
      </trkpt>
      <trkpt lat="47.25981" lon="-2.43414">
        <ele>60.799999237061</ele>
        <time>2020-02-13T10:29:05.000Z</time>
      </trkpt>
      <trkpt lat="47.25982" lon="-2.4342">
        <ele>60.400001525879</ele>
        <time>2020-02-13T10:29:06.000Z</time>
      </trkpt>
      <trkpt lat="47.25984" lon="-2.43425">
        <ele>60</ele>
        <time>2020-02-13T10:29:07.000Z</time>
      </trkpt>
      <trkpt lat="47.25986" lon="-2.4343">
        <ele>59.799999237061</ele>
        <time>2020-02-13T10:29:08.000Z</time>
      </trkpt>
      <trkpt lat="47.25989" lon="-2.43436">
        <ele>59.400001525879</ele>
        <time>2020-02-13T10:29:09.000Z</time>
      </trkpt>
      <trkpt lat="47.25998" lon="-2.43458">
        <ele>59</ele>
        <time>2020-02-13T10:29:13.000Z</time>
      </trkpt>
      <trkpt lat="47.26" lon="-2.43464">
        <ele>58.599998474121</ele>
        <time>2020-02-13T10:29:14.000Z</time>
      </trkpt>
      <trkpt lat="47.26002" lon="-2.43471">
        <ele>58</ele>
        <time>2020-02-13T10:29:15.000Z</time>
      </trkpt>
      <trkpt lat="47.26004" lon="-2.43477">
        <ele>57.599998474121</ele>
        <time>2020-02-13T10:29:16.000Z</time>
      </trkpt>
      <trkpt lat="47.26006" lon="-2.43482">
        <ele>57.200000762939</ele>
        <time>2020-02-13T10:29:17.000Z</time>
      </trkpt>
      <trkpt lat="47.2602" lon="-2.43521">
        <ele>57.200000762939</ele>
        <time>2020-02-13T10:29:24.000Z</time>
      </trkpt>
      <trkpt lat="47.26022" lon="-2.43527">
        <ele>57.799999237061</ele>
        <time>2020-02-13T10:29:25.000Z</time>
      </trkpt>
      <trkpt lat="47.26024" lon="-2.43532">
        <ele>58.400001525879</ele>
        <time>2020-02-13T10:29:26.000Z</time>
      </trkpt>
      <trkpt lat="47.26025" lon="-2.43537">
        <ele>58.799999237061</ele>
        <time>2020-02-13T10:29:27.000Z</time>
      </trkpt>
      <trkpt lat="47.26028" lon="-2.43542">
        <ele>59.400001525879</ele>
        <time>2020-02-13T10:29:28.000Z</time>
      </trkpt>
      <trkpt lat="47.2603" lon="-2.43547">
        <ele>60</ele>
        <time>2020-02-13T10:29:29.000Z</time>
      </trkpt>
      <trkpt lat="47.26033" lon="-2.43552">
        <ele>60</ele>
        <time>2020-02-13T10:29:30.000Z</time>
      </trkpt>
      <trkpt lat="47.26049" lon="-2.43583">
        <ele>60</ele>
        <time>2020-02-13T10:29:37.000Z</time>
      </trkpt>
      <trkpt lat="47.26067" lon="-2.43618">
        <ele>60</ele>
        <time>2020-02-13T10:29:44.000Z</time>
      </trkpt>
      <trkpt lat="47.26074" lon="-2.43632">
        <ele>60</ele>
        <time>2020-02-13T10:29:47.000Z</time>
      </trkpt>
      <trkpt lat="47.2608" lon="-2.43649">
        <ele>60</ele>
        <time>2020-02-13T10:29:50.000Z</time>
      </trkpt>
      <trkpt lat="47.26085" lon="-2.43673">
        <ele>59.599998474121</ele>
        <time>2020-02-13T10:29:54.000Z</time>
      </trkpt>
      <trkpt lat="47.26086" lon="-2.43679">
        <ele>59.200000762939</ele>
        <time>2020-02-13T10:29:55.000Z</time>
      </trkpt>
      <trkpt lat="47.26087" lon="-2.43685">
        <ele>58.799999237061</ele>
        <time>2020-02-13T10:29:56.000Z</time>
      </trkpt>
      <trkpt lat="47.26087" lon="-2.43692">
        <ele>58.400001525879</ele>
        <time>2020-02-13T10:29:57.000Z</time>
      </trkpt>
      <trkpt lat="47.26087" lon="-2.43698">
        <ele>58</ele>
        <time>2020-02-13T10:29:58.000Z</time>
      </trkpt>
      <trkpt lat="47.26086" lon="-2.43725">
        <ele>58</ele>
        <time>2020-02-13T10:30:03.000Z</time>
      </trkpt>
      <trkpt lat="47.26085" lon="-2.4373">
        <ele>58.400001525879</ele>
        <time>2020-02-13T10:30:04.000Z</time>
      </trkpt>
      <trkpt lat="47.26084" lon="-2.43735">
        <ele>58.799999237061</ele>
        <time>2020-02-13T10:30:05.000Z</time>
      </trkpt>
      <trkpt lat="47.26083" lon="-2.43741">
        <ele>59.200000762939</ele>
        <time>2020-02-13T10:30:06.000Z</time>
      </trkpt>
      <trkpt lat="47.26082" lon="-2.43746">
        <ele>60</ele>
        <time>2020-02-13T10:30:07.000Z</time>
      </trkpt>
      <trkpt lat="47.2608" lon="-2.43758">
        <ele>60</ele>
        <time>2020-02-13T10:30:09.000Z</time>
      </trkpt>
      <trkpt lat="47.2607" lon="-2.43801">
        <ele>59.599998474121</ele>
        <time>2020-02-13T10:30:17.000Z</time>
      </trkpt>
      <trkpt lat="47.26066" lon="-2.43803">
        <ele>59.200000762939</ele>
        <time>2020-02-13T10:30:18.000Z</time>
      </trkpt>
      <trkpt lat="47.26063" lon="-2.43806">
        <ele>58.799999237061</ele>
        <time>2020-02-13T10:30:19.000Z</time>
      </trkpt>
      <trkpt lat="47.26061" lon="-2.43811">
        <ele>58.400001525879</ele>
        <time>2020-02-13T10:30:20.000Z</time>
      </trkpt>
      <trkpt lat="47.26061" lon="-2.43817">
        <ele>58</ele>
        <time>2020-02-13T10:30:21.000Z</time>
      </trkpt>
      <trkpt lat="47.26061" lon="-2.43824">
        <ele>58</ele>
        <time>2020-02-13T10:30:22.000Z</time>
      </trkpt>
      <trkpt lat="47.2606" lon="-2.43838">
        <ele>58</ele>
        <time>2020-02-13T10:30:24.000Z</time>
      </trkpt>
      <trkpt lat="47.26053" lon="-2.43877">
        <ele>58</ele>
        <time>2020-02-13T10:30:30.000Z</time>
      </trkpt>
      <trkpt lat="47.26052" lon="-2.43897">
        <ele>58</ele>
        <time>2020-02-13T10:30:33.000Z</time>
      </trkpt>
      <trkpt lat="47.26053" lon="-2.43909">
        <ele>58</ele>
        <time>2020-02-13T10:30:35.000Z</time>
      </trkpt>
      <trkpt lat="47.26056" lon="-2.43921">
        <ele>58</ele>
        <time>2020-02-13T10:30:37.000Z</time>
      </trkpt>
      <trkpt lat="47.26062" lon="-2.43946">
        <ele>58</ele>
        <time>2020-02-13T10:30:41.000Z</time>
      </trkpt>
      <trkpt lat="47.26061" lon="-2.43982">
        <ele>58</ele>
        <time>2020-02-13T10:30:47.000Z</time>
      </trkpt>
      <trkpt lat="47.26062" lon="-2.43986">
        <ele>58</ele>
        <time>2020-02-13T10:30:48.000Z</time>
      </trkpt>
      <trkpt lat="47.26067" lon="-2.43994">
        <ele>58</ele>
        <time>2020-02-13T10:30:50.000Z</time>
      </trkpt>
      <trkpt lat="47.26078" lon="-2.44017">
        <ele>58</ele>
        <time>2020-02-13T10:30:56.000Z</time>
      </trkpt>
      <trkpt lat="47.26082" lon="-2.44031">
        <ele>58</ele>
        <time>2020-02-13T10:30:59.000Z</time>
      </trkpt>
      <trkpt lat="47.26084" lon="-2.44043">
        <ele>58</ele>
        <time>2020-02-13T10:31:01.000Z</time>
      </trkpt>
      <trkpt lat="47.26092" lon="-2.44086">
        <ele>58.599998474121</ele>
        <time>2020-02-13T10:31:07.000Z</time>
      </trkpt>
      <trkpt lat="47.26093" lon="-2.44093">
        <ele>59</ele>
        <time>2020-02-13T10:31:08.000Z</time>
      </trkpt>
      <trkpt lat="47.26095" lon="-2.441">
        <ele>59.599998474121</ele>
        <time>2020-02-13T10:31:09.000Z</time>
      </trkpt>
      <trkpt lat="47.26097" lon="-2.44106">
        <ele>60</ele>
        <time>2020-02-13T10:31:10.000Z</time>
      </trkpt>
      <trkpt lat="47.26098" lon="-2.44113">
        <ele>60.599998474121</ele>
        <time>2020-02-13T10:31:11.000Z</time>
      </trkpt>
      <trkpt lat="47.26099" lon="-2.4412">
        <ele>61</ele>
        <time>2020-02-13T10:31:12.000Z</time>
      </trkpt>
      <trkpt lat="47.261" lon="-2.44126">
        <ele>61.599998474121</ele>
        <time>2020-02-13T10:31:13.000Z</time>
      </trkpt>
      <trkpt lat="47.26101" lon="-2.44132">
        <ele>62.200000762939</ele>
        <time>2020-02-13T10:31:14.000Z</time>
      </trkpt>
      <trkpt lat="47.26102" lon="-2.44138">
        <ele>62.599998474121</ele>
        <time>2020-02-13T10:31:15.000Z</time>
      </trkpt>
      <trkpt lat="47.26103" lon="-2.44144">
        <ele>63.200000762939</ele>
        <time>2020-02-13T10:31:16.000Z</time>
      </trkpt>
      <trkpt lat="47.26111" lon="-2.44177">
        <ele>63.200000762939</ele>
        <time>2020-02-13T10:31:21.000Z</time>
      </trkpt>
      <trkpt lat="47.26112" lon="-2.44184">
        <ele>63.799999237061</ele>
        <time>2020-02-13T10:31:22.000Z</time>
      </trkpt>
      <trkpt lat="47.26113" lon="-2.4419">
        <ele>64.400001525879</ele>
        <time>2020-02-13T10:31:23.000Z</time>
      </trkpt>
      <trkpt lat="47.26113" lon="-2.44197">
        <ele>65</ele>
        <time>2020-02-13T10:31:24.000Z</time>
      </trkpt>
      <trkpt lat="47.26113" lon="-2.44205">
        <ele>64.599998474121</ele>
        <time>2020-02-13T10:31:25.000Z</time>
      </trkpt>
      <trkpt lat="47.26114" lon="-2.44213">
        <ele>64.199996948242</ele>
        <time>2020-02-13T10:31:26.000Z</time>
      </trkpt>
      <trkpt lat="47.26115" lon="-2.44221">
        <ele>63.799999237061</ele>
        <time>2020-02-13T10:31:27.000Z</time>
      </trkpt>
      <trkpt lat="47.26116" lon="-2.44228">
        <ele>63.200000762939</ele>
        <time>2020-02-13T10:31:28.000Z</time>
      </trkpt>
      <trkpt lat="47.26116" lon="-2.44235">
        <ele>62.799999237061</ele>
        <time>2020-02-13T10:31:29.000Z</time>
      </trkpt>
      <trkpt lat="47.26118" lon="-2.44243">
        <ele>62.799999237061</ele>
        <time>2020-02-13T10:31:30.000Z</time>
      </trkpt>
      <trkpt lat="47.26121" lon="-2.44257">
        <ele>62.799999237061</ele>
        <time>2020-02-13T10:31:32.000Z</time>
      </trkpt>
      <trkpt lat="47.26123" lon="-2.44264">
        <ele>62.400001525879</ele>
        <time>2020-02-13T10:31:33.000Z</time>
      </trkpt>
      <trkpt lat="47.26125" lon="-2.44271">
        <ele>62</ele>
        <time>2020-02-13T10:31:34.000Z</time>
      </trkpt>
      <trkpt lat="47.26128" lon="-2.44277">
        <ele>61.599998474121</ele>
        <time>2020-02-13T10:31:35.000Z</time>
      </trkpt>
      <trkpt lat="47.2613" lon="-2.44284">
        <ele>61.200000762939</ele>
        <time>2020-02-13T10:31:36.000Z</time>
      </trkpt>
      <trkpt lat="47.26133" lon="-2.44291">
        <ele>60.799999237061</ele>
        <time>2020-02-13T10:31:37.000Z</time>
      </trkpt>
      <trkpt lat="47.26137" lon="-2.44304">
        <ele>60.799999237061</ele>
        <time>2020-02-13T10:31:39.000Z</time>
      </trkpt>
      <trkpt lat="47.26142" lon="-2.44316">
        <ele>60.799999237061</ele>
        <time>2020-02-13T10:31:41.000Z</time>
      </trkpt>
      <trkpt lat="47.2615" lon="-2.44325">
        <ele>60.400001525879</ele>
        <time>2020-02-13T10:31:43.000Z</time>
      </trkpt>
      <trkpt lat="47.26153" lon="-2.4433">
        <ele>59.799999237061</ele>
        <time>2020-02-13T10:31:44.000Z</time>
      </trkpt>
      <trkpt lat="47.26155" lon="-2.44336">
        <ele>59.400001525879</ele>
        <time>2020-02-13T10:31:45.000Z</time>
      </trkpt>
      <trkpt lat="47.26155" lon="-2.44343">
        <ele>58.599998474121</ele>
        <time>2020-02-13T10:31:46.000Z</time>
      </trkpt>
      <trkpt lat="47.26155" lon="-2.4435">
        <ele>58.599998474121</ele>
        <time>2020-02-13T10:31:47.000Z</time>
      </trkpt>
      <trkpt lat="47.26157" lon="-2.44366">
        <ele>58.599998474121</ele>
        <time>2020-02-13T10:31:49.000Z</time>
      </trkpt>
      <trkpt lat="47.2616" lon="-2.44379">
        <ele>58.599998474121</ele>
        <time>2020-02-13T10:31:51.000Z</time>
      </trkpt>
      <trkpt lat="47.26164" lon="-2.44389">
        <ele>58.599998474121</ele>
        <time>2020-02-13T10:31:53.000Z</time>
      </trkpt>
      <trkpt lat="47.26167" lon="-2.44395">
        <ele>58.599998474121</ele>
        <time>2020-02-13T10:31:54.000Z</time>
      </trkpt>
      <trkpt lat="47.2617" lon="-2.44401">
        <ele>58</ele>
        <time>2020-02-13T10:31:55.000Z</time>
      </trkpt>
      <trkpt lat="47.26173" lon="-2.44407">
        <ele>57.599998474121</ele>
        <time>2020-02-13T10:31:56.000Z</time>
      </trkpt>
      <trkpt lat="47.26176" lon="-2.44413">
        <ele>57</ele>
        <time>2020-02-13T10:31:57.000Z</time>
      </trkpt>
      <trkpt lat="47.26176" lon="-2.44419">
        <ele>56.599998474121</ele>
        <time>2020-02-13T10:31:58.000Z</time>
      </trkpt>
      <trkpt lat="47.26174" lon="-2.44425">
        <ele>56</ele>
        <time>2020-02-13T10:31:59.000Z</time>
      </trkpt>
      <trkpt lat="47.26165" lon="-2.44442">
        <ele>56</ele>
        <time>2020-02-13T10:32:02.000Z</time>
      </trkpt>
      <trkpt lat="47.2616" lon="-2.44468">
        <ele>56</ele>
        <time>2020-02-13T10:32:06.000Z</time>
      </trkpt>
      <trkpt lat="47.26159" lon="-2.44473">
        <ele>56.799999237061</ele>
        <time>2020-02-13T10:32:07.000Z</time>
      </trkpt>
      <trkpt lat="47.26159" lon="-2.44479">
        <ele>57.400001525879</ele>
        <time>2020-02-13T10:32:08.000Z</time>
      </trkpt>
      <trkpt lat="47.26159" lon="-2.44485">
        <ele>58</ele>
        <time>2020-02-13T10:32:09.000Z</time>
      </trkpt>
      <trkpt lat="47.26162" lon="-2.44489">
        <ele>59.400001525879</ele>
        <time>2020-02-13T10:32:10.000Z</time>
      </trkpt>
      <trkpt lat="47.26165" lon="-2.4449">
        <ele>59.400001525879</ele>
        <time>2020-02-13T10:32:11.000Z</time>
      </trkpt>
      <trkpt lat="47.26175" lon="-2.44483">
        <ele>59.799999237061</ele>
        <time>2020-02-13T10:32:14.000Z</time>
      </trkpt>
      <trkpt lat="47.26178" lon="-2.4448">
        <ele>60.200000762939</ele>
        <time>2020-02-13T10:32:15.000Z</time>
      </trkpt>
      <trkpt lat="47.26181" lon="-2.44476">
        <ele>60.799999237061</ele>
        <time>2020-02-13T10:32:16.000Z</time>
      </trkpt>
      <trkpt lat="47.26185" lon="-2.44473">
        <ele>61.200000762939</ele>
        <time>2020-02-13T10:32:17.000Z</time>
      </trkpt>
      <trkpt lat="47.26187" lon="-2.44471">
        <ele>61.599998474121</ele>
        <time>2020-02-13T10:32:18.000Z</time>
      </trkpt>
      <trkpt lat="47.2619" lon="-2.44469">
        <ele>62</ele>
        <time>2020-02-13T10:32:19.000Z</time>
      </trkpt>
      <trkpt lat="47.26193" lon="-2.44468">
        <ele>62.599998474121</ele>
        <time>2020-02-13T10:32:20.000Z</time>
      </trkpt>
      <trkpt lat="47.26196" lon="-2.4447">
        <ele>63</ele>
        <time>2020-02-13T10:32:21.000Z</time>
      </trkpt>
      <trkpt lat="47.26198" lon="-2.44474">
        <ele>63.400001525879</ele>
        <time>2020-02-13T10:32:22.000Z</time>
      </trkpt>
      <trkpt lat="47.26199" lon="-2.44479">
        <ele>64</ele>
        <time>2020-02-13T10:32:23.000Z</time>
      </trkpt>
      <trkpt lat="47.26202" lon="-2.44489">
        <ele>64</ele>
        <time>2020-02-13T10:32:25.000Z</time>
      </trkpt>
      <trkpt lat="47.26205" lon="-2.44499">
        <ele>63.400001525879</ele>
        <time>2020-02-13T10:32:27.000Z</time>
      </trkpt>
      <trkpt lat="47.26207" lon="-2.44504">
        <ele>63</ele>
        <time>2020-02-13T10:32:28.000Z</time>
      </trkpt>
      <trkpt lat="47.26208" lon="-2.44508">
        <ele>62.400001525879</ele>
        <time>2020-02-13T10:32:29.000Z</time>
      </trkpt>
      <trkpt lat="47.26209" lon="-2.44511">
        <ele>61.599998474121</ele>
        <time>2020-02-13T10:32:30.000Z</time>
      </trkpt>
      <trkpt lat="47.2621" lon="-2.44514">
        <ele>61</ele>
        <time>2020-02-13T10:32:31.000Z</time>
      </trkpt>
      <trkpt lat="47.2621" lon="-2.44518">
        <ele>60.200000762939</ele>
        <time>2020-02-13T10:32:32.000Z</time>
      </trkpt>
      <trkpt lat="47.26211" lon="-2.44521">
        <ele>59.599998474121</ele>
        <time>2020-02-13T10:32:33.000Z</time>
      </trkpt>
      <trkpt lat="47.2621" lon="-2.44524">
        <ele>59.599998474121</ele>
        <time>2020-02-13T10:32:35.000Z</time>
      </trkpt>
      <trkpt lat="47.26208" lon="-2.44524">
        <ele>58.599998474121</ele>
        <time>2020-02-13T10:32:36.000Z</time>
      </trkpt>
      <trkpt lat="47.26208" lon="-2.44524">
        <ele>57.599998474121</ele>
        <time>2020-02-13T10:32:37.000Z</time>
      </trkpt>
      <trkpt lat="47.26207" lon="-2.44524">
        <ele>56.799999237061</ele>
        <time>2020-02-13T10:32:38.000Z</time>
      </trkpt>
      <trkpt lat="47.26206" lon="-2.44524">
        <ele>56</ele>
        <time>2020-02-13T10:32:39.000Z</time>
      </trkpt>
      <trkpt lat="47.26203" lon="-2.44526">
        <ele>55.200000762939</ele>
        <time>2020-02-13T10:32:40.000Z</time>
      </trkpt>
      <trkpt lat="47.26201" lon="-2.44529">
        <ele>54.400001525879</ele>
        <time>2020-02-13T10:32:41.000Z</time>
      </trkpt>
      <trkpt lat="47.26197" lon="-2.44545">
        <ele>54.400001525879</ele>
        <time>2020-02-13T10:32:44.000Z</time>
      </trkpt>
      <trkpt lat="47.26193" lon="-2.44562">
        <ele>54.400001525879</ele>
        <time>2020-02-13T10:32:47.000Z</time>
      </trkpt>
      <trkpt lat="47.26192" lon="-2.44567">
        <ele>54.799999237061</ele>
        <time>2020-02-13T10:32:48.000Z</time>
      </trkpt>
      <trkpt lat="47.26192" lon="-2.44571">
        <ele>55.200000762939</ele>
        <time>2020-02-13T10:32:49.000Z</time>
      </trkpt>
      <trkpt lat="47.26192" lon="-2.44574">
        <ele>55.599998474121</ele>
        <time>2020-02-13T10:32:50.000Z</time>
      </trkpt>
      <trkpt lat="47.26193" lon="-2.44576">
        <ele>56</ele>
        <time>2020-02-13T10:32:51.000Z</time>
      </trkpt>
      <trkpt lat="47.26195" lon="-2.44578">
        <ele>56.400001525879</ele>
        <time>2020-02-13T10:32:52.000Z</time>
      </trkpt>
      <trkpt lat="47.26201" lon="-2.44583">
        <ele>56.400001525879</ele>
        <time>2020-02-13T10:32:55.000Z</time>
      </trkpt>
      <trkpt lat="47.26201" lon="-2.44585">
        <ele>55.799999237061</ele>
        <time>2020-02-13T10:32:57.000Z</time>
      </trkpt>
      <trkpt lat="47.26201" lon="-2.44587">
        <ele>55.200000762939</ele>
        <time>2020-02-13T10:32:58.000Z</time>
      </trkpt>
      <trkpt lat="47.26201" lon="-2.44592">
        <ele>54.799999237061</ele>
        <time>2020-02-13T10:32:59.000Z</time>
      </trkpt>
      <trkpt lat="47.26202" lon="-2.44598">
        <ele>54.200000762939</ele>
        <time>2020-02-13T10:33:00.000Z</time>
      </trkpt>
      <trkpt lat="47.26202" lon="-2.44605">
        <ele>53.599998474121</ele>
        <time>2020-02-13T10:33:01.000Z</time>
      </trkpt>
      <trkpt lat="47.26204" lon="-2.44618">
        <ele>54.200000762939</ele>
        <time>2020-02-13T10:33:03.000Z</time>
      </trkpt>
      <trkpt lat="47.26205" lon="-2.44624">
        <ele>54.799999237061</ele>
        <time>2020-02-13T10:33:04.000Z</time>
      </trkpt>
      <trkpt lat="47.26206" lon="-2.4463">
        <ele>55.400001525879</ele>
        <time>2020-02-13T10:33:05.000Z</time>
      </trkpt>
      <trkpt lat="47.26208" lon="-2.44635">
        <ele>56.200000762939</ele>
        <time>2020-02-13T10:33:06.000Z</time>
      </trkpt>
      <trkpt lat="47.26209" lon="-2.4464">
        <ele>57</ele>
        <time>2020-02-13T10:33:07.000Z</time>
      </trkpt>
      <trkpt lat="47.2621" lon="-2.44646">
        <ele>57.599998474121</ele>
        <time>2020-02-13T10:33:08.000Z</time>
      </trkpt>
      <trkpt lat="47.2621" lon="-2.44651">
        <ele>58.400001525879</ele>
        <time>2020-02-13T10:33:09.000Z</time>
      </trkpt>
      <trkpt lat="47.26211" lon="-2.44656">
        <ele>59</ele>
        <time>2020-02-13T10:33:10.000Z</time>
      </trkpt>
      <trkpt lat="47.26211" lon="-2.44662">
        <ele>59.799999237061</ele>
        <time>2020-02-13T10:33:11.000Z</time>
      </trkpt>
      <trkpt lat="47.26212" lon="-2.44669">
        <ele>60.400001525879</ele>
        <time>2020-02-13T10:33:12.000Z</time>
      </trkpt>
      <trkpt lat="47.26216" lon="-2.44685">
        <ele>60.400001525879</ele>
        <time>2020-02-13T10:33:15.000Z</time>
      </trkpt>
      <trkpt lat="47.2622" lon="-2.44707">
        <ele>60.400001525879</ele>
        <time>2020-02-13T10:33:19.000Z</time>
      </trkpt>
      <trkpt lat="47.26223" lon="-2.44719">
        <ele>60</ele>
        <time>2020-02-13T10:33:21.000Z</time>
      </trkpt>
      <trkpt lat="47.26224" lon="-2.44725">
        <ele>59.400001525879</ele>
        <time>2020-02-13T10:33:22.000Z</time>
      </trkpt>
      <trkpt lat="47.26226" lon="-2.4473">
        <ele>59.599998474121</ele>
        <time>2020-02-13T10:33:23.000Z</time>
      </trkpt>
      <trkpt lat="47.26227" lon="-2.44735">
        <ele>59.799999237061</ele>
        <time>2020-02-13T10:33:24.000Z</time>
      </trkpt>
      <trkpt lat="47.26229" lon="-2.4474">
        <ele>60.200000762939</ele>
        <time>2020-02-13T10:33:25.000Z</time>
      </trkpt>
      <trkpt lat="47.26231" lon="-2.44745">
        <ele>60.400001525879</ele>
        <time>2020-02-13T10:33:26.000Z</time>
      </trkpt>
      <trkpt lat="47.26232" lon="-2.4475">
        <ele>60</ele>
        <time>2020-02-13T10:33:27.000Z</time>
      </trkpt>
      <trkpt lat="47.26235" lon="-2.44755">
        <ele>59.599998474121</ele>
        <time>2020-02-13T10:33:28.000Z</time>
      </trkpt>
      <trkpt lat="47.26237" lon="-2.4476">
        <ele>59.200000762939</ele>
        <time>2020-02-13T10:33:29.000Z</time>
      </trkpt>
      <trkpt lat="47.26238" lon="-2.44766">
        <ele>58.799999237061</ele>
        <time>2020-02-13T10:33:30.000Z</time>
      </trkpt>
      <trkpt lat="47.2624" lon="-2.44771">
        <ele>58.400001525879</ele>
        <time>2020-02-13T10:33:31.000Z</time>
      </trkpt>
      <trkpt lat="47.26242" lon="-2.44777">
        <ele>58.400001525879</ele>
        <time>2020-02-13T10:33:32.000Z</time>
      </trkpt>
      <trkpt lat="47.26246" lon="-2.44787">
        <ele>58.400001525879</ele>
        <time>2020-02-13T10:33:34.000Z</time>
      </trkpt>
      <trkpt lat="47.26252" lon="-2.44804">
        <ele>58</ele>
        <time>2020-02-13T10:33:37.000Z</time>
      </trkpt>
      <trkpt lat="47.26254" lon="-2.4481">
        <ele>57.400001525879</ele>
        <time>2020-02-13T10:33:38.000Z</time>
      </trkpt>
      <trkpt lat="47.26256" lon="-2.44817">
        <ele>56.799999237061</ele>
        <time>2020-02-13T10:33:39.000Z</time>
      </trkpt>
      <trkpt lat="47.26259" lon="-2.44823">
        <ele>56.200000762939</ele>
        <time>2020-02-13T10:33:40.000Z</time>
      </trkpt>
      <trkpt lat="47.26261" lon="-2.4483">
        <ele>55.799999237061</ele>
        <time>2020-02-13T10:33:41.000Z</time>
      </trkpt>
      <trkpt lat="47.26273" lon="-2.44856">
        <ele>55.799999237061</ele>
        <time>2020-02-13T10:33:45.000Z</time>
      </trkpt>
      <trkpt lat="47.26283" lon="-2.44872">
        <ele>55.799999237061</ele>
        <time>2020-02-13T10:33:48.000Z</time>
      </trkpt>
      <trkpt lat="47.26291" lon="-2.4488">
        <ele>55.799999237061</ele>
        <time>2020-02-13T10:33:50.000Z</time>
      </trkpt>
      <trkpt lat="47.26302" lon="-2.44892">
        <ele>55.799999237061</ele>
        <time>2020-02-13T10:33:53.000Z</time>
      </trkpt>
      <trkpt lat="47.26312" lon="-2.44896">
        <ele>55.799999237061</ele>
        <time>2020-02-13T10:33:55.000Z</time>
      </trkpt>
      <trkpt lat="47.26344" lon="-2.44907">
        <ele>55.799999237061</ele>
        <time>2020-02-13T10:34:02.000Z</time>
      </trkpt>
      <trkpt lat="47.26362" lon="-2.44915">
        <ele>55.799999237061</ele>
        <time>2020-02-13T10:34:07.000Z</time>
      </trkpt>
      <trkpt lat="47.26365" lon="-2.44916">
        <ele>55.799999237061</ele>
        <time>2020-02-13T10:34:11.000Z</time>
      </trkpt>
      <trkpt lat="47.26367" lon="-2.44919">
        <ele>53.599998474121</ele>
        <time>2020-02-13T10:34:50.000Z</time>
      </trkpt>
      <trkpt lat="47.26368" lon="-2.44921">
        <ele>53.599998474121</ele>
        <time>2020-02-13T10:34:51.000Z</time>
      </trkpt>
      <trkpt lat="47.2637" lon="-2.44923">
        <ele>53.599998474121</ele>
        <time>2020-02-13T10:34:53.000Z</time>
      </trkpt>
      <trkpt lat="47.26372" lon="-2.44925">
        <ele>54</ele>
        <time>2020-02-13T10:34:54.000Z</time>
      </trkpt>
      <trkpt lat="47.26373" lon="-2.44926">
        <ele>54.599998474121</ele>
        <time>2020-02-13T10:34:55.000Z</time>
      </trkpt>
      <trkpt lat="47.26374" lon="-2.44928">
        <ele>55</ele>
        <time>2020-02-13T10:34:56.000Z</time>
      </trkpt>
      <trkpt lat="47.26375" lon="-2.44929">
        <ele>55.400001525879</ele>
        <time>2020-02-13T10:34:57.000Z</time>
      </trkpt>
      <trkpt lat="47.26377" lon="-2.44931">
        <ele>56</ele>
        <time>2020-02-13T10:34:58.000Z</time>
      </trkpt>
      <trkpt lat="47.2638" lon="-2.44936">
        <ele>56</ele>
        <time>2020-02-13T10:35:00.000Z</time>
      </trkpt>
      <trkpt lat="47.26384" lon="-2.44938">
        <ele>56</ele>
        <time>2020-02-13T10:35:02.000Z</time>
      </trkpt>
      <trkpt lat="47.26388" lon="-2.44936">
        <ele>56</ele>
        <time>2020-02-13T10:35:04.000Z</time>
      </trkpt>
      <trkpt lat="47.26393" lon="-2.44918">
        <ele>56</ele>
        <time>2020-02-13T10:35:08.000Z</time>
      </trkpt>
      <trkpt lat="47.264" lon="-2.44899">
        <ele>55.599998474121</ele>
        <time>2020-02-13T10:35:12.000Z</time>
      </trkpt>
      <trkpt lat="47.26404" lon="-2.44895">
        <ele>55.200000762939</ele>
        <time>2020-02-13T10:35:13.000Z</time>
      </trkpt>
      <trkpt lat="47.26408" lon="-2.44892">
        <ele>54.599998474121</ele>
        <time>2020-02-13T10:35:14.000Z</time>
      </trkpt>
      <trkpt lat="47.26411" lon="-2.44889">
        <ele>54.200000762939</ele>
        <time>2020-02-13T10:35:15.000Z</time>
      </trkpt>
      <trkpt lat="47.26415" lon="-2.44886">
        <ele>53.799999237061</ele>
        <time>2020-02-13T10:35:16.000Z</time>
      </trkpt>
      <trkpt lat="47.26418" lon="-2.44882">
        <ele>53.799999237061</ele>
        <time>2020-02-13T10:35:17.000Z</time>
      </trkpt>
      <trkpt lat="47.26426" lon="-2.44876">
        <ele>53.799999237061</ele>
        <time>2020-02-13T10:35:19.000Z</time>
      </trkpt>
      <trkpt lat="47.26433" lon="-2.44868">
        <ele>53.799999237061</ele>
        <time>2020-02-13T10:35:21.000Z</time>
      </trkpt>
      <trkpt lat="47.26465" lon="-2.44841">
        <ele>53.799999237061</ele>
        <time>2020-02-13T10:35:28.000Z</time>
      </trkpt>
      <trkpt lat="47.2647" lon="-2.44837">
        <ele>54.799999237061</ele>
        <time>2020-02-13T10:35:29.000Z</time>
      </trkpt>
      <trkpt lat="47.26474" lon="-2.44833">
        <ele>55.400001525879</ele>
        <time>2020-02-13T10:35:30.000Z</time>
      </trkpt>
      <trkpt lat="47.26478" lon="-2.44829">
        <ele>55.799999237061</ele>
        <time>2020-02-13T10:35:31.000Z</time>
      </trkpt>
      <trkpt lat="47.26482" lon="-2.44825">
        <ele>56.400001525879</ele>
        <time>2020-02-13T10:35:32.000Z</time>
      </trkpt>
      <trkpt lat="47.26494" lon="-2.44814">
        <ele>56.400001525879</ele>
        <time>2020-02-13T10:35:35.000Z</time>
      </trkpt>
      <trkpt lat="47.26526" lon="-2.44777">
        <ele>56.400001525879</ele>
        <time>2020-02-13T10:35:43.000Z</time>
      </trkpt>
      <trkpt lat="47.26554" lon="-2.44736">
        <ele>56.400001525879</ele>
        <time>2020-02-13T10:35:51.000Z</time>
      </trkpt>
      <trkpt lat="47.26579" lon="-2.44695">
        <ele>56.400001525879</ele>
        <time>2020-02-13T10:35:58.000Z</time>
      </trkpt>
      <trkpt lat="47.26586" lon="-2.44682">
        <ele>56.400001525879</ele>
        <time>2020-02-13T10:36:00.000Z</time>
      </trkpt>
      <trkpt lat="47.26601" lon="-2.44657">
        <ele>56.400001525879</ele>
        <time>2020-02-13T10:36:04.000Z</time>
      </trkpt>
      <trkpt lat="47.26629" lon="-2.44609">
        <ele>56.400001525879</ele>
        <time>2020-02-13T10:36:11.000Z</time>
      </trkpt>
      <trkpt lat="47.26646" lon="-2.44583">
        <ele>56.400001525879</ele>
        <time>2020-02-13T10:36:15.000Z</time>
      </trkpt>
      <trkpt lat="47.26653" lon="-2.44569">
        <ele>56.400001525879</ele>
        <time>2020-02-13T10:36:17.000Z</time>
      </trkpt>
      <trkpt lat="47.2666" lon="-2.44555">
        <ele>56.400001525879</ele>
        <time>2020-02-13T10:36:19.000Z</time>
      </trkpt>
      <trkpt lat="47.26673" lon="-2.44525">
        <ele>56.400001525879</ele>
        <time>2020-02-13T10:36:23.000Z</time>
      </trkpt>
      <trkpt lat="47.26676" lon="-2.44516">
        <ele>56.400001525879</ele>
        <time>2020-02-13T10:36:24.000Z</time>
      </trkpt>
      <trkpt lat="47.26691" lon="-2.44471">
        <ele>56.400001525879</ele>
        <time>2020-02-13T10:36:29.000Z</time>
      </trkpt>
      <trkpt lat="47.26707" lon="-2.44428">
        <ele>56.400001525879</ele>
        <time>2020-02-13T10:36:34.000Z</time>
      </trkpt>
      <trkpt lat="47.26722" lon="-2.44373">
        <ele>56.400001525879</ele>
        <time>2020-02-13T10:36:40.000Z</time>
      </trkpt>
      <trkpt lat="47.26742" lon="-2.44303">
        <ele>56.400001525879</ele>
        <time>2020-02-13T10:36:48.000Z</time>
      </trkpt>
      <trkpt lat="47.26746" lon="-2.44286">
        <ele>56.400001525879</ele>
        <time>2020-02-13T10:36:50.000Z</time>
      </trkpt>
      <trkpt lat="47.26756" lon="-2.44254">
        <ele>56.400001525879</ele>
        <time>2020-02-13T10:36:54.000Z</time>
      </trkpt>
      <trkpt lat="47.2677" lon="-2.44198">
        <ele>56.799999237061</ele>
        <time>2020-02-13T10:37:01.000Z</time>
      </trkpt>
      <trkpt lat="47.26772" lon="-2.44191">
        <ele>57.400001525879</ele>
        <time>2020-02-13T10:37:02.000Z</time>
      </trkpt>
      <trkpt lat="47.26774" lon="-2.44183">
        <ele>57.799999237061</ele>
        <time>2020-02-13T10:37:03.000Z</time>
      </trkpt>
      <trkpt lat="47.26776" lon="-2.44175">
        <ele>58.200000762939</ele>
        <time>2020-02-13T10:37:04.000Z</time>
      </trkpt>
      <trkpt lat="47.26778" lon="-2.44167">
        <ele>58.799999237061</ele>
        <time>2020-02-13T10:37:05.000Z</time>
      </trkpt>
      <trkpt lat="47.26784" lon="-2.44145">
        <ele>58.799999237061</ele>
        <time>2020-02-13T10:37:08.000Z</time>
      </trkpt>
      <trkpt lat="47.26791" lon="-2.44112">
        <ele>58.799999237061</ele>
        <time>2020-02-13T10:37:13.000Z</time>
      </trkpt>
      <trkpt lat="47.26792" lon="-2.44106">
        <ele>58.799999237061</ele>
        <time>2020-02-13T10:37:14.000Z</time>
      </trkpt>
      <trkpt lat="47.26789" lon="-2.44078">
        <ele>58.799999237061</ele>
        <time>2020-02-13T10:37:18.000Z</time>
      </trkpt>
      <trkpt lat="47.26787" lon="-2.44071">
        <ele>58.799999237061</ele>
        <time>2020-02-13T10:37:19.000Z</time>
      </trkpt>
      <trkpt lat="47.26784" lon="-2.44063">
        <ele>58.200000762939</ele>
        <time>2020-02-13T10:37:20.000Z</time>
      </trkpt>
      <trkpt lat="47.2678" lon="-2.44056">
        <ele>57.799999237061</ele>
        <time>2020-02-13T10:37:21.000Z</time>
      </trkpt>
      <trkpt lat="47.26777" lon="-2.44048">
        <ele>57.400001525879</ele>
        <time>2020-02-13T10:37:22.000Z</time>
      </trkpt>
      <trkpt lat="47.26774" lon="-2.44039">
        <ele>56.799999237061</ele>
        <time>2020-02-13T10:37:23.000Z</time>
      </trkpt>
      <trkpt lat="47.2677" lon="-2.44031">
        <ele>56.400001525879</ele>
        <time>2020-02-13T10:37:24.000Z</time>
      </trkpt>
      <trkpt lat="47.26763" lon="-2.44014">
        <ele>56.400001525879</ele>
        <time>2020-02-13T10:37:26.000Z</time>
      </trkpt>
      <trkpt lat="47.26745" lon="-2.43964">
        <ele>56.400001525879</ele>
        <time>2020-02-13T10:37:32.000Z</time>
      </trkpt>
      <trkpt lat="47.26726" lon="-2.43913">
        <ele>56.400001525879</ele>
        <time>2020-02-13T10:37:39.000Z</time>
      </trkpt>
      <trkpt lat="47.26713" lon="-2.43878">
        <ele>56.400001525879</ele>
        <time>2020-02-13T10:37:44.000Z</time>
      </trkpt>
      <trkpt lat="47.2671" lon="-2.43872">
        <ele>57</ele>
        <time>2020-02-13T10:37:45.000Z</time>
      </trkpt>
      <trkpt lat="47.26708" lon="-2.43867">
        <ele>57.400001525879</ele>
        <time>2020-02-13T10:37:46.000Z</time>
      </trkpt>
      <trkpt lat="47.26704" lon="-2.43863">
        <ele>58</ele>
        <time>2020-02-13T10:37:47.000Z</time>
      </trkpt>
      <trkpt lat="47.26702" lon="-2.43858">
        <ele>58.599998474121</ele>
        <time>2020-02-13T10:37:48.000Z</time>
      </trkpt>
      <trkpt lat="47.26699" lon="-2.43852">
        <ele>59.200000762939</ele>
        <time>2020-02-13T10:37:49.000Z</time>
      </trkpt>
      <trkpt lat="47.26698" lon="-2.43845">
        <ele>59.200000762939</ele>
        <time>2020-02-13T10:37:50.000Z</time>
      </trkpt>
      <trkpt lat="47.26695" lon="-2.43837">
        <ele>59.200000762939</ele>
        <time>2020-02-13T10:37:51.000Z</time>
      </trkpt>
      <trkpt lat="47.26692" lon="-2.4383">
        <ele>59.200000762939</ele>
        <time>2020-02-13T10:37:52.000Z</time>
      </trkpt>
      <trkpt lat="47.26683" lon="-2.43816">
        <ele>59.200000762939</ele>
        <time>2020-02-13T10:37:54.000Z</time>
      </trkpt>
      <trkpt lat="47.26659" lon="-2.43778">
        <ele>58.799999237061</ele>
        <time>2020-02-13T10:38:00.000Z</time>
      </trkpt>
      <trkpt lat="47.26655" lon="-2.43772">
        <ele>58.200000762939</ele>
        <time>2020-02-13T10:38:01.000Z</time>
      </trkpt>
      <trkpt lat="47.26651" lon="-2.43765">
        <ele>57.799999237061</ele>
        <time>2020-02-13T10:38:02.000Z</time>
      </trkpt>
      <trkpt lat="47.26647" lon="-2.43759">
        <ele>57.400001525879</ele>
        <time>2020-02-13T10:38:03.000Z</time>
      </trkpt>
      <trkpt lat="47.26643" lon="-2.43752">
        <ele>57</ele>
        <time>2020-02-13T10:38:04.000Z</time>
      </trkpt>
      <trkpt lat="47.26619" lon="-2.43714">
        <ele>57</ele>
        <time>2020-02-13T10:38:10.000Z</time>
      </trkpt>
      <trkpt lat="47.26599" lon="-2.43678">
        <ele>57</ele>
        <time>2020-02-13T10:38:15.000Z</time>
      </trkpt>
      <trkpt lat="47.26596" lon="-2.4367">
        <ele>57</ele>
        <time>2020-02-13T10:38:16.000Z</time>
      </trkpt>
      <trkpt lat="47.26592" lon="-2.43661">
        <ele>56.599998474121</ele>
        <time>2020-02-13T10:38:17.000Z</time>
      </trkpt>
      <trkpt lat="47.26589" lon="-2.43653">
        <ele>56.200000762939</ele>
        <time>2020-02-13T10:38:18.000Z</time>
      </trkpt>
      <trkpt lat="47.26586" lon="-2.43644">
        <ele>55.599998474121</ele>
        <time>2020-02-13T10:38:19.000Z</time>
      </trkpt>
      <trkpt lat="47.26584" lon="-2.43635">
        <ele>55.200000762939</ele>
        <time>2020-02-13T10:38:20.000Z</time>
      </trkpt>
      <trkpt lat="47.26582" lon="-2.43626">
        <ele>54.799999237061</ele>
        <time>2020-02-13T10:38:21.000Z</time>
      </trkpt>
      <trkpt lat="47.2658" lon="-2.43616">
        <ele>54.799999237061</ele>
        <time>2020-02-13T10:38:22.000Z</time>
      </trkpt>
      <trkpt lat="47.26569" lon="-2.43552">
        <ele>54.799999237061</ele>
        <time>2020-02-13T10:38:29.000Z</time>
      </trkpt>
      <trkpt lat="47.26554" lon="-2.43477">
        <ele>54.799999237061</ele>
        <time>2020-02-13T10:38:37.000Z</time>
      </trkpt>
      <trkpt lat="47.26535" lon="-2.43427">
        <ele>54.799999237061</ele>
        <time>2020-02-13T10:38:43.000Z</time>
      </trkpt>
      <trkpt lat="47.26534" lon="-2.43419">
        <ele>54.799999237061</ele>
        <time>2020-02-13T10:38:44.000Z</time>
      </trkpt>
      <trkpt lat="47.26537" lon="-2.43404">
        <ele>54.799999237061</ele>
        <time>2020-02-13T10:38:46.000Z</time>
      </trkpt>
      <trkpt lat="47.26551" lon="-2.4339">
        <ele>54.799999237061</ele>
        <time>2020-02-13T10:38:49.000Z</time>
      </trkpt>
      <trkpt lat="47.26557" lon="-2.43386">
        <ele>54.799999237061</ele>
        <time>2020-02-13T10:38:50.000Z</time>
      </trkpt>
      <trkpt lat="47.26591" lon="-2.43364">
        <ele>54.799999237061</ele>
        <time>2020-02-13T10:38:56.000Z</time>
      </trkpt>
      <trkpt lat="47.26597" lon="-2.4336">
        <ele>54.400001525879</ele>
        <time>2020-02-13T10:38:57.000Z</time>
      </trkpt>
      <trkpt lat="47.26604" lon="-2.43357">
        <ele>54</ele>
        <time>2020-02-13T10:38:58.000Z</time>
      </trkpt>
      <trkpt lat="47.2661" lon="-2.43354">
        <ele>53.599998474121</ele>
        <time>2020-02-13T10:38:59.000Z</time>
      </trkpt>
      <trkpt lat="47.26616" lon="-2.4335">
        <ele>53</ele>
        <time>2020-02-13T10:39:00.000Z</time>
      </trkpt>
      <trkpt lat="47.26622" lon="-2.43347">
        <ele>52.599998474121</ele>
        <time>2020-02-13T10:39:01.000Z</time>
      </trkpt>
      <trkpt lat="47.26668" lon="-2.43323">
        <ele>52.599998474121</ele>
        <time>2020-02-13T10:39:08.000Z</time>
      </trkpt>
      <trkpt lat="47.26708" lon="-2.43306">
        <ele>52.200000762939</ele>
        <time>2020-02-13T10:39:14.000Z</time>
      </trkpt>
      <trkpt lat="47.26714" lon="-2.43303">
        <ele>51.799999237061</ele>
        <time>2020-02-13T10:39:15.000Z</time>
      </trkpt>
      <trkpt lat="47.2672" lon="-2.43301">
        <ele>51.400001525879</ele>
        <time>2020-02-13T10:39:16.000Z</time>
      </trkpt>
      <trkpt lat="47.26727" lon="-2.43298">
        <ele>51</ele>
        <time>2020-02-13T10:39:17.000Z</time>
      </trkpt>
      <trkpt lat="47.26733" lon="-2.43295">
        <ele>50.599998474121</ele>
        <time>2020-02-13T10:39:18.000Z</time>
      </trkpt>
      <trkpt lat="47.26763" lon="-2.43281">
        <ele>50.599998474121</ele>
        <time>2020-02-13T10:39:23.000Z</time>
      </trkpt>
      <trkpt lat="47.26798" lon="-2.43266">
        <ele>50.599998474121</ele>
        <time>2020-02-13T10:39:29.000Z</time>
      </trkpt>
      <trkpt lat="47.26805" lon="-2.43247">
        <ele>50.599998474121</ele>
        <time>2020-02-13T10:39:32.000Z</time>
      </trkpt>
      <trkpt lat="47.26801" lon="-2.43223">
        <ele>50.599998474121</ele>
        <time>2020-02-13T10:39:35.000Z</time>
      </trkpt>
      <trkpt lat="47.26786" lon="-2.4317">
        <ele>50.599998474121</ele>
        <time>2020-02-13T10:39:41.000Z</time>
      </trkpt>
      <trkpt lat="47.2678" lon="-2.43152">
        <ele>50.200000762939</ele>
        <time>2020-02-13T10:39:43.000Z</time>
      </trkpt>
      <trkpt lat="47.26776" lon="-2.43144">
        <ele>49.799999237061</ele>
        <time>2020-02-13T10:39:44.000Z</time>
      </trkpt>
      <trkpt lat="47.26772" lon="-2.43135">
        <ele>49.400001525879</ele>
        <time>2020-02-13T10:39:45.000Z</time>
      </trkpt>
      <trkpt lat="47.26769" lon="-2.43127">
        <ele>49</ele>
        <time>2020-02-13T10:39:46.000Z</time>
      </trkpt>
      <trkpt lat="47.26765" lon="-2.43119">
        <ele>48.599998474121</ele>
        <time>2020-02-13T10:39:47.000Z</time>
      </trkpt>
      <trkpt lat="47.26756" lon="-2.43096">
        <ele>48.200000762939</ele>
        <time>2020-02-13T10:39:50.000Z</time>
      </trkpt>
      <trkpt lat="47.26753" lon="-2.43089">
        <ele>47.799999237061</ele>
        <time>2020-02-13T10:39:51.000Z</time>
      </trkpt>
      <trkpt lat="47.2675" lon="-2.43084">
        <ele>47.200000762939</ele>
        <time>2020-02-13T10:39:52.000Z</time>
      </trkpt>
      <trkpt lat="47.26746" lon="-2.43079">
        <ele>46.799999237061</ele>
        <time>2020-02-13T10:39:53.000Z</time>
      </trkpt>
      <trkpt lat="47.26743" lon="-2.43074">
        <ele>47.200000762939</ele>
        <time>2020-02-13T10:39:54.000Z</time>
      </trkpt>
      <trkpt lat="47.26741" lon="-2.43067">
        <ele>47.400001525879</ele>
        <time>2020-02-13T10:39:55.000Z</time>
      </trkpt>
      <trkpt lat="47.26743" lon="-2.43062">
        <ele>47.799999237061</ele>
        <time>2020-02-13T10:39:56.000Z</time>
      </trkpt>
      <trkpt lat="47.26747" lon="-2.43059">
        <ele>48.200000762939</ele>
        <time>2020-02-13T10:39:57.000Z</time>
      </trkpt>
      <trkpt lat="47.26752" lon="-2.4306">
        <ele>48.400001525879</ele>
        <time>2020-02-13T10:39:58.000Z</time>
      </trkpt>
      <trkpt lat="47.26757" lon="-2.4306">
        <ele>48.400001525879</ele>
        <time>2020-02-13T10:39:59.000Z</time>
      </trkpt>
      <trkpt lat="47.26763" lon="-2.43058">
        <ele>48.400001525879</ele>
        <time>2020-02-13T10:40:00.000Z</time>
      </trkpt>
      <trkpt lat="47.26775" lon="-2.43053">
        <ele>48.400001525879</ele>
        <time>2020-02-13T10:40:02.000Z</time>
      </trkpt>
      <trkpt lat="47.26812" lon="-2.43034">
        <ele>49</ele>
        <time>2020-02-13T10:40:08.000Z</time>
      </trkpt>
      <trkpt lat="47.26818" lon="-2.4303">
        <ele>49.400001525879</ele>
        <time>2020-02-13T10:40:09.000Z</time>
      </trkpt>
      <trkpt lat="47.26823" lon="-2.43027">
        <ele>49.799999237061</ele>
        <time>2020-02-13T10:40:10.000Z</time>
      </trkpt>
      <trkpt lat="47.26829" lon="-2.43022">
        <ele>50.200000762939</ele>
        <time>2020-02-13T10:40:11.000Z</time>
      </trkpt>
      <trkpt lat="47.26835" lon="-2.43019">
        <ele>49.799999237061</ele>
        <time>2020-02-13T10:40:12.000Z</time>
      </trkpt>
      <trkpt lat="47.26841" lon="-2.43016">
        <ele>49.400001525879</ele>
        <time>2020-02-13T10:40:13.000Z</time>
      </trkpt>
      <trkpt lat="47.26847" lon="-2.43012">
        <ele>49</ele>
        <time>2020-02-13T10:40:14.000Z</time>
      </trkpt>
      <trkpt lat="47.26853" lon="-2.43009">
        <ele>48.599998474121</ele>
        <time>2020-02-13T10:40:15.000Z</time>
      </trkpt>
      <trkpt lat="47.26859" lon="-2.43005">
        <ele>48.200000762939</ele>
        <time>2020-02-13T10:40:16.000Z</time>
      </trkpt>
      <trkpt lat="47.26865" lon="-2.43002">
        <ele>47.799999237061</ele>
        <time>2020-02-13T10:40:17.000Z</time>
      </trkpt>
      <trkpt lat="47.26871" lon="-2.42998">
        <ele>47.400001525879</ele>
        <time>2020-02-13T10:40:18.000Z</time>
      </trkpt>
      <trkpt lat="47.26877" lon="-2.42994">
        <ele>47</ele>
        <time>2020-02-13T10:40:19.000Z</time>
      </trkpt>
      <trkpt lat="47.26883" lon="-2.42991">
        <ele>46.599998474121</ele>
        <time>2020-02-13T10:40:20.000Z</time>
      </trkpt>
      <trkpt lat="47.26887" lon="-2.42987">
        <ele>46.200000762939</ele>
        <time>2020-02-13T10:40:21.000Z</time>
      </trkpt>
      <trkpt lat="47.26891" lon="-2.42973">
        <ele>46.200000762939</ele>
        <time>2020-02-13T10:40:23.000Z</time>
      </trkpt>
      <trkpt lat="47.26885" lon="-2.4295">
        <ele>46.200000762939</ele>
        <time>2020-02-13T10:40:26.000Z</time>
      </trkpt>
      <trkpt lat="47.26883" lon="-2.42942">
        <ele>46.200000762939</ele>
        <time>2020-02-13T10:40:27.000Z</time>
      </trkpt>
      <trkpt lat="47.2688" lon="-2.42928">
        <ele>46.200000762939</ele>
        <time>2020-02-13T10:40:29.000Z</time>
      </trkpt>
      <trkpt lat="47.26883" lon="-2.42914">
        <ele>46.200000762939</ele>
        <time>2020-02-13T10:40:31.000Z</time>
      </trkpt>
      <trkpt lat="47.26896" lon="-2.42901">
        <ele>46.200000762939</ele>
        <time>2020-02-13T10:40:34.000Z</time>
      </trkpt>
      <trkpt lat="47.26902" lon="-2.42896">
        <ele>46.200000762939</ele>
        <time>2020-02-13T10:40:35.000Z</time>
      </trkpt>
      <trkpt lat="47.26909" lon="-2.42893">
        <ele>46.200000762939</ele>
        <time>2020-02-13T10:40:36.000Z</time>
      </trkpt>
      <trkpt lat="47.26916" lon="-2.4289">
        <ele>46.599998474121</ele>
        <time>2020-02-13T10:40:37.000Z</time>
      </trkpt>
      <trkpt lat="47.26922" lon="-2.42887">
        <ele>47</ele>
        <time>2020-02-13T10:40:38.000Z</time>
      </trkpt>
      <trkpt lat="47.26929" lon="-2.42883">
        <ele>47.400001525879</ele>
        <time>2020-02-13T10:40:39.000Z</time>
      </trkpt>
      <trkpt lat="47.26935" lon="-2.42881">
        <ele>47.799999237061</ele>
        <time>2020-02-13T10:40:40.000Z</time>
      </trkpt>
      <trkpt lat="47.26941" lon="-2.42878">
        <ele>48.200000762939</ele>
        <time>2020-02-13T10:40:41.000Z</time>
      </trkpt>
      <trkpt lat="47.26959" lon="-2.42868">
        <ele>48.200000762939</ele>
        <time>2020-02-13T10:40:44.000Z</time>
      </trkpt>
      <trkpt lat="47.26965" lon="-2.42865">
        <ele>48.200000762939</ele>
        <time>2020-02-13T10:40:45.000Z</time>
      </trkpt>
      <trkpt lat="47.26971" lon="-2.42862">
        <ele>48.200000762939</ele>
        <time>2020-02-13T10:40:46.000Z</time>
      </trkpt>
      <trkpt lat="47.2699" lon="-2.42852">
        <ele>48.200000762939</ele>
        <time>2020-02-13T10:40:49.000Z</time>
      </trkpt>
      <trkpt lat="47.27013" lon="-2.42838">
        <ele>48.200000762939</ele>
        <time>2020-02-13T10:40:53.000Z</time>
      </trkpt>
      <trkpt lat="47.27047" lon="-2.42816">
        <ele>48.200000762939</ele>
        <time>2020-02-13T10:41:00.000Z</time>
      </trkpt>
      <trkpt lat="47.27066" lon="-2.428">
        <ele>48.200000762939</ele>
        <time>2020-02-13T10:41:04.000Z</time>
      </trkpt>
      <trkpt lat="47.2707" lon="-2.42795">
        <ele>48.799999237061</ele>
        <time>2020-02-13T10:41:05.000Z</time>
      </trkpt>
      <trkpt lat="47.27074" lon="-2.4279">
        <ele>49.200000762939</ele>
        <time>2020-02-13T10:41:06.000Z</time>
      </trkpt>
      <trkpt lat="47.27078" lon="-2.42785">
        <ele>49.799999237061</ele>
        <time>2020-02-13T10:41:07.000Z</time>
      </trkpt>
      <trkpt lat="47.27082" lon="-2.42781">
        <ele>50.200000762939</ele>
        <time>2020-02-13T10:41:08.000Z</time>
      </trkpt>
      <trkpt lat="47.27085" lon="-2.42779">
        <ele>50.599998474121</ele>
        <time>2020-02-13T10:41:09.000Z</time>
      </trkpt>
      <trkpt lat="47.27088" lon="-2.42778">
        <ele>50.599998474121</ele>
        <time>2020-02-13T10:41:10.000Z</time>
      </trkpt>
      <trkpt lat="47.27092" lon="-2.42778">
        <ele>50.599998474121</ele>
        <time>2020-02-13T10:41:11.000Z</time>
      </trkpt>
      <trkpt lat="47.27098" lon="-2.42785">
        <ele>50.599998474121</ele>
        <time>2020-02-13T10:41:13.000Z</time>
      </trkpt>
      <trkpt lat="47.27112" lon="-2.42797">
        <ele>50.599998474121</ele>
        <time>2020-02-13T10:41:16.000Z</time>
      </trkpt>
      <trkpt lat="47.27117" lon="-2.42801">
        <ele>50.599998474121</ele>
        <time>2020-02-13T10:41:17.000Z</time>
      </trkpt>
      <trkpt lat="47.27126" lon="-2.42806">
        <ele>50.599998474121</ele>
        <time>2020-02-13T10:41:19.000Z</time>
      </trkpt>
      <trkpt lat="47.27142" lon="-2.42809">
        <ele>50.599998474121</ele>
        <time>2020-02-13T10:41:22.000Z</time>
      </trkpt>
      <trkpt lat="47.27152" lon="-2.4281">
        <ele>50.599998474121</ele>
        <time>2020-02-13T10:41:24.000Z</time>
      </trkpt>
      <trkpt lat="47.27163" lon="-2.42812">
        <ele>50.599998474121</ele>
        <time>2020-02-13T10:41:26.000Z</time>
      </trkpt>
      <trkpt lat="47.2718" lon="-2.42816">
        <ele>50.200000762939</ele>
        <time>2020-02-13T10:41:29.000Z</time>
      </trkpt>
      <trkpt lat="47.27186" lon="-2.42819">
        <ele>49.799999237061</ele>
        <time>2020-02-13T10:41:30.000Z</time>
      </trkpt>
      <trkpt lat="47.27192" lon="-2.42822">
        <ele>49.400001525879</ele>
        <time>2020-02-13T10:41:31.000Z</time>
      </trkpt>
      <trkpt lat="47.27197" lon="-2.42826">
        <ele>49</ele>
        <time>2020-02-13T10:41:32.000Z</time>
      </trkpt>
      <trkpt lat="47.27203" lon="-2.42829">
        <ele>48.599998474121</ele>
        <time>2020-02-13T10:41:33.000Z</time>
      </trkpt>
      <trkpt lat="47.27226" lon="-2.42843">
        <ele>49</ele>
        <time>2020-02-13T10:41:37.000Z</time>
      </trkpt>
      <trkpt lat="47.27231" lon="-2.42848">
        <ele>49.400001525879</ele>
        <time>2020-02-13T10:41:38.000Z</time>
      </trkpt>
      <trkpt lat="47.27235" lon="-2.42852">
        <ele>50</ele>
        <time>2020-02-13T10:41:39.000Z</time>
      </trkpt>
      <trkpt lat="47.2724" lon="-2.42856">
        <ele>50.400001525879</ele>
        <time>2020-02-13T10:41:40.000Z</time>
      </trkpt>
      <trkpt lat="47.27244" lon="-2.42861">
        <ele>50.799999237061</ele>
        <time>2020-02-13T10:41:41.000Z</time>
      </trkpt>
      <trkpt lat="47.27254" lon="-2.42869">
        <ele>50.799999237061</ele>
        <time>2020-02-13T10:41:43.000Z</time>
      </trkpt>
      <trkpt lat="47.27263" lon="-2.42876">
        <ele>50.400001525879</ele>
        <time>2020-02-13T10:41:45.000Z</time>
      </trkpt>
      <trkpt lat="47.27267" lon="-2.42879">
        <ele>49.799999237061</ele>
        <time>2020-02-13T10:41:46.000Z</time>
      </trkpt>
      <trkpt lat="47.27271" lon="-2.42883">
        <ele>49.200000762939</ele>
        <time>2020-02-13T10:41:47.000Z</time>
      </trkpt>
      <trkpt lat="47.27275" lon="-2.42886">
        <ele>48.599998474121</ele>
        <time>2020-02-13T10:41:48.000Z</time>
      </trkpt>
      <trkpt lat="47.27279" lon="-2.42891">
        <ele>47.799999237061</ele>
        <time>2020-02-13T10:41:49.000Z</time>
      </trkpt>
      <trkpt lat="47.27283" lon="-2.42895">
        <ele>47.200000762939</ele>
        <time>2020-02-13T10:41:50.000Z</time>
      </trkpt>
      <trkpt lat="47.27287" lon="-2.429">
        <ele>46.400001525879</ele>
        <time>2020-02-13T10:41:51.000Z</time>
      </trkpt>
      <trkpt lat="47.27292" lon="-2.42905">
        <ele>45.799999237061</ele>
        <time>2020-02-13T10:41:52.000Z</time>
      </trkpt>
      <trkpt lat="47.27296" lon="-2.42908">
        <ele>45.799999237061</ele>
        <time>2020-02-13T10:41:53.000Z</time>
      </trkpt>
      <trkpt lat="47.27307" lon="-2.42913">
        <ele>45.799999237061</ele>
        <time>2020-02-13T10:41:55.000Z</time>
      </trkpt>
      <trkpt lat="47.27325" lon="-2.42903">
        <ele>45.799999237061</ele>
        <time>2020-02-13T10:41:58.000Z</time>
      </trkpt>
      <trkpt lat="47.27336" lon="-2.42899">
        <ele>45.799999237061</ele>
        <time>2020-02-13T10:42:00.000Z</time>
      </trkpt>
      <trkpt lat="47.27346" lon="-2.42893">
        <ele>45.799999237061</ele>
        <time>2020-02-13T10:42:02.000Z</time>
      </trkpt>
      <trkpt lat="47.27352" lon="-2.42889">
        <ele>45.799999237061</ele>
        <time>2020-02-13T10:42:03.000Z</time>
      </trkpt>
      <trkpt lat="47.27368" lon="-2.42878">
        <ele>46.200000762939</ele>
        <time>2020-02-13T10:42:06.000Z</time>
      </trkpt>
      <trkpt lat="47.27373" lon="-2.42875">
        <ele>46.599998474121</ele>
        <time>2020-02-13T10:42:07.000Z</time>
      </trkpt>
      <trkpt lat="47.27378" lon="-2.42871">
        <ele>47.200000762939</ele>
        <time>2020-02-13T10:42:08.000Z</time>
      </trkpt>
      <trkpt lat="47.27383" lon="-2.42868">
        <ele>47</ele>
        <time>2020-02-13T10:42:09.000Z</time>
      </trkpt>
      <trkpt lat="47.27388" lon="-2.42864">
        <ele>46.799999237061</ele>
        <time>2020-02-13T10:42:10.000Z</time>
      </trkpt>
      <trkpt lat="47.27392" lon="-2.42861">
        <ele>46.400001525879</ele>
        <time>2020-02-13T10:42:11.000Z</time>
      </trkpt>
      <trkpt lat="47.27397" lon="-2.42857">
        <ele>46.200000762939</ele>
        <time>2020-02-13T10:42:12.000Z</time>
      </trkpt>
      <trkpt lat="47.27402" lon="-2.42853">
        <ele>46</ele>
        <time>2020-02-13T10:42:13.000Z</time>
      </trkpt>
      <trkpt lat="47.27431" lon="-2.42838">
        <ele>46</ele>
        <time>2020-02-13T10:42:18.000Z</time>
      </trkpt>
      <trkpt lat="47.27438" lon="-2.42836">
        <ele>46</ele>
        <time>2020-02-13T10:42:19.000Z</time>
      </trkpt>
      <trkpt lat="47.27458" lon="-2.42832">
        <ele>46.400001525879</ele>
        <time>2020-02-13T10:42:22.000Z</time>
      </trkpt>
      <trkpt lat="47.27464" lon="-2.4283">
        <ele>46.799999237061</ele>
        <time>2020-02-13T10:42:23.000Z</time>
      </trkpt>
      <trkpt lat="47.2747" lon="-2.42829">
        <ele>47.400001525879</ele>
        <time>2020-02-13T10:42:24.000Z</time>
      </trkpt>
      <trkpt lat="47.27475" lon="-2.42827">
        <ele>47.799999237061</ele>
        <time>2020-02-13T10:42:25.000Z</time>
      </trkpt>
      <trkpt lat="47.27482" lon="-2.42823">
        <ele>48.200000762939</ele>
        <time>2020-02-13T10:42:26.000Z</time>
      </trkpt>
      <trkpt lat="47.27492" lon="-2.42813">
        <ele>48.200000762939</ele>
        <time>2020-02-13T10:42:28.000Z</time>
      </trkpt>
      <trkpt lat="47.27509" lon="-2.42787">
        <ele>48.200000762939</ele>
        <time>2020-02-13T10:42:32.000Z</time>
      </trkpt>
      <trkpt lat="47.27517" lon="-2.42777">
        <ele>48.200000762939</ele>
        <time>2020-02-13T10:42:34.000Z</time>
      </trkpt>
      <trkpt lat="47.27527" lon="-2.42776">
        <ele>48.200000762939</ele>
        <time>2020-02-13T10:42:36.000Z</time>
      </trkpt>
      <trkpt lat="47.2754" lon="-2.4279">
        <ele>48.200000762939</ele>
        <time>2020-02-13T10:42:39.000Z</time>
      </trkpt>
      <trkpt lat="47.27554" lon="-2.42807">
        <ele>48.200000762939</ele>
        <time>2020-02-13T10:42:42.000Z</time>
      </trkpt>
      <trkpt lat="47.27558" lon="-2.42813">
        <ele>48.200000762939</ele>
        <time>2020-02-13T10:42:43.000Z</time>
      </trkpt>
      <trkpt lat="47.27573" lon="-2.42833">
        <ele>48.599998474121</ele>
        <time>2020-02-13T10:42:46.000Z</time>
      </trkpt>
      <trkpt lat="47.27578" lon="-2.4284">
        <ele>49</ele>
        <time>2020-02-13T10:42:47.000Z</time>
      </trkpt>
      <trkpt lat="47.27583" lon="-2.42846">
        <ele>49.599998474121</ele>
        <time>2020-02-13T10:42:48.000Z</time>
      </trkpt>
      <trkpt lat="47.27588" lon="-2.42851">
        <ele>50</ele>
        <time>2020-02-13T10:42:49.000Z</time>
      </trkpt>
      <trkpt lat="47.27592" lon="-2.42857">
        <ele>50.599998474121</ele>
        <time>2020-02-13T10:42:50.000Z</time>
      </trkpt>
      <trkpt lat="47.27596" lon="-2.42862">
        <ele>50.599998474121</ele>
        <time>2020-02-13T10:42:51.000Z</time>
      </trkpt>
      <trkpt lat="47.27605" lon="-2.42876">
        <ele>50.599998474121</ele>
        <time>2020-02-13T10:42:54.000Z</time>
      </trkpt>
      <trkpt lat="47.27608" lon="-2.42879">
        <ele>49.599998474121</ele>
        <time>2020-02-13T10:42:55.000Z</time>
      </trkpt>
      <trkpt lat="47.27611" lon="-2.42882">
        <ele>49.200000762939</ele>
        <time>2020-02-13T10:42:56.000Z</time>
      </trkpt>
      <trkpt lat="47.27614" lon="-2.42883">
        <ele>48.799999237061</ele>
        <time>2020-02-13T10:42:57.000Z</time>
      </trkpt>
      <trkpt lat="47.27617" lon="-2.42879">
        <ele>48.200000762939</ele>
        <time>2020-02-13T10:42:58.000Z</time>
      </trkpt>
      <trkpt lat="47.27629" lon="-2.42859">
        <ele>48.200000762939</ele>
        <time>2020-02-13T10:43:02.000Z</time>
      </trkpt>
      <trkpt lat="47.27631" lon="-2.42853">
        <ele>48.200000762939</ele>
        <time>2020-02-13T10:43:03.000Z</time>
      </trkpt>
      <trkpt lat="47.27637" lon="-2.42842">
        <ele>48.200000762939</ele>
        <time>2020-02-13T10:43:05.000Z</time>
      </trkpt>
      <trkpt lat="47.27647" lon="-2.4282">
        <ele>48.200000762939</ele>
        <time>2020-02-13T10:43:09.000Z</time>
      </trkpt>
      <trkpt lat="47.27662" lon="-2.42795">
        <ele>48.200000762939</ele>
        <time>2020-02-13T10:43:15.000Z</time>
      </trkpt>
      <trkpt lat="47.27666" lon="-2.42787">
        <ele>48.599998474121</ele>
        <time>2020-02-13T10:43:18.000Z</time>
      </trkpt>
      <trkpt lat="47.27666" lon="-2.42785">
        <ele>49</ele>
        <time>2020-02-13T10:43:19.000Z</time>
      </trkpt>
      <trkpt lat="47.27668" lon="-2.42784">
        <ele>49.799999237061</ele>
        <time>2020-02-13T10:43:20.000Z</time>
      </trkpt>
      <trkpt lat="47.27669" lon="-2.42782">
        <ele>50.200000762939</ele>
        <time>2020-02-13T10:43:21.000Z</time>
      </trkpt>
      <trkpt lat="47.27672" lon="-2.42781">
        <ele>50.200000762939</ele>
        <time>2020-02-13T10:43:22.000Z</time>
      </trkpt>
      <trkpt lat="47.27674" lon="-2.42782">
        <ele>50.200000762939</ele>
        <time>2020-02-13T10:43:23.000Z</time>
      </trkpt>
      <trkpt lat="47.27689" lon="-2.4279">
        <ele>50.200000762939</ele>
        <time>2020-02-13T10:43:28.000Z</time>
      </trkpt>
      <trkpt lat="47.27694" lon="-2.42791">
        <ele>50.200000762939</ele>
        <time>2020-02-13T10:43:29.000Z</time>
      </trkpt>
      <trkpt lat="47.27698" lon="-2.42794">
        <ele>50.200000762939</ele>
        <time>2020-02-13T10:43:30.000Z</time>
      </trkpt>
      <trkpt lat="47.27712" lon="-2.428">
        <ele>50.200000762939</ele>
        <time>2020-02-13T10:43:33.000Z</time>
      </trkpt>
      <trkpt lat="47.27747" lon="-2.42812">
        <ele>50.200000762939</ele>
        <time>2020-02-13T10:43:40.000Z</time>
      </trkpt>
      <trkpt lat="47.27752" lon="-2.42813">
        <ele>50.200000762939</ele>
        <time>2020-02-13T10:43:41.000Z</time>
      </trkpt>
      <trkpt lat="47.27765" lon="-2.42816">
        <ele>50.200000762939</ele>
        <time>2020-02-13T10:43:44.000Z</time>
      </trkpt>
      <trkpt lat="47.2777" lon="-2.42817">
        <ele>50.200000762939</ele>
        <time>2020-02-13T10:43:45.000Z</time>
      </trkpt>
      <trkpt lat="47.27784" lon="-2.42819">
        <ele>50.799999237061</ele>
        <time>2020-02-13T10:43:48.000Z</time>
      </trkpt>
      <trkpt lat="47.27789" lon="-2.42819">
        <ele>51.400001525879</ele>
        <time>2020-02-13T10:43:49.000Z</time>
      </trkpt>
      <trkpt lat="47.27794" lon="-2.4282">
        <ele>51.200000762939</ele>
        <time>2020-02-13T10:43:50.000Z</time>
      </trkpt>
      <trkpt lat="47.27799" lon="-2.4282">
        <ele>51.200000762939</ele>
        <time>2020-02-13T10:43:51.000Z</time>
      </trkpt>
      <trkpt lat="47.27804" lon="-2.42821">
        <ele>51.200000762939</ele>
        <time>2020-02-13T10:43:52.000Z</time>
      </trkpt>
      <trkpt lat="47.27809" lon="-2.42821">
        <ele>51</ele>
        <time>2020-02-13T10:43:53.000Z</time>
      </trkpt>
      <trkpt lat="47.27814" lon="-2.42821">
        <ele>51</ele>
        <time>2020-02-13T10:43:54.000Z</time>
      </trkpt>
      <trkpt lat="47.27823" lon="-2.42818">
        <ele>51</ele>
        <time>2020-02-13T10:43:56.000Z</time>
      </trkpt>
      <trkpt lat="47.27826" lon="-2.42814">
        <ele>51</ele>
        <time>2020-02-13T10:43:57.000Z</time>
      </trkpt>
      <trkpt lat="47.27826" lon="-2.42793">
        <ele>51</ele>
        <time>2020-02-13T10:44:00.000Z</time>
      </trkpt>
      <trkpt lat="47.27826" lon="-2.42787">
        <ele>51</ele>
        <time>2020-02-13T10:44:01.000Z</time>
      </trkpt>
      <trkpt lat="47.27825" lon="-2.42739">
        <ele>51</ele>
        <time>2020-02-13T10:44:08.000Z</time>
      </trkpt>
      <trkpt lat="47.27824" lon="-2.42732">
        <ele>50.599998474121</ele>
        <time>2020-02-13T10:44:09.000Z</time>
      </trkpt>
      <trkpt lat="47.27825" lon="-2.42725">
        <ele>49.599998474121</ele>
        <time>2020-02-13T10:44:10.000Z</time>
      </trkpt>
      <trkpt lat="47.27824" lon="-2.42718">
        <ele>49.200000762939</ele>
        <time>2020-02-13T10:44:11.000Z</time>
      </trkpt>
      <trkpt lat="47.2782" lon="-2.42711">
        <ele>48.799999237061</ele>
        <time>2020-02-13T10:44:12.000Z</time>
      </trkpt>
      <trkpt lat="47.27815" lon="-2.42708">
        <ele>48.799999237061</ele>
        <time>2020-02-13T10:44:13.000Z</time>
      </trkpt>
      <trkpt lat="47.278" lon="-2.42704">
        <ele>48.799999237061</ele>
        <time>2020-02-13T10:44:16.000Z</time>
      </trkpt>
      <trkpt lat="47.27766" lon="-2.42688">
        <ele>49.200000762939</ele>
        <time>2020-02-13T10:44:23.000Z</time>
      </trkpt>
      <trkpt lat="47.27762" lon="-2.42684">
        <ele>49.599998474121</ele>
        <time>2020-02-13T10:44:24.000Z</time>
      </trkpt>
      <trkpt lat="47.27758" lon="-2.42681">
        <ele>50</ele>
        <time>2020-02-13T10:44:25.000Z</time>
      </trkpt>
      <trkpt lat="47.27754" lon="-2.42678">
        <ele>50.599998474121</ele>
        <time>2020-02-13T10:44:26.000Z</time>
      </trkpt>
      <trkpt lat="47.27749" lon="-2.42676">
        <ele>51</ele>
        <time>2020-02-13T10:44:27.000Z</time>
      </trkpt>
      <trkpt lat="47.2774" lon="-2.42671">
        <ele>50.400001525879</ele>
        <time>2020-02-13T10:44:29.000Z</time>
      </trkpt>
      <trkpt lat="47.27735" lon="-2.42667">
        <ele>50</ele>
        <time>2020-02-13T10:44:30.000Z</time>
      </trkpt>
      <trkpt lat="47.2773" lon="-2.42663">
        <ele>49.400001525879</ele>
        <time>2020-02-13T10:44:31.000Z</time>
      </trkpt>
      <trkpt lat="47.27725" lon="-2.42659">
        <ele>49</ele>
        <time>2020-02-13T10:44:32.000Z</time>
      </trkpt>
      <trkpt lat="47.2772" lon="-2.42654">
        <ele>48.400001525879</ele>
        <time>2020-02-13T10:44:33.000Z</time>
      </trkpt>
      <trkpt lat="47.27715" lon="-2.4265">
        <ele>48.400001525879</ele>
        <time>2020-02-13T10:44:34.000Z</time>
      </trkpt>
      <trkpt lat="47.27682" lon="-2.42617">
        <ele>48.400001525879</ele>
        <time>2020-02-13T10:44:41.000Z</time>
      </trkpt>
      <trkpt lat="47.27659" lon="-2.42588">
        <ele>48</ele>
        <time>2020-02-13T10:44:46.000Z</time>
      </trkpt>
      <trkpt lat="47.27654" lon="-2.42581">
        <ele>47.400001525879</ele>
        <time>2020-02-13T10:44:47.000Z</time>
      </trkpt>
      <trkpt lat="47.27648" lon="-2.42575">
        <ele>46.599998474121</ele>
        <time>2020-02-13T10:44:48.000Z</time>
      </trkpt>
      <trkpt lat="47.27643" lon="-2.42568">
        <ele>45.799999237061</ele>
        <time>2020-02-13T10:44:49.000Z</time>
      </trkpt>
      <trkpt lat="47.27638" lon="-2.42561">
        <ele>45</ele>
        <time>2020-02-13T10:44:50.000Z</time>
      </trkpt>
      <trkpt lat="47.27633" lon="-2.42554">
        <ele>44.400001525879</ele>
        <time>2020-02-13T10:44:51.000Z</time>
      </trkpt>
      <trkpt lat="47.27616" lon="-2.42533">
        <ele>44.400001525879</ele>
        <time>2020-02-13T10:44:54.000Z</time>
      </trkpt>
      <trkpt lat="47.27605" lon="-2.4252">
        <ele>44.799999237061</ele>
        <time>2020-02-13T10:44:56.000Z</time>
      </trkpt>
      <trkpt lat="47.276" lon="-2.42513">
        <ele>45.200000762939</ele>
        <time>2020-02-13T10:44:57.000Z</time>
      </trkpt>
      <trkpt lat="47.27595" lon="-2.42507">
        <ele>45.599998474121</ele>
        <time>2020-02-13T10:44:58.000Z</time>
      </trkpt>
      <trkpt lat="47.27589" lon="-2.42501">
        <ele>46.599998474121</ele>
        <time>2020-02-13T10:44:59.000Z</time>
      </trkpt>
      <trkpt lat="47.27583" lon="-2.42496">
        <ele>46.599998474121</ele>
        <time>2020-02-13T10:45:00.000Z</time>
      </trkpt>
      <trkpt lat="47.27546" lon="-2.42468">
        <ele>46.599998474121</ele>
        <time>2020-02-13T10:45:06.000Z</time>
      </trkpt>
      <trkpt lat="47.27515" lon="-2.4245">
        <ele>46.599998474121</ele>
        <time>2020-02-13T10:45:11.000Z</time>
      </trkpt>
      <trkpt lat="47.2751" lon="-2.42446">
        <ele>46.599998474121</ele>
        <time>2020-02-13T10:45:12.000Z</time>
      </trkpt>
      <trkpt lat="47.27504" lon="-2.42442">
        <ele>46.200000762939</ele>
        <time>2020-02-13T10:45:13.000Z</time>
      </trkpt>
      <trkpt lat="47.27499" lon="-2.4244">
        <ele>45.599998474121</ele>
        <time>2020-02-13T10:45:14.000Z</time>
      </trkpt>
      <trkpt lat="47.27494" lon="-2.42436">
        <ele>45.200000762939</ele>
        <time>2020-02-13T10:45:15.000Z</time>
      </trkpt>
      <trkpt lat="47.27489" lon="-2.42432">
        <ele>45.599998474121</ele>
        <time>2020-02-13T10:45:16.000Z</time>
      </trkpt>
      <trkpt lat="47.27484" lon="-2.42428">
        <ele>45.799999237061</ele>
        <time>2020-02-13T10:45:17.000Z</time>
      </trkpt>
      <trkpt lat="47.27479" lon="-2.42424">
        <ele>46.200000762939</ele>
        <time>2020-02-13T10:45:18.000Z</time>
      </trkpt>
      <trkpt lat="47.27474" lon="-2.42419">
        <ele>46.400001525879</ele>
        <time>2020-02-13T10:45:19.000Z</time>
      </trkpt>
      <trkpt lat="47.2747" lon="-2.42414">
        <ele>46.799999237061</ele>
        <time>2020-02-13T10:45:20.000Z</time>
      </trkpt>
      <trkpt lat="47.27453" lon="-2.42397">
        <ele>46.799999237061</ele>
        <time>2020-02-13T10:45:24.000Z</time>
      </trkpt>
      <trkpt lat="47.2744" lon="-2.42377">
        <ele>47.200000762939</ele>
        <time>2020-02-13T10:45:28.000Z</time>
      </trkpt>
      <trkpt lat="47.27438" lon="-2.4237">
        <ele>47.599998474121</ele>
        <time>2020-02-13T10:45:29.000Z</time>
      </trkpt>
      <trkpt lat="47.27436" lon="-2.42363">
        <ele>48</ele>
        <time>2020-02-13T10:45:30.000Z</time>
      </trkpt>
      <trkpt lat="47.27437" lon="-2.42359">
        <ele>48.400001525879</ele>
        <time>2020-02-13T10:45:31.000Z</time>
      </trkpt>
      <trkpt lat="47.27437" lon="-2.42355">
        <ele>49</ele>
        <time>2020-02-13T10:45:32.000Z</time>
      </trkpt>
      <trkpt lat="47.27438" lon="-2.42351">
        <ele>49</ele>
        <time>2020-02-13T10:45:33.000Z</time>
      </trkpt>
      <trkpt lat="47.27448" lon="-2.42348">
        <ele>49</ele>
        <time>2020-02-13T10:45:37.000Z</time>
      </trkpt>
      <trkpt lat="47.27459" lon="-2.42341">
        <ele>49</ele>
        <time>2020-02-13T10:45:42.000Z</time>
      </trkpt>
      <trkpt lat="47.2747" lon="-2.42328">
        <ele>49</ele>
        <time>2020-02-13T10:45:45.000Z</time>
      </trkpt>
      <trkpt lat="47.27474" lon="-2.42324">
        <ele>49</ele>
        <time>2020-02-13T10:45:46.000Z</time>
      </trkpt>
      <trkpt lat="47.27496" lon="-2.423">
        <ele>49</ele>
        <time>2020-02-13T10:45:51.000Z</time>
      </trkpt>
      <trkpt lat="47.27504" lon="-2.4229">
        <ele>49</ele>
        <time>2020-02-13T10:45:53.000Z</time>
      </trkpt>
      <trkpt lat="47.27518" lon="-2.42274">
        <ele>49</ele>
        <time>2020-02-13T10:45:56.000Z</time>
      </trkpt>
      <trkpt lat="47.27523" lon="-2.42271">
        <ele>49</ele>
        <time>2020-02-13T10:45:57.000Z</time>
      </trkpt>
      <trkpt lat="47.27539" lon="-2.4225">
        <ele>49</ele>
        <time>2020-02-13T10:46:01.000Z</time>
      </trkpt>
      <trkpt lat="47.27543" lon="-2.42244">
        <ele>49</ele>
        <time>2020-02-13T10:46:02.000Z</time>
      </trkpt>
      <trkpt lat="47.27567" lon="-2.42207">
        <ele>49</ele>
        <time>2020-02-13T10:46:09.000Z</time>
      </trkpt>
      <trkpt lat="47.27578" lon="-2.42193">
        <ele>49</ele>
        <time>2020-02-13T10:46:12.000Z</time>
      </trkpt>
      <trkpt lat="47.27585" lon="-2.42182">
        <ele>49</ele>
        <time>2020-02-13T10:46:14.000Z</time>
      </trkpt>
      <trkpt lat="47.276" lon="-2.42148">
        <ele>49</ele>
        <time>2020-02-13T10:46:19.000Z</time>
      </trkpt>
      <trkpt lat="47.27604" lon="-2.42142">
        <ele>49</ele>
        <time>2020-02-13T10:46:20.000Z</time>
      </trkpt>
      <trkpt lat="47.27622" lon="-2.42106">
        <ele>49</ele>
        <time>2020-02-13T10:46:25.000Z</time>
      </trkpt>
      <trkpt lat="47.27647" lon="-2.42054">
        <ele>49</ele>
        <time>2020-02-13T10:46:32.000Z</time>
      </trkpt>
      <trkpt lat="47.27671" lon="-2.42002">
        <ele>49</ele>
        <time>2020-02-13T10:46:39.000Z</time>
      </trkpt>
      <trkpt lat="47.27689" lon="-2.41958">
        <ele>49</ele>
        <time>2020-02-13T10:46:44.000Z</time>
      </trkpt>
      <trkpt lat="47.27708" lon="-2.41917">
        <ele>49</ele>
        <time>2020-02-13T10:46:49.000Z</time>
      </trkpt>
      <trkpt lat="47.27711" lon="-2.41908">
        <ele>49</ele>
        <time>2020-02-13T10:46:50.000Z</time>
      </trkpt>
      <trkpt lat="47.27719" lon="-2.4188">
        <ele>49</ele>
        <time>2020-02-13T10:46:53.000Z</time>
      </trkpt>
      <trkpt lat="47.27722" lon="-2.41871">
        <ele>49</ele>
        <time>2020-02-13T10:46:54.000Z</time>
      </trkpt>
      <trkpt lat="47.27742" lon="-2.41823">
        <ele>49</ele>
        <time>2020-02-13T10:47:00.000Z</time>
      </trkpt>
      <trkpt lat="47.27746" lon="-2.41816">
        <ele>49</ele>
        <time>2020-02-13T10:47:01.000Z</time>
      </trkpt>
      <trkpt lat="47.2775" lon="-2.41809">
        <ele>49</ele>
        <time>2020-02-13T10:47:02.000Z</time>
      </trkpt>
      <trkpt lat="47.2776" lon="-2.41783">
        <ele>49</ele>
        <time>2020-02-13T10:47:05.000Z</time>
      </trkpt>
      <trkpt lat="47.27774" lon="-2.41743">
        <ele>49</ele>
        <time>2020-02-13T10:47:10.000Z</time>
      </trkpt>
      <trkpt lat="47.27795" lon="-2.41695">
        <ele>49</ele>
        <time>2020-02-13T10:47:17.000Z</time>
      </trkpt>
      <trkpt lat="47.27805" lon="-2.41664">
        <ele>49</ele>
        <time>2020-02-13T10:47:21.000Z</time>
      </trkpt>
      <trkpt lat="47.27831" lon="-2.41596">
        <ele>49</ele>
        <time>2020-02-13T10:47:30.000Z</time>
      </trkpt>
      <trkpt lat="47.27849" lon="-2.41545">
        <ele>49</ele>
        <time>2020-02-13T10:47:36.000Z</time>
      </trkpt>
      <trkpt lat="47.2787" lon="-2.41487">
        <ele>49</ele>
        <time>2020-02-13T10:47:43.000Z</time>
      </trkpt>
      <trkpt lat="47.27886" lon="-2.41436">
        <ele>49</ele>
        <time>2020-02-13T10:47:50.000Z</time>
      </trkpt>
      <trkpt lat="47.279" lon="-2.41381">
        <ele>49</ele>
        <time>2020-02-13T10:47:57.000Z</time>
      </trkpt>
      <trkpt lat="47.27916" lon="-2.41318">
        <ele>49</ele>
        <time>2020-02-13T10:48:05.000Z</time>
      </trkpt>
      <trkpt lat="47.27937" lon="-2.4125">
        <ele>49</ele>
        <time>2020-02-13T10:48:14.000Z</time>
      </trkpt>
      <trkpt lat="47.27951" lon="-2.4119">
        <ele>49</ele>
        <time>2020-02-13T10:48:21.000Z</time>
      </trkpt>
      <trkpt lat="47.27962" lon="-2.4115">
        <ele>49</ele>
        <time>2020-02-13T10:48:26.000Z</time>
      </trkpt>
      <trkpt lat="47.27964" lon="-2.41142">
        <ele>49</ele>
        <time>2020-02-13T10:48:27.000Z</time>
      </trkpt>
      <trkpt lat="47.27972" lon="-2.41092">
        <ele>49</ele>
        <time>2020-02-13T10:48:33.000Z</time>
      </trkpt>
      <trkpt lat="47.27981" lon="-2.41057">
        <ele>49</ele>
        <time>2020-02-13T10:48:37.000Z</time>
      </trkpt>
      <trkpt lat="47.27982" lon="-2.41049">
        <ele>49</ele>
        <time>2020-02-13T10:48:38.000Z</time>
      </trkpt>
      <trkpt lat="47.27991" lon="-2.40998">
        <ele>49</ele>
        <time>2020-02-13T10:48:44.000Z</time>
      </trkpt>
      <trkpt lat="47.27994" lon="-2.40991">
        <ele>49</ele>
        <time>2020-02-13T10:48:45.000Z</time>
      </trkpt>
      <trkpt lat="47.28001" lon="-2.40959">
        <ele>49</ele>
        <time>2020-02-13T10:48:49.000Z</time>
      </trkpt>
      <trkpt lat="47.28004" lon="-2.40933">
        <ele>49</ele>
        <time>2020-02-13T10:48:52.000Z</time>
      </trkpt>
      <trkpt lat="47.28006" lon="-2.40918">
        <ele>49</ele>
        <time>2020-02-13T10:48:54.000Z</time>
      </trkpt>
      <trkpt lat="47.28014" lon="-2.40892">
        <ele>49</ele>
        <time>2020-02-13T10:48:58.000Z</time>
      </trkpt>
      <trkpt lat="47.28017" lon="-2.40886">
        <ele>49</ele>
        <time>2020-02-13T10:48:59.000Z</time>
      </trkpt>
      <trkpt lat="47.28019" lon="-2.4088">
        <ele>48.400001525879</ele>
        <time>2020-02-13T10:49:00.000Z</time>
      </trkpt>
      <trkpt lat="47.28021" lon="-2.40873">
        <ele>48</ele>
        <time>2020-02-13T10:49:01.000Z</time>
      </trkpt>
      <trkpt lat="47.28023" lon="-2.40866">
        <ele>47.599998474121</ele>
        <time>2020-02-13T10:49:02.000Z</time>
      </trkpt>
      <trkpt lat="47.28025" lon="-2.40859">
        <ele>47.200000762939</ele>
        <time>2020-02-13T10:49:03.000Z</time>
      </trkpt>
      <trkpt lat="47.28027" lon="-2.40851">
        <ele>46.799999237061</ele>
        <time>2020-02-13T10:49:04.000Z</time>
      </trkpt>
      <trkpt lat="47.28038" lon="-2.40794">
        <ele>46.799999237061</ele>
        <time>2020-02-13T10:49:11.000Z</time>
      </trkpt>
      <trkpt lat="47.28045" lon="-2.40768">
        <ele>47.200000762939</ele>
        <time>2020-02-13T10:49:14.000Z</time>
      </trkpt>
      <trkpt lat="47.28047" lon="-2.40759">
        <ele>47.599998474121</ele>
        <time>2020-02-13T10:49:15.000Z</time>
      </trkpt>
      <trkpt lat="47.28048" lon="-2.4075">
        <ele>48</ele>
        <time>2020-02-13T10:49:16.000Z</time>
      </trkpt>
      <trkpt lat="47.2805" lon="-2.40742">
        <ele>48.400001525879</ele>
        <time>2020-02-13T10:49:17.000Z</time>
      </trkpt>
      <trkpt lat="47.28052" lon="-2.40734">
        <ele>48.799999237061</ele>
        <time>2020-02-13T10:49:18.000Z</time>
      </trkpt>
      <trkpt lat="47.28059" lon="-2.40693">
        <ele>48.799999237061</ele>
        <time>2020-02-13T10:49:23.000Z</time>
      </trkpt>
      <trkpt lat="47.2806" lon="-2.40649">
        <ele>48.799999237061</ele>
        <time>2020-02-13T10:49:28.000Z</time>
      </trkpt>
      <trkpt lat="47.28053" lon="-2.40624">
        <ele>48.799999237061</ele>
        <time>2020-02-13T10:49:31.000Z</time>
      </trkpt>
      <trkpt lat="47.28053" lon="-2.40614">
        <ele>48.799999237061</ele>
        <time>2020-02-13T10:49:32.000Z</time>
      </trkpt>
      <trkpt lat="47.28057" lon="-2.40577">
        <ele>48.799999237061</ele>
        <time>2020-02-13T10:49:36.000Z</time>
      </trkpt>
      <trkpt lat="47.28059" lon="-2.40568">
        <ele>48.799999237061</ele>
        <time>2020-02-13T10:49:37.000Z</time>
      </trkpt>
      <trkpt lat="47.28071" lon="-2.40513">
        <ele>48.799999237061</ele>
        <time>2020-02-13T10:49:43.000Z</time>
      </trkpt>
      <trkpt lat="47.28085" lon="-2.40468">
        <ele>48.799999237061</ele>
        <time>2020-02-13T10:49:48.000Z</time>
      </trkpt>
      <trkpt lat="47.28089" lon="-2.4046">
        <ele>48.799999237061</ele>
        <time>2020-02-13T10:49:49.000Z</time>
      </trkpt>
      <trkpt lat="47.28106" lon="-2.40427">
        <ele>48.799999237061</ele>
        <time>2020-02-13T10:49:53.000Z</time>
      </trkpt>
      <trkpt lat="47.28112" lon="-2.40407">
        <ele>48.799999237061</ele>
        <time>2020-02-13T10:49:55.000Z</time>
      </trkpt>
      <trkpt lat="47.28114" lon="-2.40397">
        <ele>48.799999237061</ele>
        <time>2020-02-13T10:49:56.000Z</time>
      </trkpt>
      <trkpt lat="47.28117" lon="-2.40364">
        <ele>48.799999237061</ele>
        <time>2020-02-13T10:49:59.000Z</time>
      </trkpt>
      <trkpt lat="47.28126" lon="-2.40308">
        <ele>48.799999237061</ele>
        <time>2020-02-13T10:50:04.000Z</time>
      </trkpt>
      <trkpt lat="47.28135" lon="-2.40224">
        <ele>48.799999237061</ele>
        <time>2020-02-13T10:50:11.000Z</time>
      </trkpt>
      <trkpt lat="47.28145" lon="-2.40138">
        <ele>48.799999237061</ele>
        <time>2020-02-13T10:50:18.000Z</time>
      </trkpt>
      <trkpt lat="47.28152" lon="-2.40052">
        <ele>48.799999237061</ele>
        <time>2020-02-13T10:50:25.000Z</time>
      </trkpt>
      <trkpt lat="47.28155" lon="-2.40028">
        <ele>48.799999237061</ele>
        <time>2020-02-13T10:50:27.000Z</time>
      </trkpt>
      <trkpt lat="47.2816" lon="-2.39952">
        <ele>48.799999237061</ele>
        <time>2020-02-13T10:50:33.000Z</time>
      </trkpt>
      <trkpt lat="47.28166" lon="-2.39873">
        <ele>48.799999237061</ele>
        <time>2020-02-13T10:50:39.000Z</time>
      </trkpt>
      <trkpt lat="47.28168" lon="-2.39846">
        <ele>48.799999237061</ele>
        <time>2020-02-13T10:50:41.000Z</time>
      </trkpt>
      <trkpt lat="47.28172" lon="-2.39766">
        <ele>48.799999237061</ele>
        <time>2020-02-13T10:50:47.000Z</time>
      </trkpt>
      <trkpt lat="47.28173" lon="-2.39753">
        <ele>48.799999237061</ele>
        <time>2020-02-13T10:50:48.000Z</time>
      </trkpt>
      <trkpt lat="47.28178" lon="-2.39673">
        <ele>48.799999237061</ele>
        <time>2020-02-13T10:50:54.000Z</time>
      </trkpt>
      <trkpt lat="47.28178" lon="-2.3966">
        <ele>48.799999237061</ele>
        <time>2020-02-13T10:50:55.000Z</time>
      </trkpt>
      <trkpt lat="47.28179" lon="-2.39578">
        <ele>48.799999237061</ele>
        <time>2020-02-13T10:51:01.000Z</time>
      </trkpt>
      <trkpt lat="47.2818" lon="-2.39564">
        <ele>48.799999237061</ele>
        <time>2020-02-13T10:51:02.000Z</time>
      </trkpt>
      <trkpt lat="47.28181" lon="-2.3948">
        <ele>48.799999237061</ele>
        <time>2020-02-13T10:51:08.000Z</time>
      </trkpt>
      <trkpt lat="47.28181" lon="-2.39392">
        <ele>48.799999237061</ele>
        <time>2020-02-13T10:51:14.000Z</time>
      </trkpt>
      <trkpt lat="47.2818" lon="-2.39348">
        <ele>48.799999237061</ele>
        <time>2020-02-13T10:51:17.000Z</time>
      </trkpt>
      <trkpt lat="47.28179" lon="-2.39257">
        <ele>48.799999237061</ele>
        <time>2020-02-13T10:51:23.000Z</time>
      </trkpt>
      <trkpt lat="47.28177" lon="-2.39226">
        <ele>48.799999237061</ele>
        <time>2020-02-13T10:51:25.000Z</time>
      </trkpt>
      <trkpt lat="47.28171" lon="-2.39134">
        <ele>48.799999237061</ele>
        <time>2020-02-13T10:51:31.000Z</time>
      </trkpt>
      <trkpt lat="47.2817" lon="-2.39118">
        <ele>48.799999237061</ele>
        <time>2020-02-13T10:51:32.000Z</time>
      </trkpt>
      <trkpt lat="47.28162" lon="-2.39025">
        <ele>48.799999237061</ele>
        <time>2020-02-13T10:51:38.000Z</time>
      </trkpt>
      <trkpt lat="47.28161" lon="-2.3901">
        <ele>48.799999237061</ele>
        <time>2020-02-13T10:51:39.000Z</time>
      </trkpt>
      <trkpt lat="47.28148" lon="-2.38929">
        <ele>48.799999237061</ele>
        <time>2020-02-13T10:51:44.000Z</time>
      </trkpt>
      <trkpt lat="47.28133" lon="-2.3885">
        <ele>48.799999237061</ele>
        <time>2020-02-13T10:51:49.000Z</time>
      </trkpt>
      <trkpt lat="47.28132" lon="-2.38833">
        <ele>48.799999237061</ele>
        <time>2020-02-13T10:51:50.000Z</time>
      </trkpt>
      <trkpt lat="47.28124" lon="-2.38747">
        <ele>48.799999237061</ele>
        <time>2020-02-13T10:51:55.000Z</time>
      </trkpt>
      <trkpt lat="47.28116" lon="-2.38658">
        <ele>48.799999237061</ele>
        <time>2020-02-13T10:52:00.000Z</time>
      </trkpt>
      <trkpt lat="47.28111" lon="-2.38605">
        <ele>48.799999237061</ele>
        <time>2020-02-13T10:52:03.000Z</time>
      </trkpt>
      <trkpt lat="47.281" lon="-2.38518">
        <ele>48.799999237061</ele>
        <time>2020-02-13T10:52:08.000Z</time>
      </trkpt>
      <trkpt lat="47.28097" lon="-2.38501">
        <ele>48.799999237061</ele>
        <time>2020-02-13T10:52:09.000Z</time>
      </trkpt>
      <trkpt lat="47.28083" lon="-2.38415">
        <ele>48.799999237061</ele>
        <time>2020-02-13T10:52:14.000Z</time>
      </trkpt>
      <trkpt lat="47.2807" lon="-2.38346">
        <ele>48.799999237061</ele>
        <time>2020-02-13T10:52:18.000Z</time>
      </trkpt>
      <trkpt lat="47.28053" lon="-2.3826">
        <ele>48.799999237061</ele>
        <time>2020-02-13T10:52:23.000Z</time>
      </trkpt>
      <trkpt lat="47.28041" lon="-2.38195">
        <ele>48.799999237061</ele>
        <time>2020-02-13T10:52:27.000Z</time>
      </trkpt>
      <trkpt lat="47.2803" lon="-2.38137">
        <ele>48.799999237061</ele>
        <time>2020-02-13T10:52:31.000Z</time>
      </trkpt>
      <trkpt lat="47.28015" lon="-2.38059">
        <ele>48.799999237061</ele>
        <time>2020-02-13T10:52:37.000Z</time>
      </trkpt>
      <trkpt lat="47.28013" lon="-2.38045">
        <ele>48.799999237061</ele>
        <time>2020-02-13T10:52:38.000Z</time>
      </trkpt>
      <trkpt lat="47.27997" lon="-2.37967">
        <ele>48.799999237061</ele>
        <time>2020-02-13T10:52:44.000Z</time>
      </trkpt>
      <trkpt lat="47.27982" lon="-2.37887">
        <ele>48.799999237061</ele>
        <time>2020-02-13T10:52:50.000Z</time>
      </trkpt>
      <trkpt lat="47.2798" lon="-2.37873">
        <ele>48.799999237061</ele>
        <time>2020-02-13T10:52:51.000Z</time>
      </trkpt>
      <trkpt lat="47.27969" lon="-2.37806">
        <ele>48.799999237061</ele>
        <time>2020-02-13T10:52:56.000Z</time>
      </trkpt>
      <trkpt lat="47.27964" lon="-2.37779">
        <ele>48.799999237061</ele>
        <time>2020-02-13T10:52:58.000Z</time>
      </trkpt>
      <trkpt lat="47.27957" lon="-2.37752">
        <ele>48.799999237061</ele>
        <time>2020-02-13T10:53:00.000Z</time>
      </trkpt>
      <trkpt lat="47.27937" lon="-2.3767">
        <ele>48.799999237061</ele>
        <time>2020-02-13T10:53:06.000Z</time>
      </trkpt>
      <trkpt lat="47.2793" lon="-2.37641">
        <ele>48.799999237061</ele>
        <time>2020-02-13T10:53:08.000Z</time>
      </trkpt>
      <trkpt lat="47.27911" lon="-2.37561">
        <ele>48.799999237061</ele>
        <time>2020-02-13T10:53:14.000Z</time>
      </trkpt>
      <trkpt lat="47.27904" lon="-2.37534">
        <ele>48.799999237061</ele>
        <time>2020-02-13T10:53:16.000Z</time>
      </trkpt>
      <trkpt lat="47.27884" lon="-2.37451">
        <ele>48.799999237061</ele>
        <time>2020-02-13T10:53:22.000Z</time>
      </trkpt>
      <trkpt lat="47.27881" lon="-2.37437">
        <ele>48.799999237061</ele>
        <time>2020-02-13T10:53:23.000Z</time>
      </trkpt>
      <trkpt lat="47.2786" lon="-2.37353">
        <ele>49.200000762939</ele>
        <time>2020-02-13T10:53:29.000Z</time>
      </trkpt>
      <trkpt lat="47.27857" lon="-2.37339">
        <ele>49.599998474121</ele>
        <time>2020-02-13T10:53:30.000Z</time>
      </trkpt>
      <trkpt lat="47.27853" lon="-2.37325">
        <ele>50</ele>
        <time>2020-02-13T10:53:31.000Z</time>
      </trkpt>
      <trkpt lat="47.27849" lon="-2.37311">
        <ele>50.400001525879</ele>
        <time>2020-02-13T10:53:32.000Z</time>
      </trkpt>
      <trkpt lat="47.27845" lon="-2.37297">
        <ele>50.799999237061</ele>
        <time>2020-02-13T10:53:33.000Z</time>
      </trkpt>
      <trkpt lat="47.2783" lon="-2.3724">
        <ele>50.799999237061</ele>
        <time>2020-02-13T10:53:37.000Z</time>
      </trkpt>
      <trkpt lat="47.27817" lon="-2.37182">
        <ele>50.799999237061</ele>
        <time>2020-02-13T10:53:41.000Z</time>
      </trkpt>
      <trkpt lat="47.27813" lon="-2.37168">
        <ele>50.799999237061</ele>
        <time>2020-02-13T10:53:42.000Z</time>
      </trkpt>
      <trkpt lat="47.27796" lon="-2.37112">
        <ele>50.799999237061</ele>
        <time>2020-02-13T10:53:46.000Z</time>
      </trkpt>
      <trkpt lat="47.27773" lon="-2.37026">
        <ele>50.799999237061</ele>
        <time>2020-02-13T10:53:52.000Z</time>
      </trkpt>
      <trkpt lat="47.27761" lon="-2.36984">
        <ele>50.799999237061</ele>
        <time>2020-02-13T10:53:55.000Z</time>
      </trkpt>
      <trkpt lat="47.27738" lon="-2.36904">
        <ele>50.799999237061</ele>
        <time>2020-02-13T10:54:01.000Z</time>
      </trkpt>
      <trkpt lat="47.27727" lon="-2.36865">
        <ele>50.799999237061</ele>
        <time>2020-02-13T10:54:04.000Z</time>
      </trkpt>
      <trkpt lat="47.27704" lon="-2.36785">
        <ele>50.799999237061</ele>
        <time>2020-02-13T10:54:10.000Z</time>
      </trkpt>
      <trkpt lat="47.27696" lon="-2.36758">
        <ele>50.799999237061</ele>
        <time>2020-02-13T10:54:12.000Z</time>
      </trkpt>
      <trkpt lat="47.27669" lon="-2.36685">
        <ele>50.799999237061</ele>
        <time>2020-02-13T10:54:18.000Z</time>
      </trkpt>
      <trkpt lat="47.27665" lon="-2.36672">
        <ele>50.799999237061</ele>
        <time>2020-02-13T10:54:19.000Z</time>
      </trkpt>
      <trkpt lat="47.27647" lon="-2.36621">
        <ele>50.400001525879</ele>
        <time>2020-02-13T10:54:23.000Z</time>
      </trkpt>
      <trkpt lat="47.27643" lon="-2.36608">
        <ele>50</ele>
        <time>2020-02-13T10:54:24.000Z</time>
      </trkpt>
      <trkpt lat="47.27638" lon="-2.36595">
        <ele>49.599998474121</ele>
        <time>2020-02-13T10:54:25.000Z</time>
      </trkpt>
      <trkpt lat="47.27634" lon="-2.36582">
        <ele>49</ele>
        <time>2020-02-13T10:54:26.000Z</time>
      </trkpt>
      <trkpt lat="47.27629" lon="-2.36568">
        <ele>48.599998474121</ele>
        <time>2020-02-13T10:54:27.000Z</time>
      </trkpt>
      <trkpt lat="47.27599" lon="-2.36484">
        <ele>48.599998474121</ele>
        <time>2020-02-13T10:54:33.000Z</time>
      </trkpt>
      <trkpt lat="47.27593" lon="-2.3647">
        <ele>48.599998474121</ele>
        <time>2020-02-13T10:54:34.000Z</time>
      </trkpt>
      <trkpt lat="47.27565" lon="-2.36396">
        <ele>48.599998474121</ele>
        <time>2020-02-13T10:54:39.000Z</time>
      </trkpt>
      <trkpt lat="47.2756" lon="-2.36381">
        <ele>48.599998474121</ele>
        <time>2020-02-13T10:54:40.000Z</time>
      </trkpt>
      <trkpt lat="47.27531" lon="-2.36307">
        <ele>48.599998474121</ele>
        <time>2020-02-13T10:54:45.000Z</time>
      </trkpt>
      <trkpt lat="47.27514" lon="-2.36262">
        <ele>48.599998474121</ele>
        <time>2020-02-13T10:54:48.000Z</time>
      </trkpt>
      <trkpt lat="47.27488" lon="-2.36192">
        <ele>48.599998474121</ele>
        <time>2020-02-13T10:54:53.000Z</time>
      </trkpt>
      <trkpt lat="47.27477" lon="-2.36164">
        <ele>48.599998474121</ele>
        <time>2020-02-13T10:54:55.000Z</time>
      </trkpt>
      <trkpt lat="47.27468" lon="-2.36138">
        <ele>48.599998474121</ele>
        <time>2020-02-13T10:54:57.000Z</time>
      </trkpt>
      <trkpt lat="47.27459" lon="-2.36111">
        <ele>48.599998474121</ele>
        <time>2020-02-13T10:54:59.000Z</time>
      </trkpt>
      <trkpt lat="47.27454" lon="-2.36098">
        <ele>48.599998474121</ele>
        <time>2020-02-13T10:55:00.000Z</time>
      </trkpt>
      <trkpt lat="47.27443" lon="-2.36071">
        <ele>49</ele>
        <time>2020-02-13T10:55:02.000Z</time>
      </trkpt>
      <trkpt lat="47.27438" lon="-2.36057">
        <ele>49.599998474121</ele>
        <time>2020-02-13T10:55:03.000Z</time>
      </trkpt>
      <trkpt lat="47.27433" lon="-2.36043">
        <ele>50</ele>
        <time>2020-02-13T10:55:04.000Z</time>
      </trkpt>
      <trkpt lat="47.27427" lon="-2.3603">
        <ele>50.599998474121</ele>
        <time>2020-02-13T10:55:05.000Z</time>
      </trkpt>
      <trkpt lat="47.27422" lon="-2.36017">
        <ele>51</ele>
        <time>2020-02-13T10:55:06.000Z</time>
      </trkpt>
      <trkpt lat="47.27394" lon="-2.3595">
        <ele>50.599998474121</ele>
        <time>2020-02-13T10:55:11.000Z</time>
      </trkpt>
      <trkpt lat="47.27388" lon="-2.35937">
        <ele>50.200000762939</ele>
        <time>2020-02-13T10:55:12.000Z</time>
      </trkpt>
      <trkpt lat="47.27383" lon="-2.35924">
        <ele>49.799999237061</ele>
        <time>2020-02-13T10:55:13.000Z</time>
      </trkpt>
      <trkpt lat="47.27378" lon="-2.35911">
        <ele>49.200000762939</ele>
        <time>2020-02-13T10:55:14.000Z</time>
      </trkpt>
      <trkpt lat="47.27373" lon="-2.35898">
        <ele>48.799999237061</ele>
        <time>2020-02-13T10:55:15.000Z</time>
      </trkpt>
      <trkpt lat="47.27343" lon="-2.35821">
        <ele>48.799999237061</ele>
        <time>2020-02-13T10:55:21.000Z</time>
      </trkpt>
      <trkpt lat="47.2732" lon="-2.35757">
        <ele>48.799999237061</ele>
        <time>2020-02-13T10:55:26.000Z</time>
      </trkpt>
      <trkpt lat="47.27314" lon="-2.35746">
        <ele>48.799999237061</ele>
        <time>2020-02-13T10:55:27.000Z</time>
      </trkpt>
      <trkpt lat="47.273" lon="-2.3571">
        <ele>48.799999237061</ele>
        <time>2020-02-13T10:55:30.000Z</time>
      </trkpt>
      <trkpt lat="47.27294" lon="-2.35698">
        <ele>48.400001525879</ele>
        <time>2020-02-13T10:55:31.000Z</time>
      </trkpt>
      <trkpt lat="47.27288" lon="-2.35687">
        <ele>47.799999237061</ele>
        <time>2020-02-13T10:55:32.000Z</time>
      </trkpt>
      <trkpt lat="47.27283" lon="-2.35675">
        <ele>47.400001525879</ele>
        <time>2020-02-13T10:55:33.000Z</time>
      </trkpt>
      <trkpt lat="47.27277" lon="-2.35664">
        <ele>46.799999237061</ele>
        <time>2020-02-13T10:55:34.000Z</time>
      </trkpt>
      <trkpt lat="47.27272" lon="-2.35652">
        <ele>46.400001525879</ele>
        <time>2020-02-13T10:55:35.000Z</time>
      </trkpt>
      <trkpt lat="47.27256" lon="-2.35618">
        <ele>46.400001525879</ele>
        <time>2020-02-13T10:55:38.000Z</time>
      </trkpt>
      <trkpt lat="47.27225" lon="-2.35548">
        <ele>46.400001525879</ele>
        <time>2020-02-13T10:55:44.000Z</time>
      </trkpt>
      <trkpt lat="47.2722" lon="-2.35537">
        <ele>46.799999237061</ele>
        <time>2020-02-13T10:55:45.000Z</time>
      </trkpt>
      <trkpt lat="47.27214" lon="-2.35525">
        <ele>47.200000762939</ele>
        <time>2020-02-13T10:55:46.000Z</time>
      </trkpt>
      <trkpt lat="47.27209" lon="-2.35514">
        <ele>47.799999237061</ele>
        <time>2020-02-13T10:55:47.000Z</time>
      </trkpt>
      <trkpt lat="47.27203" lon="-2.35502">
        <ele>48.200000762939</ele>
        <time>2020-02-13T10:55:48.000Z</time>
      </trkpt>
      <trkpt lat="47.27197" lon="-2.3549">
        <ele>48.599998474121</ele>
        <time>2020-02-13T10:55:49.000Z</time>
      </trkpt>
      <trkpt lat="47.27173" lon="-2.35442">
        <ele>48.599998474121</ele>
        <time>2020-02-13T10:55:53.000Z</time>
      </trkpt>
      <trkpt lat="47.27135" lon="-2.35371">
        <ele>48.599998474121</ele>
        <time>2020-02-13T10:55:59.000Z</time>
      </trkpt>
      <trkpt lat="47.27128" lon="-2.3536">
        <ele>48.599998474121</ele>
        <time>2020-02-13T10:56:00.000Z</time>
      </trkpt>
      <trkpt lat="47.27086" lon="-2.35292">
        <ele>48.599998474121</ele>
        <time>2020-02-13T10:56:06.000Z</time>
      </trkpt>
      <trkpt lat="47.27072" lon="-2.35271">
        <ele>48.599998474121</ele>
        <time>2020-02-13T10:56:08.000Z</time>
      </trkpt>
      <trkpt lat="47.27037" lon="-2.35218">
        <ele>48.200000762939</ele>
        <time>2020-02-13T10:56:13.000Z</time>
      </trkpt>
      <trkpt lat="47.2703" lon="-2.35207">
        <ele>47.799999237061</ele>
        <time>2020-02-13T10:56:14.000Z</time>
      </trkpt>
      <trkpt lat="47.27023" lon="-2.35197">
        <ele>47.400001525879</ele>
        <time>2020-02-13T10:56:15.000Z</time>
      </trkpt>
      <trkpt lat="47.27016" lon="-2.35186">
        <ele>47</ele>
        <time>2020-02-13T10:56:16.000Z</time>
      </trkpt>
      <trkpt lat="47.27009" lon="-2.35176">
        <ele>46.599998474121</ele>
        <time>2020-02-13T10:56:17.000Z</time>
      </trkpt>
      <trkpt lat="47.26995" lon="-2.35154">
        <ele>46.599998474121</ele>
        <time>2020-02-13T10:56:19.000Z</time>
      </trkpt>
      <trkpt lat="47.26952" lon="-2.3509">
        <ele>46.599998474121</ele>
        <time>2020-02-13T10:56:25.000Z</time>
      </trkpt>
      <trkpt lat="47.26938" lon="-2.35068">
        <ele>46.599998474121</ele>
        <time>2020-02-13T10:56:27.000Z</time>
      </trkpt>
      <trkpt lat="47.2691" lon="-2.35025">
        <ele>47.400001525879</ele>
        <time>2020-02-13T10:56:31.000Z</time>
      </trkpt>
      <trkpt lat="47.26903" lon="-2.35015">
        <ele>47.799999237061</ele>
        <time>2020-02-13T10:56:32.000Z</time>
      </trkpt>
      <trkpt lat="47.26896" lon="-2.35004">
        <ele>48.200000762939</ele>
        <time>2020-02-13T10:56:33.000Z</time>
      </trkpt>
      <trkpt lat="47.26889" lon="-2.34994">
        <ele>48.599998474121</ele>
        <time>2020-02-13T10:56:34.000Z</time>
      </trkpt>
      <trkpt lat="47.26883" lon="-2.34984">
        <ele>48.200000762939</ele>
        <time>2020-02-13T10:56:35.000Z</time>
      </trkpt>
      <trkpt lat="47.26876" lon="-2.34974">
        <ele>47.799999237061</ele>
        <time>2020-02-13T10:56:36.000Z</time>
      </trkpt>
      <trkpt lat="47.2687" lon="-2.34964">
        <ele>47.400001525879</ele>
        <time>2020-02-13T10:56:37.000Z</time>
      </trkpt>
      <trkpt lat="47.26863" lon="-2.34954">
        <ele>47</ele>
        <time>2020-02-13T10:56:38.000Z</time>
      </trkpt>
      <trkpt lat="47.26856" lon="-2.34943">
        <ele>46.400001525879</ele>
        <time>2020-02-13T10:56:39.000Z</time>
      </trkpt>
      <trkpt lat="47.26849" lon="-2.34933">
        <ele>46.400001525879</ele>
        <time>2020-02-13T10:56:40.000Z</time>
      </trkpt>
      <trkpt lat="47.26808" lon="-2.34872">
        <ele>46.400001525879</ele>
        <time>2020-02-13T10:56:46.000Z</time>
      </trkpt>
      <trkpt lat="47.26795" lon="-2.34852">
        <ele>46.400001525879</ele>
        <time>2020-02-13T10:56:48.000Z</time>
      </trkpt>
      <trkpt lat="47.26753" lon="-2.34797">
        <ele>46.400001525879</ele>
        <time>2020-02-13T10:56:54.000Z</time>
      </trkpt>
      <trkpt lat="47.26747" lon="-2.34788">
        <ele>46.400001525879</ele>
        <time>2020-02-13T10:56:55.000Z</time>
      </trkpt>
      <trkpt lat="47.26707" lon="-2.34739">
        <ele>46.400001525879</ele>
        <time>2020-02-13T10:57:01.000Z</time>
      </trkpt>
      <trkpt lat="47.26659" lon="-2.34681">
        <ele>46.400001525879</ele>
        <time>2020-02-13T10:57:08.000Z</time>
      </trkpt>
      <trkpt lat="47.26639" lon="-2.34656">
        <ele>46.400001525879</ele>
        <time>2020-02-13T10:57:11.000Z</time>
      </trkpt>
      <trkpt lat="47.266" lon="-2.34608">
        <ele>46.400001525879</ele>
        <time>2020-02-13T10:57:17.000Z</time>
      </trkpt>
      <trkpt lat="47.26559" lon="-2.34565">
        <ele>47</ele>
        <time>2020-02-13T10:57:23.000Z</time>
      </trkpt>
      <trkpt lat="47.26553" lon="-2.34558">
        <ele>47.400001525879</ele>
        <time>2020-02-13T10:57:24.000Z</time>
      </trkpt>
      <trkpt lat="47.26547" lon="-2.34551">
        <ele>47.799999237061</ele>
        <time>2020-02-13T10:57:25.000Z</time>
      </trkpt>
      <trkpt lat="47.2654" lon="-2.34545">
        <ele>48.200000762939</ele>
        <time>2020-02-13T10:57:26.000Z</time>
      </trkpt>
      <trkpt lat="47.26534" lon="-2.34538">
        <ele>48.599998474121</ele>
        <time>2020-02-13T10:57:27.000Z</time>
      </trkpt>
      <trkpt lat="47.26508" lon="-2.34517">
        <ele>48.599998474121</ele>
        <time>2020-02-13T10:57:31.000Z</time>
      </trkpt>
      <trkpt lat="47.26494" lon="-2.34506">
        <ele>48.200000762939</ele>
        <time>2020-02-13T10:57:33.000Z</time>
      </trkpt>
      <trkpt lat="47.26487" lon="-2.34501">
        <ele>47.599998474121</ele>
        <time>2020-02-13T10:57:34.000Z</time>
      </trkpt>
      <trkpt lat="47.2648" lon="-2.34496">
        <ele>47.200000762939</ele>
        <time>2020-02-13T10:57:35.000Z</time>
      </trkpt>
      <trkpt lat="47.26473" lon="-2.34491">
        <ele>46.599998474121</ele>
        <time>2020-02-13T10:57:36.000Z</time>
      </trkpt>
      <trkpt lat="47.26466" lon="-2.34486">
        <ele>46.200000762939</ele>
        <time>2020-02-13T10:57:37.000Z</time>
      </trkpt>
      <trkpt lat="47.26451" lon="-2.34476">
        <ele>46.200000762939</ele>
        <time>2020-02-13T10:57:39.000Z</time>
      </trkpt>
      <trkpt lat="47.26409" lon="-2.34445">
        <ele>47</ele>
        <time>2020-02-13T10:57:45.000Z</time>
      </trkpt>
      <trkpt lat="47.26402" lon="-2.3444">
        <ele>47.599998474121</ele>
        <time>2020-02-13T10:57:46.000Z</time>
      </trkpt>
      <trkpt lat="47.26395" lon="-2.34434">
        <ele>48</ele>
        <time>2020-02-13T10:57:47.000Z</time>
      </trkpt>
      <trkpt lat="47.26389" lon="-2.34429">
        <ele>48.400001525879</ele>
        <time>2020-02-13T10:57:48.000Z</time>
      </trkpt>
      <trkpt lat="47.26352" lon="-2.34396">
        <ele>48.400001525879</ele>
        <time>2020-02-13T10:57:54.000Z</time>
      </trkpt>
      <trkpt lat="47.26347" lon="-2.34393">
        <ele>48.400001525879</ele>
        <time>2020-02-13T10:57:56.000Z</time>
      </trkpt>
      <trkpt lat="47.26337" lon="-2.34383">
        <ele>48.400001525879</ele>
        <time>2020-02-13T10:58:01.000Z</time>
      </trkpt>
      <trkpt lat="47.26322" lon="-2.34379">
        <ele>48.400001525879</ele>
        <time>2020-02-13T10:58:04.000Z</time>
      </trkpt>
      <trkpt lat="47.26312" lon="-2.3436">
        <ele>48.400001525879</ele>
        <time>2020-02-13T10:58:07.000Z</time>
      </trkpt>
      <trkpt lat="47.26308" lon="-2.34354">
        <ele>48.400001525879</ele>
        <time>2020-02-13T10:58:08.000Z</time>
      </trkpt>
      <trkpt lat="47.26298" lon="-2.34343">
        <ele>48</ele>
        <time>2020-02-13T10:58:10.000Z</time>
      </trkpt>
      <trkpt lat="47.26293" lon="-2.34338">
        <ele>47.599998474121</ele>
        <time>2020-02-13T10:58:11.000Z</time>
      </trkpt>
      <trkpt lat="47.26287" lon="-2.34332">
        <ele>47.200000762939</ele>
        <time>2020-02-13T10:58:12.000Z</time>
      </trkpt>
      <trkpt lat="47.26281" lon="-2.34326">
        <ele>46.799999237061</ele>
        <time>2020-02-13T10:58:13.000Z</time>
      </trkpt>
      <trkpt lat="47.26275" lon="-2.3432">
        <ele>46.400001525879</ele>
        <time>2020-02-13T10:58:14.000Z</time>
      </trkpt>
      <trkpt lat="47.26252" lon="-2.34295">
        <ele>46.400001525879</ele>
        <time>2020-02-13T10:58:18.000Z</time>
      </trkpt>
      <trkpt lat="47.26215" lon="-2.34257">
        <ele>46.400001525879</ele>
        <time>2020-02-13T10:58:24.000Z</time>
      </trkpt>
      <trkpt lat="47.26164" lon="-2.34206">
        <ele>46.799999237061</ele>
        <time>2020-02-13T10:58:32.000Z</time>
      </trkpt>
      <trkpt lat="47.26157" lon="-2.342">
        <ele>47.200000762939</ele>
        <time>2020-02-13T10:58:33.000Z</time>
      </trkpt>
      <trkpt lat="47.26151" lon="-2.34194">
        <ele>48.200000762939</ele>
        <time>2020-02-13T10:58:34.000Z</time>
      </trkpt>
      <trkpt lat="47.26144" lon="-2.34189">
        <ele>48.599998474121</ele>
        <time>2020-02-13T10:58:35.000Z</time>
      </trkpt>
      <trkpt lat="47.26131" lon="-2.34181">
        <ele>48.599998474121</ele>
        <time>2020-02-13T10:58:37.000Z</time>
      </trkpt>
      <trkpt lat="47.26119" lon="-2.3417">
        <ele>48.599998474121</ele>
        <time>2020-02-13T10:58:39.000Z</time>
      </trkpt>
      <trkpt lat="47.26113" lon="-2.34165">
        <ele>48.599998474121</ele>
        <time>2020-02-13T10:58:40.000Z</time>
      </trkpt>
      <trkpt lat="47.26107" lon="-2.34161">
        <ele>48.599998474121</ele>
        <time>2020-02-13T10:58:41.000Z</time>
      </trkpt>
      <trkpt lat="47.26101" lon="-2.34158">
        <ele>48.200000762939</ele>
        <time>2020-02-13T10:58:42.000Z</time>
      </trkpt>
      <trkpt lat="47.26094" lon="-2.34154">
        <ele>47.599998474121</ele>
        <time>2020-02-13T10:58:43.000Z</time>
      </trkpt>
      <trkpt lat="47.26087" lon="-2.34151">
        <ele>47.200000762939</ele>
        <time>2020-02-13T10:58:44.000Z</time>
      </trkpt>
      <trkpt lat="47.26081" lon="-2.34147">
        <ele>46.799999237061</ele>
        <time>2020-02-13T10:58:45.000Z</time>
      </trkpt>
      <trkpt lat="47.26074" lon="-2.34144">
        <ele>46.400001525879</ele>
        <time>2020-02-13T10:58:46.000Z</time>
      </trkpt>
      <trkpt lat="47.26068" lon="-2.34141">
        <ele>46.400001525879</ele>
        <time>2020-02-13T10:58:47.000Z</time>
      </trkpt>
      <trkpt lat="47.26048" lon="-2.3413">
        <ele>46</ele>
        <time>2020-02-13T10:58:50.000Z</time>
      </trkpt>
      <trkpt lat="47.26041" lon="-2.34126">
        <ele>45.400001525879</ele>
        <time>2020-02-13T10:58:51.000Z</time>
      </trkpt>
      <trkpt lat="47.26034" lon="-2.34123">
        <ele>45</ele>
        <time>2020-02-13T10:58:52.000Z</time>
      </trkpt>
      <trkpt lat="47.26027" lon="-2.34119">
        <ele>44.599998474121</ele>
        <time>2020-02-13T10:58:53.000Z</time>
      </trkpt>
      <trkpt lat="47.2602" lon="-2.34116">
        <ele>44.200000762939</ele>
        <time>2020-02-13T10:58:54.000Z</time>
      </trkpt>
      <trkpt lat="47.25977" lon="-2.34094">
        <ele>44.200000762939</ele>
        <time>2020-02-13T10:59:00.000Z</time>
      </trkpt>
      <trkpt lat="47.25935" lon="-2.34076">
        <ele>44.200000762939</ele>
        <time>2020-02-13T10:59:06.000Z</time>
      </trkpt>
      <trkpt lat="47.25928" lon="-2.34074">
        <ele>44.599998474121</ele>
        <time>2020-02-13T10:59:07.000Z</time>
      </trkpt>
      <trkpt lat="47.2592" lon="-2.34073">
        <ele>45</ele>
        <time>2020-02-13T10:59:08.000Z</time>
      </trkpt>
      <trkpt lat="47.25913" lon="-2.34072">
        <ele>45.400001525879</ele>
        <time>2020-02-13T10:59:09.000Z</time>
      </trkpt>
      <trkpt lat="47.25907" lon="-2.3407">
        <ele>45.799999237061</ele>
        <time>2020-02-13T10:59:10.000Z</time>
      </trkpt>
      <trkpt lat="47.25902" lon="-2.34065">
        <ele>46.400001525879</ele>
        <time>2020-02-13T10:59:11.000Z</time>
      </trkpt>
      <trkpt lat="47.25894" lon="-2.34051">
        <ele>46.400001525879</ele>
        <time>2020-02-13T10:59:13.000Z</time>
      </trkpt>
      <trkpt lat="47.25895" lon="-2.34024">
        <ele>46.400001525879</ele>
        <time>2020-02-13T10:59:16.000Z</time>
      </trkpt>
      <trkpt lat="47.25897" lon="-2.34016">
        <ele>46.400001525879</ele>
        <time>2020-02-13T10:59:17.000Z</time>
      </trkpt>
      <trkpt lat="47.25901" lon="-2.33999">
        <ele>46.400001525879</ele>
        <time>2020-02-13T10:59:19.000Z</time>
      </trkpt>
      <trkpt lat="47.25905" lon="-2.33983">
        <ele>46.400001525879</ele>
        <time>2020-02-13T10:59:21.000Z</time>
      </trkpt>
      <trkpt lat="47.25917" lon="-2.33951">
        <ele>46.400001525879</ele>
        <time>2020-02-13T10:59:25.000Z</time>
      </trkpt>
      <trkpt lat="47.25927" lon="-2.33933">
        <ele>46.400001525879</ele>
        <time>2020-02-13T10:59:28.000Z</time>
      </trkpt>
      <trkpt lat="47.2593" lon="-2.33929">
        <ele>46.400001525879</ele>
        <time>2020-02-13T10:59:29.000Z</time>
      </trkpt>
      <trkpt lat="47.25942" lon="-2.33902">
        <ele>46.400001525879</ele>
        <time>2020-02-13T10:59:34.000Z</time>
      </trkpt>
      <trkpt lat="47.25953" lon="-2.33872">
        <ele>46.400001525879</ele>
        <time>2020-02-13T10:59:39.000Z</time>
      </trkpt>
      <trkpt lat="47.25955" lon="-2.33865">
        <ele>46.400001525879</ele>
        <time>2020-02-13T10:59:40.000Z</time>
      </trkpt>
      <trkpt lat="47.25968" lon="-2.33822">
        <ele>46.400001525879</ele>
        <time>2020-02-13T10:59:46.000Z</time>
      </trkpt>
      <trkpt lat="47.25984" lon="-2.3378">
        <ele>46.400001525879</ele>
        <time>2020-02-13T10:59:52.000Z</time>
      </trkpt>
      <trkpt lat="47.25995" lon="-2.33741">
        <ele>46.400001525879</ele>
        <time>2020-02-13T10:59:57.000Z</time>
      </trkpt>
      <trkpt lat="47.25998" lon="-2.33733">
        <ele>46.400001525879</ele>
        <time>2020-02-13T10:59:58.000Z</time>
      </trkpt>
      <trkpt lat="47.26011" lon="-2.33684">
        <ele>46.400001525879</ele>
        <time>2020-02-13T11:00:04.000Z</time>
      </trkpt>
      <trkpt lat="47.26016" lon="-2.33656">
        <ele>46.400001525879</ele>
        <time>2020-02-13T11:00:07.000Z</time>
      </trkpt>
      <trkpt lat="47.26017" lon="-2.33637">
        <ele>46.400001525879</ele>
        <time>2020-02-13T11:00:09.000Z</time>
      </trkpt>
      <trkpt lat="47.26012" lon="-2.33608">
        <ele>46.400001525879</ele>
        <time>2020-02-13T11:00:12.000Z</time>
      </trkpt>
      <trkpt lat="47.2601" lon="-2.33599">
        <ele>46.400001525879</ele>
        <time>2020-02-13T11:00:13.000Z</time>
      </trkpt>
      <trkpt lat="47.25998" lon="-2.33561">
        <ele>46.400001525879</ele>
        <time>2020-02-13T11:00:17.000Z</time>
      </trkpt>
      <trkpt lat="47.25995" lon="-2.33552">
        <ele>46.400001525879</ele>
        <time>2020-02-13T11:00:18.000Z</time>
      </trkpt>
      <trkpt lat="47.25973" lon="-2.33511">
        <ele>46.400001525879</ele>
        <time>2020-02-13T11:00:23.000Z</time>
      </trkpt>
      <trkpt lat="47.25968" lon="-2.33504">
        <ele>46.400001525879</ele>
        <time>2020-02-13T11:00:24.000Z</time>
      </trkpt>
      <trkpt lat="47.25963" lon="-2.33496">
        <ele>46.400001525879</ele>
        <time>2020-02-13T11:00:25.000Z</time>
      </trkpt>
      <trkpt lat="47.25952" lon="-2.3347">
        <ele>46.400001525879</ele>
        <time>2020-02-13T11:00:28.000Z</time>
      </trkpt>
      <trkpt lat="47.25929" lon="-2.3342">
        <ele>46.400001525879</ele>
        <time>2020-02-13T11:00:34.000Z</time>
      </trkpt>
      <trkpt lat="47.25913" lon="-2.33363">
        <ele>46.400001525879</ele>
        <time>2020-02-13T11:00:40.000Z</time>
      </trkpt>
      <trkpt lat="47.25911" lon="-2.33353">
        <ele>46.400001525879</ele>
        <time>2020-02-13T11:00:41.000Z</time>
      </trkpt>
      <trkpt lat="47.25907" lon="-2.33321">
        <ele>46.400001525879</ele>
        <time>2020-02-13T11:00:44.000Z</time>
      </trkpt>
      <trkpt lat="47.25907" lon="-2.3331">
        <ele>46.400001525879</ele>
        <time>2020-02-13T11:00:45.000Z</time>
      </trkpt>
      <trkpt lat="47.25907" lon="-2.33288">
        <ele>46.400001525879</ele>
        <time>2020-02-13T11:00:47.000Z</time>
      </trkpt>
      <trkpt lat="47.25905" lon="-2.33254">
        <ele>46.400001525879</ele>
        <time>2020-02-13T11:00:50.000Z</time>
      </trkpt>
      <trkpt lat="47.25901" lon="-2.33172">
        <ele>46.400001525879</ele>
        <time>2020-02-13T11:00:57.000Z</time>
      </trkpt>
      <trkpt lat="47.25899" lon="-2.33149">
        <ele>46.400001525879</ele>
        <time>2020-02-13T11:00:59.000Z</time>
      </trkpt>
      <trkpt lat="47.25886" lon="-2.33094">
        <ele>46.400001525879</ele>
        <time>2020-02-13T11:01:05.000Z</time>
      </trkpt>
      <trkpt lat="47.25883" lon="-2.33085">
        <ele>46.799999237061</ele>
        <time>2020-02-13T11:01:06.000Z</time>
      </trkpt>
      <trkpt lat="47.2588" lon="-2.33076">
        <ele>47.200000762939</ele>
        <time>2020-02-13T11:01:07.000Z</time>
      </trkpt>
      <trkpt lat="47.25878" lon="-2.33067">
        <ele>47.599998474121</ele>
        <time>2020-02-13T11:01:08.000Z</time>
      </trkpt>
      <trkpt lat="47.25876" lon="-2.33058">
        <ele>48</ele>
        <time>2020-02-13T11:01:09.000Z</time>
      </trkpt>
      <trkpt lat="47.25873" lon="-2.3305">
        <ele>48.400001525879</ele>
        <time>2020-02-13T11:01:10.000Z</time>
      </trkpt>
      <trkpt lat="47.25871" lon="-2.33041">
        <ele>48.400001525879</ele>
        <time>2020-02-13T11:01:11.000Z</time>
      </trkpt>
      <trkpt lat="47.25854" lon="-2.32997">
        <ele>48.400001525879</ele>
        <time>2020-02-13T11:01:17.000Z</time>
      </trkpt>
      <trkpt lat="47.25851" lon="-2.32991">
        <ele>48.799999237061</ele>
        <time>2020-02-13T11:01:18.000Z</time>
      </trkpt>
      <trkpt lat="47.25848" lon="-2.32983">
        <ele>49.200000762939</ele>
        <time>2020-02-13T11:01:19.000Z</time>
      </trkpt>
      <trkpt lat="47.25844" lon="-2.32977">
        <ele>49.599998474121</ele>
        <time>2020-02-13T11:01:20.000Z</time>
      </trkpt>
      <trkpt lat="47.25841" lon="-2.32971">
        <ele>50.200000762939</ele>
        <time>2020-02-13T11:01:21.000Z</time>
      </trkpt>
      <trkpt lat="47.25835" lon="-2.32965">
        <ele>50.599998474121</ele>
        <time>2020-02-13T11:01:22.000Z</time>
      </trkpt>
      <trkpt lat="47.25806" lon="-2.32931">
        <ele>50.599998474121</ele>
        <time>2020-02-13T11:01:28.000Z</time>
      </trkpt>
      <trkpt lat="47.25784" lon="-2.32905">
        <ele>50.599998474121</ele>
        <time>2020-02-13T11:01:33.000Z</time>
      </trkpt>
      <trkpt lat="47.25766" lon="-2.32879">
        <ele>51</ele>
        <time>2020-02-13T11:01:38.000Z</time>
      </trkpt>
      <trkpt lat="47.25763" lon="-2.32872">
        <ele>51.400001525879</ele>
        <time>2020-02-13T11:01:39.000Z</time>
      </trkpt>
      <trkpt lat="47.2576" lon="-2.32866">
        <ele>51.799999237061</ele>
        <time>2020-02-13T11:01:40.000Z</time>
      </trkpt>
      <trkpt lat="47.25757" lon="-2.32859">
        <ele>52.200000762939</ele>
        <time>2020-02-13T11:01:41.000Z</time>
      </trkpt>
      <trkpt lat="47.25755" lon="-2.32852">
        <ele>52.599998474121</ele>
        <time>2020-02-13T11:01:42.000Z</time>
      </trkpt>
      <trkpt lat="47.25747" lon="-2.3283">
        <ele>52.599998474121</ele>
        <time>2020-02-13T11:01:45.000Z</time>
      </trkpt>
      <trkpt lat="47.25745" lon="-2.32822">
        <ele>53.599998474121</ele>
        <time>2020-02-13T11:01:46.000Z</time>
      </trkpt>
      <trkpt lat="47.25743" lon="-2.32814">
        <ele>54.200000762939</ele>
        <time>2020-02-13T11:01:47.000Z</time>
      </trkpt>
      <trkpt lat="47.25741" lon="-2.32806">
        <ele>54.599998474121</ele>
        <time>2020-02-13T11:01:48.000Z</time>
      </trkpt>
      <trkpt lat="47.25739" lon="-2.32799">
        <ele>55.200000762939</ele>
        <time>2020-02-13T11:01:49.000Z</time>
      </trkpt>
      <trkpt lat="47.25737" lon="-2.32783">
        <ele>55.200000762939</ele>
        <time>2020-02-13T11:01:51.000Z</time>
      </trkpt>
      <trkpt lat="47.25727" lon="-2.3272">
        <ele>55.200000762939</ele>
        <time>2020-02-13T11:01:59.000Z</time>
      </trkpt>
      <trkpt lat="47.25722" lon="-2.32663">
        <ele>54.799999237061</ele>
        <time>2020-02-13T11:02:05.000Z</time>
      </trkpt>
      <trkpt lat="47.25721" lon="-2.32653">
        <ele>54.400001525879</ele>
        <time>2020-02-13T11:02:06.000Z</time>
      </trkpt>
      <trkpt lat="47.25719" lon="-2.32643">
        <ele>54</ele>
        <time>2020-02-13T11:02:07.000Z</time>
      </trkpt>
      <trkpt lat="47.25717" lon="-2.32633">
        <ele>53.599998474121</ele>
        <time>2020-02-13T11:02:08.000Z</time>
      </trkpt>
      <trkpt lat="47.25715" lon="-2.32624">
        <ele>53.200000762939</ele>
        <time>2020-02-13T11:02:09.000Z</time>
      </trkpt>
      <trkpt lat="47.25709" lon="-2.32595">
        <ele>53.200000762939</ele>
        <time>2020-02-13T11:02:12.000Z</time>
      </trkpt>
      <trkpt lat="47.2569" lon="-2.32531">
        <ele>53.200000762939</ele>
        <time>2020-02-13T11:02:19.000Z</time>
      </trkpt>
      <trkpt lat="47.2568" lon="-2.32501">
        <ele>52.599998474121</ele>
        <time>2020-02-13T11:02:22.000Z</time>
      </trkpt>
      <trkpt lat="47.25677" lon="-2.32491">
        <ele>52.200000762939</ele>
        <time>2020-02-13T11:02:23.000Z</time>
      </trkpt>
      <trkpt lat="47.25674" lon="-2.3248">
        <ele>51.799999237061</ele>
        <time>2020-02-13T11:02:24.000Z</time>
      </trkpt>
      <trkpt lat="47.25671" lon="-2.3247">
        <ele>51.400001525879</ele>
        <time>2020-02-13T11:02:25.000Z</time>
      </trkpt>
      <trkpt lat="47.25668" lon="-2.32459">
        <ele>51</ele>
        <time>2020-02-13T11:02:26.000Z</time>
      </trkpt>
      <trkpt lat="47.25664" lon="-2.32442">
        <ele>51</ele>
        <time>2020-02-13T11:02:28.000Z</time>
      </trkpt>
      <trkpt lat="47.25662" lon="-2.32434">
        <ele>50.400001525879</ele>
        <time>2020-02-13T11:02:29.000Z</time>
      </trkpt>
      <trkpt lat="47.25661" lon="-2.32425">
        <ele>50</ele>
        <time>2020-02-13T11:02:30.000Z</time>
      </trkpt>
      <trkpt lat="47.25659" lon="-2.32416">
        <ele>49.599998474121</ele>
        <time>2020-02-13T11:02:31.000Z</time>
      </trkpt>
      <trkpt lat="47.25657" lon="-2.32406">
        <ele>49</ele>
        <time>2020-02-13T11:02:32.000Z</time>
      </trkpt>
      <trkpt lat="47.25657" lon="-2.32395">
        <ele>48.599998474121</ele>
        <time>2020-02-13T11:02:33.000Z</time>
      </trkpt>
      <trkpt lat="47.25657" lon="-2.32384">
        <ele>48.599998474121</ele>
        <time>2020-02-13T11:02:34.000Z</time>
      </trkpt>
      <trkpt lat="47.25656" lon="-2.32363">
        <ele>48.599998474121</ele>
        <time>2020-02-13T11:02:36.000Z</time>
      </trkpt>
      <trkpt lat="47.25652" lon="-2.32324">
        <ele>48.599998474121</ele>
        <time>2020-02-13T11:02:40.000Z</time>
      </trkpt>
      <trkpt lat="47.2565" lon="-2.32305">
        <ele>49</ele>
        <time>2020-02-13T11:02:42.000Z</time>
      </trkpt>
      <trkpt lat="47.25649" lon="-2.32295">
        <ele>49.599998474121</ele>
        <time>2020-02-13T11:02:43.000Z</time>
      </trkpt>
      <trkpt lat="47.2565" lon="-2.32286">
        <ele>50</ele>
        <time>2020-02-13T11:02:44.000Z</time>
      </trkpt>
      <trkpt lat="47.25649" lon="-2.32278">
        <ele>50.599998474121</ele>
        <time>2020-02-13T11:02:45.000Z</time>
      </trkpt>
      <trkpt lat="47.25649" lon="-2.32269">
        <ele>51</ele>
        <time>2020-02-13T11:02:46.000Z</time>
      </trkpt>
      <trkpt lat="47.25648" lon="-2.32261">
        <ele>51.400001525879</ele>
        <time>2020-02-13T11:02:47.000Z</time>
      </trkpt>
      <trkpt lat="47.25648" lon="-2.32252">
        <ele>52</ele>
        <time>2020-02-13T11:02:48.000Z</time>
      </trkpt>
      <trkpt lat="47.25648" lon="-2.32244">
        <ele>52.400001525879</ele>
        <time>2020-02-13T11:02:49.000Z</time>
      </trkpt>
      <trkpt lat="47.25647" lon="-2.32236">
        <ele>52.799999237061</ele>
        <time>2020-02-13T11:02:50.000Z</time>
      </trkpt>
      <trkpt lat="47.25647" lon="-2.32228">
        <ele>53.400001525879</ele>
        <time>2020-02-13T11:02:51.000Z</time>
      </trkpt>
      <trkpt lat="47.25646" lon="-2.3222">
        <ele>54</ele>
        <time>2020-02-13T11:02:52.000Z</time>
      </trkpt>
      <trkpt lat="47.25646" lon="-2.32212">
        <ele>54.400001525879</ele>
        <time>2020-02-13T11:02:53.000Z</time>
      </trkpt>
      <trkpt lat="47.25645" lon="-2.32204">
        <ele>55</ele>
        <time>2020-02-13T11:02:54.000Z</time>
      </trkpt>
      <trkpt lat="47.25643" lon="-2.32196">
        <ele>55.599998474121</ele>
        <time>2020-02-13T11:02:55.000Z</time>
      </trkpt>
      <trkpt lat="47.25642" lon="-2.32188">
        <ele>55.599998474121</ele>
        <time>2020-02-13T11:02:56.000Z</time>
      </trkpt>
      <trkpt lat="47.25627" lon="-2.32129">
        <ele>55.599998474121</ele>
        <time>2020-02-13T11:03:03.000Z</time>
      </trkpt>
      <trkpt lat="47.25619" lon="-2.32105">
        <ele>56</ele>
        <time>2020-02-13T11:03:06.000Z</time>
      </trkpt>
      <trkpt lat="47.25617" lon="-2.32097">
        <ele>56.400001525879</ele>
        <time>2020-02-13T11:03:07.000Z</time>
      </trkpt>
      <trkpt lat="47.25613" lon="-2.3209">
        <ele>56.799999237061</ele>
        <time>2020-02-13T11:03:08.000Z</time>
      </trkpt>
      <trkpt lat="47.25611" lon="-2.32083">
        <ele>57.200000762939</ele>
        <time>2020-02-13T11:03:09.000Z</time>
      </trkpt>
      <trkpt lat="47.25608" lon="-2.32076">
        <ele>57.599998474121</ele>
        <time>2020-02-13T11:03:10.000Z</time>
      </trkpt>
      <trkpt lat="47.25592" lon="-2.32035">
        <ele>57.599998474121</ele>
        <time>2020-02-13T11:03:16.000Z</time>
      </trkpt>
      <trkpt lat="47.25579" lon="-2.31997">
        <ele>57.599998474121</ele>
        <time>2020-02-13T11:03:21.000Z</time>
      </trkpt>
      <trkpt lat="47.25574" lon="-2.31973">
        <ele>57.599998474121</ele>
        <time>2020-02-13T11:03:24.000Z</time>
      </trkpt>
      <trkpt lat="47.25568" lon="-2.31942">
        <ele>57.599998474121</ele>
        <time>2020-02-13T11:03:28.000Z</time>
      </trkpt>
      <trkpt lat="47.25567" lon="-2.31929">
        <ele>57.599998474121</ele>
        <time>2020-02-13T11:03:30.000Z</time>
      </trkpt>
      <trkpt lat="47.25565" lon="-2.31917">
        <ele>58.200000762939</ele>
        <time>2020-02-13T11:03:34.000Z</time>
      </trkpt>
      <trkpt lat="47.25564" lon="-2.31916">
        <ele>58.599998474121</ele>
        <time>2020-02-13T11:03:35.000Z</time>
      </trkpt>
      <trkpt lat="47.25563" lon="-2.31916">
        <ele>59</ele>
        <time>2020-02-13T11:03:36.000Z</time>
      </trkpt>
      <trkpt lat="47.25561" lon="-2.31916">
        <ele>59.400001525879</ele>
        <time>2020-02-13T11:03:37.000Z</time>
      </trkpt>
      <trkpt lat="47.25558" lon="-2.31917">
        <ele>59.799999237061</ele>
        <time>2020-02-13T11:03:38.000Z</time>
      </trkpt>
      <trkpt lat="47.25556" lon="-2.31917">
        <ele>59.799999237061</ele>
        <time>2020-02-13T11:03:39.000Z</time>
      </trkpt>
      <trkpt lat="47.25544" lon="-2.31919">
        <ele>60.200000762939</ele>
        <time>2020-02-13T11:03:44.000Z</time>
      </trkpt>
      <trkpt lat="47.25541" lon="-2.31918">
        <ele>60.599998474121</ele>
        <time>2020-02-13T11:03:45.000Z</time>
      </trkpt>
      <trkpt lat="47.25537" lon="-2.31918">
        <ele>61</ele>
        <time>2020-02-13T11:03:46.000Z</time>
      </trkpt>
      <trkpt lat="47.25533" lon="-2.31918">
        <ele>61.400001525879</ele>
        <time>2020-02-13T11:03:47.000Z</time>
      </trkpt>
      <trkpt lat="47.2553" lon="-2.31917">
        <ele>61.799999237061</ele>
        <time>2020-02-13T11:03:48.000Z</time>
      </trkpt>
      <trkpt lat="47.25522" lon="-2.31907">
        <ele>61.799999237061</ele>
        <time>2020-02-13T11:03:51.000Z</time>
      </trkpt>
      <trkpt lat="47.25519" lon="-2.31887">
        <ele>61.799999237061</ele>
        <time>2020-02-13T11:03:56.000Z</time>
      </trkpt>
      <trkpt lat="47.25515" lon="-2.31854">
        <ele>61.799999237061</ele>
        <time>2020-02-13T11:04:03.000Z</time>
      </trkpt>
      <trkpt lat="47.25515" lon="-2.31844">
        <ele>61.799999237061</ele>
        <time>2020-02-13T11:04:07.000Z</time>
      </trkpt>
      <trkpt lat="47.25516" lon="-2.31845">
        <ele>61.799999237061</ele>
        <time>2020-02-13T11:04:10.000Z</time>
      </trkpt>
      <trkpt lat="47.25515" lon="-2.31838">
        <ele>63.799999237061</ele>
        <time>2020-02-13T11:09:09.000Z</time>
      </trkpt>
      <trkpt lat="47.25515" lon="-2.31834">
        <ele>63.400001525879</ele>
        <time>2020-02-13T11:09:11.000Z</time>
      </trkpt>
      <trkpt lat="47.25515" lon="-2.31831">
        <ele>62.599998474121</ele>
        <time>2020-02-13T11:09:12.000Z</time>
      </trkpt>
      <trkpt lat="47.25514" lon="-2.31828">
        <ele>62.200000762939</ele>
        <time>2020-02-13T11:09:13.000Z</time>
      </trkpt>
      <trkpt lat="47.25514" lon="-2.31825">
        <ele>61.799999237061</ele>
        <time>2020-02-13T11:09:14.000Z</time>
      </trkpt>
      <trkpt lat="47.25512" lon="-2.31822">
        <ele>61.799999237061</ele>
        <time>2020-02-13T11:09:15.000Z</time>
      </trkpt>
      <trkpt lat="47.25516" lon="-2.31813">
        <ele>61.799999237061</ele>
        <time>2020-02-13T11:09:19.000Z</time>
      </trkpt>
      <trkpt lat="47.25529" lon="-2.3181">
        <ele>61.799999237061</ele>
        <time>2020-02-13T11:09:25.000Z</time>
      </trkpt>
      <trkpt lat="47.25546" lon="-2.318">
        <ele>61.799999237061</ele>
        <time>2020-02-13T11:09:30.000Z</time>
      </trkpt>
      <trkpt lat="47.2556" lon="-2.31788">
        <ele>61.799999237061</ele>
        <time>2020-02-13T11:09:34.000Z</time>
      </trkpt>
      <trkpt lat="47.25564" lon="-2.31783">
        <ele>61.799999237061</ele>
        <time>2020-02-13T11:09:35.000Z</time>
      </trkpt>
      <trkpt lat="47.2558" lon="-2.31762">
        <ele>61.200000762939</ele>
        <time>2020-02-13T11:09:39.000Z</time>
      </trkpt>
      <trkpt lat="47.25584" lon="-2.31754">
        <ele>60.799999237061</ele>
        <time>2020-02-13T11:09:40.000Z</time>
      </trkpt>
      <trkpt lat="47.25588" lon="-2.31747">
        <ele>60.400001525879</ele>
        <time>2020-02-13T11:09:41.000Z</time>
      </trkpt>
      <trkpt lat="47.25591" lon="-2.31739">
        <ele>59.799999237061</ele>
        <time>2020-02-13T11:09:42.000Z</time>
      </trkpt>
      <trkpt lat="47.25593" lon="-2.31731">
        <ele>59.400001525879</ele>
        <time>2020-02-13T11:09:43.000Z</time>
      </trkpt>
      <trkpt lat="47.25598" lon="-2.31718">
        <ele>59.400001525879</ele>
        <time>2020-02-13T11:09:45.000Z</time>
      </trkpt>
      <trkpt lat="47.25612" lon="-2.31707">
        <ele>59.400001525879</ele>
        <time>2020-02-13T11:09:48.000Z</time>
      </trkpt>
      <trkpt lat="47.25622" lon="-2.31707">
        <ele>59.400001525879</ele>
        <time>2020-02-13T11:09:50.000Z</time>
      </trkpt>
      <trkpt lat="47.25627" lon="-2.31707">
        <ele>59.400001525879</ele>
        <time>2020-02-13T11:09:51.000Z</time>
      </trkpt>
      <trkpt lat="47.25632" lon="-2.31705">
        <ele>59.400001525879</ele>
        <time>2020-02-13T11:09:52.000Z</time>
      </trkpt>
      <trkpt lat="47.25648" lon="-2.31691">
        <ele>59.400001525879</ele>
        <time>2020-02-13T11:09:55.000Z</time>
      </trkpt>
      <trkpt lat="47.25653" lon="-2.31684">
        <ele>59</ele>
        <time>2020-02-13T11:09:56.000Z</time>
      </trkpt>
      <trkpt lat="47.25655" lon="-2.31678">
        <ele>58.400001525879</ele>
        <time>2020-02-13T11:09:57.000Z</time>
      </trkpt>
      <trkpt lat="47.25658" lon="-2.31671">
        <ele>58</ele>
        <time>2020-02-13T11:09:58.000Z</time>
      </trkpt>
      <trkpt lat="47.2566" lon="-2.31667">
        <ele>57.599998474121</ele>
        <time>2020-02-13T11:09:59.000Z</time>
      </trkpt>
      <trkpt lat="47.25661" lon="-2.31664">
        <ele>57</ele>
        <time>2020-02-13T11:10:00.000Z</time>
      </trkpt>
      <trkpt lat="47.25664" lon="-2.31661">
        <ele>57</ele>
        <time>2020-02-13T11:10:02.000Z</time>
      </trkpt>
      <trkpt lat="47.25667" lon="-2.31662">
        <ele>57</ele>
        <time>2020-02-13T11:10:03.000Z</time>
      </trkpt>
      <trkpt lat="47.25674" lon="-2.31667">
        <ele>57</ele>
        <time>2020-02-13T11:10:05.000Z</time>
      </trkpt>
      <trkpt lat="47.25681" lon="-2.31672">
        <ele>57</ele>
        <time>2020-02-13T11:10:07.000Z</time>
      </trkpt>
      <trkpt lat="47.25691" lon="-2.31675">
        <ele>57</ele>
        <time>2020-02-13T11:10:09.000Z</time>
      </trkpt>
      <trkpt lat="47.25702" lon="-2.3168">
        <ele>57</ele>
        <time>2020-02-13T11:10:11.000Z</time>
      </trkpt>
      <trkpt lat="47.25718" lon="-2.31692">
        <ele>57</ele>
        <time>2020-02-13T11:10:14.000Z</time>
      </trkpt>
      <trkpt lat="47.25729" lon="-2.31696">
        <ele>56.599998474121</ele>
        <time>2020-02-13T11:10:16.000Z</time>
      </trkpt>
      <trkpt lat="47.25735" lon="-2.31693">
        <ele>56</ele>
        <time>2020-02-13T11:10:17.000Z</time>
      </trkpt>
      <trkpt lat="47.25741" lon="-2.31688">
        <ele>55.400001525879</ele>
        <time>2020-02-13T11:10:18.000Z</time>
      </trkpt>
      <trkpt lat="47.25746" lon="-2.31683">
        <ele>54.799999237061</ele>
        <time>2020-02-13T11:10:19.000Z</time>
      </trkpt>
      <trkpt lat="47.25751" lon="-2.31679">
        <ele>54.200000762939</ele>
        <time>2020-02-13T11:10:20.000Z</time>
      </trkpt>
      <trkpt lat="47.25757" lon="-2.31674">
        <ele>53.400001525879</ele>
        <time>2020-02-13T11:10:21.000Z</time>
      </trkpt>
      <trkpt lat="47.25762" lon="-2.3167">
        <ele>52.799999237061</ele>
        <time>2020-02-13T11:10:22.000Z</time>
      </trkpt>
      <trkpt lat="47.25768" lon="-2.31666">
        <ele>52.200000762939</ele>
        <time>2020-02-13T11:10:23.000Z</time>
      </trkpt>
      <trkpt lat="47.25788" lon="-2.3165">
        <ele>52.200000762939</ele>
        <time>2020-02-13T11:10:27.000Z</time>
      </trkpt>
      <trkpt lat="47.25802" lon="-2.31639">
        <ele>52.599998474121</ele>
        <time>2020-02-13T11:10:30.000Z</time>
      </trkpt>
      <trkpt lat="47.25807" lon="-2.31635">
        <ele>53</ele>
        <time>2020-02-13T11:10:31.000Z</time>
      </trkpt>
      <trkpt lat="47.25812" lon="-2.31631">
        <ele>53.400001525879</ele>
        <time>2020-02-13T11:10:32.000Z</time>
      </trkpt>
      <trkpt lat="47.25817" lon="-2.31626">
        <ele>53.799999237061</ele>
        <time>2020-02-13T11:10:33.000Z</time>
      </trkpt>
      <trkpt lat="47.25822" lon="-2.31622">
        <ele>54.200000762939</ele>
        <time>2020-02-13T11:10:34.000Z</time>
      </trkpt>
      <trkpt lat="47.25837" lon="-2.3161">
        <ele>54.799999237061</ele>
        <time>2020-02-13T11:10:37.000Z</time>
      </trkpt>
      <trkpt lat="47.25842" lon="-2.31605">
        <ele>55.200000762939</ele>
        <time>2020-02-13T11:10:38.000Z</time>
      </trkpt>
      <trkpt lat="47.25847" lon="-2.316">
        <ele>55.599998474121</ele>
        <time>2020-02-13T11:10:39.000Z</time>
      </trkpt>
      <trkpt lat="47.25852" lon="-2.31594">
        <ele>56</ele>
        <time>2020-02-13T11:10:40.000Z</time>
      </trkpt>
      <trkpt lat="47.25858" lon="-2.3159">
        <ele>56.400001525879</ele>
        <time>2020-02-13T11:10:41.000Z</time>
      </trkpt>
      <trkpt lat="47.2588" lon="-2.31567">
        <ele>56.400001525879</ele>
        <time>2020-02-13T11:10:45.000Z</time>
      </trkpt>
      <trkpt lat="47.25893" lon="-2.3154">
        <ele>56</ele>
        <time>2020-02-13T11:10:48.000Z</time>
      </trkpt>
      <trkpt lat="47.25896" lon="-2.31532">
        <ele>55.599998474121</ele>
        <time>2020-02-13T11:10:49.000Z</time>
      </trkpt>
      <trkpt lat="47.25899" lon="-2.31525">
        <ele>55.200000762939</ele>
        <time>2020-02-13T11:10:50.000Z</time>
      </trkpt>
      <trkpt lat="47.25902" lon="-2.31519">
        <ele>54</ele>
        <time>2020-02-13T11:10:51.000Z</time>
      </trkpt>
      <trkpt lat="47.25905" lon="-2.31516">
        <ele>53.400001525879</ele>
        <time>2020-02-13T11:10:52.000Z</time>
      </trkpt>
      <trkpt lat="47.25908" lon="-2.31513">
        <ele>52.799999237061</ele>
        <time>2020-02-13T11:10:53.000Z</time>
      </trkpt>
      <trkpt lat="47.2591" lon="-2.3151">
        <ele>52.200000762939</ele>
        <time>2020-02-13T11:10:54.000Z</time>
      </trkpt>
      <trkpt lat="47.2591" lon="-2.31504">
        <ele>52.200000762939</ele>
        <time>2020-02-13T11:10:56.000Z</time>
      </trkpt>
      <trkpt lat="47.2591" lon="-2.31498">
        <ele>52.200000762939</ele>
        <time>2020-02-13T11:11:00.000Z</time>
      </trkpt>
      <trkpt lat="47.25916" lon="-2.31483">
        <ele>52.200000762939</ele>
        <time>2020-02-13T11:11:03.000Z</time>
      </trkpt>
      <trkpt lat="47.25925" lon="-2.31457">
        <ele>52.200000762939</ele>
        <time>2020-02-13T11:11:07.000Z</time>
      </trkpt>
      <trkpt lat="47.2593" lon="-2.31454">
        <ele>52.200000762939</ele>
        <time>2020-02-13T11:11:08.000Z</time>
      </trkpt>
      <trkpt lat="47.25943" lon="-2.31459">
        <ele>52.200000762939</ele>
        <time>2020-02-13T11:11:11.000Z</time>
      </trkpt>
      <trkpt lat="47.25954" lon="-2.31453">
        <ele>52.200000762939</ele>
        <time>2020-02-13T11:11:14.000Z</time>
      </trkpt>
      <trkpt lat="47.25957" lon="-2.31447">
        <ele>51.400001525879</ele>
        <time>2020-02-13T11:11:15.000Z</time>
      </trkpt>
      <trkpt lat="47.2596" lon="-2.31441">
        <ele>50.799999237061</ele>
        <time>2020-02-13T11:11:16.000Z</time>
      </trkpt>
      <trkpt lat="47.25963" lon="-2.31435">
        <ele>50.400001525879</ele>
        <time>2020-02-13T11:11:17.000Z</time>
      </trkpt>
      <trkpt lat="47.25965" lon="-2.3143">
        <ele>50</ele>
        <time>2020-02-13T11:11:18.000Z</time>
      </trkpt>
      <trkpt lat="47.25969" lon="-2.31425">
        <ele>50</ele>
        <time>2020-02-13T11:11:19.000Z</time>
      </trkpt>
      <trkpt lat="47.25982" lon="-2.31421">
        <ele>50</ele>
        <time>2020-02-13T11:11:22.000Z</time>
      </trkpt>
      <trkpt lat="47.25997" lon="-2.31431">
        <ele>50</ele>
        <time>2020-02-13T11:11:25.000Z</time>
      </trkpt>
      <trkpt lat="47.26026" lon="-2.31452">
        <ele>50</ele>
        <time>2020-02-13T11:11:31.000Z</time>
      </trkpt>
      <trkpt lat="47.26057" lon="-2.31474">
        <ele>50</ele>
        <time>2020-02-13T11:11:38.000Z</time>
      </trkpt>
      <trkpt lat="47.26059" lon="-2.31478">
        <ele>50.400001525879</ele>
        <time>2020-02-13T11:11:39.000Z</time>
      </trkpt>
      <trkpt lat="47.26059" lon="-2.31483">
        <ele>51.200000762939</ele>
        <time>2020-02-13T11:11:40.000Z</time>
      </trkpt>
      <trkpt lat="47.26059" lon="-2.31488">
        <ele>51.599998474121</ele>
        <time>2020-02-13T11:11:41.000Z</time>
      </trkpt>
      <trkpt lat="47.26057" lon="-2.31492">
        <ele>52</ele>
        <time>2020-02-13T11:11:42.000Z</time>
      </trkpt>
      <trkpt lat="47.2605" lon="-2.31498">
        <ele>52</ele>
        <time>2020-02-13T11:11:44.000Z</time>
      </trkpt>
      <trkpt lat="47.26044" lon="-2.31512">
        <ele>52</ele>
        <time>2020-02-13T11:11:48.000Z</time>
      </trkpt>
      <trkpt lat="47.26056" lon="-2.31532">
        <ele>51.599998474121</ele>
        <time>2020-02-13T11:11:52.000Z</time>
      </trkpt>
      <trkpt lat="47.26061" lon="-2.31537">
        <ele>51.200000762939</ele>
        <time>2020-02-13T11:11:53.000Z</time>
      </trkpt>
      <trkpt lat="47.26064" lon="-2.31544">
        <ele>50.799999237061</ele>
        <time>2020-02-13T11:11:54.000Z</time>
      </trkpt>
      <trkpt lat="47.26066" lon="-2.3155">
        <ele>50.400001525879</ele>
        <time>2020-02-13T11:11:55.000Z</time>
      </trkpt>
      <trkpt lat="47.26068" lon="-2.31558">
        <ele>49.799999237061</ele>
        <time>2020-02-13T11:11:56.000Z</time>
      </trkpt>
      <trkpt lat="47.26074" lon="-2.3157">
        <ele>49.799999237061</ele>
        <time>2020-02-13T11:11:58.000Z</time>
      </trkpt>
      <trkpt lat="47.26077" lon="-2.31575">
        <ele>49.799999237061</ele>
        <time>2020-02-13T11:12:00.000Z</time>
      </trkpt>
      <trkpt lat="47.26078" lon="-2.31575">
        <ele>49.799999237061</ele>
        <time>2020-02-13T11:12:01.000Z</time>
      </trkpt>
      <trkpt lat="47.26082" lon="-2.31575">
        <ele>49.799999237061</ele>
        <time>2020-02-13T11:12:04.000Z</time>
      </trkpt>
      <trkpt lat="47.26092" lon="-2.31588">
        <ele>49.799999237061</ele>
        <time>2020-02-13T11:12:08.000Z</time>
      </trkpt>
      <trkpt lat="47.26095" lon="-2.31593">
        <ele>49.799999237061</ele>
        <time>2020-02-13T11:12:09.000Z</time>
      </trkpt>
      <trkpt lat="47.26099" lon="-2.31598">
        <ele>49.799999237061</ele>
        <time>2020-02-13T11:12:10.000Z</time>
      </trkpt>
      <trkpt lat="47.26106" lon="-2.3161">
        <ele>49.799999237061</ele>
        <time>2020-02-13T11:12:12.000Z</time>
      </trkpt>
      <trkpt lat="47.26122" lon="-2.31613">
        <ele>49.799999237061</ele>
        <time>2020-02-13T11:12:15.000Z</time>
      </trkpt>
      <trkpt lat="47.26127" lon="-2.31613">
        <ele>49.799999237061</ele>
        <time>2020-02-13T11:12:16.000Z</time>
      </trkpt>
      <trkpt lat="47.26154" lon="-2.31606">
        <ele>49.799999237061</ele>
        <time>2020-02-13T11:12:21.000Z</time>
      </trkpt>
      <trkpt lat="47.26175" lon="-2.31597">
        <ele>49.799999237061</ele>
        <time>2020-02-13T11:12:25.000Z</time>
      </trkpt>
      <trkpt lat="47.26181" lon="-2.31596">
        <ele>49.799999237061</ele>
        <time>2020-02-13T11:12:26.000Z</time>
      </trkpt>
      <trkpt lat="47.2621" lon="-2.31588">
        <ele>49.799999237061</ele>
        <time>2020-02-13T11:12:31.000Z</time>
      </trkpt>
      <trkpt lat="47.26231" lon="-2.31593">
        <ele>49.799999237061</ele>
        <time>2020-02-13T11:12:35.000Z</time>
      </trkpt>
      <trkpt lat="47.26235" lon="-2.31596">
        <ele>49.799999237061</ele>
        <time>2020-02-13T11:12:36.000Z</time>
      </trkpt>
      <trkpt lat="47.26252" lon="-2.31618">
        <ele>49.799999237061</ele>
        <time>2020-02-13T11:12:40.000Z</time>
      </trkpt>
      <trkpt lat="47.26255" lon="-2.31624">
        <ele>49.799999237061</ele>
        <time>2020-02-13T11:12:41.000Z</time>
      </trkpt>
      <trkpt lat="47.2627" lon="-2.31658">
        <ele>49.799999237061</ele>
        <time>2020-02-13T11:12:46.000Z</time>
      </trkpt>
      <trkpt lat="47.26288" lon="-2.31695">
        <ele>49.799999237061</ele>
        <time>2020-02-13T11:12:52.000Z</time>
      </trkpt>
      <trkpt lat="47.26299" lon="-2.3171">
        <ele>49.799999237061</ele>
        <time>2020-02-13T11:12:55.000Z</time>
      </trkpt>
      <trkpt lat="47.26307" lon="-2.31712">
        <ele>49.799999237061</ele>
        <time>2020-02-13T11:12:57.000Z</time>
      </trkpt>
      <trkpt lat="47.26314" lon="-2.31708">
        <ele>49.799999237061</ele>
        <time>2020-02-13T11:12:59.000Z</time>
      </trkpt>
      <trkpt lat="47.2632" lon="-2.31705">
        <ele>49.799999237061</ele>
        <time>2020-02-13T11:13:01.000Z</time>
      </trkpt>
      <trkpt lat="47.26324" lon="-2.31704">
        <ele>49.799999237061</ele>
        <time>2020-02-13T11:13:02.000Z</time>
      </trkpt>
      <trkpt lat="47.26329" lon="-2.31699">
        <ele>49.799999237061</ele>
        <time>2020-02-13T11:13:04.000Z</time>
      </trkpt>
      <trkpt lat="47.2633" lon="-2.31695">
        <ele>49.799999237061</ele>
        <time>2020-02-13T11:13:05.000Z</time>
      </trkpt>
      <trkpt lat="47.26338" lon="-2.31688">
        <ele>49.799999237061</ele>
        <time>2020-02-13T11:13:08.000Z</time>
      </trkpt>
      <trkpt lat="47.26342" lon="-2.31687">
        <ele>49.799999237061</ele>
        <time>2020-02-13T11:13:09.000Z</time>
      </trkpt>
      <trkpt lat="47.26354" lon="-2.31678">
        <ele>49.799999237061</ele>
        <time>2020-02-13T11:13:13.000Z</time>
      </trkpt>
      <trkpt lat="47.26379" lon="-2.31663">
        <ele>49.799999237061</ele>
        <time>2020-02-13T11:13:20.000Z</time>
      </trkpt>
      <trkpt lat="47.26389" lon="-2.31658">
        <ele>50.400001525879</ele>
        <time>2020-02-13T11:13:23.000Z</time>
      </trkpt>
      <trkpt lat="47.26392" lon="-2.31656">
        <ele>50.799999237061</ele>
        <time>2020-02-13T11:13:24.000Z</time>
      </trkpt>
      <trkpt lat="47.26395" lon="-2.31654">
        <ele>51.200000762939</ele>
        <time>2020-02-13T11:13:25.000Z</time>
      </trkpt>
      <trkpt lat="47.26398" lon="-2.31654">
        <ele>51.599998474121</ele>
        <time>2020-02-13T11:13:26.000Z</time>
      </trkpt>
      <trkpt lat="47.26401" lon="-2.31652">
        <ele>52.200000762939</ele>
        <time>2020-02-13T11:13:27.000Z</time>
      </trkpt>
      <trkpt lat="47.26406" lon="-2.31645">
        <ele>52.200000762939</ele>
        <time>2020-02-13T11:13:29.000Z</time>
      </trkpt>
      <trkpt lat="47.26406" lon="-2.31635">
        <ele>52.200000762939</ele>
        <time>2020-02-13T11:13:31.000Z</time>
      </trkpt>
      <trkpt lat="47.26409" lon="-2.31604">
        <ele>52.200000762939</ele>
        <time>2020-02-13T11:13:37.000Z</time>
      </trkpt>
      <trkpt lat="47.26409" lon="-2.31573">
        <ele>52.599998474121</ele>
        <time>2020-02-13T11:13:43.000Z</time>
      </trkpt>
      <trkpt lat="47.26409" lon="-2.31568">
        <ele>53.400001525879</ele>
        <time>2020-02-13T11:13:44.000Z</time>
      </trkpt>
      <trkpt lat="47.26409" lon="-2.31564">
        <ele>53.799999237061</ele>
        <time>2020-02-13T11:13:45.000Z</time>
      </trkpt>
      <trkpt lat="47.26409" lon="-2.31559">
        <ele>54.200000762939</ele>
        <time>2020-02-13T11:13:46.000Z</time>
      </trkpt>
      <trkpt lat="47.26411" lon="-2.31552">
        <ele>54.200000762939</ele>
        <time>2020-02-13T11:13:48.000Z</time>
      </trkpt>
      <trkpt lat="47.26415" lon="-2.31553">
        <ele>54.200000762939</ele>
        <time>2020-02-13T11:13:51.000Z</time>
      </trkpt>
      <trkpt lat="47.26415" lon="-2.31553">
        <ele>54.200000762939</ele>
        <time>2020-02-13T11:13:52.000Z</time>
      </trkpt>
    </trkseg>
  </trk>
</gpx>